# Wetter Temperatur Luftdruck Luftfeuchtigkeit Sichtweite Windgeschwindigkeit Windrichtung Zeit
1 Rain 5 981 80 10000 10.8 210 19:59 02.04.2020
2 Rain 5 981 80 10000 10.8 210 19:59 02.04.2020
3 Rain 5 981 80 10000 10.8 210 19:40 02.04.2020
4 Clouds 5 982 80 10000 10.8 210 19:20 02.04.2020
5 Clouds 5 982 80 10000 11.3 210 18:56 02.04.2020
6 Clouds 5 982 80 10000 11.3 210 18:38 02.04.2020
7 Clouds 5 983 78 10000 10.8 210 18:18 02.04.2020
8 Clouds 5 983 75 10000 10.8 210 17:43 02.04.2020
9 Clouds 5 984 78 10000 10.3 210 17:24 02.04.2020
10 Clouds 6 984 70 10000 10.3 210 16:58 02.04.2020
11 Clouds 6 984 70 10000 10.3 210 16:40 02.04.2020
12 Clouds 6 984 70 10000 10.8 210 16:22 02.04.2020
13 Clouds 6 984 65 10000 8.7 200 15:57 02.04.2020
14 Clouds 6 984 65 10000 8.7 200 15:39 02.04.2020
15 Clouds 6 985 65 10000 10.3 200 15:19 02.04.2020
16 Clouds 6 985 65 10000 7.7 210 14:57 02.04.2020
17 Clouds 6 985 65 10000 7.7 210 14:38 02.04.2020
18 Clouds 7 985 70 10000 8.7 210 14:18 02.04.2020
19 Clouds 7 986 70 10000 8.2 210 13:55 02.04.2020
20 Clouds 7 986 70 10000 8.2 210 13:37 02.04.2020
21 Clouds 7 986 70 10000 8.2 200 13:18 02.04.2020
22 Clouds 7 986 70 10000 8.2 200 12:45 02.04.2020
23 Clouds 6 986 75 10000 7.2 210 12:19 02.04.2020
24 Clouds 6 987 75 10000 6.7 210 11:57 02.04.2020
25 Clouds 6 987 75 10000 6.7 210 11:57 02.04.2020
26 Clouds 6 987 75 10000 6.7 210 11:39 02.04.2020
27 Clouds 6 987 75 10000 4.6 210 11:20 02.04.2020
28 Clouds 5 987 75 10000 4.6 210 11:20 02.04.2020
29 Clouds 5 987 75 10000 4.6 210 10:56 02.04.2020
30 Clouds 5 987 80 10000 5.7 220 10:38 02.04.2020
31 Clouds 5 987 80 10000 5.7 220 10:38 02.04.2020
32 Clouds 5 987 86 10000 6.7 210 10:20 02.04.2020
33 Clouds 5 988 86 10000 6.2 210 09:58 02.04.2020
34 Clouds 5 987 86 10000 6.7 210 09:58 02.04.2020
35 Clouds 5 988 86 10000 6.2 210 09:39 02.04.2020
36 Clouds 5 988 86 10000 5.1 210 09:20 02.04.2020
37 Clouds 4 988 93 10000 5.7 200 08:47 02.04.2020
38 Clouds 4 988 93 10000 5.7 210 08:27 02.04.2020
39 Rain 4 988 93 10000 5.7 210 07:47 02.04.2020
40 Rain 3 989 93 10000 6.2 210 07:22 02.04.2020
41 Rain 3 989 93 10000 6.2 210 06:59 02.04.2020
42 Rain 3 989 93 10000 5.7 210 06:23 02.04.2020
43 Rain 3 990 93 10000 5.7 200 05:45 02.04.2020
44 Rain 3 991 86 10000 4.1 180 04:50 02.04.2020
45 Clouds 0 994 92 10000 2.1 120 02:19 02.04.2020
46 Snow 0 995 92 10000 1.5 230 00:58 02.04.2020
47 Snow 0 995 92 10000 1.5 230 00:36 02.04.2020
48 Clouds 0 996 86 10000 1.5 240 00:18 02.04.2020
49 Clouds 0 996 86 10000 2.6 240 23:38 01.04.2020
50 Clouds 0 996 86 10000 3.1 240 23:18 01.04.2020
51 Clouds 0 996 86 10000 3.1 230 22:41 01.04.2020
52 Clouds 0 997 86 10000 2.6 250 22:22 01.04.2020
53 Clouds 0 997 86 10000 2.6 250 21:58 01.04.2020
54 Clouds 0 997 55 10000 3.6 260 21:39 01.04.2020
55 Clouds 1 997 47 10000 3.1 230 21:19 01.04.2020
56 Clouds 1 997 47 10000 3.1 230 21:19 01.04.2020
57 Clouds 1 997 43 10000 2.6 280 20:56 01.04.2020
58 Clouds 2 997 43 10000 2.6 280 20:38 01.04.2020
59 Clouds 2 997 43 10000 3.6 280 20:18 01.04.2020
60 Clouds 2 997 43 10000 3.6 280 19:55 01.04.2020
61 Clouds 3 997 40 10000 5.7 290 19:37 01.04.2020
62 Clouds 3 997 38 10000 5.7 270 19:19 01.04.2020
63 Clouds 4 996 35 10000 6.2 290 18:41 01.04.2020
64 Clouds 5 996 32 10000 7.2 280 18:21 01.04.2020
65 Clouds 5 996 30 10000 8.2 280 17:56 01.04.2020
66 Clouds 5 996 30 10000 8.2 280 17:37 01.04.2020
67 Clouds 6 996 30 10000 8.2 280 17:18 01.04.2020
68 Clouds 6 996 30 10000 8.2 280 16:55 01.04.2020
69 Clouds 6 996 33 10000 8.2 270 16:36 01.04.2020
70 Clouds 6 996 33 10000 8.7 290 16:18 01.04.2020
71 Clouds 7 996 30 10000 8.7 290 15:42 01.04.2020
72 Clouds 7 996 36 10000 9.3 280 15:22 01.04.2020
73 Clouds 7 996 36 10000 9.3 280 14:58 01.04.2020
74 Clouds 7 996 33 10000 8.2 290 14:39 01.04.2020
75 Clouds 7 996 36 10000 9.3 270 14:20 01.04.2020
76 Clouds 7 996 39 10000 8.7 280 13:58 01.04.2020
77 Clouds 6 996 39 10000 8.7 280 13:38 01.04.2020
78 Clouds 6 996 45 10000 8.2 270 13:19 01.04.2020
79 Clouds 6 996 52 10000 9.3 270 12:56 01.04.2020
80 Clouds 6 996 52 10000 9.3 270 12:37 01.04.2020
81 Clouds 6 996 56 10000 8.2 270 12:18 01.04.2020
82 Clouds 5 996 56 10000 7.2 260 11:54 01.04.2020
83 Clouds 5 996 56 10000 7.2 260 11:36 01.04.2020
84 Clouds 5 996 60 10000 6.7 260 11:18 01.04.2020
85 Clouds 5 996 60 10000 7.7 270 10:38 01.04.2020
86 Clouds 4 996 64 10000 6.7 270 10:20 01.04.2020
87 Clouds 4 996 64 10000 6.7 270 09:58 01.04.2020
88 Clouds 4 996 64 10000 6.7 270 09:39 01.04.2020
89 Clouds 3 996 64 10000 6.2 270 09:19 01.04.2020
90 Clouds 2 997 69 10000 6.2 260 08:43 01.04.2020
91 Clouds 2 997 69 10000 6.2 260 08:18 01.04.2020
92 Clouds 1 997 74 10000 5.1 250 07:48 01.04.2020
93 Clouds 1 997 84 10000 4.6 250 07:22 01.04.2020
94 Clouds 0 997 84 10000 4.1 250 06:58 01.04.2020
95 Clouds 0 997 86 10000 4.6 240 06:27 01.04.2020
96 Clouds 0 997 86 10000 4.6 240 05:59 01.04.2020
97 Clouds 0 998 87 10000 3.6 250 04:36 01.04.2020
98 Clouds 1 998 86 10000 3.6 260 03:33 01.04.2020
99 Clouds 1 998 85 10000 3.1 250 02:57 01.04.2020
100 Clouds 2 999 86 10000 4.1 230 01:59 01.04.2020
101 Clouds 2 999 86 10000 4.1 230 01:40 01.04.2020
102 Clouds 2 999 86 10000 4.1 230 01:40 01.04.2020
103 Rain 2 1000 86 10000 4.6 230 01:20 01.04.2020
104 Rain 2 1000 86 10000 6.2 220 00:46 01.04.2020
105 Snow 2 1001 95 10000 5.7 220 00:21 01.04.2020
106 Snow 1 1001 95 10000 4.6 230 23:48 31.03.2020
107 Clouds 1 1002 95 10000 6.7 220 23:28 31.03.2020
108 Snow 1 1003 95 7000 6.7 220 22:59 31.03.2020
109 Snow 1 1004 95 4000 6.7 220 22:37 31.03.2020
110 Snow 1 1004 95 4000 6.7 220 22:19 31.03.2020
111 Snow 1 1004 95 5000 6.7 220 21:57 31.03.2020
112 Snow 1 1005 95 4000 7.7 230 21:39 31.03.2020
113 Snow 1 1005 84 4000 7.7 230 21:20 31.03.2020
114 Snow 1 1005 84 4000 7.7 230 20:55 31.03.2020
115 Clouds 1 1006 69 10000 8.7 220 20:37 31.03.2020
116 Clouds 1 1006 69 10000 8.7 220 20:18 31.03.2020
117 Clouds 1 1007 84 10000 9.3 220 19:42 31.03.2020
118 Clouds 0 1008 84 10000 8.7 220 19:24 31.03.2020
119 Clouds 0 1008 84 10000 8.7 220 18:59 31.03.2020
120 Clouds 0 1008 84 10000 8.7 220 18:59 31.03.2020
121 Clouds 0 1008 84 10000 10.8 220 18:40 31.03.2020
122 Clouds 0 1009 94 10000 10.3 220 18:19 31.03.2020
123 Snow 0 1010 94 10000 9.3 220 17:55 31.03.2020
124 Snow 0 1010 94 10000 9.3 220 17:37 31.03.2020
125 Snow 0 1011 74 9000 9.8 230 17:19 31.03.2020
126 Snow 0 1012 74 9000 9.8 230 16:41 31.03.2020
127 Snow 0 1012 94 10000 10.8 230 16:20 31.03.2020
128 Snow 0 1012 94 10000 10.8 230 15:58 31.03.2020
129 Clouds 1 1013 47 10000 10.3 240 15:40 31.03.2020
130 Clouds 1 1013 47 10000 10.3 240 15:22 31.03.2020
131 Clouds 1 1014 37 10000 9.8 230 14:57 31.03.2020
132 Clouds 1 1014 37 10000 9.8 230 14:39 31.03.2020
133 Clouds 1 1015 40 10000 10.3 220 14:20 31.03.2020
134 Clouds 2 1016 43 10000 8.2 240 13:43 31.03.2020
135 Clouds 2 1017 43 10000 8.2 240 13:20 31.03.2020
136 Clouds 1 1017 47 10000 8.7 230 12:57 31.03.2020
137 Clouds 1 1017 47 10000 8.7 230 12:39 31.03.2020
138 Clouds 2 1018 43 10000 8.2 240 12:19 31.03.2020
139 Clouds 1 1019 37 10000 9.3 240 11:40 31.03.2020
140 Clouds 1 1020 34 10000 8.2 240 11:20 31.03.2020
141 Clouds 1 1020 34 10000 8.2 240 10:58 31.03.2020
142 Clouds 1 1020 34 10000 8.2 240 10:58 31.03.2020
143 Clouds 1 1021 37 10000 8.2 250 10:40 31.03.2020
144 Clouds 1 1021 40 10000 5.7 240 10:21 31.03.2020
145 Clouds 0 1021 81 10000 5.1 230 09:57 31.03.2020
146 Clouds 0 1021 81 10000 5.1 230 09:39 31.03.2020
147 Clear 0 1022 58 10000 5.1 230 09:21 31.03.2020
148 Clear -1 1022 63 10000 3.1 230 08:57 31.03.2020
149 Clear -2 1022 63 10000 3.1 230 08:38 31.03.2020
150 Clear -2 1023 73 10000 2.1 220 08:19 31.03.2020
151 Clear -5 1023 85 10000 1.5 220 07:56 31.03.2020
152 Clear -5 1023 85 10000 1.5 220 07:37 31.03.2020
153 Clear -5 1024 78 0 0.45 295 07:18 31.03.2020
154 Clear -7 1023 92 10000 1 250 06:43 31.03.2020
155 Clear -7 1024 92 10000 2.24 301 05:59 31.03.2020
156 Clear -7 1024 92 10000 2.24 301 05:39 31.03.2020
157 Clear -7 1025 85 10000 1 310 03:34 31.03.2020
158 Clear -6 1025 85 10000 1.5 300 01:54 31.03.2020
159 Clear -5 1025 79 10000 1.5 330 01:34 31.03.2020
160 Clear -5 1025 79 10000 1 340 00:46 31.03.2020
161 Clouds -5 1025 73 10000 1 300 00:25 31.03.2020
162 Clouds -5 1025 79 10000 0.5 360 23:41 30.03.2020
163 Clouds -5 1025 85 10000 1 340 23:20 30.03.2020
164 Clouds -4 1025 85 10000 1 340 22:58 30.03.2020
165 Clouds -4 1025 68 10000 1.5 350 22:39 30.03.2020
166 Clouds -4 1024 68 10000 2.1 360 22:20 30.03.2020
167 Clouds -3 1024 68 10000 2.1 360 21:58 30.03.2020
168 Clouds -3 1024 63 10000 1.5 40 21:39 30.03.2020
169 Clouds -3 1024 63 10000 1.5 40 21:39 30.03.2020
170 Clouds -3 1024 73 10000 2.6 330 21:20 30.03.2020
171 Clouds -3 1024 73 10000 1 10 20:59 30.03.2020
172 Clouds -3 1024 73 10000 1 10 20:39 30.03.2020
173 Clouds -2 1023 68 10000 1.74 69 20:20 30.03.2020
174 Clouds -3 1023 68 10000 1.74 69 20:20 30.03.2020
175 Clouds -2 1023 58 10000 1 0 19:56 30.03.2020
176 Clouds -1 1023 58 10000 1 0 19:38 30.03.2020
177 Clouds -1 1023 58 10000 1 0 19:38 30.03.2020
178 Clouds -1 1023 58 10000 2.6 320 19:20 30.03.2020
179 Rain 0 1022 58 10000 2.1 310 18:43 30.03.2020
180 Rain 0 1022 73 10000 1.5 0 18:25 30.03.2020
181 Rain 0 1022 43 10000 2.1 360 17:58 30.03.2020
182 Rain 1 1022 43 10000 2.1 360 17:39 30.03.2020
183 Rain 1 1022 40 10000 2.1 0 17:20 30.03.2020
184 Rain 1 1022 40 10000 2.1 0 16:58 30.03.2020
185 Rain 1 1022 37 10000 1 0 16:39 30.03.2020
186 Rain 1 1022 73 10000 3.1 80 16:20 30.03.2020
187 -273 0 0 0 0 0 16:20 30.03.2020
188 -273 0 0 0 0 0 16:20 30.03.2020
189 Rain 1 1022 43 10000 2.6 0 15:55 30.03.2020
190 Rain 1 1022 43 10000 2.6 0 15:37 30.03.2020
191 Rain 1 1021 43 10000 2.6 170 15:19 30.03.2020
192 Rain 1 1021 43 10000 2.6 170 15:19 30.03.2020
193 Snow 1 1021 72 10000 1.5 0 14:55 30.03.2020
194 Snow 1 1021 72 10000 1.5 0 14:37 30.03.2020
195 Clouds 1 1022 46 0 3.88 84 14:18 30.03.2020
196 Rain 1 1021 73 10000 3.6 50 13:55 30.03.2020
197 Rain 1 1021 73 10000 3.6 50 13:55 30.03.2020
198 Rain 1 1021 73 10000 3.6 50 13:37 30.03.2020
199 Rain 1 1021 34 10000 2.6 110 13:18 30.03.2020
200 Rain 1 1020 34 10000 4.1 80 12:43 30.03.2020
201 Clouds 1 1020 77 10000 2.6 80 12:20 30.03.2020
202 Clouds 1 1020 77 10000 2.6 80 11:57 30.03.2020
203 Clouds 1 1020 77 10000 3.1 40 11:39 30.03.2020
204 Clouds 0 1020 77 10000 2.1 30 11:21 30.03.2020
205 Clouds 0 1020 50 10000 3.1 20 10:41 30.03.2020
206 Clouds 0 1020 50 10000 3.1 20 10:22 30.03.2020
207 Clouds -1 1020 50 10000 2.1 350 09:58 30.03.2020
208 Clouds -1 1019 50 10000 2.6 10 09:39 30.03.2020
209 Clouds -1 1019 50 10000 3.1 350 09:19 30.03.2020
210 Clouds -2 1019 58 10000 3.6 360 08:43 30.03.2020
211 Clouds -2 1019 58 10000 3.1 350 08:23 30.03.2020
212 Clouds -2 1019 63 10000 2.6 350 07:53 30.03.2020
213 Clouds -3 1019 63 10000 2.6 350 07:34 30.03.2020
214 Clouds -3 1019 68 10000 2.6 350 06:57 30.03.2020
215 Clouds -3 1019 68 10000 2.6 350 06:33 30.03.2020
216 Clouds -4 1018 68 10000 1.5 300 05:55 30.03.2020
217 Clouds -4 1018 68 10000 1.5 300 05:33 30.03.2020
218 Clouds -4 1018 68 10000 2.6 280 04:24 30.03.2020
219 Clouds -4 1018 79 10000 2.1 280 03:44 30.03.2020
220 Clouds -4 1018 79 10000 0.5 0 02:42 30.03.2020
221 Clouds -4 1019 67 10000 1.5 310 01:48 30.03.2020
222 Clouds -4 1019 73 10000 2.1 280 00:55 30.03.2020
223 Clouds -4 1019 73 10000 1.5 300 00:24 30.03.2020
224 Clouds -4 1019 67 10000 2.6 290 23:43 29.03.2020
225 Clouds -4 1019 67 10000 3.6 290 23:24 29.03.2020
226 Clouds -3 1019 67 10000 3.6 290 22:59 29.03.2020
227 Clouds -3 1019 68 10000 3.1 280 22:39 29.03.2020
228 Clouds -3 1019 68 10000 2.6 280 22:19 29.03.2020
229 Clouds -3 1019 68 10000 2.6 280 21:57 29.03.2020
230 Clouds -3 1019 68 10000 2.6 280 21:36 29.03.2020
231 Clouds -2 1019 68 10000 2.1 270 21:18 29.03.2020
232 Clouds -2 1019 68 10000 2.6 280 20:55 29.03.2020
233 Clouds -3 1019 68 10000 2.6 280 20:36 29.03.2020
234 Clouds -2 1019 58 10000 2.6 280 20:18 29.03.2020
235 Clouds -2 1019 58 10000 2.6 310 19:42 29.03.2020
236 Rain -1 1019 50 10000 3.6 350 19:24 29.03.2020
237 Rain 0 1019 58 10000 7.7 320 18:58 29.03.2020
238 Rain 0 1019 58 10000 7.7 320 18:40 29.03.2020
239 Rain 0 1019 40 10000 5.1 290 18:21 29.03.2020
240 Rain 1 1019 37 10000 4.6 300 17:59 29.03.2020
241 Rain 1 1019 37 10000 4.6 300 17:41 29.03.2020
242 Rain 1 1019 31 10000 4.6 320 17:22 29.03.2020
243 Rain 1 1019 31 10000 4.6 320 17:22 29.03.2020
244 Rain 1 1019 29 10000 5.1 280 16:58 29.03.2020
245 Rain 1 1019 29 10000 5.1 280 16:39 29.03.2020
246 Rain 2 1019 26 10000 6.2 300 16:20 29.03.2020
247 Rain 1 1019 26 10000 6.2 300 15:56 29.03.2020
248 Rain 2 1019 22 10000 5.1 310 15:37 29.03.2020
249 Rain 2 1020 24 10000 4.1 300 15:19 29.03.2020
250 Rain 2 1020 24 10000 5.7 320 14:55 29.03.2020
251 Rain 2 1020 24 10000 5.7 320 14:36 29.03.2020
252 Clouds 2 1020 24 10000 7.7 300 14:18 29.03.2020
253 Clouds 2 1020 24 10000 4.6 350 13:41 29.03.2020
254 Clouds 2 1021 26 10000 5.1 340 13:22 29.03.2020
255 Clouds 2 1021 27 10000 5.7 340 12:58 29.03.2020
256 Clouds 2 1021 27 10000 5.7 340 12:39 29.03.2020
257 Clear 2 1021 29 10000 5.7 330 12:19 29.03.2020
258 Clear 1 1021 29 10000 5.7 330 11:58 29.03.2020
259 Clear 1 1021 34 10000 5.1 340 11:37 29.03.2020
260 Clear 1 1021 34 10000 5.7 320 11:19 29.03.2020
261 Clear 1 1021 74 10000 6.7 320 10:39 29.03.2020
262 Clear 0 1021 74 10000 6.2 340 10:20 29.03.2020
263 Clear 0 1022 46 10000 5.1 340 09:56 29.03.2020
264 Clear 0 1022 46 10000 5.1 340 09:56 29.03.2020
265 Clear 0 1022 46 10000 5.1 340 09:37 29.03.2020
266 Clouds 0 1022 50 10000 5.7 330 09:18 29.03.2020
267 Clouds -1 1022 50 10000 5.1 340 08:43 29.03.2020
268 Clouds -1 1022 54 10000 5.1 320 08:24 29.03.2020
269 Clouds -2 1022 54 10000 3.6 320 07:47 29.03.2020
270 Clouds -2 1022 58 10000 2.6 320 07:23 29.03.2020
271 Clouds -3 1021 53 10000 3.1 330 05:59 29.03.2020
272 Clouds -2 1021 50 10000 3.6 330 04:56 29.03.2020
273 Clouds -1 1021 42 10000 4.1 350 03:41 29.03.2020
274 Clouds 0 1020 84 10000 4.1 340 01:57 29.03.2020
275 Clouds 0 1020 84 10000 4.1 340 01:39 29.03.2020
276 Clouds 0 1020 85 10000 4.1 340 01:20 29.03.2020
277 Clouds 0 1020 85 10000 3.1 330 00:40 29.03.2020
278 Clouds 1 1020 85 10000 2.6 340 00:18 29.03.2020
279 Clouds 1 1019 40 10000 3.6 330 23:40 28.03.2020
280 Clouds 1 1019 40 10000 4.1 330 23:22 28.03.2020
281 Clouds 1 1019 40 10000 3.6 340 22:43 28.03.2020
282 Clouds 2 1018 37 10000 4.6 340 22:22 28.03.2020
283 Clouds 2 1018 40 10000 5.7 340 21:57 28.03.2020
284 Clouds 2 1018 40 10000 5.7 340 21:39 28.03.2020
285 Clouds 3 1018 47 10000 4.6 340 21:19 28.03.2020
286 Clouds 3 1018 47 10000 4.6 330 20:56 28.03.2020
287 Clouds 3 1018 47 10000 4.6 330 20:37 28.03.2020
288 Clouds 3 1018 47 10000 3.6 330 20:19 28.03.2020
289 Clouds 3 1017 44 10000 4.1 330 19:55 28.03.2020
290 Clouds 4 1017 44 10000 4.1 330 19:36 28.03.2020
291 Clouds 4 1017 41 10000 5.1 340 19:18 28.03.2020
292 Clouds 5 1016 38 10000 6.2 330 18:39 28.03.2020
293 Clouds 5 1016 38 10000 6.2 340 18:20 28.03.2020
294 Clouds 6 1016 38 10000 5.1 330 17:41 28.03.2020
295 Clouds 7 1015 39 10000 6.7 330 17:22 28.03.2020
296 Clouds 7 1015 42 10000 6.2 330 16:59 28.03.2020
297 Clouds 8 1015 42 10000 6.2 330 16:38 28.03.2020
298 Clouds 8 1015 39 10000 4.6 300 16:18 28.03.2020
299 Rain 9 1015 49 10000 1.5 230 15:40 28.03.2020
300 Rain 9 1015 68 10000 1.5 330 15:19 28.03.2020
301 Rain 9 1015 68 10000 1.5 330 14:57 28.03.2020
302 Rain 9 1015 68 10000 4.1 310 14:39 28.03.2020
303 Rain 9 1015 45 10000 5.1 310 14:20 28.03.2020
304 Clouds 10 1015 43 10000 3.1 250 13:42 28.03.2020
305 Clouds 10 1016 46 10000 4.6 280 13:23 28.03.2020
306 Clouds 9 1016 43 10000 4.1 280 12:41 28.03.2020
307 Clouds 10 1016 49 10000 4.6 280 12:22 28.03.2020
308 Clouds 9 1016 77 10000 4.1 270 11:43 28.03.2020
309 Clouds 9 1016 57 10000 4.1 280 11:24 28.03.2020
310 Clouds 9 1016 82 10000 4.1 260 10:58 28.03.2020
311 Clouds 8 1016 82 10000 4.1 260 10:38 28.03.2020
312 Clouds 7 1016 56 10000 3.6 230 10:18 28.03.2020
313 Clouds 7 1016 56 10000 4.1 210 09:43 28.03.2020
314 Clouds 6 1016 56 10000 3.1 210 09:23 28.03.2020
315 Clouds 6 1016 60 10000 3.1 210 08:55 28.03.2020
316 Clouds 5 1016 60 10000 3.1 210 08:37 28.03.2020
317 Clouds 5 1017 64 10000 2.6 240 08:18 28.03.2020
318 Clouds 4 1017 64 10000 3.1 230 07:42 28.03.2020
319 Clouds 3 1017 74 10000 2.6 240 06:58 28.03.2020
320 Clouds 2 1017 74 10000 2.6 240 06:35 28.03.2020
321 Clouds 1 1018 64 10000 1.5 220 05:42 28.03.2020
322 Clouds 1 1018 64 10000 2.1 240 05:21 28.03.2020
323 Clouds 2 1018 59 10000 2.6 240 04:40 28.03.2020
324 Clouds 2 1019 69 10000 3.1 210 03:34 28.03.2020
325 Clouds 2 1021 69 10000 2.6 230 01:53 28.03.2020
326 Clouds 2 1021 69 10000 2.6 230 01:25 28.03.2020
327 Clouds 3 1021 64 10000 2.6 210 00:56 28.03.2020
328 Clouds 3 1021 64 10000 2.6 210 00:35 28.03.2020
329 Clouds 3 1022 64 10000 2.6 220 23:54 27.03.2020
330 Clouds 3 1022 64 10000 2.6 220 23:36 27.03.2020
331 Clouds 3 1023 64 10000 3.6 200 23:18 27.03.2020
332 Clouds 3 1023 60 10000 3.6 200 22:54 27.03.2020
333 Clouds 3 1023 60 10000 3.6 200 22:36 27.03.2020
334 Clouds 3 1024 55 10000 2.6 200 22:18 27.03.2020
335 Clouds 3 1024 59 10000 2.1 200 21:42 27.03.2020
336 Clouds 3 1024 55 10000 2.6 200 21:23 27.03.2020
337 Clouds 3 1024 55 10000 2.6 200 20:58 27.03.2020
338 Clouds 3 1024 48 10000 3.1 190 20:58 27.03.2020
339 Clouds 3 1024 48 10000 3.1 190 20:39 27.03.2020
340 Clouds 3 1025 48 10000 2.1 200 20:20 27.03.2020
341 Clouds 4 1025 48 10000 2.1 200 19:56 27.03.2020
342 Clouds 4 1025 48 10000 3.1 210 19:38 27.03.2020
343 Clouds 4 1025 48 10000 3.1 220 19:19 27.03.2020
344 Clouds 5 1026 41 10000 3.6 210 18:43 27.03.2020
345 Clouds 5 1026 38 10000 4.1 210 18:23 27.03.2020
346 Clouds 6 1026 41 10000 4.6 210 17:55 27.03.2020
347 Clouds 6 1026 41 10000 4.6 210 17:37 27.03.2020
348 Clouds 6 1026 42 10000 4.1 210 17:19 27.03.2020
349 Clouds 6 1027 45 10000 4.1 200 16:44 27.03.2020
350 Clouds 7 1027 42 10000 4.6 200 16:25 27.03.2020
351 Clouds 7 1027 42 10000 4.6 200 16:25 27.03.2020
352 Clouds 7 1028 42 10000 4.6 210 15:45 27.03.2020
353 Clouds 8 1028 42 10000 5.1 220 15:26 27.03.2020
354 Clouds 8 1028 45 10000 5.7 210 14:56 27.03.2020
355 Clouds 8 1028 45 10000 5.7 210 14:37 27.03.2020
356 Clouds 8 1029 51 0 5.93 235 14:18 27.03.2020
357 Clouds 8 1029 45 10000 6.2 220 13:43 27.03.2020
358 Clouds 8 1029 39 10000 6.2 210 13:22 27.03.2020
359 Clouds 8 1030 42 10000 6.2 220 12:59 27.03.2020
360 Clouds 7 1030 42 10000 6.2 220 12:39 27.03.2020
361 Clouds 7 1030 39 10000 6.7 220 12:19 27.03.2020
362 Clouds 7 1030 42 10000 6.7 220 11:42 27.03.2020
363 Clouds 7 1030 48 10000 6.2 200 11:24 27.03.2020
364 Clouds 7 1030 49 10000 6.2 200 10:56 27.03.2020
365 Clouds 7 1030 49 10000 6.2 200 10:38 27.03.2020
366 Clouds 6 1030 56 10000 5.1 190 10:20 27.03.2020
367 Clouds 6 1030 60 10000 4.1 210 09:58 27.03.2020
368 Clouds 6 1030 60 10000 4.1 210 09:38 27.03.2020
369 Clouds 5 1030 60 10000 5.1 210 09:20 27.03.2020
370 Clouds 5 1031 71 10000 5.7 210 08:57 27.03.2020
371 Clouds 5 1031 71 10000 5.7 210 08:38 27.03.2020
372 Clouds 4 1031 80 10000 5.1 220 08:20 27.03.2020
373 Clouds 3 1031 86 10000 3.6 210 07:52 27.03.2020
374 Clouds 3 1031 93 8000 3.1 210 07:26 27.03.2020
375 Clouds 1 1031 80 7000 2.1 220 06:55 27.03.2020
376 Clouds 1 1031 80 7000 2.1 220 06:37 27.03.2020
377 Clouds -1 1030 92 10000 3.1 200 05:28 27.03.2020
378 Clear -1 1031 92 10000 2.6 220 02:46 27.03.2020
379 Clouds 0 1031 92 10000 3.1 210 01:23 27.03.2020
380 Clouds 0 1031 86 10000 4.1 210 00:51 27.03.2020
381 Clouds 0 1031 86 10000 3.1 220 00:31 27.03.2020
382 Clouds 1 1031 86 10000 3.1 230 23:44 26.03.2020
383 Clouds 1 1031 83 10000 2.6 230 23:23 26.03.2020
384 Clouds 1 1031 80 10000 2.6 240 22:59 26.03.2020
385 Clouds 1 1031 80 10000 2.6 240 22:38 26.03.2020
386 Clouds 1 1031 86 10000 2.6 240 22:20 26.03.2020
387 Clouds 1 1031 86 10000 2.6 240 22:20 26.03.2020
388 Clouds 1 1031 86 10000 2.6 240 21:57 26.03.2020
389 Clouds 2 1031 74 10000 4.1 230 21:38 26.03.2020
390 Clouds 2 1031 80 10000 4.6 220 21:20 26.03.2020
391 Clouds 2 1030 80 10000 4.6 220 20:57 26.03.2020
392 Clouds 3 1030 80 10000 4.6 220 20:38 26.03.2020
393 Clouds 3 1030 74 10000 4.6 220 20:20 26.03.2020
394 Clouds 3 1030 79 10000 5.1 220 19:54 26.03.2020
395 Clouds 3 1030 79 10000 5.1 220 19:36 26.03.2020
396 Clouds 3 1030 79 10000 5.1 220 19:18 26.03.2020
397 Clouds 4 1029 69 10000 5.7 210 18:41 26.03.2020
398 Clouds 4 1029 65 10000 5.1 210 18:23 26.03.2020
399 Clouds 4 1029 65 10000 5.1 210 18:23 26.03.2020
400 Clouds 5 1029 60 10000 6.2 220 17:56 26.03.2020
401 Clouds 5 1029 60 10000 6.2 220 17:37 26.03.2020
402 Clear 6 1029 56 10000 6.2 220 17:18 26.03.2020
403 Clear 7 1029 49 10000 8.2 220 16:44 26.03.2020
404 Clear 7 1029 45 10000 7.7 220 16:26 26.03.2020
405 Clear 8 1029 45 10000 8.7 220 15:58 26.03.2020
406 Clear 8 1029 45 10000 8.7 220 15:39 26.03.2020
407 Clear 8 1029 49 10000 8.2 220 15:20 26.03.2020
408 Clouds 8 1029 57 10000 9.3 200 14:57 26.03.2020
409 Clouds 8 1029 57 10000 9.3 200 14:37 26.03.2020
410 Clouds 9 1029 57 10000 7.7 210 14:18 26.03.2020
411 Clouds 9 1028 57 10000 7.7 220 13:41 26.03.2020
412 Clouds 9 1028 53 10000 6.7 210 13:22 26.03.2020
413 Clouds 9 1028 50 10000 6.2 210 12:55 26.03.2020
414 Clouds 9 1028 50 10000 6.2 210 12:37 26.03.2020
415 Clouds 9 1028 76 10000 6.2 220 12:18 26.03.2020
416 Clouds 9 1028 76 10000 7.2 210 11:44 26.03.2020
417 Clouds 8 1028 46 10000 6.2 210 11:20 26.03.2020
418 Clouds 8 1028 49 10000 6.2 220 10:55 26.03.2020
419 Clouds 7 1028 49 10000 6.2 220 10:36 26.03.2020
420 Clouds 8 1028 49 10000 5.1 220 10:18 26.03.2020
421 Clouds 7 1028 52 10000 5.1 210 09:42 26.03.2020
422 Clouds 6 1028 52 10000 4.6 210 09:19 26.03.2020
423 Clouds 6 1028 60 10000 5.1 230 08:44 26.03.2020
424 Clouds 6 1028 60 10000 5.1 230 08:26 26.03.2020
425 Clouds 4 1028 69 10000 3.6 240 07:57 26.03.2020
426 Clouds 5 1028 65 10000 4.6 230 07:57 26.03.2020
427 Clouds 4 1028 69 10000 3.6 240 07:38 26.03.2020
428 Clouds 4 1028 74 10000 3.6 250 07:19 26.03.2020
429 Clouds 3 1027 74 10000 3.6 240 06:35 26.03.2020
430 Clouds 3 1027 74 10000 4.1 230 05:51 26.03.2020
431 Clouds 2 1026 74 10000 3.6 230 03:47 26.03.2020
432 Clouds 3 1026 74 10000 4.1 230 03:18 26.03.2020
433 Clouds 3 1026 69 10000 4.1 230 02:50 26.03.2020
434 Clouds 3 1025 74 10000 4.1 210 01:19 26.03.2020
435 Clouds 3 1025 69 10000 3.6 220 00:33 26.03.2020
436 Clouds 4 1025 64 10000 3.6 230 23:44 25.03.2020
437 Clouds 4 1025 64 10000 4.1 230 23:26 25.03.2020
438 Clouds 4 1025 64 10000 4.6 230 22:55 25.03.2020
439 Clouds 4 1025 64 10000 4.6 230 22:37 25.03.2020
440 Clouds 4 1024 64 10000 4.6 230 22:18 25.03.2020
441 Clouds 4 1024 64 10000 5.7 230 21:43 25.03.2020
442 Clouds 4 1024 60 10000 5.7 230 21:24 25.03.2020
443 Clouds 4 1024 60 10000 5.7 230 20:59 25.03.2020
444 Clouds 4 1024 60 10000 5.1 230 20:39 25.03.2020
445 Clouds 4 1024 60 10000 5.1 230 20:19 25.03.2020
446 Clouds 4 1024 60 10000 5.1 230 19:55 25.03.2020
447 Clouds 4 1024 60 10000 5.1 230 19:37 25.03.2020
448 Clouds 4 1024 56 10000 5.7 230 19:18 25.03.2020
449 Clouds 5 1024 56 10000 6.2 230 18:43 25.03.2020
450 Clouds 5 1023 56 10000 7.7 230 18:25 25.03.2020
451 Clouds 5 1023 56 10000 8.7 230 17:58 25.03.2020
452 Clouds 6 1023 56 10000 8.7 230 17:40 25.03.2020
453 Clouds 5 1023 56 10000 9.3 220 17:21 25.03.2020
454 Clouds 6 1024 64 0 12.64 247 16:56 25.03.2020
455 Clouds 6 1022 52 10000 9.3 220 16:38 25.03.2020
456 Clouds 6 1023 52 10000 10.3 220 16:20 25.03.2020
457 Clouds 7 1022 52 10000 8.2 210 15:42 25.03.2020
458 Clouds 7 1023 52 10000 8.7 220 15:20 25.03.2020
459 Clouds 8 1023 49 10000 9.3 220 14:57 25.03.2020
460 Clouds 8 1023 49 10000 9.3 220 14:39 25.03.2020
461 Clouds 8 1023 49 10000 9.3 220 14:39 25.03.2020
462 Clouds 7 1023 69 10000 8.7 220 14:19 25.03.2020
463 Clouds 8 1023 49 10000 9.3 220 13:44 25.03.2020
464 Clouds 8 1023 69 10000 9.3 210 13:24 25.03.2020
465 Clouds 7 1023 69 10000 9.8 210 12:39 25.03.2020
466 Clouds 7 1023 69 10000 9.8 210 12:39 25.03.2020
467 Clouds 7 1023 69 10000 10.3 220 12:21 25.03.2020
468 Clouds 8 1023 49 10000 9.8 220 11:57 25.03.2020
469 Clouds 7 1023 49 10000 9.8 220 11:39 25.03.2020
470 Clouds 7 1023 45 10000 10.8 220 11:20 25.03.2020
471 Clouds 7 1023 45 10000 10.8 220 11:20 25.03.2020
472 Clouds 7 1022 45 10000 11.3 220 10:58 25.03.2020
473 Clouds 8 1022 45 10000 11.3 220 10:39 25.03.2020
474 Clouds 8 1022 45 10000 11.3 220 10:39 25.03.2020
475 Clouds 7 1023 42 10000 10.8 220 10:18 25.03.2020
476 Clouds 7 1023 42 10000 9.8 220 09:43 25.03.2020
477 Clouds 7 1023 45 10000 9.8 220 09:25 25.03.2020
478 Clouds 7 1023 45 10000 9.8 220 08:58 25.03.2020
479 Clouds 7 1023 45 10000 9.8 230 08:40 25.03.2020
480 Clouds 6 1023 52 10000 8.2 230 08:20 25.03.2020
481 Clouds 6 1023 52 10000 8.2 230 07:55 25.03.2020
482 Clouds 5 1023 56 10000 9.3 230 07:36 25.03.2020
483 Clouds 5 1023 65 10000 8.7 220 07:18 25.03.2020
484 Clouds 4 1023 69 10000 8.7 220 06:41 25.03.2020
485 Clouds 4 1023 69 10000 7.7 220 06:22 25.03.2020
486 Clouds 3 1023 74 10000 6.7 210 05:47 25.03.2020
487 Clouds 3 1023 74 10000 7.2 210 04:42 25.03.2020
488 Clouds 3 1023 78 10000 7.2 210 03:57 25.03.2020
489 Clouds 3 1023 78 10000 7.2 210 03:30 25.03.2020
490 Clouds 3 1024 78 10000 6.7 210 01:40 25.03.2020
491 Clouds 3 1024 77 10000 7.2 210 00:50 25.03.2020
492 Clouds 3 1025 74 10000 6.7 210 00:27 25.03.2020
493 Clouds 3 1025 74 10000 6.7 210 23:54 24.03.2020
494 Clouds 3 1025 74 10000 6.2 220 23:28 24.03.2020
495 Clouds 3 1025 69 10000 7.2 220 22:58 24.03.2020
496 Clouds 3 1025 69 10000 7.2 220 22:38 24.03.2020
497 Clouds 3 1025 69 10000 8.2 220 22:20 24.03.2020
498 Clouds 3 1025 69 10000 8.2 220 21:57 24.03.2020
499 Clouds 3 1026 69 10000 7.7 220 21:39 24.03.2020
500 Clouds 3 1026 69 10000 6.7 220 21:18 24.03.2020
501 Clouds 3 1026 69 10000 7.2 230 20:57 24.03.2020
502 Clouds 3 1026 69 10000 7.2 230 20:39 24.03.2020
503 Clouds 3 1026 69 10000 7.2 220 20:21 24.03.2020
504 Clouds 3 1026 69 10000 7.2 220 19:45 24.03.2020
505 Clouds 3 1026 74 10000 7.7 220 19:20 24.03.2020
506 Clouds 3 1026 74 10000 7.7 220 18:56 24.03.2020
507 Clouds 3 1027 74 10000 7.7 220 18:37 24.03.2020
508 Clouds 3 1027 74 10000 8.7 220 18:19 24.03.2020
509 Clouds 3 1027 74 10000 9.3 220 17:56 24.03.2020
510 Clouds 3 1027 74 10000 9.3 220 17:37 24.03.2020
511 Clouds 4 1027 69 10000 9.3 210 17:19 24.03.2020
512 Clouds 4 1027 69 10000 9.3 210 16:42 24.03.2020
513 Clouds 4 1027 69 10000 9.3 210 16:24 24.03.2020
514 Clouds 4 1027 69 10000 8.7 220 15:59 24.03.2020
515 Clouds 5 1027 65 10000 8.7 220 15:40 24.03.2020
516 Clouds 5 1028 60 10000 8.7 220 15:22 24.03.2020
517 Clouds 5 1027 60 10000 8.7 210 14:43 24.03.2020
518 Clouds 6 1028 60 10000 8.2 210 14:22 24.03.2020
519 Clouds 5 1027 56 10000 8.7 210 13:56 24.03.2020
520 Clouds 6 1027 56 10000 8.7 210 13:38 24.03.2020
521 Clouds 6 1028 76 10000 8.2 210 13:20 24.03.2020
522 Clouds 6 1028 42 10000 9.8 230 12:42 24.03.2020
523 Clouds 7 1028 42 10000 9.8 230 12:23 24.03.2020
524 Clouds 6 1028 49 10000 8.7 230 11:41 24.03.2020
525 Clouds 6 1028 52 10000 9.3 230 11:20 24.03.2020
526 Clouds 5 1028 52 10000 8.2 230 10:57 24.03.2020
527 Clouds 5 1028 52 10000 8.2 230 10:57 24.03.2020
528 Clouds 5 1028 52 10000 8.2 230 10:38 24.03.2020
529 Clouds 5 1028 56 10000 7.2 230 10:18 24.03.2020
530 Clouds 5 1029 60 10000 8.7 230 09:43 24.03.2020
531 Clouds 4 1029 69 10000 9.3 230 09:25 24.03.2020
532 Clouds 4 1029 74 10000 6.7 230 08:40 24.03.2020
533 Clouds 3 1029 74 10000 7.7 230 08:21 24.03.2020
534 Clouds 3 1029 74 10000 7.7 230 07:59 24.03.2020
535 Clouds 3 1029 74 10000 9.3 220 07:41 24.03.2020
536 Clouds 3 1029 74 10000 7.7 230 07:21 24.03.2020
537 Clouds 2 1030 74 10000 7.7 220 06:35 24.03.2020
538 Clouds 2 1030 80 10000 7.7 210 05:42 24.03.2020
539 Clouds 2 1030 80 10000 7.7 210 04:51 24.03.2020
540 Clouds 2 1031 80 10000 6.7 210 03:21 24.03.2020
541 Clouds 2 1032 74 10000 7.2 210 02:37 24.03.2020
542 Clouds 2 1032 80 10000 6.2 210 00:54 24.03.2020
543 Clouds 2 1033 80 10000 6.2 200 00:27 24.03.2020
544 Clouds 2 1033 80 10000 6.7 200 23:55 23.03.2020
545 Clouds 2 1033 80 10000 6.7 200 23:37 23.03.2020
546 Clouds 2 1033 80 10000 6.7 210 23:19 23.03.2020
547 Clouds 2 1033 74 10000 5.7 200 22:43 23.03.2020
548 Clouds 2 1033 74 10000 6.7 200 22:22 23.03.2020
549 Clouds 2 1034 74 10000 6.7 200 21:55 23.03.2020
550 Clouds 2 1034 74 10000 6.7 200 21:37 23.03.2020
551 Clouds 2 1034 80 10000 6.2 200 21:18 23.03.2020
552 Clouds 2 1034 74 10000 7.2 210 20:42 23.03.2020
553 Clouds 2 1034 74 10000 6.2 210 20:24 23.03.2020
554 Clouds 2 1034 74 10000 6.2 210 19:55 23.03.2020
555 Clouds 2 1034 74 10000 6.2 210 19:37 23.03.2020
556 Clouds 2 1035 80 10000 5.7 210 19:19 23.03.2020
557 Clouds 2 1035 74 10000 6.7 210 18:43 23.03.2020
558 Clouds 2 1035 74 10000 8.2 210 18:24 23.03.2020
559 Clouds 2 1035 74 10000 7.2 210 17:59 23.03.2020
560 Clouds 2 1035 74 10000 7.2 210 17:40 23.03.2020
561 Clouds 2 1035 69 10000 7.2 220 17:19 23.03.2020
562 Clouds 3 1035 64 10000 8.7 210 16:43 23.03.2020
563 Clouds 3 1035 64 10000 8.7 210 16:25 23.03.2020
564 Clouds 3 1036 64 10000 9.8 210 15:54 23.03.2020
565 Clouds 3 1036 64 10000 9.8 210 15:36 23.03.2020
566 Clouds 3 1036 64 10000 9.8 210 15:18 23.03.2020
567 Clouds 3 1036 64 10000 9.8 210 15:18 23.03.2020
568 Clouds 4 1036 60 10000 9.3 210 14:37 23.03.2020
569 Clouds 4 1036 60 10000 8.7 210 14:19 23.03.2020
570 Clouds 4 1036 60 10000 8.7 210 14:19 23.03.2020
571 Clouds 4 1037 64 10000 9.3 210 13:55 23.03.2020
572 Clouds 3 1037 64 10000 9.3 210 13:37 23.03.2020
573 Clouds 4 1037 60 10000 8.2 210 13:19 23.03.2020
574 Clouds 4 1037 60 10000 8.2 220 12:42 23.03.2020
575 Clouds 3 1037 64 10000 8.2 210 12:22 23.03.2020
576 Clouds 3 1037 64 10000 8.2 210 12:22 23.03.2020
577 Clouds 3 1038 64 10000 8.2 210 11:56 23.03.2020
578 Clouds 3 1038 64 10000 8.2 210 11:37 23.03.2020
579 Clouds 3 1038 64 10000 6.7 200 11:18 23.03.2020
580 Clouds 3 1038 59 10000 5.7 220 10:42 23.03.2020
581 Clouds 3 1038 64 10000 7.2 200 10:23 23.03.2020
582 Clouds 3 1038 64 10000 7.2 200 09:59 23.03.2020
583 Clouds 3 1038 64 10000 6.2 210 09:41 23.03.2020
584 Clouds 2 1038 64 10000 6.2 190 09:19 23.03.2020
585 Clouds 2 1039 64 10000 5.7 190 08:38 23.03.2020
586 Clouds 1 1039 69 10000 6.7 200 08:20 23.03.2020
587 Clouds 1 1039 64 10000 5.7 200 07:51 23.03.2020
588 Clouds 1 1039 64 10000 5.7 200 07:33 23.03.2020
589 Clouds 0 1039 66 10000 5.7 190 06:55 23.03.2020
590 Clouds 0 1039 66 10000 5.7 190 06:33 23.03.2020
591 Clouds -2 1039 74 10000 4.6 190 05:44 23.03.2020
592 Clear -3 1039 73 10000 4.1 200 03:54 23.03.2020
593 Clear -3 1039 73 10000 3.1 200 02:45 23.03.2020
594 Clear -2 1039 68 10000 3.1 200 01:50 23.03.2020
595 Clear -2 1039 68 10000 3.6 200 00:47 23.03.2020
596 Clear -3 1039 68 10000 3.1 200 00:27 23.03.2020
597 Clear -2 1039 68 10000 3.6 200 23:42 22.03.2020
598 Clear -3 1039 68 10000 3.6 200 23:24 22.03.2020
599 Clear -3 1039 68 10000 3.1 190 22:42 22.03.2020
600 Clear -2 1039 63 10000 3.1 200 22:21 22.03.2020
601 Clear -2 1039 63 10000 3.6 190 21:41 22.03.2020
602 Clear -2 1039 63 10000 3.1 190 21:23 22.03.2020
603 Clear -2 1039 63 10000 3.6 180 20:59 22.03.2020
604 Clear -2 1039 63 10000 3.6 180 20:40 22.03.2020
605 Clear -2 1039 58 10000 3.1 180 20:22 22.03.2020
606 Clear -2 1039 58 10000 3.1 180 19:56 22.03.2020
607 Clear -1 1039 58 10000 3.1 180 19:38 22.03.2020
608 Clear -1 1039 58 10000 3.6 180 19:19 22.03.2020
609 Clear -1 1039 58 10000 3.6 180 18:57 22.03.2020
610 Clear -1 1039 58 10000 3.6 180 18:39 22.03.2020
611 Clear -1 1039 54 10000 4.1 180 18:20 22.03.2020
612 Clear -1 1039 54 10000 4.1 180 17:57 22.03.2020
613 Clear 0 1039 47 10000 4.6 180 17:38 22.03.2020
614 Clear 0 1039 45 10000 4.6 180 17:20 22.03.2020
615 Clear 0 1039 45 10000 4.6 180 16:57 22.03.2020
616 Clear 0 1039 45 10000 4.6 180 16:39 22.03.2020
617 Clear 1 1039 40 10000 4.6 180 16:20 22.03.2020
618 Clear 1 1040 40 10000 5.1 190 15:40 22.03.2020
619 Clear 1 1040 34 10000 5.1 200 15:19 22.03.2020
620 Clear 2 1040 37 10000 4.6 180 14:46 22.03.2020
621 Clear 2 1040 37 10000 4.1 180 14:18 22.03.2020
622 Clear 2 1040 37 10000 5.7 160 13:43 22.03.2020
623 Clear 2 1040 24 10000 1 0 13:20 22.03.2020
624 Clear 2 1040 27 10000 1 0 12:57 22.03.2020
625 Clear 2 1040 27 10000 1 0 12:38 22.03.2020
626 Clear 2 1040 27 10000 1.5 260 12:18 22.03.2020
627 Clear 1 1040 29 10000 1.5 260 11:43 22.03.2020
628 Clear 1 1040 27 10000 1 0 11:25 22.03.2020
629 Clear 1 1041 29 10000 1 0 10:58 22.03.2020
630 Clear 1 1041 29 10000 1 0 10:39 22.03.2020
631 Clear 1 1041 29 10000 1 0 10:21 22.03.2020
632 Clear 1 1041 51 10000 1 0 09:43 22.03.2020
633 Clear 1 1041 51 10000 1 0 09:43 22.03.2020
634 Clear 0 1041 51 10000 1.5 160 09:24 22.03.2020
635 Rain 0 1041 46 10000 0.5 0 08:48 22.03.2020
636 Rain 0 1041 46 10000 0.5 0 08:48 22.03.2020
637 Clear -2 1040 53 10000 1 0 08:29 22.03.2020
638 Clear -3 1040 58 10000 3.29 49 07:53 22.03.2020
639 Clear -4 1040 67 10000 1 310 07:32 22.03.2020
640 Clear -6 1040 85 10000 1 330 06:40 22.03.2020
641 Clear -10 1039 92 10000 2.1 350 05:37 22.03.2020
642 Clear -6 1038 67 10000 2.1 10 03:47 22.03.2020
643 Clear -5 1037 67 10000 2.1 360 01:35 22.03.2020
644 Clear -5 1037 73 10000 2.6 340 00:49 22.03.2020
645 Clear -5 1037 73 10000 2.6 340 00:29 22.03.2020
646 Clear -5 1036 73 10000 3.1 340 23:44 21.03.2020
647 Clear -4 1036 67 10000 2.1 340 23:21 21.03.2020
648 Clear -4 1036 73 10000 2.6 340 22:58 21.03.2020
649 Clear -4 1036 73 10000 2.6 340 22:37 21.03.2020
650 Clear -4 1035 67 10000 3.1 340 22:18 21.03.2020
651 Clear -4 1035 67 10000 3.1 340 21:56 21.03.2020
652 Clear -3 1035 50 10000 3.1 350 21:37 21.03.2020
653 Clear -3 1035 50 10000 3.1 340 21:18 21.03.2020
654 Clear -3 1034 58 10000 3.1 340 20:41 21.03.2020
655 Clouds -3 1034 50 10000 2.6 350 20:20 21.03.2020
656 Clouds -2 1034 58 10000 2.6 340 19:45 21.03.2020
657 Clouds -2 1033 54 10000 2.6 340 19:25 21.03.2020
658 Clouds -2 1033 62 10000 2.6 10 18:59 21.03.2020
659 Clouds -1 1033 62 10000 2.6 10 18:40 21.03.2020
660 Clouds -1 1032 62 10000 3.1 20 18:20 21.03.2020
661 Clouds 0 1032 34 10000 3.1 20 17:57 21.03.2020
662 Clouds 0 1032 34 10000 3.1 20 17:39 21.03.2020
663 Clouds 1 1031 34 10000 4.1 20 17:21 21.03.2020
664 Clouds 1 1031 40 10000 5.1 40 16:41 21.03.2020
665 Clouds 1 1031 47 10000 6.2 360 16:22 21.03.2020
666 Clouds 1 1025 49 0 0.5 329 15:57 21.03.2020
667 Clouds 1 1030 40 10000 6.2 350 15:39 21.03.2020
668 Clouds 1 1030 40 10000 6.2 350 15:39 21.03.2020
669 Rain 1 1030 47 10000 3.6 30 15:20 21.03.2020
670 Rain 1 1030 47 10000 3.6 30 14:55 21.03.2020
671 Rain 1 1030 59 10000 4.1 30 14:37 21.03.2020
672 Rain 1 1029 47 10000 5.7 20 14:18 21.03.2020
673 Clouds 1 1029 50 10000 3.1 20 13:57 21.03.2020
674 Clouds 1 1029 50 10000 3.1 20 13:38 21.03.2020
675 Rain 0 1029 59 10000 1 0 13:19 21.03.2020
676 Snow 0 1029 74 2000 4.6 30 12:41 21.03.2020
677 Rain 0 1028 62 10000 4.1 340 12:20 21.03.2020
678 Clouds 0 1028 80 1500 6.2 340 11:59 21.03.2020
679 Clouds 0 1028 80 1500 6.2 340 11:39 21.03.2020
680 Clouds 0 1028 80 1500 6.2 340 11:39 21.03.2020
681 Clouds 1 1027 73 10000 4.6 330 11:20 21.03.2020
682 Clouds 0 1027 69 10000 2.6 310 10:58 21.03.2020
683 Clouds 0 1027 69 10000 2.6 310 10:39 21.03.2020
684 Clouds 0 1027 80 10000 2.6 300 10:21 21.03.2020
685 Clouds -1 1027 80 10000 2.1 270 09:58 21.03.2020
686 Snow -1 1027 80 10000 2.1 270 09:38 21.03.2020
687 Snow -1 1027 79 7000 2.1 320 09:20 21.03.2020
688 Snow -2 1027 79 7000 2.1 320 08:55 21.03.2020
689 Snow -2 1026 79 7000 2.1 260 08:37 21.03.2020
690 Snow -3 1026 86 8000 2.1 270 08:18 21.03.2020
691 Clouds -4 1026 73 5000 1 0 07:32 21.03.2020
692 Clouds -5 1026 79 10000 1.5 230 06:49 21.03.2020
693 Clouds -5 1026 79 10000 1.5 230 06:29 21.03.2020
694 Clouds -5 1026 73 10000 1 0 05:50 21.03.2020
695 Clouds -6 1026 73 10000 1.5 270 05:23 21.03.2020
696 Clear -6 1026 73 10000 0.5 0 03:32 21.03.2020
697 Clear -6 1026 73 10000 1.5 280 02:35 21.03.2020
698 Clear -6 1026 67 10000 1.5 290 01:40 21.03.2020
699 Clear -5 1026 73 10000 2.1 290 01:20 21.03.2020
700 Clear -5 1026 67 10000 2.1 300 00:38 21.03.2020
701 Clear -4 1026 67 10000 2.1 330 23:59 20.03.2020
702 Clear -5 1026 67 10000 2.1 330 23:40 20.03.2020
703 Clear -4 1026 62 10000 2.6 330 23:18 20.03.2020
704 Clear -4 1025 67 10000 3.1 320 22:42 20.03.2020
705 Clear -4 1025 62 10000 2.1 330 22:24 20.03.2020
706 Clear -4 1025 62 10000 2.1 330 21:57 20.03.2020
707 Clear -3 1025 49 10000 2.6 350 21:39 20.03.2020
708 Clear -3 1025 45 10000 3.1 350 21:19 20.03.2020
709 Clear -3 1024 49 10000 3.1 350 20:57 20.03.2020
710 Clouds -3 1024 49 10000 3.1 350 20:39 20.03.2020
711 Clouds -3 1024 53 10000 2.6 350 20:18 20.03.2020
712 Clouds -2 1024 50 10000 2.1 350 19:46 20.03.2020
713 Clouds -2 1024 50 10000 3.1 10 19:19 20.03.2020
714 Clouds -2 1023 50 10000 2.6 10 18:56 20.03.2020
715 Clouds -1 1023 50 10000 2.6 10 18:37 20.03.2020
716 Clouds -1 1023 46 10000 4.1 340 18:19 20.03.2020
717 Clouds 0 1022 57 10000 4.1 330 17:40 20.03.2020
718 Clouds 0 1022 37 10000 4.1 340 17:22 20.03.2020
719 Clouds 1 1022 37 10000 4.6 340 16:59 20.03.2020
720 Clouds 1 1022 37 10000 4.6 340 16:41 20.03.2020
721 Clouds 1 1022 37 10000 5.1 350 16:20 20.03.2020
722 Clouds 2 1022 34 10000 5.7 340 15:43 20.03.2020
723 Clouds 2 1021 40 10000 3.6 350 15:22 20.03.2020
724 Clouds 2 1021 40 10000 3.6 350 14:57 20.03.2020
725 Clouds 2 1021 40 10000 3.6 350 14:38 20.03.2020
726 Clouds 2 1021 43 10000 5.1 360 14:19 20.03.2020
727 Clouds 2 1021 37 10000 4.1 20 13:46 20.03.2020
728 Clouds 2 1021 40 10000 4.6 10 13:20 20.03.2020
729 Clouds 2 1021 40 10000 4.6 340 12:54 20.03.2020
730 Clouds 2 1021 40 10000 4.6 340 12:36 20.03.2020
731 Clouds 2 1021 47 10000 4.1 360 12:18 20.03.2020
732 Clouds 2 1020 50 10000 5.1 350 11:39 20.03.2020
733 Clouds 2 1020 50 10000 4.6 360 11:20 20.03.2020
734 Clouds 2 1020 47 10000 4.1 340 10:54 20.03.2020
735 Clouds 2 1020 47 10000 4.1 340 10:36 20.03.2020
736 Clouds 2 1020 51 10000 5.1 360 10:18 20.03.2020
737 Clouds 1 1020 55 10000 5.1 360 09:43 20.03.2020
738 Clouds 1 1019 55 10000 5.7 10 09:20 20.03.2020
739 Clouds 1 1019 59 10000 6.2 10 08:43 20.03.2020
740 Clouds 1 1019 81 10000 5.1 360 08:22 20.03.2020
741 Clouds 1 1019 81 10000 5.1 360 07:57 20.03.2020
742 Clouds 0 1018 81 10000 5.1 360 07:38 20.03.2020
743 Clouds 0 1018 80 10000 3.6 350 07:19 20.03.2020
744 Clouds 0 1018 81 10000 4.1 350 06:42 20.03.2020
745 Snow 0 1016 100 10000 3.1 310 04:57 20.03.2020
746 Snow 0 1016 100 10000 3.1 310 04:27 20.03.2020
747 Clouds -1 1015 86 10000 2.6 260 02:27 20.03.2020
748 Clouds -1 1015 86 10000 3.1 260 01:47 20.03.2020
749 Clouds 0 1015 78 10000 2.6 270 00:33 20.03.2020
750 Clear 0 1014 80 10000 4.6 260 23:55 19.03.2020
751 Clear 0 1014 80 10000 3.6 260 23:36 19.03.2020
752 Clear 1 1014 80 10000 3.6 260 23:18 19.03.2020
753 Clear 1 1014 80 10000 3.6 260 22:38 19.03.2020
754 Clear 1 1013 80 10000 3.6 260 22:20 19.03.2020
755 Clear 2 1013 80 10000 3.6 260 21:56 19.03.2020
756 Clouds 2 1013 74 10000 3.1 260 21:38 19.03.2020
757 Clouds 2 1013 74 10000 3.6 270 21:18 19.03.2020
758 Clouds 3 1012 69 10000 4.6 280 20:42 19.03.2020
759 Clouds 3 1012 69 10000 4.6 290 20:23 19.03.2020
760 Clouds 4 1012 69 10000 5.7 290 19:57 19.03.2020
761 Clouds 4 1012 69 10000 6.7 280 19:38 19.03.2020
762 Clouds 4 1012 69 10000 6.7 280 19:20 19.03.2020
763 Clouds 4 1011 69 10000 6.2 290 18:56 19.03.2020
764 Clouds 4 1011 69 10000 6.2 290 18:56 19.03.2020
765 Clouds 4 1011 69 10000 6.2 290 18:38 19.03.2020
766 Clouds 4 1011 69 10000 6.2 290 18:38 19.03.2020
767 Clouds 5 1011 65 10000 7.7 280 18:19 19.03.2020
768 Clouds 5 1010 65 10000 6.2 290 17:42 19.03.2020
769 Clouds 5 1010 60 10000 7.7 280 17:19 19.03.2020
770 Clouds 5 1010 60 10000 7.7 280 17:19 19.03.2020
771 Rain 6 1010 60 10000 7.7 280 16:45 19.03.2020
772 Rain 6 1010 60 10000 7.7 280 16:45 19.03.2020
773 Rain 6 1009 60 10000 5.7 280 16:25 19.03.2020
774 Rain 6 1009 56 10000 6.7 270 15:55 19.03.2020
775 Rain 6 1009 56 10000 6.7 270 15:36 19.03.2020
776 Clear 6 1009 48 10000 6.2 260 15:18 19.03.2020
777 Clear 7 1009 45 10000 7.2 250 14:43 19.03.2020
778 Clouds 7 1008 45 10000 7.2 260 14:21 19.03.2020
779 Clouds 7 1008 45 10000 7.7 250 13:41 19.03.2020
780 Clouds 7 1008 52 10000 6.2 270 13:20 19.03.2020
781 Clouds 7 1008 52 10000 7.2 270 12:58 19.03.2020
782 Clouds 7 1008 52 10000 5.7 270 12:40 19.03.2020
783 Clouds 7 1008 52 10000 5.7 270 12:21 19.03.2020
784 Clouds 7 1008 56 10000 5.7 250 11:43 19.03.2020
785 Clouds 7 1008 81 10000 4.6 240 11:24 19.03.2020
786 Clear 6 1008 60 10000 4.6 270 10:57 19.03.2020
787 Clear 6 1008 60 10000 4.6 270 10:38 19.03.2020
788 Clear 5 1007 81 10000 5.1 270 10:19 19.03.2020
789 Clear 4 1007 81 10000 4.1 270 09:45 19.03.2020
790 Clouds 4 1007 81 10000 5.1 270 09:27 19.03.2020
791 Clear 4 1007 81 10000 4.1 250 08:59 19.03.2020
792 Clear 3 1007 81 10000 4.1 250 08:41 19.03.2020
793 Clear 3 1007 82 10000 4.1 250 08:19 19.03.2020
794 Clouds 2 1006 83 10000 4.1 250 07:44 19.03.2020
795 Clouds 2 1006 83 10000 3.6 230 07:23 19.03.2020
796 Clouds 1 1006 83 10000 2.6 240 06:34 19.03.2020
797 Clouds 1 1006 83 10000 3.1 240 05:47 19.03.2020
798 Clouds 1 1006 90 10000 3.6 260 04:53 19.03.2020
799 Clouds 1 1006 90 10000 3.6 240 04:34 19.03.2020
800 Clouds 2 1006 90 10000 4.6 270 02:34 19.03.2020
801 Clouds 2 1004 86 10000 7.2 290 00:57 19.03.2020
802 Rain 2 1003 93 10000 7.7 280 00:21 19.03.2020
803 Rain 3 1002 93 9000 5.1 260 23:46 18.03.2020
804 Rain 3 1002 100 10000 3.1 250 23:27 18.03.2020
805 Rain 3 1002 93 10000 3.6 260 22:44 18.03.2020
806 Clouds 3 1002 93 10000 2.6 250 22:24 18.03.2020
807 Clouds 3 1002 93 10000 2.6 250 21:59 18.03.2020
808 Clouds 3 1002 93 10000 3.6 250 21:41 18.03.2020
809 Clouds 3 1002 100 10000 3.1 260 21:21 18.03.2020
810 Rain 3 1002 100 10000 3.1 260 20:57 18.03.2020
811 Rain 4 1002 93 10000 3.6 250 20:38 18.03.2020
812 Clouds 4 1002 93 10000 3.1 260 20:19 18.03.2020
813 Clouds 4 1002 93 10000 3.1 260 19:55 18.03.2020
814 Clouds 4 1001 93 10000 2.6 260 19:36 18.03.2020
815 Rain 4 1001 93 10000 2.6 250 19:18 18.03.2020
816 Rain 4 1001 93 10000 2.1 260 18:41 18.03.2020
817 Rain 4 1001 93 10000 2.1 230 18:20 18.03.2020
818 Rain 4 1001 93 10000 2.6 230 17:57 18.03.2020
819 Rain 4 1001 93 10000 2.6 230 17:39 18.03.2020
820 Rain 4 1001 93 10000 2.6 230 17:20 18.03.2020
821 Rain 4 1002 93 10000 4.1 210 16:54 18.03.2020
822 Rain 4 1002 93 10000 4.1 210 16:36 18.03.2020
823 Rain 4 1002 93 10000 4.6 210 16:18 18.03.2020
824 Rain 5 1002 86 10000 5.1 210 15:44 18.03.2020
825 Rain 5 1003 93 10000 5.7 210 15:20 18.03.2020
826 Rain 5 1003 86 10000 6.2 220 14:44 18.03.2020
827 Rain 6 1004 81 10000 5.7 220 14:21 18.03.2020
828 Rain 6 1004 81 10000 7.2 220 13:42 18.03.2020
829 Clouds 6 1005 87 10000 6.7 210 13:20 18.03.2020
830 Clouds 6 1005 87 10000 6.2 200 12:58 18.03.2020
831 Clouds 6 1005 87 10000 6.2 200 12:39 18.03.2020
832 Rain 6 1006 87 10000 6.2 200 12:19 18.03.2020
833 Rain 6 1006 81 10000 6.7 220 11:39 18.03.2020
834 Clouds 6 1006 75 10000 5.7 220 11:20 18.03.2020
835 Clouds 6 1007 81 10000 6.2 220 10:58 18.03.2020
836 Clouds 6 1007 81 10000 6.2 220 10:38 18.03.2020
837 Clouds 6 1007 81 10000 5.1 230 10:19 18.03.2020
838 Clouds 6 1007 75 10000 5.7 220 09:43 18.03.2020
839 Clouds 6 1007 81 10000 5.1 230 09:25 18.03.2020
840 Clouds 6 1008 81 10000 5.1 230 08:56 18.03.2020
841 Clouds 6 1008 81 10000 5.1 230 08:38 18.03.2020
842 Clouds 5 1008 86 10000 4.6 230 08:20 18.03.2020
843 Clouds 5 1008 86 10000 4.6 240 07:44 18.03.2020
844 Clouds 5 1008 86 10000 4.6 230 07:26 18.03.2020
845 Clouds 5 1008 86 10000 4.6 220 06:44 18.03.2020
846 Clouds 5 1008 86 10000 4.1 230 06:20 18.03.2020
847 Clouds 5 1009 86 10000 4.6 230 05:34 18.03.2020
848 Clouds 4 1009 93 10000 5.1 220 04:24 18.03.2020
849 Clouds 4 1010 93 10000 4.6 200 02:43 18.03.2020
850 Clouds 4 1010 93 10000 5.1 200 01:48 18.03.2020
851 Clouds 4 1010 93 10000 5.1 210 01:26 18.03.2020
852 Clouds 4 1011 86 10000 4.6 220 00:24 18.03.2020
853 Clouds 4 1011 86 10000 4.6 210 23:47 17.03.2020
854 Clouds 4 1011 86 10000 4.6 210 23:47 17.03.2020
855 Clouds 4 1011 93 10000 5.7 210 23:26 17.03.2020
856 Clouds 4 1011 86 10000 6.2 210 22:48 17.03.2020
857 Clouds 4 1011 86 10000 5.7 210 22:29 17.03.2020
858 Clouds 4 1011 86 10000 5.7 210 21:59 17.03.2020
859 Clouds 4 1011 86 10000 6.7 210 21:39 17.03.2020
860 Clouds 4 1011 86 10000 7.2 210 21:21 17.03.2020
861 Clouds 4 1011 86 10000 7.2 210 21:20 17.03.2020
862 Clouds 4 1011 86 10000 6.7 210 20:39 17.03.2020
863 Clouds 4 1011 86 10000 6.7 210 20:39 17.03.2020
864 Rain 4 1011 86 10000 6.7 220 20:21 17.03.2020
865 Rain 4 1011 86 10000 6.7 220 19:56 17.03.2020
866 Rain 4 1011 86 10000 6.7 220 19:38 17.03.2020
867 Rain 4 1011 86 10000 6.7 220 19:18 17.03.2020
868 Rain 4 1011 86 10000 6.2 220 18:55 17.03.2020
869 Rain 4 1011 86 10000 6.2 220 18:37 17.03.2020
870 Clouds 4 1011 86 10000 6.7 220 18:19 17.03.2020
871 Clouds 4 1011 86 10000 6.7 220 17:40 17.03.2020
872 Clouds 4 1011 86 10000 7.7 220 17:21 17.03.2020
873 Clouds 4 1011 86 10000 10.3 210 16:45 17.03.2020
874 Rain 4 1012 86 10000 8.7 210 16:20 17.03.2020
875 Rain 4 1012 86 10000 8.7 210 15:58 17.03.2020
876 Clouds 4 1013 86 10000 8.7 210 15:39 17.03.2020
877 Drizzle 3 1013 93 7000 8.7 200 15:18 17.03.2020
878 Drizzle 3 1013 86 10000 9.3 210 14:41 17.03.2020
879 Clouds 3 1014 90 10000 10.3 210 14:21 17.03.2020
880 Clouds 3 1014 75 10000 10.3 210 14:21 17.03.2020
881 Clouds 3 1014 75 10000 9.3 210 13:43 17.03.2020
882 Clouds 3 1015 74 10000 7.2 190 13:25 17.03.2020
883 Snow 3 1015 69 10000 8.7 190 12:54 17.03.2020
884 Snow 3 1015 69 10000 8.7 190 12:36 17.03.2020
885 Snow 3 1016 69 10000 8.2 190 12:18 17.03.2020
886 Clouds 3 1016 69 10000 8.2 190 11:42 17.03.2020
887 Clouds 3 1016 64 10000 8.7 190 11:24 17.03.2020
888 Clouds 3 1017 64 10000 8.7 190 10:57 17.03.2020
889 Clouds 3 1017 64 10000 8.7 190 10:57 17.03.2020
890 Clouds 3 1017 64 10000 8.7 190 10:37 17.03.2020
891 Clouds 3 1017 64 10000 8.7 190 10:18 17.03.2020
892 Clouds 3 1018 64 10000 7.2 190 09:46 17.03.2020
893 Clouds 2 1019 69 10000 6.2 190 09:20 17.03.2020
894 Clouds 2 1019 74 10000 4.1 170 08:59 17.03.2020
895 Clouds 1 1019 74 10000 4.1 170 08:41 17.03.2020
896 Clouds 0 1019 73 10000 3.6 150 08:20 17.03.2020
897 Clouds -1 1019 86 10000 3.6 150 07:49 17.03.2020
898 Clouds -2 1019 86 10000 3.6 140 07:21 17.03.2020
899 Clouds -2 1019 92 10000 3.6 140 06:52 17.03.2020
900 Clouds -4 1019 92 10000 1.5 100 06:25 17.03.2020
901 Clouds -5 1020 92 10000 0.5 280 05:34 17.03.2020
902 Clear -4 1019 92 10000 1.5 120 03:34 17.03.2020
903 Clear -4 1019 85 10000 1 230 02:31 17.03.2020
904 Clear -3 1019 79 10000 1 300 01:38 17.03.2020
905 Clear -3 1019 85 10000 1.5 340 00:53 17.03.2020
906 Clear -3 1018 79 10000 0.5 340 00:18 17.03.2020
907 Clear -3 1018 85 10000 2.1 320 23:35 16.03.2020
908 Clear -2 1017 74 10000 3.1 340 22:58 16.03.2020
909 Clear -2 1017 74 10000 3.1 340 22:38 16.03.2020
910 Clear -2 1017 74 10000 3.1 330 22:19 16.03.2020
911 Clear -1 1017 68 10000 3.6 340 21:44 16.03.2020
912 Clear -1 1017 68 10000 3.6 340 21:25 16.03.2020
913 Clear -1 1016 79 10000 2.6 330 20:59 16.03.2020
914 Clear -1 1015 86 10000 2.6 330 20:39 16.03.2020
915 Clouds -1 1015 74 10000 2.6 340 20:20 16.03.2020
916 Clouds 0 1014 72 10000 3.1 330 19:46 16.03.2020
917 Clouds 0 1014 72 10000 2.1 330 19:23 16.03.2020
918 Clouds 0 1013 64 10000 2.6 340 18:57 16.03.2020
919 Clouds 1 1013 64 10000 2.6 340 18:39 16.03.2020
920 Clouds 1 1012 55 10000 3.1 340 18:19 16.03.2020
921 Clouds 2 1011 47 10000 4.1 340 17:46 16.03.2020
922 Clouds 3 1011 48 10000 5.7 340 17:25 16.03.2020
923 Clouds 4 1010 52 10000 4.6 340 16:54 16.03.2020
924 Clouds 4 1010 52 10000 4.6 340 16:36 16.03.2020
925 Clouds 4 1010 52 10000 4.6 340 16:18 16.03.2020
926 Clouds 5 1009 52 10000 5.1 340 15:42 16.03.2020
927 Clouds 5 1009 56 10000 5.7 330 15:22 16.03.2020
928 Clouds 5 1008 60 10000 5.1 330 14:45 16.03.2020
929 Clouds 5 1007 75 10000 4.1 310 14:20 16.03.2020
930 Clouds 5 1007 91 10000 3.1 290 13:47 16.03.2020
931 Clouds 5 1007 91 10000 3.1 290 13:27 16.03.2020
932 Clouds 5 1006 80 10000 4.1 290 12:57 16.03.2020
933 Clouds 5 1006 80 10000 4.1 290 12:38 16.03.2020
934 Clouds 5 1006 86 10000 4.6 290 12:19 16.03.2020
935 Clouds 4 1006 93 10000 3.1 260 11:42 16.03.2020
936 Clouds 4 1005 93 10000 3.6 230 11:23 16.03.2020
937 Drizzle 4 1005 100 10000 4.6 230 10:43 16.03.2020
938 Clouds 4 1005 93 10000 5.1 220 10:24 16.03.2020
939 Rain 4 1004 100 10000 5.1 220 09:49 16.03.2020
940 Rain 4 1004 100 10000 5.1 220 09:30 16.03.2020
941 Rain 4 1004 100 10000 6.2 220 08:59 16.03.2020
942 Rain 4 1004 100 10000 6.2 220 08:36 16.03.2020
943 Rain 4 1003 93 10000 6.2 220 08:18 16.03.2020
944 Rain 4 1003 93 10000 7.2 220 07:40 16.03.2020
945 Rain 4 1003 93 10000 7.7 220 07:18 16.03.2020
946 Rain 4 1003 93 10000 8.7 220 06:28 16.03.2020
947 Rain 4 1003 86 10000 9.3 210 05:54 16.03.2020
948 Rain 3 1003 93 10000 10.8 210 03:36 16.03.2020
949 Clouds 3 1004 86 10000 10.8 200 01:29 16.03.2020
950 Rain 3 1005 86 10000 10.3 200 00:43 16.03.2020
951 Snow 2 1006 89 10000 10.8 200 23:49 15.03.2020
952 Clouds 2 1006 89 10000 11.8 200 23:23 15.03.2020
953 Clouds 2 1006 78 10000 11.8 200 22:58 15.03.2020
954 Clouds 2 1006 78 10000 11.8 200 22:38 15.03.2020
955 Clouds 2 1007 78 10000 11.8 200 22:19 15.03.2020
956 Snow 2 1007 78 10000 12.3 200 21:39 15.03.2020
957 Snow 2 1008 80 10000 11.8 200 21:19 15.03.2020
958 Snow 2 1008 64 10000 12.3 200 20:44 15.03.2020
959 Clouds 3 1009 59 10000 12.3 200 20:22 15.03.2020
960 Clouds 3 1009 59 10000 12.3 200 19:59 15.03.2020
961 Clouds 3 1009 59 10000 11.8 190 19:40 15.03.2020
962 Clouds 3 1009 59 10000 10.8 190 19:22 15.03.2020
963 Clouds 3 1010 64 10000 11.3 200 18:58 15.03.2020
964 Clouds 3 1010 64 10000 11.3 200 18:39 15.03.2020
965 Clouds 3 1010 64 10000 10.8 190 18:21 15.03.2020
966 Clouds 3 1011 55 10000 9.3 200 17:54 15.03.2020
967 Clouds 3 1011 55 10000 9.3 200 17:36 15.03.2020
968 Clouds 3 1011 59 10000 9.8 200 17:18 15.03.2020
969 Clouds 3 1012 64 10000 12.3 210 16:42 15.03.2020
970 Clouds 3 1012 55 10000 10.8 210 16:23 15.03.2020
971 Clouds 4 1012 55 10000 10.8 210 15:57 15.03.2020
972 Clouds 4 1013 60 10000 9.8 210 15:38 15.03.2020
973 Clouds 4 1013 60 10000 10.8 210 15:19 15.03.2020
974 Clouds 4 1013 60 10000 12.3 220 14:43 15.03.2020
975 Clouds 4 1013 60 10000 14.4 220 14:24 15.03.2020
976 Clouds 4 1014 60 10000 13.4 210 13:57 15.03.2020
977 Clouds 4 1014 60 10000 13.4 210 13:38 15.03.2020
978 Clouds 4 1014 60 10000 10.3 210 13:19 15.03.2020
979 Clouds 4 1014 56 10000 10.8 210 12:41 15.03.2020
980 Clouds 4 1015 60 10000 10.8 220 12:23 15.03.2020
981 Clouds 4 1015 56 10000 9.8 220 11:45 15.03.2020
982 Clouds 4 1014 55 10000 10.8 210 11:26 15.03.2020
983 Clouds 4 1014 55 10000 10.8 210 10:59 15.03.2020
984 Clouds 4 1015 55 10000 9.8 220 10:41 15.03.2020
985 Clouds 4 1015 59 10000 10.3 220 10:22 15.03.2020
986 Clouds 4 1015 59 10000 10.3 220 10:22 15.03.2020
987 Clouds 3 1015 59 10000 10.3 220 09:59 15.03.2020
988 Clouds 3 1015 59 10000 9.8 210 09:39 15.03.2020
989 Clouds 3 1016 59 10000 8.7 210 09:20 15.03.2020
990 Clouds 2 1016 59 10000 6.7 200 08:41 15.03.2020
991 Clear 1 1016 64 10000 5.7 200 08:20 15.03.2020
992 Clear 0 1016 68 10000 5.1 200 07:50 15.03.2020
993 Clear -1 1017 74 10000 5.1 200 07:23 15.03.2020
994 Clear -2 1017 74 10000 4.6 200 06:44 15.03.2020
995 Clear -3 1017 79 10000 4.1 180 05:49 15.03.2020
996 Clear -5 1018 79 10000 3.1 190 04:57 15.03.2020
997 Clear -5 1018 79 10000 3.1 190 04:39 15.03.2020
998 Clear -5 1018 85 10000 2.6 190 04:20 15.03.2020
999 Clear -5 1019 85 10000 1.5 210 03:19 15.03.2020
1000 Clouds -5 1019 79 10000 2.1 240 02:23 15.03.2020
1001 Clouds -6 1019 85 10000 2.6 250 00:59 15.03.2020
1002 Clouds -5 1019 85 10000 2.6 250 00:40 15.03.2020
1003 Clouds -5 1019 79 10000 3.1 260 00:19 15.03.2020
1004 Clouds -5 1019 79 10000 3.1 270 23:39 14.03.2020
1005 Clouds -5 1018 79 10000 3.6 270 23:20 14.03.2020
1006 Clouds -4 1018 68 10000 3.6 260 22:56 14.03.2020
1007 Clouds -4 1018 68 10000 3.6 260 22:37 14.03.2020
1008 Clouds -4 1018 68 10000 3.6 260 22:37 14.03.2020
1009 Clouds -4 1018 68 10000 3.6 280 22:19 14.03.2020
1010 Clouds -4 1017 68 10000 4.1 280 21:55 14.03.2020
1011 Clouds -4 1017 68 10000 4.1 280 21:36 14.03.2020
1012 Clouds -4 1017 58 10000 4.1 290 21:18 14.03.2020
1013 Clouds -3 1017 58 10000 4.1 290 20:56 14.03.2020
1014 Clouds -3 1017 53 10000 3.6 290 20:56 14.03.2020
1015 Clouds -3 1017 53 10000 3.6 290 20:38 14.03.2020
1016 Clouds -3 1016 49 10000 4.1 300 20:18 14.03.2020
1017 Clouds -3 1016 49 10000 4.6 300 19:41 14.03.2020
1018 Clouds -2 1015 46 10000 4.1 310 19:20 14.03.2020
1019 Clouds -2 1015 46 10000 4.6 310 18:40 14.03.2020
1020 Clouds -2 1014 42 10000 6.2 320 18:20 14.03.2020
1021 Clouds -1 1014 39 10000 7.2 320 17:43 14.03.2020
1022 Rain -1 1013 39 10000 7.2 330 17:24 14.03.2020
1023 Rain -1 1013 44 10000 7.7 320 16:59 14.03.2020
1024 Rain 0 1013 44 10000 7.7 320 16:38 14.03.2020
1025 Rain 0 1013 44 10000 7.7 330 16:19 14.03.2020
1026 Rain 0 1012 44 10000 8.7 330 15:46 14.03.2020
1027 Rain 0 1012 44 10000 7.7 340 15:22 14.03.2020
1028 Rain 0 1012 44 10000 8.7 310 14:43 14.03.2020
1029 Rain 0 1011 40 10000 8.7 320 14:21 14.03.2020
1030 Rain 0 1011 42 10000 7.7 310 13:57 14.03.2020
1031 Rain 0 1011 42 10000 7.7 310 13:38 14.03.2020
1032 Clouds 0 1011 42 10000 8.7 320 13:20 14.03.2020
1033 Clouds -1 1011 42 10000 8.2 320 12:44 14.03.2020
1034 Clouds -1 1010 39 10000 7.7 310 12:26 14.03.2020
1035 Clouds -1 1010 42 10000 7.7 310 11:46 14.03.2020
1036 Clouds -1 1010 46 10000 7.2 320 11:26 14.03.2020
1037 Clouds -1 1009 46 10000 8.2 310 10:57 14.03.2020
1038 Clouds -2 1009 46 10000 8.2 310 10:38 14.03.2020
1039 Clouds -2 1009 50 10000 7.2 310 10:20 14.03.2020
1040 Clouds -2 1009 53 10000 9.3 310 09:41 14.03.2020
1041 Clouds -3 1008 53 10000 7.7 300 09:22 14.03.2020
1042 Clouds -3 1008 53 10000 7.7 300 09:22 14.03.2020
1043 Clouds -3 1008 62 10000 6.7 310 08:47 14.03.2020
1044 Clouds -3 1008 62 10000 6.7 310 08:27 14.03.2020
1045 Clouds -4 1007 73 10000 6.2 320 07:48 14.03.2020
1046 Clouds -5 1007 79 10000 4.6 320 07:23 14.03.2020
1047 Clouds -5 1007 79 10000 4.6 320 06:59 14.03.2020
1048 Clouds -5 1006 79 10000 4.6 310 06:39 14.03.2020
1049 Clouds -5 1004 85 10000 3.1 300 04:57 14.03.2020
1050 Clouds -5 1003 79 10000 3.1 320 03:40 14.03.2020
1051 Clouds -5 1003 79 10000 3.1 300 02:53 14.03.2020
1052 Clouds -5 1002 73 10000 3.1 320 01:50 14.03.2020
1053 Clouds -4 1001 73 10000 3.1 310 00:36 14.03.2020
1054 Clouds -3 1001 63 10000 4.1 340 23:44 13.03.2020
1055 Clouds -3 1000 63 10000 4.1 340 23:24 13.03.2020
1056 Clouds -3 1000 68 10000 5.1 330 22:46 13.03.2020
1057 Clouds -3 999 63 10000 6.2 330 22:24 13.03.2020
1058 Clouds -2 999 68 10000 6.2 330 21:42 13.03.2020
1059 Clouds -2 998 68 10000 7.7 330 21:21 13.03.2020
1060 Clouds -2 997 58 10000 6.7 310 20:56 13.03.2020
1061 Clouds -2 997 58 10000 6.7 310 20:37 13.03.2020
1062 Clouds -1 997 58 10000 6.2 290 20:18 13.03.2020
1063 Clouds -1 996 58 10000 5.7 290 19:42 13.03.2020
1064 Clouds -1 996 58 10000 5.7 290 19:23 13.03.2020
1065 Clouds -1 995 63 10000 6.2 280 18:44 13.03.2020
1066 Clouds 0 995 59 10000 6.7 280 18:25 13.03.2020
1067 Clouds 0 994 59 10000 7.2 280 17:43 13.03.2020
1068 Clouds 0 994 50 10000 7.7 290 17:22 13.03.2020
1069 Clouds 1 994 50 10000 7.7 290 16:59 13.03.2020
1070 Clouds 1 994 50 10000 7.7 290 16:39 13.03.2020
1071 Clouds 1 993 50 10000 9.3 290 16:21 13.03.2020
1072 Clouds 2 993 50 10000 8.2 290 15:46 13.03.2020
1073 Clouds 2 992 55 10000 8.2 290 15:24 13.03.2020
1074 Clouds 2 992 55 10000 8.2 290 14:59 13.03.2020
1075 Clouds 2 992 55 10000 8.2 290 14:40 13.03.2020
1076 Clouds 2 991 59 10000 7.7 290 14:22 13.03.2020
1077 Clouds 2 991 59 10000 8.2 290 13:55 13.03.2020
1078 Clouds 2 991 59 10000 8.2 290 13:36 13.03.2020
1079 Rain 2 990 64 10000 8.7 300 13:18 13.03.2020
1080 Rain 2 989 69 10000 7.7 300 12:39 13.03.2020
1081 Rain 2 989 69 10000 7.7 300 12:39 13.03.2020
1082 Rain 3 989 69 10000 8.7 280 12:20 13.03.2020
1083 Rain 3 988 74 10000 8.7 290 11:57 13.03.2020
1084 Rain 2 988 74 10000 8.7 290 11:37 13.03.2020
1085 Clouds 2 987 83 10000 7.2 290 11:19 13.03.2020
1086 Rain 3 987 83 10000 7.2 290 10:47 13.03.2020
1087 Clouds 3 986 83 10000 7.2 270 10:26 13.03.2020
1088 Clouds 2 986 83 10000 6.2 280 09:49 13.03.2020
1089 Clouds 2 986 83 10000 6.2 280 09:30 13.03.2020
1090 Clouds 2 985 83 10000 6.2 270 08:59 13.03.2020
1091 Clouds 2 985 83 10000 6.2 270 08:41 13.03.2020
1092 Clouds 1 984 86 10000 6.2 280 08:22 13.03.2020
1093 Clouds 1 984 86 10000 7.2 270 07:44 13.03.2020
1094 Clouds 1 983 86 10000 6.7 260 07:25 13.03.2020
1095 Clouds 1 982 86 10000 6.2 260 06:46 13.03.2020
1096 Clouds 1 982 86 10000 5.1 260 06:23 13.03.2020
1097 Clouds 1 981 86 10000 5.7 260 05:46 13.03.2020
1098 Clouds 1 981 80 10000 5.7 260 04:57 13.03.2020
1099 Clouds 1 980 80 10000 5.1 280 04:26 13.03.2020
1100 Clouds 1 979 80 10000 5.1 270 02:43 13.03.2020
1101 Rain 1 977 83 10000 3.6 300 01:37 13.03.2020
1102 Rain 1 976 83 10000 5.1 340 01:18 13.03.2020
1103 Rain 1 978 95 0 6.81 307 00:41 13.03.2020
1104 Snow 1 975 83 2000 7.7 320 00:19 13.03.2020
1105 Rain 1 975 83 2000 5.1 310 23:39 12.03.2020
1106 Rain 1 974 97 4000 3.6 330 23:19 12.03.2020
1107 Rain 1 973 100 10000 2.6 360 22:46 12.03.2020
1108 Rain 1 973 100 10000 2.6 360 22:27 12.03.2020
1109 Rain 2 973 100 10000 2.6 20 21:56 12.03.2020
1110 Rain 2 973 93 10000 2.6 20 21:38 12.03.2020
1111 Rain 2 973 100 10000 1.5 80 21:20 12.03.2020
1112 Rain 3 973 93 10000 3.1 110 20:42 12.03.2020
1113 Rain 3 973 93 10000 4.6 130 20:20 12.03.2020
1114 Rain 3 974 93 7000 6.7 140 19:42 12.03.2020
1115 Rain 3 974 93 7000 2.6 110 19:22 12.03.2020
1116 Rain 4 974 93 7000 2.6 110 18:59 12.03.2020
1117 Rain 4 975 86 10000 3.6 120 18:41 12.03.2020
1118 Rain 4 975 86 10000 3.6 110 18:22 12.03.2020
1119 Rain 4 976 80 10000 3.6 120 17:42 12.03.2020
1120 Rain 4 977 80 10000 3.1 150 17:24 12.03.2020
1121 Rain 5 978 70 10000 4.1 200 16:59 12.03.2020
1122 Rain 5 978 70 10000 4.1 200 16:41 12.03.2020
1123 Rain 5 978 75 10000 4.6 220 16:22 12.03.2020
1124 Clouds 5 979 70 10000 6.7 220 15:49 12.03.2020
1125 Clouds 6 979 70 10000 8.2 210 15:28 12.03.2020
1126 Clouds 6 979 70 10000 6.7 220 15:28 12.03.2020
1127 Clouds 6 979 70 10000 8.2 210 14:55 12.03.2020
1128 Clouds 6 980 75 10000 7.2 200 14:37 12.03.2020
1129 Clouds 6 980 70 10000 8.2 200 14:18 12.03.2020
1130 Clouds 7 980 91 10000 7.2 220 13:38 12.03.2020
1131 Clouds 7 981 61 10000 7.2 240 13:20 12.03.2020
1132 Clouds 7 981 61 10000 8.2 220 12:43 12.03.2020
1133 Clouds 7 981 70 10000 6.7 230 12:24 12.03.2020
1134 Clouds 6 982 81 10000 7.7 230 11:59 12.03.2020
1135 Clouds 6 982 81 10000 7.7 230 11:41 12.03.2020
1136 Rain 5 982 86 10000 7.2 230 11:21 12.03.2020
1137 Rain 5 982 93 10000 6.2 230 10:59 12.03.2020
1138 Rain 5 982 93 10000 6.2 230 10:41 12.03.2020
1139 Clouds 4 982 93 10000 6.2 220 10:23 12.03.2020
1140 Rain 4 983 93 10000 5.1 220 09:49 12.03.2020
1141 Rain 4 983 86 10000 6.2 210 09:29 12.03.2020
1142 Rain 4 983 86 10000 6.2 210 08:55 12.03.2020
1143 Clouds 3 983 93 10000 4.6 210 08:37 12.03.2020
1144 Rain 3 984 93 10000 5.1 230 08:18 12.03.2020
1145 Clouds 3 984 86 10000 5.7 230 07:47 12.03.2020
1146 Clouds 3 984 86 10000 4.6 230 07:21 12.03.2020
1147 Clouds 2 984 93 10000 4.6 240 06:20 12.03.2020
1148 Clouds 2 985 93 10000 4.1 230 05:34 12.03.2020
1149 Clouds 3 984 86 10000 6.7 260 03:34 12.03.2020
1150 Rain 2 984 93 10000 5.7 270 01:57 12.03.2020
1151 Clouds 2 984 93 10000 6.7 260 01:21 12.03.2020
1152 Clouds 2 983 93 10000 7.2 270 00:42 12.03.2020
1153 Clouds 2 983 93 10000 7.2 260 23:57 11.03.2020
1154 Clouds 2 983 93 10000 6.2 270 23:28 11.03.2020
1155 Rain 2 982 93 10000 6.2 270 22:59 11.03.2020
1156 Rain 2 982 93 10000 6.2 270 22:39 11.03.2020
1157 Clouds 2 982 93 10000 5.1 270 22:21 11.03.2020
1158 Drizzle 2 982 100 10000 4.1 270 21:56 11.03.2020
1159 Drizzle 2 982 100 10000 4.1 270 21:37 11.03.2020
1160 Drizzle 3 982 100 3500 3.1 270 21:19 11.03.2020
1161 Drizzle 3 981 100 4000 2.6 270 20:55 11.03.2020
1162 Drizzle 3 981 100 4000 2.6 270 20:36 11.03.2020
1163 Rain 3 981 100 4500 2.1 270 20:18 11.03.2020
1164 Rain 3 981 93 4500 2.1 280 19:42 11.03.2020
1165 Clouds 3 981 93 7000 1.5 250 19:23 11.03.2020
1166 Clouds 3 981 93 10000 1.5 240 18:56 11.03.2020
1167 Clouds 3 981 93 10000 1.5 240 18:36 11.03.2020
1168 Clouds 3 980 93 10000 1.5 250 18:18 11.03.2020
1169 Rain 3 980 93 10000 2.1 220 17:40 11.03.2020
1170 Rain 3 980 93 10000 2.6 190 17:21 11.03.2020
1171 Rain 3 980 100 10000 1.5 90 16:56 11.03.2020
1172 Rain 3 980 100 10000 1.5 90 16:38 11.03.2020
1173 Rain 3 981 93 9000 2.1 110 16:19 11.03.2020
1174 Rain 3 981 93 10000 2.1 110 15:42 11.03.2020
1175 Rain 3 981 93 10000 4.1 140 15:23 11.03.2020
1176 Rain 3 981 93 10000 4.1 140 15:23 11.03.2020
1177 Rain 3 981 93 10000 4.1 140 14:44 11.03.2020
1178 Rain 3 981 93 10000 5.1 130 14:24 11.03.2020
1179 Rain 3 982 93 10000 4.6 130 13:59 11.03.2020
1180 Rain 3 982 93 10000 4.6 130 13:40 11.03.2020
1181 Rain 3 982 93 6000 6.2 120 13:21 11.03.2020
1182 Rain 3 982 93 6000 6.2 120 12:41 11.03.2020
1183 Rain 3 983 93 6000 6.7 120 12:21 11.03.2020
1184 Rain 3 983 93 5000 6.2 120 11:57 11.03.2020
1185 Rain 3 983 93 5000 6.2 120 11:39 11.03.2020
1186 Rain 3 984 93 5000 8.2 120 11:19 11.03.2020
1187 Rain 3 984 93 5000 6.7 120 10:46 11.03.2020
1188 Rain 3 985 93 5000 7.7 110 10:19 11.03.2020
1189 Rain 3 985 93 5000 6.7 110 09:54 11.03.2020
1190 Rain 3 985 93 5000 6.7 110 09:36 11.03.2020
1191 Rain 3 986 93 5000 7.2 110 09:18 11.03.2020
1192 Rain 3 987 93 5000 6.7 110 08:40 11.03.2020
1193 Rain 3 987 93 4000 6.2 110 08:22 11.03.2020
1194 Rain 3 988 93 5000 5.7 110 07:45 11.03.2020
1195 Rain 3 989 93 5000 6.2 110 07:19 11.03.2020
1196 Rain 3 989 93 4000 5.7 120 06:48 11.03.2020
1197 Rain 3 990 93 9000 6.7 120 05:42 11.03.2020
1198 Rain 3 992 93 10000 5.7 120 04:52 11.03.2020
1199 Clouds 3 995 93 10000 4.1 120 02:30 11.03.2020
1200 Clouds 3 995 93 10000 3.6 140 01:43 11.03.2020
1201 Clouds 3 996 93 10000 3.6 130 00:49 11.03.2020
1202 Clouds 3 997 93 10000 3.6 140 00:21 11.03.2020
1203 Clouds 3 997 100 10000 3.1 160 23:43 10.03.2020
1204 Clouds 3 998 86 10000 3.6 200 23:22 10.03.2020
1205 Clouds 3 998 93 10000 6.2 200 22:41 10.03.2020
1206 Clouds 3 998 93 10000 5.1 200 22:20 10.03.2020
1207 Rain 3 998 93 10000 5.7 200 21:57 10.03.2020
1208 Rain 3 998 93 10000 5.7 200 21:39 10.03.2020
1209 Clouds 4 999 93 10000 5.1 210 21:20 10.03.2020
1210 Clouds 4 999 93 10000 5.1 210 20:59 10.03.2020
1211 Clouds 4 999 93 10000 5.1 210 20:41 10.03.2020
1212 Clouds 4 999 93 10000 4.6 210 20:19 10.03.2020
1213 Rain 4 999 93 10000 4.1 220 19:57 10.03.2020
1214 Rain 4 999 93 10000 4.1 220 19:39 10.03.2020
1215 Clouds 4 999 93 10000 6.7 220 19:21 10.03.2020
1216 Clouds 4 1000 93 10000 7.2 220 18:45 10.03.2020
1217 Clouds 4 1000 93 10000 7.2 220 18:45 10.03.2020
1218 Rain 4 999 93 5000 6.7 210 18:27 10.03.2020
1219 Drizzle 4 999 93 5000 6.2 210 17:58 10.03.2020
1220 Drizzle 4 999 93 5000 6.2 210 17:40 10.03.2020
1221 Clouds 4 999 93 10000 6.7 210 17:21 10.03.2020
1222 Clouds 4 999 93 10000 6.7 210 17:21 10.03.2020
1223 Rain 4 999 100 10000 7.2 210 16:40 10.03.2020
1224 Rain 4 999 100 10000 6.7 200 16:20 10.03.2020
1225 Clouds 4 999 100 10000 7.2 200 15:57 10.03.2020
1226 Clouds 4 999 100 10000 7.2 200 15:39 10.03.2020
1227 Rain 4 999 100 7000 6.2 190 15:19 10.03.2020
1228 Rain 4 1000 100 3500 6.7 190 14:41 10.03.2020
1229 Drizzle 4 1000 93 2000 7.2 190 14:20 10.03.2020
1230 Drizzle 4 1000 93 3000 6.7 190 13:59 10.03.2020
1231 Drizzle 4 1000 93 3000 6.7 190 13:41 10.03.2020
1232 Rain 4 1000 93 6000 6.7 190 13:22 10.03.2020
1233 Rain 4 1001 93 6000 7.2 190 12:42 10.03.2020
1234 Rain 4 1001 93 4500 7.2 190 12:21 10.03.2020
1235 Rain 4 1001 93 6000 6.7 180 11:58 10.03.2020
1236 Rain 4 1001 93 6000 6.7 180 11:40 10.03.2020
1237 Rain 3 1001 93 6000 6.2 180 11:22 10.03.2020
1238 -273 0 0 0 0 0 10:43 10.03.2020
1239 Rain 3 1003 93 6000 5.1 160 10:23 10.03.2020
1240 Rain 3 1003 93 6000 5.1 160 09:58 10.03.2020
1241 Rain 3 1003 93 6000 5.1 160 09:40 10.03.2020
1242 Rain 3 1003 93 6000 5.1 160 09:19 10.03.2020
1243 Rain 3 1003 93 7000 5.1 160 08:51 10.03.2020
1244 Rain 3 1003 93 7000 5.1 160 08:32 10.03.2020
1245 Drizzle 3 1004 100 5000 4.6 180 07:50 10.03.2020
1246 Drizzle 3 1004 100 5000 5.1 180 07:31 10.03.2020
1247 Drizzle 3 1004 100 6000 5.1 180 06:47 10.03.2020
1248 Drizzle 3 1004 100 5000 5.7 180 06:28 10.03.2020
1249 Drizzle 3 1004 93 7000 5.7 180 05:41 10.03.2020
1250 Drizzle 3 1005 93 8000 5.1 190 04:48 10.03.2020
1251 Drizzle 3 1005 93 8000 5.1 190 04:48 10.03.2020
1252 Rain 3 1005 100 8000 5.1 190 03:41 10.03.2020
1253 Rain 3 1006 100 8000 4.6 190 02:26 10.03.2020
1254 Rain 3 1007 93 9000 4.6 190 01:22 10.03.2020
1255 Rain 3 1007 93 10000 4.6 190 00:42 10.03.2020
1256 Rain 3 1007 86 10000 5.1 190 00:22 10.03.2020
1257 Rain 3 1007 86 10000 6.2 190 23:40 09.03.2020
1258 Rain 3 1008 86 10000 4.1 180 23:21 09.03.2020
1259 Rain 3 1008 86 10000 4.6 190 22:41 09.03.2020
1260 Rain 3 1008 86 10000 4.1 200 22:22 09.03.2020
1261 Rain 4 1008 86 10000 4.1 200 21:57 09.03.2020
1262 Rain 4 1008 86 10000 5.1 190 21:39 09.03.2020
1263 Rain 4 1008 86 10000 5.1 190 21:20 09.03.2020
1264 Rain 4 1009 86 10000 5.7 190 20:56 09.03.2020
1265 Rain 4 1009 86 10000 5.7 190 20:37 09.03.2020
1266 Rain 4 1009 86 10000 6.2 200 20:19 09.03.2020
1267 Rain 4 1009 86 10000 6.7 200 19:44 09.03.2020
1268 Rain 4 1009 86 10000 6.2 200 19:25 09.03.2020
1269 Rain 4 1009 86 10000 6.2 200 18:58 09.03.2020
1270 Rain 4 1009 86 10000 6.2 200 18:38 09.03.2020
1271 Rain 4 1009 75 10000 5.1 200 18:19 09.03.2020
1272 Clouds 4 1009 75 10000 6.7 200 17:57 09.03.2020
1273 Clouds 4 1009 75 10000 6.7 200 17:38 09.03.2020
1274 Clouds 5 1009 75 10000 5.7 200 17:20 09.03.2020
1275 Clouds 4 1009 80 10000 6.2 210 16:57 09.03.2020
1276 Clouds 5 1009 80 10000 6.2 210 16:39 09.03.2020
1277 Rain 5 1009 80 10000 5.1 200 16:20 09.03.2020
1278 Rain 5 1009 80 10000 5.1 200 15:57 09.03.2020
1279 Rain 5 1009 80 10000 5.1 200 15:57 09.03.2020
1280 Clouds 5 1009 80 10000 4.1 190 15:38 09.03.2020
1281 Clouds 5 1009 80 10000 4.1 190 15:19 09.03.2020
1282 Clouds 5 1009 80 10000 5.1 190 14:41 09.03.2020
1283 Clouds 5 1009 80 10000 5.1 190 14:23 09.03.2020
1284 Clouds 5 1009 80 10000 5.7 200 13:59 09.03.2020
1285 Clouds 5 1009 80 10000 5.7 190 13:40 09.03.2020
1286 Clouds 5 1009 80 10000 5.7 190 13:22 09.03.2020
1287 Clouds 5 1009 80 10000 5.7 190 13:22 09.03.2020
1288 Clouds 4 1010 80 10000 5.1 180 12:59 09.03.2020
1289 Clouds 4 1010 75 10000 6.2 190 12:40 09.03.2020
1290 Clouds 4 1010 75 10000 6.2 190 12:20 09.03.2020
1291 Clouds 4 1010 75 10000 5.1 180 11:41 09.03.2020
1292 Clouds 4 1010 75 10000 5.1 180 11:21 09.03.2020
1293 Clouds 4 1010 75 10000 6.2 180 10:58 09.03.2020
1294 Clouds 4 1009 75 10000 6.7 180 10:40 09.03.2020
1295 Clouds 4 1009 75 10000 6.7 180 10:40 09.03.2020
1296 Clouds 4 1009 75 10000 6.7 180 10:19 09.03.2020
1297 Clouds 4 1009 75 10000 6.7 180 10:19 09.03.2020
1298 Clouds 4 1009 80 10000 7.2 190 09:43 09.03.2020
1299 Clouds 4 1009 80 10000 7.2 190 09:24 09.03.2020
1300 Clouds 4 1009 80 10000 7.2 180 08:54 09.03.2020
1301 Clouds 4 1009 80 10000 6.2 180 08:36 09.03.2020
1302 Clouds 4 1009 80 10000 6.2 180 08:18 09.03.2020
1303 Clouds 4 1009 80 10000 6.2 180 08:18 09.03.2020
1304 Clouds 4 1009 82 10000 6.7 190 07:39 09.03.2020
1305 Clouds 3 1009 82 10000 7.2 190 07:20 09.03.2020
1306 Clouds 3 1009 82 10000 6.7 190 06:41 09.03.2020
1307 Clouds 3 1009 82 10000 6.7 190 06:23 09.03.2020
1308 Clouds 3 1009 82 10000 6.7 180 05:45 09.03.2020
1309 Clouds 3 1009 81 10000 6.2 180 04:59 09.03.2020
1310 Clouds 3 1009 81 10000 6.7 180 04:40 09.03.2020
1311 Clouds 3 1009 81 10000 6.7 180 04:21 09.03.2020
1312 Clouds 3 1010 81 10000 6.2 180 02:56 09.03.2020
1313 Clouds 2 1011 84 10000 6.7 180 00:46 09.03.2020
1314 Clouds 2 1011 84 10000 6.7 180 00:27 09.03.2020
1315 Clouds 2 1011 84 10000 6.7 180 23:59 08.03.2020
1316 Clouds 2 1011 84 10000 6.2 180 23:39 08.03.2020
1317 Clouds 2 1011 82 10000 6.2 180 23:20 08.03.2020
1318 Clouds 2 1012 82 10000 6.7 190 22:41 08.03.2020
1319 Clouds 2 1012 82 10000 6.7 190 22:22 08.03.2020
1320 Clouds 2 1012 82 10000 6.7 180 21:59 08.03.2020
1321 Clouds 2 1012 82 10000 6.2 180 21:41 08.03.2020
1322 Clouds 2 1012 82 10000 6.2 180 21:20 08.03.2020
1323 Clouds 2 1012 82 10000 5.7 180 20:57 08.03.2020
1324 Clouds 2 1012 82 10000 3.6 150 20:37 08.03.2020
1325 Clouds 1 1012 80 10000 3.6 150 20:19 08.03.2020
1326 Clouds 1 1012 80 10000 3.6 150 20:19 08.03.2020
1327 Clouds 1 1012 80 10000 3.6 140 19:40 08.03.2020
1328 Clouds 1 1012 80 10000 3.1 140 19:19 08.03.2020
1329 Clouds 1 1012 80 10000 3.1 130 18:55 08.03.2020
1330 Clouds 1 1012 80 10000 3.1 130 18:37 08.03.2020
1331 Clouds 1 1012 80 10000 3.6 130 18:18 08.03.2020
1332 Clouds 1 1013 80 10000 4.6 160 17:39 08.03.2020
1333 Clouds 1 1013 79 10000 4.6 160 17:21 08.03.2020
1334 Clouds 2 1013 79 10000 4.6 160 16:58 08.03.2020
1335 Clouds 2 1013 79 10000 4.6 160 16:40 08.03.2020
1336 Clouds 2 1013 79 10000 4.1 160 16:21 08.03.2020
1337 Clouds 2 1013 79 10000 4.1 180 15:41 08.03.2020
1338 Clouds 2 1013 79 10000 4.1 180 15:22 08.03.2020
1339 Clouds 3 1013 74 10000 5.1 180 14:57 08.03.2020
1340 Clouds 3 1013 74 10000 5.1 180 14:37 08.03.2020
1341 Clouds 3 1013 74 10000 5.1 180 14:19 08.03.2020
1342 Clouds 3 1013 74 10000 5.1 180 14:19 08.03.2020
1343 Clouds 3 1013 74 10000 5.7 190 13:41 08.03.2020
1344 Clouds 3 1013 82 10000 5.1 180 13:20 08.03.2020
1345 Clouds 3 1014 82 10000 5.1 170 12:47 08.03.2020
1346 Clouds 4 1014 82 10000 5.1 170 12:28 08.03.2020
1347 Clouds 4 1014 69 10000 4.1 180 11:59 08.03.2020
1348 Clouds 4 1014 69 10000 4.1 190 11:41 08.03.2020
1349 Clouds 4 1014 69 10000 4.1 190 11:21 08.03.2020
1350 Clouds 3 1014 83 10000 2.6 180 10:42 08.03.2020
1351 Clouds 3 1014 83 10000 2.6 180 10:24 08.03.2020
1352 Clouds 2 1014 74 10000 2.1 180 09:59 08.03.2020
1353 Clear 2 1014 80 10000 2.1 140 09:37 08.03.2020
1354 Clear 1 1014 83 10000 1.5 120 09:19 08.03.2020
1355 Clear 0 1014 83 10000 0.5 0 08:42 08.03.2020
1356 Clear -1 1013 92 10000 1.41 182 08:20 08.03.2020
1357 Clear -2 1013 92 10000 0.5 0 07:45 08.03.2020
1358 Clear -3 1013 100 10000 0.5 0 07:25 08.03.2020
1359 Fog -3 1013 100 10000 0.5 0 06:43 08.03.2020
1360 Fog -3 1013 92 10000 1.41 182 06:24 08.03.2020
1361 Fog -3 1013 100 10000 1.41 182 05:43 08.03.2020
1362 Fog -3 1013 100 10000 1 0 03:52 08.03.2020
1363 Clear -2 1012 100 10000 1.5 310 02:38 08.03.2020
1364 Fog -2 1012 100 10000 0.5 0 01:35 08.03.2020
1365 Fog -2 1012 100 10000 1 350 00:58 08.03.2020
1366 Fog -1 1012 100 10000 0.5 330 00:28 08.03.2020
1367 Clouds -1 1012 100 10000 1.5 340 23:48 07.03.2020
1368 Clouds -1 1012 100 10000 1.5 330 23:26 07.03.2020
1369 Clouds -1 1012 100 10000 1.5 330 22:56 07.03.2020
1370 Clouds -1 1012 100 10000 1 0 22:37 07.03.2020
1371 Clouds 0 1012 100 10000 1 0 22:19 07.03.2020
1372 Clouds 0 1012 100 10000 1 0 21:43 07.03.2020
1373 Clouds 0 1012 100 10000 1 0 21:19 07.03.2020
1374 Clouds 0 1012 84 10000 2.1 50 20:40 07.03.2020
1375 Clouds 1 1012 87 10000 2.1 50 20:20 07.03.2020
1376 Clouds 1 1012 87 10000 1.5 50 19:41 07.03.2020
1377 Clouds 1 1012 87 10000 1.5 50 19:22 07.03.2020
1378 Clouds 1 1012 87 10000 1 0 18:58 07.03.2020
1379 Clouds 1 1012 87 10000 1 0 18:39 07.03.2020
1380 Clouds 1 1012 87 10000 1 0 18:20 07.03.2020
1381 Clouds 2 1012 87 10000 2.6 40 17:41 07.03.2020
1382 Clouds 2 1012 85 10000 2.6 40 17:19 07.03.2020
1383 Clouds 3 1011 85 10000 1.5 360 16:56 07.03.2020
1384 Clouds 3 1011 86 10000 1.5 30 16:38 07.03.2020
1385 Clouds 3 1011 86 10000 1.5 30 16:19 07.03.2020
1386 Clouds 4 1012 80 10000 2.6 120 15:42 07.03.2020
1387 Clouds 4 1012 80 10000 2.6 120 15:22 07.03.2020
1388 Clouds 4 1012 80 10000 3.1 120 14:59 07.03.2020
1389 Clouds 4 1012 80 10000 3.6 130 14:41 07.03.2020
1390 Clouds 4 1012 80 10000 3.6 130 14:23 07.03.2020
1391 Clouds 4 1012 85 10000 4.1 110 13:42 07.03.2020
1392 Rain 4 1012 80 10000 3.6 100 13:21 07.03.2020
1393 Clouds 4 1012 85 10000 3.1 100 12:58 07.03.2020
1394 Clouds 3 1012 86 10000 2.1 90 12:38 07.03.2020
1395 Clouds 3 1012 86 10000 2.6 80 12:18 07.03.2020
1396 Clouds 3 1012 86 10000 2.6 80 11:42 07.03.2020
1397 Clouds 3 1013 93 10000 2.6 70 11:24 07.03.2020
1398 Clouds 2 1012 93 10000 2.1 70 10:57 07.03.2020
1399 Clouds 2 1012 84 10000 1.5 70 10:38 07.03.2020
1400 Clouds 2 1012 84 10000 1.5 70 10:18 07.03.2020
1401 Clouds 1 1012 84 10000 2.1 60 09:40 07.03.2020
1402 Clouds 0 1012 84 10000 2.1 60 09:20 07.03.2020
1403 Rain 0 1012 84 10000 2.1 70 08:57 07.03.2020
1404 Snow 0 1012 100 10000 1.5 50 08:39 07.03.2020
1405 Snow -1 1012 100 10000 1.5 50 08:20 07.03.2020
1406 Fog -1 1012 92 800 1.5 40 07:46 07.03.2020
1407 Fog -2 1012 100 1500 1 80 07:21 07.03.2020
1408 Clouds -2 1010 95 0 4.36 132 06:42 07.03.2020
1409 Clouds -2 1012 96 0 4.36 132 06:23 07.03.2020
1410 Fog -2 1011 100 400 0.5 0 05:40 07.03.2020
1411 Fog -2 1011 92 900 1 50 03:36 07.03.2020
1412 Fog -3 1011 100 10000 1 0 02:43 07.03.2020
1413 Fog -3 1011 100 10000 1 140 01:51 07.03.2020
1414 Clouds -2 1011 92 10000 0.5 90 00:58 07.03.2020
1415 Clouds -2 1011 100 10000 1 100 00:23 07.03.2020
1416 Clouds -2 1011 100 10000 1 100 00:23 07.03.2020
1417 Clouds -1 1010 100 10000 2.51 197 23:58 06.03.2020
1418 Clouds -1 1010 92 10000 0.5 0 23:39 06.03.2020
1419 Clouds -2 1010 92 10000 0.5 0 23:21 06.03.2020
1420 Clouds -1 1010 92 10000 1 200 22:44 06.03.2020
1421 Clouds -1 1010 92 10000 1 200 22:44 06.03.2020
1422 Clouds -1 1010 92 10000 0.5 0 22:20 06.03.2020
1423 Clouds -1 1009 100 10000 1.5 200 21:47 06.03.2020
1424 Clouds -1 1009 100 10000 2.46 262 21:20 06.03.2020
1425 Clouds -1 1009 92 10000 1.5 210 20:44 06.03.2020
1426 Clear 0 1009 92 10000 2.6 210 20:22 06.03.2020
1427 Clear 0 1008 82 10000 3.1 200 19:57 06.03.2020
1428 Clear 0 1008 82 10000 2.6 190 19:39 06.03.2020
1429 Clear 0 1008 82 10000 2.6 190 19:19 06.03.2020
1430 Clouds 0 1008 92 10000 2.1 180 18:42 06.03.2020
1431 Clouds 1 1007 82 10000 1 0 18:20 06.03.2020
1432 Clouds 1 1007 86 10000 4.36 246 17:56 06.03.2020
1433 Clouds 2 1007 74 10000 4.36 246 17:38 06.03.2020
1434 Clouds 3 1007 74 10000 6.16 250 17:20 06.03.2020
1435 Clouds 4 1006 69 10000 3.1 280 16:43 06.03.2020
1436 Clouds 4 1006 69 10000 3.1 280 16:22 06.03.2020
1437 Clouds 4 1006 65 10000 3.1 250 15:59 06.03.2020
1438 Clouds 5 1006 65 10000 4.1 260 15:40 06.03.2020
1439 Clouds 5 1006 65 10000 4.1 260 15:21 06.03.2020
1440 Clouds 5 1006 69 10000 3.6 280 14:40 06.03.2020
1441 Clouds 4 1006 69 10000 4.1 270 14:21 06.03.2020
1442 Clouds 4 1005 69 10000 5.1 250 13:44 06.03.2020
1443 Clouds 4 1005 69 10000 5.1 250 13:23 06.03.2020
1444 Clouds 3 1005 74 10000 5.1 270 12:59 06.03.2020
1445 Clouds 3 1005 74 10000 5.7 250 12:39 06.03.2020
1446 Clouds 3 1005 74 10000 5.7 250 12:20 06.03.2020
1447 Clouds 3 1005 86 10000 4.6 250 11:59 06.03.2020
1448 Clouds 3 1005 86 10000 4.6 250 11:40 06.03.2020
1449 Clouds 3 1004 74 10000 6.7 240 11:20 06.03.2020
1450 Clouds 2 1004 74 10000 5.7 260 10:40 06.03.2020
1451 Clouds 2 1004 74 10000 5.7 260 10:21 06.03.2020
1452 Clouds 2 1004 74 10000 5.7 250 09:56 06.03.2020
1453 Clouds 1 1003 80 10000 4.6 250 09:37 06.03.2020
1454 Clouds 1 1003 80 10000 4.6 250 09:19 06.03.2020
1455 Clouds 1 1003 80 10000 4.6 240 08:46 06.03.2020
1456 Clouds 1 1003 80 10000 4.6 250 08:27 06.03.2020
1457 Clouds 1 1002 86 10000 4.6 250 07:58 06.03.2020
1458 Rain 0 1002 86 10000 5.1 250 07:39 06.03.2020
1459 Rain 1 1001 88 10000 4.6 240 06:59 06.03.2020
1460 Clouds 1 1001 88 10000 4.1 240 06:41 06.03.2020
1461 Clouds 1 1001 88 10000 4.6 230 05:47 06.03.2020
1462 Clouds 1 1000 86 10000 4.1 200 05:28 06.03.2020
1463 Clouds 1 1000 86 10000 3.6 210 04:58 06.03.2020
1464 Clouds 1 1000 86 10000 5.7 200 02:56 06.03.2020
1465 Clouds 1 1000 87 10000 4.1 190 01:41 06.03.2020
1466 Clouds 1 1000 87 10000 4.1 190 01:23 06.03.2020
1467 Clouds 1 1000 87 10000 4.6 190 00:37 06.03.2020
1468 Rain 1 1000 87 10000 5.1 200 00:18 06.03.2020
1469 Rain 1 1000 87 10000 5.1 200 23:42 05.03.2020
1470 Rain 1 1000 89 10000 3.6 210 23:19 05.03.2020
1471 Rain 1 1000 100 10000 4.1 190 22:40 05.03.2020
1472 Rain 1 1000 100 10000 4.1 200 22:22 05.03.2020
1473 Rain 1 1000 100 10000 4.1 200 22:22 05.03.2020
1474 Rain 1 1000 100 10000 5.7 200 21:58 05.03.2020
1475 Rain 1 1000 89 10000 5.7 200 21:39 05.03.2020
1476 Rain 1 1000 89 10000 5.7 200 21:21 05.03.2020
1477 Snow 1 1000 89 7000 5.1 200 20:59 05.03.2020
1478 Clouds 1 1000 93 10000 3.6 180 20:40 05.03.2020
1479 Clouds 1 1000 93 10000 3.6 180 20:20 05.03.2020
1480 Clouds 1 1000 93 10000 3.6 190 19:58 05.03.2020
1481 Clouds 1 1000 93 10000 3.6 190 19:39 05.03.2020
1482 Clouds 1 1000 93 10000 3.6 190 19:19 05.03.2020
1483 Clouds 1 1000 93 10000 4.6 200 18:55 05.03.2020
1484 Clouds 2 1000 93 10000 5.1 200 18:36 05.03.2020
1485 Clouds 2 1000 93 10000 5.1 200 18:18 05.03.2020
1486 Clouds 2 1000 86 10000 5.7 210 17:42 05.03.2020
1487 Clouds 2 1000 86 10000 5.7 210 17:22 05.03.2020
1488 Clouds 3 1000 93 10000 5.1 210 16:58 05.03.2020
1489 Snow 3 1001 92 0 5.34 254 16:40 05.03.2020
1490 Snow 3 1001 92 0 5.34 254 16:21 05.03.2020
1491 Rain 3 1000 86 10000 4.1 220 15:45 05.03.2020
1492 Rain 3 1000 86 10000 4.1 220 15:24 05.03.2020
1493 Rain 3 1000 93 10000 3.6 200 14:59 05.03.2020
1494 Rain 3 1000 93 10000 3.6 200 14:41 05.03.2020
1495 Rain 3 1000 93 10000 4.1 190 14:21 05.03.2020
1496 Rain 3 1000 100 10000 4.6 190 13:56 05.03.2020
1497 Rain 3 1000 93 10000 4.6 190 13:38 05.03.2020
1498 Rain 3 1000 93 10000 5.1 190 13:19 05.03.2020
1499 Rain 3 1000 93 10000 5.1 190 12:42 05.03.2020
1500 Rain 3 1000 100 10000 4.1 190 12:21 05.03.2020
1501 Rain 3 1000 100 10000 4.1 180 11:57 05.03.2020
1502 Rain 3 1000 93 10000 4.1 190 11:37 05.03.2020
1503 Rain 3 1000 93 10000 4.1 190 11:19 05.03.2020
1504 Rain 3 1000 93 10000 4.6 190 10:57 05.03.2020
1505 Drizzle 3 1001 93 10000 4.6 190 10:39 05.03.2020
1506 Drizzle 3 1001 93 10000 4.6 190 10:21 05.03.2020
1507 Clouds 3 1001 93 10000 4.6 200 09:47 05.03.2020
1508 Clouds 3 1001 93 10000 4.1 200 09:28 05.03.2020
1509 Clouds 3 1001 93 10000 4.1 200 09:28 05.03.2020
1510 Clouds 3 1001 93 10000 4.1 180 08:59 05.03.2020
1511 Clouds 3 1001 93 10000 4.1 180 08:41 05.03.2020
1512 Clouds 3 1001 93 10000 4.1 180 08:21 05.03.2020
1513 Clouds 3 1001 93 10000 4.6 190 07:41 05.03.2020
1514 Clouds 3 1001 93 10000 4.1 190 07:19 05.03.2020
1515 Drizzle 3 1001 93 10000 4.1 190 06:43 05.03.2020
1516 Clouds 3 1001 93 10000 4.6 180 06:19 05.03.2020
1517 Clouds 3 1002 93 10000 3.6 160 05:35 05.03.2020
1518 Clouds 3 1002 93 10000 3.6 160 05:35 05.03.2020
1519 Clouds 3 1002 93 10000 5.1 180 04:23 05.03.2020
1520 Clouds 3 1002 93 10000 3.1 180 03:58 05.03.2020
1521 Drizzle 3 1003 93 10000 4.6 150 02:32 05.03.2020
1522 Drizzle 3 1003 93 10000 5.1 170 01:26 05.03.2020
1523 Drizzle 3 1003 93 9000 5.1 180 00:49 05.03.2020
1524 Drizzle 3 1003 93 10000 5.1 170 23:57 04.03.2020
1525 Drizzle 3 1003 93 10000 5.1 170 23:57 04.03.2020
1526 Drizzle 3 1003 93 10000 6.2 160 23:39 04.03.2020
1527 Drizzle 3 1003 93 10000 6.2 160 23:21 04.03.2020
1528 Drizzle 3 1004 93 10000 4.6 170 22:55 04.03.2020
1529 Drizzle 3 1004 93 10000 5.7 160 22:36 04.03.2020
1530 Drizzle 3 1004 93 10000 5.7 160 22:18 04.03.2020
1531 Clouds 3 1004 100 10000 6.2 150 21:42 04.03.2020
1532 Clouds 3 1004 100 10000 6.2 150 21:22 04.03.2020
1533 Clouds 3 1004 100 10000 6.7 150 20:59 04.03.2020
1534 Drizzle 3 1004 100 10000 5.7 130 20:40 04.03.2020
1535 Drizzle 3 1004 100 10000 5.7 130 20:21 04.03.2020
1536 Drizzle 3 1004 100 7000 6.7 130 19:43 04.03.2020
1537 Drizzle 3 1004 100 4000 6.7 120 19:24 04.03.2020
1538 Drizzle 2 1004 100 4000 6.2 110 18:59 04.03.2020
1539 Drizzle 2 1004 100 4000 7.7 100 18:41 04.03.2020
1540 Drizzle 2 1004 100 4000 7.7 100 18:23 04.03.2020
1541 Drizzle 2 1004 93 3500 7.7 100 17:59 04.03.2020
1542 Drizzle 2 1004 100 2500 7.7 90 17:38 04.03.2020
1543 Drizzle 2 1004 100 2500 7.7 90 17:20 04.03.2020
1544 Snow 1 1005 100 2500 8.2 100 16:55 04.03.2020
1545 Snow 1 1005 100 3000 8.2 100 16:36 04.03.2020
1546 Rain 1 1005 100 3000 8.2 100 16:18 04.03.2020
1547 Rain 1 1006 94 8000 7.7 100 15:42 04.03.2020
1548 Clouds 1 1006 94 8000 7.7 100 15:23 04.03.2020
1549 Snow 1 1006 94 10000 8.2 90 14:56 04.03.2020
1550 Rain 1 1006 94 1500 8.7 80 14:38 04.03.2020
1551 Snow 1 1006 97 1500 8.7 80 14:19 04.03.2020
1552 Snow 0 1006 97 700 8.7 80 13:57 04.03.2020
1553 Snow 0 1007 97 1000 8.2 80 13:39 04.03.2020
1554 Snow 0 1007 97 1000 8.2 80 13:39 04.03.2020
1555 Snow 0 1007 97 1000 8.2 80 13:20 04.03.2020
1556 Snow 1 1008 97 1100 9.3 90 12:45 04.03.2020
1557 Snow 1 1008 97 1100 9.3 90 12:27 04.03.2020
1558 Snow 1 1008 97 2500 9.8 80 11:59 04.03.2020
1559 Rain 1 1008 97 7000 10.3 80 11:41 04.03.2020
1560 Snow 1 1008 90 7000 10.3 80 11:22 04.03.2020
1561 Clouds 1 1008 90 10000 11.3 80 10:57 04.03.2020
1562 Clouds 2 1009 90 10000 9.8 80 10:38 04.03.2020
1563 Clouds 2 1009 90 10000 9.8 80 10:18 04.03.2020
1564 Clouds 1 1010 90 10000 9.3 80 09:42 04.03.2020
1565 Clouds 1 1010 90 10000 9.3 80 09:21 04.03.2020
1566 Clouds 1 1010 90 10000 8.2 80 08:46 04.03.2020
1567 Clouds 1 1010 89 10000 9.3 70 08:26 04.03.2020
1568 Clouds 1 1011 91 10000 9.3 80 07:56 04.03.2020
1569 Drizzle 1 1011 91 10000 8.7 80 07:37 04.03.2020
1570 Drizzle 1 1011 91 10000 8.7 80 07:18 04.03.2020
1571 Clouds 1 1012 91 7000 8.7 70 06:41 04.03.2020
1572 Clouds 1 1012 91 7000 8.7 70 06:23 04.03.2020
1573 Drizzle 1 1012 91 8000 8.2 80 05:47 04.03.2020
1574 Drizzle 2 1012 93 10000 6.7 70 04:23 04.03.2020
1575 Drizzle 2 1013 93 10000 6.2 80 03:40 04.03.2020
1576 Drizzle 2 1013 93 10000 6.2 80 03:21 04.03.2020
1577 Clouds 2 1013 93 10000 6.2 80 02:53 04.03.2020
1578 Clouds 2 1013 93 10000 6.7 80 02:19 04.03.2020
1579 Clouds 2 1013 93 10000 6.2 80 01:52 04.03.2020
1580 Clouds 2 1012 93 10000 6.2 70 00:49 04.03.2020
1581 Clouds 2 1012 93 10000 5.1 80 00:25 04.03.2020
1582 Clouds 2 1012 93 10000 5.1 80 23:46 03.03.2020
1583 Clouds 2 1012 93 10000 5.1 80 23:27 03.03.2020
1584 Clouds 2 1012 93 10000 5.1 70 22:57 03.03.2020
1585 Clouds 2 1012 93 10000 5.1 70 22:39 03.03.2020
1586 Clouds 2 1012 93 10000 5.1 80 22:19 03.03.2020
1587 Clouds 2 1012 93 10000 5.7 80 21:57 03.03.2020
1588 Clouds 2 1012 93 10000 4.6 80 21:38 03.03.2020
1589 Clouds 2 1012 93 10000 4.6 80 21:18 03.03.2020
1590 Drizzle 2 1011 93 10000 5.7 80 20:41 03.03.2020
1591 Drizzle 2 1011 93 10000 5.7 80 20:21 03.03.2020
1592 Drizzle 2 1011 93 10000 5.7 80 20:21 03.03.2020
1593 Clouds 2 1011 100 10000 5.7 70 19:59 03.03.2020
1594 Clouds 2 1011 93 10000 5.1 60 19:37 03.03.2020
1595 Clouds 2 1011 93 10000 5.1 60 19:19 03.03.2020
1596 Drizzle 2 1010 100 10000 5.1 60 18:58 03.03.2020
1597 Drizzle 2 1010 100 10000 5.1 60 18:40 03.03.2020
1598 Drizzle 2 1010 93 10000 5.7 70 18:21 03.03.2020
1599 Drizzle 3 1010 93 10000 5.1 60 17:57 03.03.2020
1600 Drizzle 3 1010 93 10000 5.1 60 17:57 03.03.2020
1601 Drizzle 3 1010 93 8000 4.6 50 17:39 03.03.2020
1602 Drizzle 3 1010 93 8000 4.6 50 17:21 03.03.2020
1603 Drizzle 3 1009 93 9000 5.1 60 16:57 03.03.2020
1604 Rain 3 1009 93 8000 4.6 50 16:37 03.03.2020
1605 Rain 3 1009 93 8000 4.6 50 16:18 03.03.2020
1606 Rain 3 1009 93 9000 4.6 60 15:44 03.03.2020
1607 Rain 3 1008 93 9000 5.7 50 15:22 03.03.2020
1608 Rain 3 1008 93 10000 5.1 50 14:57 03.03.2020
1609 Rain 3 1008 93 10000 5.7 50 14:37 03.03.2020
1610 Rain 3 1008 93 10000 5.7 50 14:19 03.03.2020
1611 Rain 3 1008 86 10000 5.7 50 13:55 03.03.2020
1612 Clouds 3 1007 86 10000 4.6 50 13:37 03.03.2020
1613 Clouds 3 1007 86 10000 4.6 50 13:18 03.03.2020
1614 Clouds 3 1007 86 10000 4.6 50 13:18 03.03.2020
1615 Clouds 3 1007 93 10000 5.1 40 12:42 03.03.2020
1616 Clouds 3 1007 93 10000 5.1 40 12:23 03.03.2020
1617 Clouds 3 1007 93 10000 5.1 40 12:23 03.03.2020
1618 Clouds 3 1007 93 10000 5.1 40 11:55 03.03.2020
1619 Clouds 2 1007 93 10000 4.1 40 11:37 03.03.2020
1620 Clouds 2 1007 93 10000 4.1 40 11:18 03.03.2020
1621 Clouds 2 1007 93 9000 3.6 60 10:54 03.03.2020
1622 Clouds 2 1006 93 7000 3.1 90 10:36 03.03.2020
1623 Clouds 2 1006 93 7000 3.1 90 10:18 03.03.2020
1624 Clouds 2 1006 93 7000 3.1 90 10:18 03.03.2020
1625 Clouds 2 1006 100 7000 4.1 60 09:41 03.03.2020
1626 -273 0 0 0 0 0 09:21 03.03.2020
1627 Drizzle 2 1005 91 6000 3.6 40 08:42 03.03.2020
1628 Drizzle 1 1005 91 6000 3.6 40 08:22 03.03.2020
1629 Clouds 1 1005 90 8000 3.1 30 07:56 03.03.2020
1630 Clouds 1 1005 90 8000 3.1 30 07:56 03.03.2020
1631 Clouds 1 1005 90 9000 3.1 30 07:38 03.03.2020
1632 Clouds 1 1005 90 9000 3.1 30 07:18 03.03.2020
1633 Clouds 1 1005 90 10000 2.1 50 06:40 03.03.2020
1634 Clouds 1 1005 90 10000 2.6 30 06:21 03.03.2020
1635 Clouds 1 1004 90 10000 3.1 30 05:43 03.03.2020
1636 Clouds 1 1004 88 10000 2.6 30 04:54 03.03.2020
1637 Clouds 1 1004 88 10000 2.1 10 03:21 03.03.2020
1638 Mist 0 1003 100 3500 2.1 40 01:32 03.03.2020
1639 Fog 0 1003 84 900 1.5 40 00:42 03.03.2020
1640 Fog 0 1003 84 900 1.5 40 00:23 03.03.2020
1641 Fog 0 1003 84 900 2.1 60 23:50 02.03.2020
1642 Mist 0 1003 100 1000 2.1 60 23:23 02.03.2020
1643 Mist 0 1003 100 4000 1.5 90 22:58 02.03.2020
1644 Clouds 0 1003 100 7000 1 0 22:38 02.03.2020
1645 Clouds 0 1003 100 7000 1 0 22:20 02.03.2020
1646 Clouds 0 1002 100 9000 1 0 21:56 02.03.2020
1647 Clouds 0 1002 87 10000 1.5 140 21:38 02.03.2020
1648 Clouds 0 1002 87 10000 1.5 140 21:19 02.03.2020
1649 Clouds 0 1002 92 10000 1.5 160 20:55 02.03.2020
1650 Clouds 0 1002 100 10000 2.6 140 20:37 02.03.2020
1651 Clouds 0 1002 100 10000 2.6 140 20:18 02.03.2020
1652 Clouds 0 1001 90 10000 2.1 140 19:54 02.03.2020
1653 Clouds 0 1001 100 10000 2.1 170 19:36 02.03.2020
1654 Clouds 0 1001 100 10000 2.1 170 19:18 02.03.2020
1655 Clouds 1 1001 90 10000 1.5 190 18:42 02.03.2020
1656 Clouds 2 1001 93 10000 2.1 190 18:19 02.03.2020
1657 Clouds 2 1000 93 10000 3.1 220 17:57 02.03.2020
1658 Clouds 3 1000 86 10000 3.6 210 17:39 02.03.2020
1659 Clouds 3 1000 86 10000 3.6 210 17:20 02.03.2020
1660 Clouds 4 999 80 10000 4.6 210 16:45 02.03.2020
1661 Clouds 4 999 80 10000 4.6 210 16:27 02.03.2020
1662 Clouds 4 999 80 10000 5.7 210 15:58 02.03.2020
1663 Clouds 4 998 80 10000 5.1 210 15:40 02.03.2020
1664 Clouds 5 998 80 10000 5.1 210 15:18 02.03.2020
1665 Clouds 5 998 75 10000 6.2 200 14:39 02.03.2020
1666 Clouds 5 998 75 10000 6.2 200 14:20 02.03.2020
1667 Clouds 5 997 81 10000 6.2 210 13:57 02.03.2020
1668 Clouds 5 997 86 10000 5.1 210 13:37 02.03.2020
1669 Clouds 5 997 86 10000 5.1 210 13:18 02.03.2020
1670 Clouds 5 997 86 10000 5.1 210 12:43 02.03.2020
1671 Clouds 5 997 86 10000 5.1 210 12:43 02.03.2020
1672 Clouds 5 996 86 10000 5.7 210 12:19 02.03.2020
1673 Clouds 5 996 86 10000 5.7 210 11:40 02.03.2020
1674 Clouds 5 996 86 10000 5.7 210 11:21 02.03.2020
1675 Clouds 4 995 86 10000 5.7 210 10:58 02.03.2020
1676 Clouds 4 995 93 10000 5.1 220 10:40 02.03.2020
1677 Clouds 4 995 93 10000 5.1 220 10:40 02.03.2020
1678 Clouds 4 995 93 10000 5.1 220 10:19 02.03.2020
1679 Clouds 4 994 93 10000 5.1 210 09:53 02.03.2020
1680 Clouds 4 994 93 10000 4.1 210 09:32 02.03.2020
1681 Rain 3 994 100 10000 4.6 210 08:49 02.03.2020
1682 Drizzle 3 993 93 10000 4.1 200 08:24 02.03.2020
1683 Clouds 3 993 93 10000 5.1 210 07:54 02.03.2020
1684 Rain 3 992 93 10000 5.7 210 07:36 02.03.2020
1685 Rain 3 992 93 10000 5.7 200 06:57 02.03.2020
1686 Rain 3 991 93 10000 5.1 190 06:35 02.03.2020
1687 Rain 3 991 93 8000 5.7 200 05:29 02.03.2020
1688 Rain 3 990 93 10000 6.2 210 03:59 02.03.2020
1689 Rain 3 990 100 8000 6.2 210 03:19 02.03.2020
1690 Rain 3 990 93 10000 6.2 210 02:36 02.03.2020
1691 Clouds 3 990 86 10000 6.7 210 01:41 02.03.2020
1692 Clouds 3 990 93 10000 7.2 210 01:22 02.03.2020
1693 Clouds 3 989 93 10000 6.7 210 00:23 02.03.2020
1694 Rain 3 989 93 10000 6.7 210 23:56 01.03.2020
1695 Rain 3 989 100 6000 7.2 220 23:37 01.03.2020
1696 Rain 3 989 100 6000 7.2 220 23:18 01.03.2020
1697 Rain 3 988 93 7000 9.8 210 22:38 01.03.2020
1698 Rain 3 988 93 7000 9.8 210 22:19 01.03.2020
1699 Rain 3 988 93 8000 8.7 210 21:43 01.03.2020
1700 Rain 3 988 93 8000 8.7 210 21:25 01.03.2020
1701 Rain 3 987 93 8000 10.3 210 20:59 01.03.2020
1702 Rain 3 987 93 6000 8.2 200 20:41 01.03.2020
1703 Rain 3 987 93 6000 8.2 200 20:22 01.03.2020
1704 Rain 2 988 93 7000 6.2 210 19:42 01.03.2020
1705 Rain 2 988 93 7000 6.2 210 19:23 01.03.2020
1706 Rain 2 987 86 10000 6.7 200 18:58 01.03.2020
1707 Rain 2 987 86 10000 7.2 200 18:39 01.03.2020
1708 Rain 2 987 86 10000 7.2 200 18:19 01.03.2020
1709 Rain 2 987 86 10000 7.7 210 17:57 01.03.2020
1710 Rain 2 987 86 10000 6.7 210 17:38 01.03.2020
1711 Clouds 2 987 86 10000 6.7 210 17:20 01.03.2020
1712 Clouds 3 986 86 10000 8.2 220 16:55 01.03.2020
1713 Rain 3 986 86 10000 8.2 220 16:36 01.03.2020
1714 Rain 3 986 86 10000 8.2 220 16:18 01.03.2020
1715 Rain 3 988 86 0 11.41 233 15:55 01.03.2020
1716 Rain 3 985 86 10000 7.2 230 15:37 01.03.2020
1717 Rain 3 985 86 10000 7.2 230 15:18 01.03.2020
1718 Rain 3 985 93 10000 7.2 220 14:55 01.03.2020
1719 Rain 3 984 93 10000 6.7 190 14:36 01.03.2020
1720 Rain 2 984 91 3500 5.1 160 14:18 01.03.2020
1721 Rain 1 984 91 3500 5.1 160 13:43 01.03.2020
1722 Rain 1 984 94 800 5.7 140 13:21 01.03.2020
1723 Snow 0 985 94 1000 6.2 140 12:59 01.03.2020
1724 Snow 1 985 94 3000 5.1 130 12:40 01.03.2020
1725 Snow 1 985 94 3000 5.1 130 12:20 01.03.2020
1726 Snow 1 986 95 1800 5.1 130 11:41 01.03.2020
1727 Snow 1 986 96 1800 5.1 130 11:22 01.03.2020
1728 Snow 0 987 96 3000 5.7 130 10:57 01.03.2020
1729 Snow 0 987 96 3000 5.1 140 10:38 01.03.2020
1730 Snow 0 987 96 3000 5.1 140 10:19 01.03.2020
1731 Snow 0 988 96 4000 5.1 130 09:46 01.03.2020
1732 Snow 0 988 96 3000 4.1 130 09:27 01.03.2020
1733 Snow 0 989 96 5000 4.1 130 08:57 01.03.2020
1734 Snow 0 989 96 1800 4.1 130 08:38 01.03.2020
1735 Snow 0 989 97 1800 4.1 130 08:18 01.03.2020
1736 Snow 0 990 97 2500 3.6 120 07:41 01.03.2020
1737 Snow 0 990 97 2500 3.6 120 07:23 01.03.2020
1738 Snow 0 991 97 7000 4.1 120 06:47 01.03.2020
1739 Snow 1 991 97 10000 3.6 120 06:28 01.03.2020
1740 Rain 1 993 86 10000 2.6 130 03:54 01.03.2020
1741 Clouds 0 994 86 10000 1.5 180 02:27 01.03.2020
1742 Clouds 0 995 86 10000 2.1 170 01:52 01.03.2020
1743 Snow 0 995 86 8000 2.6 170 01:21 01.03.2020
1744 Snow 0 995 86 3000 2.6 160 00:42 01.03.2020
1745 Snow 0 995 86 3000 2.6 160 00:21 01.03.2020
1746 Rain 0 995 86 8000 2.6 190 23:46 29.02.2020
1747 Rain 1 996 96 8000 3.1 190 23:28 29.02.2020
1748 Snow 1 996 96 6000 2.6 190 22:42 29.02.2020
1749 Snow 1 996 96 4000 2.1 200 22:23 29.02.2020
1750 Clouds 1 996 96 10000 3.6 210 21:42 29.02.2020
1751 Clouds 0 996 96 10000 3.6 210 21:23 29.02.2020
1752 Drizzle 1 996 96 5000 3.6 170 20:43 29.02.2020
1753 Drizzle 0 996 97 5000 3.6 170 20:22 29.02.2020
1754 Rain 0 996 97 6000 3.6 170 19:57 29.02.2020
1755 Snow 0 997 97 5000 2.6 160 19:38 29.02.2020
1756 Snow 0 997 97 5000 2.6 160 19:19 29.02.2020
1757 Snow 0 997 86 10000 4.1 190 18:43 29.02.2020
1758 Snow 1 997 86 10000 4.1 190 18:25 29.02.2020
1759 Clouds 1 997 86 10000 2.1 120 17:58 29.02.2020
1760 Clouds 1 997 80 10000 2.6 130 17:40 29.02.2020
1761 Clouds 1 997 80 10000 2.6 130 17:21 29.02.2020
1762 Clouds 1 997 80 10000 2.6 140 16:45 29.02.2020
1763 Clouds 1 997 80 10000 1.5 110 16:22 29.02.2020
1764 Clouds 1 997 88 10000 1 0 15:59 29.02.2020
1765 Clouds 1 998 80 10000 1.5 210 15:41 29.02.2020
1766 Clouds 1 998 80 10000 1.5 210 15:21 29.02.2020
1767 Clouds 1 998 86 10000 2.1 160 14:42 29.02.2020
1768 Clouds 1 998 86 10000 2.1 160 14:42 29.02.2020
1769 Clouds 1 998 86 10000 2.1 160 14:23 29.02.2020
1770 Rain 1 998 85 10000 3.1 140 13:56 29.02.2020
1771 Snow 1 998 85 6000 3.6 150 13:37 29.02.2020
1772 Snow 1 998 87 6000 3.6 150 13:18 29.02.2020
1773 Snow 0 998 87 9000 3.6 150 12:41 29.02.2020
1774 Snow 0 999 87 10000 4.1 170 12:21 29.02.2020
1775 Clouds 0 999 68 10000 2.6 130 11:56 29.02.2020
1776 Clouds -1 999 63 10000 2.1 90 11:38 29.02.2020
1777 Clouds -1 999 63 10000 2.1 90 11:20 29.02.2020
1778 Clouds -2 999 68 10000 2.6 120 10:44 29.02.2020
1779 Snow -3 999 68 10000 2.1 120 10:26 29.02.2020
1780 Snow -4 1000 68 10000 1.5 130 09:47 29.02.2020
1781 Clouds -5 1000 73 10000 0.5 0 09:23 29.02.2020
1782 Snow -7 1000 85 10000 1 0 08:42 29.02.2020
1783 Clear -8 1000 85 10000 1 0 08:22 29.02.2020
1784 Clear -9 1000 85 10000 3.7 262 07:57 29.02.2020
1785 Clear -10 1000 92 10000 0.5 0 07:39 29.02.2020
1786 Clear -10 1000 92 10000 0.5 0 07:18 29.02.2020
1787 Clear -11 1000 92 10000 0.5 0 06:42 29.02.2020
1788 Clear -11 1001 92 10000 3.7 262 06:22 29.02.2020
1789 Clear -11 1001 85 10000 2.6 260 05:46 29.02.2020
1790 Clear -11 1001 85 10000 1 270 04:46 29.02.2020
1791 Clear -10 1001 78 10000 1 0 03:40 29.02.2020
1792 Clear -10 1001 78 10000 1 0 03:21 29.02.2020
1793 Clear -9 1001 72 10000 2.6 280 02:37 29.02.2020
1794 Clear -8 1001 72 10000 2.1 290 00:59 29.02.2020
1795 Clear -9 1001 72 10000 1.5 290 00:37 29.02.2020
1796 Clear -8 1001 72 10000 2.6 290 23:46 28.02.2020
1797 Clear -8 1001 72 10000 2.6 290 23:25 28.02.2020
1798 Clear -8 1000 67 10000 2.6 290 22:55 28.02.2020
1799 Clear -8 1000 67 10000 2.6 300 22:36 28.02.2020
1800 Clear -7 1000 67 10000 2.6 300 22:18 28.02.2020
1801 Clear -7 1000 67 10000 3.1 280 21:41 28.02.2020
1802 Clear -7 1000 67 10000 3.1 280 21:21 28.02.2020
1803 Clear -6 1000 67 10000 2.6 280 20:41 28.02.2020
1804 Clear -6 1000 73 10000 2.6 280 20:22 28.02.2020
1805 Clear -6 1000 67 10000 2.6 290 19:59 28.02.2020
1806 Clear -5 1000 57 10000 2.6 300 19:39 28.02.2020
1807 Clear -5 1000 57 10000 2.6 300 19:21 28.02.2020
1808 Clear -5 1000 57 10000 2.6 310 18:58 28.02.2020
1809 Clear -5 1000 57 10000 2.6 310 18:39 28.02.2020
1810 Clear -4 1000 53 10000 2.6 320 18:21 28.02.2020
1811 Clear -3 1000 39 10000 2.6 330 17:41 28.02.2020
1812 Clear -2 1000 39 10000 2.6 330 17:22 28.02.2020
1813 Clear -2 999 33 10000 3.1 320 16:47 28.02.2020
1814 Clear -1 999 36 10000 4.1 320 16:21 28.02.2020
1815 Clear -1 999 46 10000 5.1 330 15:59 28.02.2020
1816 Clear 0 999 46 10000 4.6 320 15:40 28.02.2020
1817 Clear 0 999 46 10000 4.6 320 15:20 28.02.2020
1818 Clear 0 999 46 10000 5.1 320 14:57 28.02.2020
1819 Clear 0 999 46 10000 4.1 330 14:39 28.02.2020
1820 Clouds 0 999 57 10000 4.1 330 14:19 28.02.2020
1821 Clouds 0 999 57 10000 4.6 310 13:54 28.02.2020
1822 Clouds 0 999 61 10000 4.6 300 13:36 28.02.2020
1823 Clouds 0 999 61 10000 4.6 300 13:18 28.02.2020
1824 Clouds -1 999 50 10000 3.6 330 12:41 28.02.2020
1825 Clouds -1 999 50 10000 3.6 330 12:22 28.02.2020
1826 Clouds -2 999 58 10000 3.6 320 11:42 28.02.2020
1827 Clouds -2 999 58 10000 3.6 320 11:24 28.02.2020
1828 Clouds -3 999 63 10000 3.6 320 10:58 28.02.2020
1829 Clouds -3 999 62 10000 3.1 320 10:39 28.02.2020
1830 Clouds -4 999 62 10000 3.1 320 10:20 28.02.2020
1831 Clouds -5 999 67 10000 2.6 340 09:44 28.02.2020
1832 Clouds -5 999 73 10000 3.1 340 09:21 28.02.2020
1833 Clouds -6 999 79 10000 2.6 340 08:56 28.02.2020
1834 Clouds -7 999 85 10000 2.6 330 08:37 28.02.2020
1835 Clouds -7 999 85 10000 2.6 330 08:18 28.02.2020
1836 Clouds -8 999 92 10000 2.6 330 07:40 28.02.2020
1837 Clouds -8 999 92 10000 2.6 330 07:20 28.02.2020
1838 Clouds -8 999 92 10000 2.6 340 06:44 28.02.2020
1839 Clouds -7 999 85 10000 2.6 340 05:51 28.02.2020
1840 Clouds -6 999 85 10000 2.6 10 04:34 28.02.2020
1841 Clouds -6 998 79 10000 2.6 10 03:50 28.02.2020
1842 Clouds -6 998 85 10000 3.6 30 02:46 28.02.2020
1843 Clouds -6 998 85 10000 3.6 30 02:25 28.02.2020
1844 Clouds -5 998 79 10000 2.6 30 00:48 28.02.2020
1845 Clouds -5 998 79 10000 3.1 30 00:26 28.02.2020
1846 Clouds -5 998 79 10000 4.1 50 23:42 27.02.2020
1847 Clouds -5 998 79 10000 4.1 50 23:19 27.02.2020
1848 Clouds -5 998 73 10000 5.7 50 22:43 27.02.2020
1849 Clouds -5 998 73 10000 6.2 50 22:25 27.02.2020
1850 Clouds -5 998 68 10000 5.7 50 21:57 27.02.2020
1851 Clouds -4 998 68 10000 5.7 50 21:39 27.02.2020
1852 Clouds -4 997 68 10000 5.7 50 21:19 27.02.2020
1853 Clouds -4 997 68 10000 5.1 40 20:56 27.02.2020
1854 Clouds -4 997 68 10000 5.1 40 20:38 27.02.2020
1855 Clouds -4 997 68 10000 5.1 40 20:19 27.02.2020
1856 Clouds -3 998 63 10000 5.1 40 19:42 27.02.2020
1857 Clouds -3 998 58 10000 4.6 40 19:24 27.02.2020
1858 Clouds -3 998 58 10000 4.6 40 18:58 27.02.2020
1859 Clouds -3 998 58 10000 4.6 40 18:40 27.02.2020
1860 Clouds -3 998 58 10000 4.6 40 18:21 27.02.2020
1861 Clouds -3 998 54 10000 3.6 40 17:57 27.02.2020
1862 Clouds -2 998 50 10000 3.6 60 17:38 27.02.2020
1863 Clouds -2 998 50 10000 3.6 60 17:19 27.02.2020
1864 Clouds -2 998 46 10000 4.1 60 16:55 27.02.2020
1865 Clouds -1 998 46 10000 5.1 60 16:36 27.02.2020
1866 Clouds -1 998 46 10000 5.1 60 16:18 27.02.2020
1867 Clouds -1 999 49 0 12.77 74 15:54 27.02.2020
1868 Clouds -1 998 68 10000 6.7 60 15:36 27.02.2020
1869 Clouds -1 998 68 10000 6.7 60 15:18 27.02.2020
1870 Clouds 0 998 68 10000 5.7 70 14:40 27.02.2020
1871 Clouds 0 998 68 10000 5.7 70 14:21 27.02.2020
1872 Clouds 0 998 68 10000 6.7 60 13:56 27.02.2020
1873 Clouds 0 998 46 10000 8.2 50 13:37 27.02.2020
1874 Clouds 0 998 46 10000 8.2 50 13:19 27.02.2020
1875 Clouds -1 998 50 10000 7.2 70 12:44 27.02.2020
1876 Clouds -1 998 50 10000 7.2 70 12:20 27.02.2020
1877 Clouds -2 998 58 10000 6.7 60 11:46 27.02.2020
1878 Clouds -2 998 54 10000 7.7 60 11:23 27.02.2020
1879 Clouds -2 998 58 10000 7.2 60 10:56 27.02.2020
1880 Clouds -3 999 58 10000 6.7 60 10:37 27.02.2020
1881 Clouds -3 999 58 10000 6.7 60 10:19 27.02.2020
1882 Clouds -4 999 41 0 1.79 17 09:41 27.02.2020
1883 Clouds -4 999 67 10000 5.7 60 09:23 27.02.2020
1884 Clouds -4 998 67 10000 6.2 50 08:44 27.02.2020
1885 Clouds -5 998 73 10000 5.7 50 08:26 27.02.2020
1886 Clouds -6 998 79 10000 5.1 40 07:59 27.02.2020
1887 Clouds -6 998 79 10000 5.1 40 07:39 27.02.2020
1888 Clouds -7 998 79 10000 5.1 40 07:19 27.02.2020
1889 Clouds -7 998 79 10000 5.7 30 06:21 27.02.2020
1890 Clouds -7 997 79 10000 5.1 40 04:48 27.02.2020
1891 Clouds -6 997 73 10000 5.7 40 02:58 27.02.2020
1892 Clouds -5 997 67 10000 5.1 50 01:28 27.02.2020
1893 Clouds -4 997 62 10000 5.7 50 00:41 27.02.2020
1894 Clouds -4 997 62 10000 5.7 50 00:41 27.02.2020
1895 Clouds -4 997 62 10000 5.1 50 23:41 26.02.2020
1896 Clouds -4 997 62 10000 6.2 50 23:23 26.02.2020
1897 Clouds -3 996 63 10000 6.2 50 22:59 26.02.2020
1898 Clouds -3 996 63 10000 6.7 60 22:40 26.02.2020
1899 Clouds -3 996 63 10000 6.7 60 22:22 26.02.2020
1900 Clouds -3 996 63 10000 7.2 50 21:59 26.02.2020
1901 Clouds -3 996 63 10000 6.7 40 21:39 26.02.2020
1902 Clouds -3 996 63 10000 6.7 40 21:19 26.02.2020
1903 Clouds -2 996 58 10000 7.2 50 20:56 26.02.2020
1904 Clouds -2 995 63 10000 7.2 50 20:38 26.02.2020
1905 Clouds -2 995 63 10000 7.2 50 20:19 26.02.2020
1906 Clouds -2 995 58 10000 7.2 50 19:55 26.02.2020
1907 Clouds -2 995 63 10000 7.2 50 19:36 26.02.2020
1908 Clouds -2 995 63 10000 7.2 50 19:36 26.02.2020
1909 Clouds -2 995 63 10000 7.2 50 19:18 26.02.2020
1910 Clouds -1 995 54 10000 6.7 50 18:41 26.02.2020
1911 Clouds -1 995 54 10000 6.7 50 18:23 26.02.2020
1912 Clouds -1 994 54 10000 6.7 50 17:59 26.02.2020
1913 Clouds -1 994 54 10000 6.7 50 17:40 26.02.2020
1914 Clouds -1 994 54 10000 8.2 40 17:19 26.02.2020
1915 Clouds -1 993 50 10000 7.7 40 16:56 26.02.2020
1916 Clouds -1 993 65 10000 7.7 40 16:37 26.02.2020
1917 Clouds 0 993 65 10000 8.2 40 16:18 26.02.2020
1918 Clouds 0 993 65 10000 8.2 40 15:43 26.02.2020
1919 Clouds 0 993 65 10000 7.2 40 15:25 26.02.2020
1920 Clouds 0 992 65 10000 7.2 50 14:43 26.02.2020
1921 Clouds 0 992 65 10000 7.2 50 14:23 26.02.2020
1922 Clouds 0 992 66 10000 7.7 50 13:44 26.02.2020
1923 Clouds 0 992 66 10000 7.7 40 13:23 26.02.2020
1924 Clouds 1 992 64 10000 8.2 40 12:59 26.02.2020
1925 Clouds 0 992 64 10000 7.7 50 12:38 26.02.2020
1926 Clouds 0 992 64 10000 7.7 50 12:38 26.02.2020
1927 Clouds 0 991 64 10000 7.7 50 12:18 26.02.2020
1928 Clouds 0 991 64 10000 7.7 50 11:42 26.02.2020
1929 Clouds 0 991 66 10000 7.7 50 11:22 26.02.2020
1930 Clouds 0 991 66 10000 7.7 50 11:22 26.02.2020
1931 Clouds 0 991 66 10000 8.2 50 10:59 26.02.2020
1932 Clouds 0 991 66 10000 7.2 40 10:39 26.02.2020
1933 Clouds 0 991 66 10000 7.2 40 10:21 26.02.2020
1934 Clouds -1 991 63 10000 7.2 40 09:43 26.02.2020
1935 Clouds -1 991 63 10000 7.2 40 09:23 26.02.2020
1936 Clouds -1 991 68 10000 6.7 50 08:56 26.02.2020
1937 Clouds -2 991 68 10000 6.7 50 08:36 26.02.2020
1938 Clouds -2 991 68 10000 6.7 50 08:18 26.02.2020
1939 Clouds -2 991 68 10000 6.2 60 07:42 26.02.2020
1940 Clouds -2 991 68 10000 6.2 50 07:23 26.02.2020
1941 Clouds -2 991 68 10000 6.2 50 06:50 26.02.2020
1942 Clouds -2 991 68 10000 6.2 50 06:31 26.02.2020
1943 Clouds -2 991 73 10000 6.7 50 05:49 26.02.2020
1944 Clouds -2 991 73 10000 6.2 50 05:20 26.02.2020
1945 Clouds -3 991 79 10000 6.7 50 03:57 26.02.2020
1946 Clouds -3 992 79 10000 5.1 50 02:20 26.02.2020
1947 Clouds -3 993 79 10000 4.6 50 01:39 26.02.2020
1948 Clouds -3 993 79 10000 4.6 60 00:47 26.02.2020
1949 Clouds -3 993 79 10000 4.6 60 00:21 26.02.2020
1950 Clouds -3 994 79 10000 3.6 50 23:45 25.02.2020
1951 Clouds -3 994 79 10000 3.6 50 23:26 25.02.2020
1952 Clouds -3 994 79 10000 3.6 50 22:58 25.02.2020
1953 Clouds -3 994 79 10000 3.1 60 22:40 25.02.2020
1954 Clouds -4 994 79 10000 3.1 60 22:19 25.02.2020
1955 Clouds -3 995 73 10000 3.6 50 21:39 25.02.2020
1956 Clouds -3 995 73 10000 3.6 50 21:20 25.02.2020
1957 Clouds -3 995 73 10000 3.6 50 21:20 25.02.2020
1958 Clouds -3 995 73 10000 3.6 50 20:58 25.02.2020
1959 Clouds -3 995 79 10000 3.6 50 20:39 25.02.2020
1960 Clouds -3 995 79 10000 3.6 50 20:20 25.02.2020
1961 Clouds -3 996 79 10000 2.6 70 19:58 25.02.2020
1962 Clouds -3 996 73 10000 3.1 60 19:40 25.02.2020
1963 Clouds -3 996 73 10000 3.1 60 19:19 25.02.2020
1964 Clouds -3 996 73 10000 2.6 70 18:41 25.02.2020
1965 Clouds -2 996 73 10000 2.6 70 18:21 25.02.2020
1966 Clouds -2 996 68 10000 2.1 100 17:57 25.02.2020
1967 Clouds -2 997 58 10000 2.6 0 17:37 25.02.2020
1968 Clouds -2 997 58 10000 2.6 0 17:19 25.02.2020
1969 Clouds -1 997 58 10000 4.1 140 16:58 25.02.2020
1970 Clouds -1 997 51 10000 4.1 130 16:39 25.02.2020
1971 Clouds -1 997 51 10000 4.1 130 16:20 25.02.2020
1972 Clouds 0 997 47 10000 2.6 120 15:55 25.02.2020
1973 Clouds 0 997 43 10000 2.1 90 15:37 25.02.2020
1974 Clouds 1 997 37 10000 1 0 15:18 25.02.2020
1975 Clouds 1 997 37 10000 1 0 14:54 25.02.2020
1976 Clouds 1 998 37 10000 1.5 170 14:36 25.02.2020
1977 Clouds 1 998 37 10000 1.5 170 14:18 25.02.2020
1978 Clouds 1 998 37 10000 1.5 170 14:18 25.02.2020
1979 Clouds 1 998 40 10000 1.5 0 13:42 25.02.2020
1980 Clouds 1 998 43 10000 1.5 130 13:21 25.02.2020
1981 Clouds 1 998 43 10000 0.5 0 12:59 25.02.2020
1982 Clouds 1 999 53 10000 1 0 12:39 25.02.2020
1983 Clouds 1 999 53 10000 1 0 12:20 25.02.2020
1984 Clouds 0 999 53 10000 1 0 11:56 25.02.2020
1985 Clouds 0 999 53 10000 2.1 0 11:38 25.02.2020
1986 Clouds 0 999 53 10000 2.1 0 11:18 25.02.2020
1987 Clouds 0 999 53 10000 2.1 0 11:18 25.02.2020
1988 Clouds 0 999 63 10000 3.1 340 10:56 25.02.2020
1989 Clouds -1 999 68 10000 2.1 340 10:38 25.02.2020
1990 Clouds -1 999 68 10000 2.1 340 10:19 25.02.2020
1991 Clouds -2 999 74 10000 2.1 310 09:40 25.02.2020
1992 Clouds -2 999 74 10000 2.1 310 09:19 25.02.2020
1993 Clear -3 999 92 10000 1.5 320 08:43 25.02.2020
1994 Clear -4 999 92 10000 1.5 320 08:24 25.02.2020
1995 Clear -4 999 85 10000 1.5 250 07:50 25.02.2020
1996 Clear -5 999 92 10000 4.1 300 07:25 25.02.2020
1997 Clear -5 999 92 10000 2.1 280 06:57 25.02.2020
1998 Clouds -5 999 85 10000 1 0 06:25 25.02.2020
1999 Clear -4 999 85 10000 3.1 300 05:22 25.02.2020
2000 Clear -3 999 86 10000 3.1 260 02:38 25.02.2020
2001 Clear -2 999 79 10000 3.6 260 00:59 25.02.2020
2002 Clear -2 999 79 10000 4.1 260 00:33 25.02.2020
2003 Clear -2 999 79 10000 3.6 280 23:56 24.02.2020
2004 Clear -2 999 79 10000 3.6 260 23:37 24.02.2020
2005 Clear -2 999 79 10000 3.6 260 23:18 24.02.2020
2006 Clear -1 999 74 10000 4.6 260 22:37 24.02.2020
2007 Clear -1 999 74 10000 4.6 260 22:18 24.02.2020
2008 Clear -1 998 74 10000 3.6 250 21:55 24.02.2020
2009 Clear -1 998 74 10000 4.6 260 21:36 24.02.2020
2010 Clear -1 998 74 10000 4.6 260 21:18 24.02.2020
2011 Clear -1 998 74 10000 5.1 270 20:42 24.02.2020
2012 Clear 0 998 65 10000 4.1 270 20:21 24.02.2020
2013 Clear 0 998 65 10000 6.7 270 19:59 24.02.2020
2014 Clear 0 997 65 10000 6.2 270 19:41 24.02.2020
2015 Clear 0 997 65 10000 6.2 270 19:23 24.02.2020
2016 Clear 0 997 59 10000 6.2 270 18:59 24.02.2020
2017 Clear 1 997 55 10000 6.7 270 18:41 24.02.2020
2018 Clear 1 997 55 10000 6.7 270 18:22 24.02.2020
2019 Clear 1 997 55 10000 7.2 270 17:55 24.02.2020
2020 Clouds 1 996 51 10000 8.2 270 17:36 24.02.2020
2021 Clouds 2 996 51 10000 8.2 270 17:18 24.02.2020
2022 Clouds 2 996 51 10000 8.7 280 16:54 24.02.2020
2023 Clouds 2 996 51 10000 9.8 270 16:36 24.02.2020
2024 Clouds 2 996 51 10000 9.8 270 16:18 24.02.2020
2025 Clouds 3 995 47 10000 7.7 270 15:54 24.02.2020
2026 Clouds 3 995 47 10000 9.3 280 15:36 24.02.2020
2027 Clouds 3 994 51 10000 10.8 270 15:18 24.02.2020
2028 Clouds 3 994 48 10000 8.7 270 14:40 24.02.2020
2029 Clouds 4 994 48 10000 8.7 270 14:21 24.02.2020
2030 Clouds 4 994 48 10000 8.7 270 14:21 24.02.2020
2031 Clouds 4 994 48 10000 9.3 280 13:58 24.02.2020
2032 Clouds 4 993 44 10000 8.7 280 13:39 24.02.2020
2033 Clouds 4 993 44 10000 8.7 280 13:39 24.02.2020
2034 Clouds 4 993 44 10000 8.7 280 13:20 24.02.2020
2035 Clouds 4 993 48 10000 9.3 290 12:57 24.02.2020
2036 Clouds 4 993 51 10000 9.3 280 12:38 24.02.2020
2037 Clouds 3 993 51 10000 9.3 280 12:19 24.02.2020
2038 Clouds 3 993 51 10000 9.3 290 11:45 24.02.2020
2039 Clouds 3 993 59 10000 8.7 280 11:26 24.02.2020
2040 Clouds 2 992 55 10000 9.3 280 10:45 24.02.2020
2041 Clouds 2 992 55 10000 8.7 280 10:27 24.02.2020
2042 Clouds 2 992 59 10000 8.2 280 09:54 24.02.2020
2043 Clouds 2 991 64 10000 7.7 280 09:36 24.02.2020
2044 Clouds 1 991 64 10000 7.7 280 09:18 24.02.2020
2045 Clouds 1 991 63 10000 7.2 280 08:45 24.02.2020
2046 Clouds 1 991 64 10000 7.2 280 08:27 24.02.2020
2047 Clouds 0 990 64 10000 7.2 280 07:45 24.02.2020
2048 Clouds 0 990 64 10000 7.2 280 07:27 24.02.2020
2049 Clouds 0 989 64 10000 6.7 290 06:36 24.02.2020
2050 Clouds 0 989 64 10000 6.7 290 06:18 24.02.2020
2051 Clouds 0 988 81 10000 6.2 290 05:28 24.02.2020
2052 Clouds 1 986 80 10000 6.2 280 03:45 24.02.2020
2053 Clouds 1 986 80 10000 4.6 260 02:52 24.02.2020
2054 Rain 1 985 80 10000 5.7 270 01:42 24.02.2020
2055 Rain 2 985 80 10000 5.7 260 00:52 24.02.2020
2056 Clouds 2 984 80 10000 5.1 260 00:23 24.02.2020
2057 Clouds 2 984 79 10000 6.2 260 23:59 23.02.2020
2058 Clouds 2 984 79 10000 5.7 260 23:40 23.02.2020
2059 Clouds 2 984 79 10000 5.7 260 23:18 23.02.2020
2060 Clouds 2 984 79 10000 6.2 260 22:54 23.02.2020
2061 Clouds 2 983 79 10000 5.1 260 22:36 23.02.2020
2062 Clouds 2 983 79 10000 5.1 260 22:18 23.02.2020
2063 Clouds 2 983 79 10000 5.7 260 21:43 23.02.2020
2064 Rain 3 983 79 10000 5.7 270 21:19 23.02.2020
2065 Clouds 3 982 74 10000 5.1 270 20:55 23.02.2020
2066 Clouds 3 982 74 10000 5.1 250 20:37 23.02.2020
2067 Clouds 3 982 74 10000 5.1 250 20:19 23.02.2020
2068 Clouds 3 982 77 10000 4.6 240 19:54 23.02.2020
2069 Clouds 3 982 77 10000 4.6 240 19:54 23.02.2020
2070 Clouds 3 981 77 10000 3.6 250 19:36 23.02.2020
2071 Clouds 3 981 77 10000 3.6 250 19:18 23.02.2020
2072 Clouds 3 981 74 10000 4.1 260 18:41 23.02.2020
2073 Clouds 3 981 74 10000 4.1 260 18:21 23.02.2020
2074 Clouds 3 981 77 10000 4.6 250 17:59 23.02.2020
2075 Clouds 3 981 77 10000 4.6 250 17:41 23.02.2020
2076 Rain 3 981 77 10000 6.2 260 17:21 23.02.2020
2077 Rain 4 980 69 10000 6.2 250 16:57 23.02.2020
2078 Rain 4 980 69 10000 6.2 250 16:38 23.02.2020
2079 Rain 4 980 69 10000 6.2 250 16:20 23.02.2020
2080 Rain 4 979 69 10000 8.2 260 15:54 23.02.2020
2081 Clouds 4 980 75 0 4.47 304 15:36 23.02.2020
2082 Clouds 4 979 65 10000 6.7 240 15:18 23.02.2020
2083 Clouds 5 979 65 10000 6.7 240 14:55 23.02.2020
2084 Clouds 5 979 60 10000 6.7 240 14:37 23.02.2020
2085 Clouds 5 979 60 10000 6.7 240 14:37 23.02.2020
2086 Clouds 5 979 60 10000 6.7 240 14:18 23.02.2020
2087 Clouds 5 979 60 10000 7.2 260 13:54 23.02.2020
2088 Clouds 5 979 65 10000 5.7 240 13:36 23.02.2020
2089 Clouds 5 979 65 10000 6.7 250 13:18 23.02.2020
2090 Clouds 5 979 69 10000 7.7 260 12:40 23.02.2020
2091 Clouds 5 979 69 10000 7.7 260 12:20 23.02.2020
2092 Clouds 4 979 69 10000 6.2 250 11:39 23.02.2020
2093 Clouds 4 979 69 10000 6.2 250 11:20 23.02.2020
2094 Clouds 4 979 74 10000 6.7 250 10:58 23.02.2020
2095 Clouds 4 979 74 10000 5.7 240 10:40 23.02.2020
2096 Clouds 3 979 74 10000 5.7 240 10:21 23.02.2020
2097 Clouds 3 979 74 10000 6.2 240 09:56 23.02.2020
2098 Clouds 3 979 82 0 3.58 288 09:37 23.02.2020
2099 Clouds 3 979 80 10000 5.7 220 09:18 23.02.2020
2100 Clouds 2 979 80 10000 5.7 220 08:44 23.02.2020
2101 Clear 2 978 74 10000 5.7 220 08:25 23.02.2020
2102 Clear 1 978 80 10000 5.7 220 07:44 23.02.2020
2103 Clear 1 978 80 10000 5.1 230 07:26 23.02.2020
2104 Clear 2 978 74 10000 6.7 240 06:20 23.02.2020
2105 Clear 2 977 74 10000 6.2 230 04:59 23.02.2020
2106 Clear 2 977 80 10000 6.2 240 03:53 23.02.2020
2107 Clouds 3 976 74 10000 8.7 240 02:40 23.02.2020
2108 Clouds 4 975 72 10000 8.2 250 01:28 23.02.2020
2109 Clouds 4 974 69 10000 8.7 250 00:59 23.02.2020
2110 Clouds 4 974 72 10000 10.8 250 00:41 23.02.2020
2111 Clouds 4 974 72 10000 10.8 250 00:19 23.02.2020
2112 Clouds 4 972 80 10000 10.8 230 23:42 22.02.2020
2113 Clouds 4 972 80 10000 10.8 230 23:20 22.02.2020
2114 Clouds 4 972 86 10000 10.3 230 22:45 22.02.2020
2115 Rain 4 972 86 10000 10.8 230 22:20 22.02.2020
2116 Rain 4 972 86 10000 10.3 210 21:43 22.02.2020
2117 Rain 4 972 86 10000 10.3 210 21:25 22.02.2020
2118 Rain 4 973 86 10000 10.3 200 20:58 22.02.2020
2119 Rain 5 974 86 10000 10.8 210 20:39 22.02.2020
2120 Rain 5 974 86 10000 10.8 210 20:21 22.02.2020
2121 Rain 5 975 93 5000 10.8 190 19:42 22.02.2020
2122 Rain 4 975 93 5000 10.8 190 19:23 22.02.2020
2123 Rain 4 976 93 8000 10.8 190 18:57 22.02.2020
2124 Rain 3 977 100 6000 10.8 190 18:37 22.02.2020
2125 Rain 3 978 93 6000 12.3 190 18:19 22.02.2020
2126 Clouds 3 978 93 6000 12.3 190 17:44 22.02.2020
2127 Rain 2 978 93 5000 13.4 190 17:26 22.02.2020
2128 Rain 3 979 93 6000 13.4 190 16:59 22.02.2020
2129 Rain 3 980 93 3000 12.3 190 16:40 22.02.2020
2130 Rain 3 980 93 3000 12.3 190 16:20 22.02.2020
2131 Rain 3 980 93 3000 12.3 190 16:20 22.02.2020
2132 Rain 3 982 93 8000 10.3 180 15:55 22.02.2020
2133 Rain 2 983 100 3000 11.3 190 15:37 22.02.2020
2134 Snow 1 983 100 3000 11.3 190 15:19 22.02.2020
2135 Rain 2 984 93 6000 12.9 190 14:41 22.02.2020
2136 Rain 2 985 93 7000 13.9 190 14:21 22.02.2020
2137 Rain 3 987 86 10000 14.4 190 13:43 22.02.2020
2138 Rain 3 987 86 10000 14.4 190 13:20 22.02.2020
2139 Rain 4 988 93 8000 12.3 190 12:58 22.02.2020
2140 Rain 4 989 93 8000 13.9 190 12:39 22.02.2020
2141 Rain 4 989 93 8000 13.9 190 12:20 22.02.2020
2142 Rain 4 991 93 9000 13.9 200 11:43 22.02.2020
2143 Rain 4 992 93 10000 13.4 200 11:25 22.02.2020
2144 Rain 4 993 93 10000 12.9 200 10:55 22.02.2020
2145 Rain 4 993 92 0 15.41 205 10:36 22.02.2020
2146 Rain 4 993 93 0 12.52 200 10:18 22.02.2020
2147 Rain 4 993 93 0 12.52 200 10:18 22.02.2020
2148 Rain 4 994 93 9000 12.9 200 09:42 22.02.2020
2149 Rain 4 995 93 7000 11.8 200 09:22 22.02.2020
2150 Drizzle 4 995 93 3500 10.3 200 08:57 22.02.2020
2151 Drizzle 4 996 93 4000 11.3 200 08:38 22.02.2020
2152 Drizzle 4 996 93 4000 11.3 200 08:20 22.02.2020
2153 Rain 4 998 94 0 14.77 214 07:39 22.02.2020
2154 Drizzle 4 997 86 3500 12.3 200 07:18 22.02.2020
2155 Rain 5 997 86 10000 11.8 210 06:43 22.02.2020
2156 Clouds 5 999 80 10000 11.8 210 04:45 22.02.2020
2157 Rain 5 999 80 10000 12.9 210 04:25 22.02.2020
2158 Clouds 5 999 80 10000 11.3 200 02:42 22.02.2020
2159 Clouds 4 1000 80 10000 10.8 200 01:49 22.02.2020
2160 Clouds 4 1001 86 10000 10.3 200 01:29 22.02.2020
2161 Clouds 4 1001 86 10000 9.8 190 00:49 22.02.2020
2162 Clouds 4 1002 86 10000 8.2 210 00:31 22.02.2020
2163 Clouds 4 1002 86 10000 9.8 200 23:53 21.02.2020
2164 Clouds 4 1002 86 10000 9.3 210 23:26 21.02.2020
2165 Clouds 4 1002 86 10000 9.3 210 22:59 21.02.2020
2166 Clouds 4 1002 86 10000 9.3 210 22:41 21.02.2020
2167 Clouds 4 1002 86 10000 9.3 210 22:23 21.02.2020
2168 Clouds 4 1002 86 10000 9.8 210 21:55 21.02.2020
2169 Clouds 4 1002 86 10000 8.7 210 21:37 21.02.2020
2170 Clouds 4 1002 86 10000 8.7 210 21:37 21.02.2020
2171 Clouds 4 1002 86 10000 8.7 210 21:18 21.02.2020
2172 Clouds 3 1002 80 10000 7.7 210 20:41 21.02.2020
2173 Clouds 3 1002 80 10000 7.7 210 20:23 21.02.2020
2174 Clouds 3 1002 86 10000 8.2 210 19:39 21.02.2020
2175 Clouds 3 1002 86 10000 8.2 210 19:19 21.02.2020
2176 Clouds 4 1002 86 10000 9.8 210 18:43 21.02.2020
2177 Clouds 4 1002 86 10000 8.7 200 18:23 21.02.2020
2178 Clouds 4 1002 86 10000 8.7 200 17:57 21.02.2020
2179 Clouds 4 1002 86 10000 9.3 200 17:37 21.02.2020
2180 Clouds 4 1002 86 10000 9.3 200 17:19 21.02.2020
2181 Rain 3 1001 93 10000 10.8 190 16:42 21.02.2020
2182 Rain 3 1001 93 10000 10.8 190 16:22 21.02.2020
2183 Rain 3 1001 93 10000 10.3 190 15:58 21.02.2020
2184 Drizzle 3 1001 93 8000 11.3 190 15:38 21.02.2020
2185 Drizzle 3 1001 93 8000 11.3 190 15:18 21.02.2020
2186 Rain 3 1001 93 10000 10.8 180 14:42 21.02.2020
2187 Rain 3 1000 86 10000 9.8 180 14:21 21.02.2020
2188 Rain 3 1001 86 10000 9.3 180 13:58 21.02.2020
2189 Rain 3 1001 86 10000 10.3 180 13:38 21.02.2020
2190 Rain 3 1001 86 10000 10.3 180 13:20 21.02.2020
2191 Drizzle 2 1001 86 10000 10.3 180 12:42 21.02.2020
2192 Drizzle 3 1001 86 10000 10.3 180 12:24 21.02.2020
2193 Drizzle 3 1001 86 5000 10.8 180 11:55 21.02.2020
2194 Drizzle 3 1001 86 5000 10.8 180 11:55 21.02.2020
2195 Clouds 3 1001 86 7000 9.8 180 11:36 21.02.2020
2196 Clouds 3 1001 86 7000 9.8 180 11:18 21.02.2020
2197 Clouds 3 1001 86 10000 8.2 180 10:41 21.02.2020
2198 Clouds 2 1001 93 10000 7.7 170 10:20 21.02.2020
2199 Clouds 2 1001 93 6000 7.7 170 09:58 21.02.2020
2200 Clouds 2 1001 93 7000 8.2 170 09:38 21.02.2020
2201 Clouds 2 1001 93 7000 8.2 170 09:20 21.02.2020
2202 Rain 2 1001 93 6000 8.2 170 08:45 21.02.2020
2203 Rain 2 1002 93 3000 8.2 160 08:23 21.02.2020
2204 Rain 2 1002 81 3000 7.7 170 07:59 21.02.2020
2205 Rain 1 1002 100 3500 6.7 160 07:41 21.02.2020
2206 Rain 1 1002 100 3500 6.7 160 07:20 21.02.2020
2207 Clouds 1 1002 81 5000 7.7 160 06:55 21.02.2020
2208 Clouds 2 1002 81 10000 7.7 160 06:31 21.02.2020
2209 Clouds 2 1003 81 10000 8.7 170 05:55 21.02.2020
2210 Clouds 3 1004 74 10000 7.7 170 04:39 21.02.2020
2211 Clouds 3 1004 74 10000 7.7 170 04:20 21.02.2020
2212 Clouds 3 1005 74 10000 7.7 180 03:44 21.02.2020
2213 Clouds 3 1006 82 10000 7.7 170 02:58 21.02.2020
2214 Clouds 2 1007 85 10000 7.2 180 01:28 21.02.2020
2215 Clouds 2 1008 85 10000 6.2 180 00:46 21.02.2020
2216 Clouds 2 1008 93 10000 6.7 180 00:24 21.02.2020
2217 Rain 2 1008 85 10000 7.2 180 23:46 20.02.2020
2218 Rain 2 1009 87 10000 6.2 180 23:26 20.02.2020
2219 Clouds 2 1009 87 10000 7.2 180 23:00 20.02.2020
2220 Clouds 2 1010 87 10000 7.7 180 22:39 20.02.2020
2221 Clouds 2 1010 87 10000 7.7 180 22:20 20.02.2020
2222 Clouds 2 1010 87 10000 4.6 180 21:57 20.02.2020
2223 Clouds 1 1010 87 10000 3.6 140 21:37 20.02.2020
2224 Clouds 1 1010 87 10000 3.6 140 21:19 20.02.2020
2225 Clouds 0 1011 92 10000 3.1 140 20:55 20.02.2020
2226 Clouds -1 1011 92 10000 2.6 150 20:37 20.02.2020
2227 Clouds -1 1011 92 10000 2.6 150 20:19 20.02.2020
2228 Clouds -1 1011 86 10000 2.1 180 19:58 20.02.2020
2229 Clouds -1 1012 76 10000 3.6 180 19:39 20.02.2020
2230 Clouds -1 1012 76 10000 3.6 180 19:21 20.02.2020
2231 Clouds -1 1012 92 10000 2.6 210 18:39 20.02.2020
2232 Clouds -1 1012 92 10000 2.6 210 18:20 20.02.2020
2233 Clouds 0 1012 76 10000 2.1 190 17:55 20.02.2020
2234 Clouds 0 1012 76 10000 2.1 190 17:36 20.02.2020
2235 Clouds 0 1012 73 10000 2.1 190 17:18 20.02.2020
2236 Clouds 0 1012 73 10000 2.1 110 16:55 20.02.2020
2237 Snow 0 1012 73 6000 1.5 130 16:37 20.02.2020
2238 Snow 1 1012 73 6000 1.5 130 16:18 20.02.2020
2239 Snow 1 1012 73 4000 1.5 130 15:41 20.02.2020
2240 Clouds 1 1012 73 1500 3.1 140 15:21 20.02.2020
2241 Clouds 1 1012 80 10000 2.6 110 14:56 20.02.2020
2242 Clouds 1 1012 80 10000 3.1 130 14:38 20.02.2020
2243 Clouds 1 1012 80 10000 3.1 130 14:20 20.02.2020
2244 Clouds 1 1012 80 10000 2.1 100 13:45 20.02.2020
2245 Clouds 1 1012 80 10000 2.1 100 13:20 20.02.2020
2246 Clouds 1 1012 74 10000 1 0 12:58 20.02.2020
2247 Clouds 1 1012 74 10000 1.5 0 12:40 20.02.2020
2248 Clouds 1 1012 74 10000 1.5 0 12:19 20.02.2020
2249 Clouds 0 1012 89 10000 1.5 60 11:54 20.02.2020
2250 Clouds 1 1012 89 10000 2.6 80 11:36 20.02.2020
2251 Clouds 0 1012 89 10000 3.1 80 11:18 20.02.2020
2252 Snow 0 1012 86 10000 3.6 50 10:42 20.02.2020
2253 Snow 0 1012 86 10000 3.6 50 10:42 20.02.2020
2254 Snow 0 1012 86 10000 3.6 50 10:22 20.02.2020
2255 Snow 0 1012 86 9000 2.1 20 09:55 20.02.2020
2256 Clouds -1 1011 86 10000 2.6 20 09:36 20.02.2020
2257 Clouds 0 1011 86 10000 2.6 20 09:18 20.02.2020
2258 Clouds 0 1010 92 10000 2.1 350 08:39 20.02.2020
2259 Clouds -1 1010 92 10000 2.1 350 08:21 20.02.2020
2260 Clouds -1 1010 92 10000 2.1 350 07:46 20.02.2020
2261 Clouds 0 1010 92 10000 2.1 350 07:26 20.02.2020
2262 Clouds 0 1009 91 10000 2.6 10 06:55 20.02.2020
2263 Clouds 0 1009 91 10000 3.6 10 06:27 20.02.2020
2264 Clouds 1 1008 80 10000 3.6 360 05:47 20.02.2020
2265 Clouds 1 1008 86 10000 3.1 350 04:56 20.02.2020
2266 Clouds 1 1007 86 10000 3.1 350 04:23 20.02.2020
2267 Clouds 1 1006 96 10000 2.6 360 03:35 20.02.2020
2268 Clouds 1 1005 91 10000 2.1 300 02:28 20.02.2020
2269 Clouds 1 1005 86 10000 1.5 250 01:18 20.02.2020
2270 Clouds 1 1004 89 10000 2.1 290 00:34 20.02.2020
2271 Clouds 1 1004 89 10000 2.1 240 23:52 19.02.2020
2272 Clouds 1 1003 89 10000 2.1 230 23:23 19.02.2020
2273 Clouds 1 1003 89 10000 1.5 260 22:55 19.02.2020
2274 Clouds 1 1003 89 10000 2.1 270 22:37 19.02.2020
2275 Clouds 1 1003 89 10000 2.1 270 22:18 19.02.2020
2276 Clouds 1 1002 89 10000 1.5 270 21:55 19.02.2020
2277 Clouds 1 1002 89 10000 1.5 260 21:36 19.02.2020
2278 Clouds 1 1002 89 10000 1.5 260 21:18 19.02.2020
2279 Clouds 1 1002 89 10000 2.6 250 20:55 19.02.2020
2280 Clouds 2 1001 89 10000 1.5 240 20:36 19.02.2020
2281 Clouds 2 1001 82 10000 1.5 240 20:18 19.02.2020
2282 Clouds 2 1001 82 10000 2.6 220 19:54 19.02.2020
2283 Clouds 2 1001 82 10000 2.6 240 19:36 19.02.2020
2284 Clouds 2 1001 82 10000 2.6 240 19:18 19.02.2020
2285 Clouds 2 1000 82 10000 3.1 230 18:55 19.02.2020
2286 Clouds 3 1000 82 10000 3.1 230 18:37 19.02.2020
2287 Clouds 3 1000 82 10000 3.1 230 18:19 19.02.2020
2288 Rain 3 999 82 10000 4.6 230 17:42 19.02.2020
2289 Rain 3 999 82 10000 4.6 230 17:42 19.02.2020
2290 Rain 3 999 82 10000 4.6 230 17:19 19.02.2020
2291 Rain 4 999 82 10000 5.7 240 16:43 19.02.2020
2292 Clouds 4 999 65 10000 4.1 240 16:19 19.02.2020
2293 Clouds 4 998 65 10000 5.1 230 15:57 19.02.2020
2294 Clouds 5 998 82 10000 4.1 250 15:38 19.02.2020
2295 Clouds 5 998 82 10000 4.1 250 15:20 19.02.2020
2296 Clouds 5 998 82 10000 4.6 250 14:41 19.02.2020
2297 Clouds 5 997 84 10000 5.1 250 14:23 19.02.2020
2298 Clouds 5 997 65 10000 6.7 250 13:56 19.02.2020
2299 Clouds 5 997 84 10000 7.2 240 13:37 19.02.2020
2300 Clouds 5 997 84 10000 7.2 240 13:18 19.02.2020
2301 Clouds 5 997 84 10000 7.2 240 12:39 19.02.2020
2302 Clouds 5 997 84 10000 7.2 240 12:19 19.02.2020
2303 Clouds 5 996 75 10000 6.7 240 11:55 19.02.2020
2304 Clouds 5 996 84 10000 5.7 250 11:37 19.02.2020
2305 Clouds 5 996 84 10000 5.7 250 11:18 19.02.2020
2306 Clouds 5 996 75 10000 6.2 240 10:56 19.02.2020
2307 Clouds 4 996 80 10000 5.1 250 10:36 19.02.2020
2308 Clouds 4 996 80 10000 5.1 250 10:18 19.02.2020
2309 Clouds 4 995 80 10000 4.1 230 09:41 19.02.2020
2310 Clouds 4 995 80 10000 4.1 230 09:20 19.02.2020
2311 Clouds 3 995 84 10000 5.7 230 08:56 19.02.2020
2312 Clouds 3 995 84 10000 4.6 220 08:37 19.02.2020
2313 Clouds 3 995 83 10000 4.6 220 08:18 19.02.2020
2314 Clouds 2 994 83 10000 4.6 220 07:41 19.02.2020
2315 Clouds 2 994 83 10000 4.6 220 07:20 19.02.2020
2316 Clouds 2 994 83 10000 4.6 210 06:46 19.02.2020
2317 Clouds 2 994 83 10000 5.1 220 05:32 19.02.2020
2318 Clouds 3 993 86 10000 5.7 220 03:53 19.02.2020
2319 Clouds 3 992 93 10000 4.6 210 02:36 19.02.2020
2320 Clouds 4 992 86 10000 5.7 210 01:53 19.02.2020
2321 Clouds 4 992 93 10000 5.7 220 01:23 19.02.2020
2322 Clouds 4 992 93 10000 5.7 220 00:41 19.02.2020
2323 Clouds 4 992 93 10000 6.7 220 00:22 19.02.2020
2324 Clouds 4 992 93 10000 7.2 220 23:40 18.02.2020
2325 Clouds 4 992 93 10000 7.2 220 23:20 18.02.2020
2326 Clouds 4 993 87 0 13.29 242 22:55 18.02.2020
2327 Clouds 5 992 80 10000 7.2 220 22:37 18.02.2020
2328 Clouds 5 992 80 10000 7.2 220 22:19 18.02.2020
2329 Clouds 5 992 80 10000 7.2 220 22:19 18.02.2020
2330 Clouds 5 992 80 10000 7.2 220 22:19 18.02.2020
2331 Clouds 4 992 86 10000 7.2 220 21:54 18.02.2020
2332 Clouds 4 992 86 10000 6.7 220 21:36 18.02.2020
2333 Clouds 4 992 86 10000 6.7 220 21:18 18.02.2020
2334 Clouds 4 992 86 10000 7.2 210 20:54 18.02.2020
2335 Rain 4 992 80 10000 6.7 220 20:36 18.02.2020
2336 Rain 5 992 80 10000 6.7 220 20:18 18.02.2020
2337 Rain 4 992 93 10000 7.2 210 19:42 18.02.2020
2338 Rain 4 992 93 10000 7.2 210 19:19 18.02.2020
2339 Rain 4 992 86 10000 7.2 220 18:56 18.02.2020
2340 Rain 5 992 93 10000 7.2 210 18:38 18.02.2020
2341 Rain 5 992 93 10000 7.2 210 18:18 18.02.2020
2342 Rain 5 992 93 10000 7.2 210 18:18 18.02.2020
2343 Clouds 5 992 80 10000 6.7 210 17:41 18.02.2020
2344 Clouds 5 992 80 10000 6.7 210 17:19 18.02.2020
2345 Clouds 6 992 75 10000 6.2 230 16:40 18.02.2020
2346 Clouds 6 992 75 10000 6.2 230 16:22 18.02.2020
2347 Clouds 6 992 75 10000 7.2 230 15:56 18.02.2020
2348 Clouds 6 992 75 10000 7.2 230 15:56 18.02.2020
2349 Clouds 6 991 75 10000 6.7 240 15:37 18.02.2020
2350 Clouds 6 991 75 10000 6.7 240 15:18 18.02.2020
2351 Clouds 6 991 75 10000 7.7 240 14:55 18.02.2020
2352 Clouds 6 991 75 10000 7.7 240 14:55 18.02.2020
2353 Clouds 6 991 75 10000 8.2 240 14:37 18.02.2020
2354 Clouds 6 991 75 10000 8.2 240 14:19 18.02.2020
2355 Clouds 6 991 81 10000 8.2 230 13:41 18.02.2020
2356 Clouds 6 991 81 10000 8.2 230 13:41 18.02.2020
2357 Clouds 6 991 81 10000 8.2 230 13:21 18.02.2020
2358 Clouds 6 991 81 10000 8.2 230 12:50 18.02.2020
2359 Clouds 6 991 81 10000 8.2 230 12:31 18.02.2020
2360 Clouds 6 991 81 10000 8.2 230 11:59 18.02.2020
2361 Clouds 6 991 81 10000 8.2 230 11:41 18.02.2020
2362 Clouds 6 991 81 10000 8.2 230 11:23 18.02.2020
2363 Clouds 6 990 81 10000 7.7 230 10:46 18.02.2020
2364 Clouds 6 990 81 10000 8.2 230 10:24 18.02.2020
2365 Clouds 6 990 81 10000 8.2 230 10:24 18.02.2020
2366 Clouds 6 990 81 10000 7.2 230 09:58 18.02.2020
2367 Clouds 6 990 81 10000 7.2 230 09:58 18.02.2020
2368 Clouds 6 990 81 10000 7.2 230 09:58 18.02.2020
2369 Clouds 6 990 81 10000 7.7 230 09:39 18.02.2020
2370 Clouds 6 990 81 10000 7.7 230 09:20 18.02.2020
2371 Clouds 6 989 81 10000 8.2 230 08:58 18.02.2020
2372 Clouds 5 989 86 10000 7.2 220 08:40 18.02.2020
2373 Clouds 5 989 86 10000 7.2 220 08:19 18.02.2020
2374 Clouds 5 989 86 10000 8.2 220 07:52 18.02.2020
2375 Clouds 5 988 86 10000 7.2 220 07:29 18.02.2020
2376 Clouds 5 988 86 10000 7.7 230 06:55 18.02.2020
2377 Clouds 5 988 86 10000 7.7 220 06:29 18.02.2020
2378 Rain 5 987 93 10000 7.7 220 05:53 18.02.2020
2379 Rain 5 987 93 10000 8.7 220 05:22 18.02.2020
2380 Rain 5 987 86 10000 9.8 220 03:55 18.02.2020
2381 Rain 5 986 86 10000 11.3 220 02:58 18.02.2020
2382 Clouds 5 987 86 10000 11.3 220 01:45 18.02.2020
2383 Rain 5 987 86 10000 12.3 210 00:44 18.02.2020
2384 Rain 5 987 86 10000 12.3 210 00:19 18.02.2020
2385 Rain 5 988 86 10000 10.3 210 23:44 17.02.2020
2386 Rain 5 988 86 10000 10.3 210 23:24 17.02.2020
2387 Rain 5 988 80 10000 11.8 220 22:58 17.02.2020
2388 Clouds 5 988 80 10000 11.8 220 22:40 17.02.2020
2389 Clouds 5 988 80 10000 11.8 220 22:20 17.02.2020
2390 Clouds 5 988 80 10000 12.3 220 21:39 17.02.2020
2391 Clouds 5 988 80 10000 12.3 220 21:39 17.02.2020
2392 Clouds 5 988 80 10000 12.3 220 21:19 17.02.2020
2393 Clouds 5 988 80 10000 11.8 220 20:57 17.02.2020
2394 Clouds 5 988 80 10000 12.3 220 20:38 17.02.2020
2395 Clouds 5 988 75 10000 10.3 230 20:19 17.02.2020
2396 Clouds 5 989 75 10000 9.3 220 19:43 17.02.2020
2397 Clouds 5 989 75 10000 9.3 220 19:22 17.02.2020
2398 Clouds 5 988 75 10000 11.3 220 18:59 17.02.2020
2399 Clouds 5 988 75 10000 10.8 220 18:37 17.02.2020
2400 Clouds 5 988 75 10000 10.8 220 18:19 17.02.2020
2401 Clouds 5 988 80 10000 11.8 220 17:54 17.02.2020
2402 Clouds 5 988 80 10000 11.8 220 17:36 17.02.2020
2403 Clouds 5 988 80 10000 11.8 220 17:18 17.02.2020
2404 Clouds 5 988 80 10000 11.8 220 17:18 17.02.2020
2405 Clouds 5 987 80 10000 10.3 220 16:42 17.02.2020
2406 Clouds 5 987 80 10000 10.3 220 16:22 17.02.2020
2407 Clouds 5 987 80 10000 8.7 220 15:57 17.02.2020
2408 Clouds 5 987 80 10000 8.2 220 15:39 17.02.2020
2409 Clouds 5 987 80 10000 8.2 220 15:21 17.02.2020
2410 Rain 5 987 86 10000 8.7 220 14:44 17.02.2020
2411 Rain 5 987 86 10000 8.7 220 14:25 17.02.2020
2412 Rain 5 986 86 10000 8.2 220 13:58 17.02.2020
2413 Clouds 5 986 75 10000 8.7 230 13:39 17.02.2020
2414 Clouds 5 986 75 10000 8.7 230 13:19 17.02.2020
2415 Clouds 5 986 80 10000 9.3 230 12:44 17.02.2020
2416 Clouds 5 986 80 10000 9.3 230 12:25 17.02.2020
2417 Clouds 5 985 80 10000 8.7 220 11:59 17.02.2020
2418 Clouds 5 985 80 10000 9.8 230 11:39 17.02.2020
2419 Clouds 5 985 80 10000 9.8 230 11:21 17.02.2020
2420 Clouds 5 984 80 10000 8.7 230 10:55 17.02.2020
2421 Clouds 5 984 86 10000 8.2 230 10:37 17.02.2020
2422 Clouds 4 984 86 10000 8.2 230 10:18 17.02.2020
2423 Clouds 4 984 86 10000 8.2 230 10:18 17.02.2020
2424 Clouds 4 983 93 10000 7.7 240 09:41 17.02.2020
2425 Clouds 4 983 93 10000 7.7 240 09:21 17.02.2020
2426 Clouds 4 983 93 10000 7.7 240 08:58 17.02.2020
2427 Rain 4 982 93 10000 6.2 230 08:40 17.02.2020
2428 Rain 4 982 93 10000 6.2 230 08:20 17.02.2020
2429 Rain 4 981 93 10000 5.1 240 07:45 17.02.2020
2430 Rain 4 981 93 10000 5.1 240 07:24 17.02.2020
2431 Rain 4 980 93 10000 5.7 250 06:52 17.02.2020
2432 Rain 4 980 93 10000 6.2 260 06:32 17.02.2020
2433 Rain 4 982 93 0 10 257 05:56 17.02.2020
2434 Rain 4 979 93 10000 4.6 210 05:37 17.02.2020
2435 Rain 5 982 93 10000 8.2 210 03:21 17.02.2020
2436 Rain 6 983 93 10000 8.2 200 01:49 17.02.2020
2437 Rain 6 984 93 10000 9.3 210 00:44 17.02.2020
2438 Rain 6 984 93 10000 9.3 210 00:21 17.02.2020
2439 Rain 6 985 100 10000 11.8 210 23:53 16.02.2020
2440 Rain 6 985 93 10000 9.8 200 23:32 16.02.2020
2441 Rain 6 985 93 10000 10.8 200 22:58 16.02.2020
2442 Rain 5 985 100 10000 11.8 190 22:39 16.02.2020
2443 Rain 5 985 100 10000 11.8 190 22:39 16.02.2020
2444 Rain 5 985 100 10000 11.8 190 22:21 16.02.2020
2445 Rain 5 986 100 9000 12.9 200 21:57 16.02.2020
2446 Rain 5 986 100 9000 12.9 200 21:57 16.02.2020
2447 Rain 5 986 100 9000 12.9 200 21:57 16.02.2020
2448 Rain 5 986 93 9000 11.8 190 21:39 16.02.2020
2449 Rain 5 986 93 9000 11.8 190 21:21 16.02.2020
2450 Rain 5 987 93 7000 12.3 190 20:57 16.02.2020
2451 Rain 5 987 93 7000 12.3 190 20:38 16.02.2020
2452 Rain 5 987 93 7000 12.3 190 20:20 16.02.2020
2453 Rain 5 987 93 7000 12.3 190 20:20 16.02.2020
2454 Rain 5 988 93 8000 11.8 190 19:57 16.02.2020
2455 Rain 5 988 93 7000 13.4 190 19:37 16.02.2020
2456 Rain 5 988 93 7000 13.4 190 19:18 16.02.2020
2457 Rain 4 989 93 6000 11.3 190 19:18 16.02.2020
2458 Rain 4 989 93 6000 11.3 190 18:42 16.02.2020
2459 Rain 4 990 93 6000 12.3 190 18:23 16.02.2020
2460 Rain 4 990 93 5000 9.3 180 17:55 16.02.2020
2461 Rain 4 991 93 0 15.9 200 17:36 16.02.2020
2462 Rain 3 992 100 5000 9.8 170 17:18 16.02.2020
2463 Rain 3 992 100 5000 9.8 170 17:18 16.02.2020
2464 Rain 3 992 100 5000 9.8 170 16:54 16.02.2020
2465 Rain 3 993 93 4000 10.3 180 16:36 16.02.2020
2466 Rain 4 993 93 4000 10.3 180 16:18 16.02.2020
2467 Rain 4 993 93 4000 9.3 170 15:41 16.02.2020
2468 Rain 3 994 100 2500 8.7 170 15:21 16.02.2020
2469 Rain 3 995 100 2500 8.7 180 14:44 16.02.2020
2470 Rain 3 996 93 3500 8.7 180 14:23 16.02.2020
2471 Rain 3 997 93 4500 8.7 180 13:57 16.02.2020
2472 Rain 3 997 93 2500 10.3 180 13:38 16.02.2020
2473 Rain 3 997 93 2500 10.3 180 13:20 16.02.2020
2474 Drizzle 3 998 93 3000 10.8 180 12:39 16.02.2020
2475 Drizzle 3 998 93 3000 10.8 180 12:39 16.02.2020
2476 Drizzle 3 998 93 3000 10.8 180 12:19 16.02.2020
2477 Drizzle 3 998 93 3000 10.8 180 12:19 16.02.2020
2478 Mist 3 999 93 2500 10.8 170 11:40 16.02.2020
2479 Mist 3 999 93 2500 10.8 170 11:20 16.02.2020
2480 Mist 3 999 93 2500 10.8 170 11:20 16.02.2020
2481 Mist 3 999 93 2500 8.7 170 10:58 16.02.2020
2482 Mist 3 999 93 2500 8.7 170 10:58 16.02.2020
2483 Mist 3 999 93 2500 8.7 170 10:40 16.02.2020
2484 Rain 3 1000 93 4000 8.7 180 10:21 16.02.2020
2485 Rain 3 1000 93 4000 8.7 180 10:21 16.02.2020
2486 Rain 3 1001 100 4000 8.7 180 09:59 16.02.2020
2487 Rain 2 1001 100 4000 8.7 170 09:38 16.02.2020
2488 Rain 2 1001 100 4000 8.7 170 09:20 16.02.2020
2489 Rain 2 1002 100 6000 10.3 180 08:50 16.02.2020
2490 Rain 2 1002 100 6000 10.3 180 08:50 16.02.2020
2491 Rain 3 1002 93 10000 8.2 170 08:22 16.02.2020
2492 Rain 3 1002 93 10000 8.2 160 07:59 16.02.2020
2493 Rain 3 1002 93 10000 8.2 160 07:40 16.02.2020
2494 Rain 3 1004 93 10000 7.7 170 06:47 16.02.2020
2495 Drizzle 3 1006 100 2000 6.2 180 05:43 16.02.2020
2496 Drizzle 4 1007 93 1500 6.2 180 04:35 16.02.2020
2497 Clouds 4 1007 93 10000 6.2 200 03:19 16.02.2020
2498 Clouds 4 1008 93 10000 4.1 200 01:57 16.02.2020
2499 Clouds 4 1008 100 10000 3.6 200 01:37 16.02.2020
2500 Clouds 3 1008 100 10000 3.6 200 01:19 16.02.2020
2501 Clouds 3 1008 93 10000 4.1 210 00:41 16.02.2020
2502 Clouds 3 1008 93 10000 4.1 210 00:21 16.02.2020
2503 Clouds 3 1008 93 10000 4.6 220 23:43 15.02.2020
2504 Clouds 3 1008 93 10000 4.6 220 23:24 15.02.2020
2505 Clouds 3 1008 93 10000 5.1 210 22:57 15.02.2020
2506 Clouds 3 1008 93 10000 5.1 220 22:39 15.02.2020
2507 Clouds 3 1008 93 10000 5.1 220 22:19 15.02.2020
2508 Clouds 3 1008 93 10000 4.6 230 21:43 15.02.2020
2509 Drizzle 3 1008 100 4000 5.7 220 21:24 15.02.2020
2510 Drizzle 3 1008 100 3500 5.1 220 20:56 15.02.2020
2511 Rain 3 1008 93 10000 5.7 210 20:37 15.02.2020
2512 Rain 3 1008 93 10000 5.7 210 20:19 15.02.2020
2513 Clouds 3 1008 93 10000 6.7 210 19:41 15.02.2020
2514 Clouds 3 1008 93 10000 6.7 210 19:22 15.02.2020
2515 Rain 2 1009 93 10000 6.7 210 18:41 15.02.2020
2516 Rain 2 1009 93 10000 6.7 210 18:21 15.02.2020
2517 Rain 2 1008 93 9000 8.2 190 17:56 15.02.2020
2518 Rain 2 1009 93 6000 8.2 200 17:37 15.02.2020
2519 Rain 2 1009 93 6000 8.2 200 17:19 15.02.2020
2520 Rain 2 1009 93 5000 8.2 190 16:41 15.02.2020
2521 Rain 2 1009 93 5000 8.2 190 16:23 15.02.2020
2522 Rain 2 1009 93 6000 9.8 190 15:54 15.02.2020
2523 Rain 2 1010 96 4000 9.3 180 15:36 15.02.2020
2524 Rain 2 1010 96 4000 9.3 180 15:36 15.02.2020
2525 Rain 2 1010 96 4000 9.3 180 15:18 15.02.2020
2526 Rain 2 1010 96 10000 9.3 180 14:39 15.02.2020
2527 Rain 2 1010 80 10000 9.3 180 14:18 15.02.2020
2528 Rain 2 1012 93 10000 9.8 190 13:42 15.02.2020
2529 Rain 2 1012 93 10000 9.8 190 13:23 15.02.2020
2530 Rain 2 1012 93 9000 8.7 190 12:57 15.02.2020
2531 Rain 2 1013 93 7000 9.3 190 12:38 15.02.2020
2532 Rain 2 1013 93 7000 9.3 190 12:19 15.02.2020
2533 Rain 2 1013 93 5000 9.8 190 11:46 15.02.2020
2534 Clouds 2 1013 93 10000 8.7 190 11:27 15.02.2020
2535 Clouds 2 1014 93 10000 8.2 190 10:49 15.02.2020
2536 Clouds 2 1014 93 10000 8.2 190 10:29 15.02.2020
2537 Clouds 2 1014 93 10000 7.2 180 09:56 15.02.2020
2538 Clouds 2 1014 93 10000 6.7 180 09:37 15.02.2020
2539 Clouds 2 1015 93 10000 5.7 190 09:19 15.02.2020
2540 Clouds 1 1015 78 10000 5.7 190 08:41 15.02.2020
2541 Clouds 1 1015 80 10000 5.7 190 08:23 15.02.2020
2542 Clouds 1 1016 80 10000 5.1 190 07:45 15.02.2020
2543 Clouds 1 1016 80 10000 5.1 190 07:27 15.02.2020
2544 Clouds 1 1016 80 10000 5.1 190 06:45 15.02.2020
2545 Clouds 0 1016 80 10000 5.1 190 06:26 15.02.2020
2546 Clouds 0 1016 80 10000 3.6 190 05:30 15.02.2020
2547 Clouds -2 1017 83 10000 3.6 190 04:44 15.02.2020
2548 Clouds -2 1018 92 10000 2.6 180 03:23 15.02.2020
2549 Clouds -3 1018 100 10000 2.6 200 02:42 15.02.2020
2550 Clouds -3 1018 100 10000 2.6 200 02:19 15.02.2020
2551 Clouds -3 1018 92 10000 1 0 01:38 15.02.2020
2552 Clouds -4 1018 92 10000 1 0 00:38 15.02.2020
2553 Clouds -4 1018 92 10000 1 0 00:18 15.02.2020
2554 Clouds -4 1018 92 10000 1.5 140 23:39 14.02.2020
2555 Clouds -3 1018 92 10000 1.5 140 23:18 14.02.2020
2556 Clouds -4 1018 100 10000 2.79 270 22:43 14.02.2020
2557 Clouds -4 1018 100 10000 2.79 270 22:22 14.02.2020
2558 Clouds -3 1017 92 10000 1 220 21:51 14.02.2020
2559 Clouds -3 1017 92 10000 1 220 21:51 14.02.2020
2560 Clouds -3 1018 100 10000 1 0 21:33 14.02.2020
2561 Clouds -3 1017 86 10000 1.5 220 20:58 14.02.2020
2562 Clouds -3 1017 92 10000 2.1 230 20:39 14.02.2020
2563 Clouds -3 1017 92 10000 2.1 230 20:19 14.02.2020
2564 Clouds -2 1017 86 10000 1 240 19:42 14.02.2020
2565 Clouds -2 1017 86 10000 1 240 19:24 14.02.2020
2566 Clouds -2 1017 92 10000 1.5 250 18:59 14.02.2020
2567 Clouds -2 1016 86 10000 1 0 18:40 14.02.2020
2568 Clouds -2 1016 86 10000 1 0 18:21 14.02.2020
2569 Clouds -2 1016 86 10000 2.1 280 17:56 14.02.2020
2570 Clouds -1 1016 74 10000 1.5 300 17:38 14.02.2020
2571 Clouds -1 1016 76 10000 1.5 300 17:18 14.02.2020
2572 Clouds -1 1015 76 10000 2.6 320 16:42 14.02.2020
2573 Clouds 0 1015 76 10000 3.6 310 16:23 14.02.2020
2574 Clouds 0 1015 76 10000 3.1 290 15:57 14.02.2020
2575 Clouds 0 1014 76 10000 3.6 290 15:39 14.02.2020
2576 Clouds 0 1014 76 10000 3.6 290 15:20 14.02.2020
2577 Clouds 1 1014 76 10000 4.1 290 14:59 14.02.2020
2578 Clouds 0 1014 76 10000 4.1 290 14:41 14.02.2020
2579 Clouds 1 1014 77 10000 3.6 310 14:22 14.02.2020
2580 Clouds 0 1013 77 10000 4.6 290 13:56 14.02.2020
2581 Clouds 0 1013 77 10000 4.6 310 13:38 14.02.2020
2582 Clouds 0 1013 77 10000 4.6 310 13:19 14.02.2020
2583 Clouds 0 1012 77 10000 4.1 300 12:56 14.02.2020
2584 Clouds 0 1011 77 10000 3.6 280 12:38 14.02.2020
2585 Clouds 0 1011 77 10000 3.6 280 12:19 14.02.2020
2586 Clouds 0 1011 77 10000 3.1 280 11:55 14.02.2020
2587 Clouds 0 1011 77 10000 3.6 300 11:36 14.02.2020
2588 Clouds 0 1011 75 10000 3.6 300 11:18 14.02.2020
2589 Clouds 0 1010 75 10000 2.1 240 10:41 14.02.2020
2590 Clouds 0 1010 75 10000 2.1 240 10:22 14.02.2020
2591 Clouds -1 1010 92 10000 2.1 280 09:45 14.02.2020
2592 Clouds -1 1009 92 10000 2.1 320 09:23 14.02.2020
2593 Clouds -1 1009 100 10000 2.1 300 08:57 14.02.2020
2594 Clouds -2 1009 92 10000 2.6 310 08:39 14.02.2020
2595 Clouds -2 1009 92 10000 2.6 310 08:20 14.02.2020
2596 Mist -2 1008 92 2700 5.1 310 07:49 14.02.2020
2597 Clouds -2 1007 92 10000 2.1 270 07:29 14.02.2020
2598 Clouds -3 1007 92 10000 1.5 260 06:39 14.02.2020
2599 Clouds -3 1007 92 10000 1.5 260 06:18 14.02.2020
2600 Clouds -2 1006 92 10000 3.1 290 05:28 14.02.2020
2601 Clouds -2 1005 100 8000 1 0 03:48 14.02.2020
2602 Mist -1 1004 100 1200 3.6 250 02:56 14.02.2020
2603 Mist -1 1004 100 1200 3.6 250 02:56 14.02.2020
2604 Fog -1 1004 100 700 2.6 270 01:56 14.02.2020
2605 Fog -2 1003 100 800 2.1 240 00:45 14.02.2020
2606 Clouds -2 1003 100 6000 3.1 210 00:27 14.02.2020
2607 Clouds -2 1002 100 10000 3.1 190 23:57 13.02.2020
2608 Clouds -2 1002 92 10000 2.6 200 23:38 13.02.2020
2609 Clouds -2 1002 92 10000 2.6 200 23:18 13.02.2020
2610 Clouds -2 1002 92 10000 2.1 240 22:40 13.02.2020
2611 Clouds -2 1001 92 10000 2.1 240 22:19 13.02.2020
2612 Clouds -1 1001 92 10000 2.6 250 21:56 13.02.2020
2613 Clouds -1 1001 92 10000 3.1 240 21:37 13.02.2020
2614 Clouds -1 1000 79 10000 2.6 250 21:19 13.02.2020
2615 Clouds -1 1000 79 10000 2.6 250 20:42 13.02.2020
2616 Clouds -1 1000 82 10000 2.6 250 20:22 13.02.2020
2617 Clouds -1 1000 82 10000 2.1 220 19:57 13.02.2020
2618 Clouds 0 999 82 10000 2.1 260 19:38 13.02.2020
2619 Clouds 0 999 82 10000 2.1 260 19:20 13.02.2020
2620 Clouds 0 999 82 10000 2.6 240 18:57 13.02.2020
2621 Clouds 0 998 86 10000 2.6 230 18:39 13.02.2020
2622 Clouds 0 998 86 10000 2.6 230 18:20 13.02.2020
2623 Clouds 0 998 86 10000 2.1 250 17:57 13.02.2020
2624 Clouds 0 998 86 10000 2.1 280 17:37 13.02.2020
2625 Clouds 1 998 86 10000 2.1 280 17:18 13.02.2020
2626 Clouds 1 997 84 10000 2.1 250 16:42 13.02.2020
2627 Clouds 2 997 84 10000 2.1 250 16:20 13.02.2020
2628 Clouds 2 997 80 10000 2.1 240 15:57 13.02.2020
2629 Clouds 2 996 80 10000 4.1 280 15:39 13.02.2020
2630 Clouds 2 996 80 10000 4.1 280 15:19 13.02.2020
2631 Clouds 2 996 80 10000 4.1 260 14:58 13.02.2020
2632 -273 0 0 0 0 0 14:39 13.02.2020
2633 Clouds 2 995 80 10000 5.7 260 14:21 13.02.2020
2634 Clouds 2 995 80 10000 4.6 270 13:48 13.02.2020
2635 Clouds 2 995 83 10000 4.1 260 13:48 13.02.2020
2636 Clouds 2 995 80 10000 4.6 270 13:19 13.02.2020
2637 Clouds 2 994 80 10000 5.1 250 12:57 13.02.2020
2638 Clouds 2 994 83 10000 5.7 260 12:38 13.02.2020
2639 Clouds 2 994 83 10000 5.7 260 12:38 13.02.2020
2640 Clouds 2 994 83 10000 5.7 260 12:20 13.02.2020
2641 Clouds 1 993 83 10000 4.6 250 11:47 13.02.2020
2642 Clouds 1 993 86 10000 4.6 260 11:21 13.02.2020
2643 Clouds 1 992 81 10000 4.6 250 10:56 13.02.2020
2644 Clouds 1 992 81 10000 5.1 260 10:38 13.02.2020
2645 Clouds 1 992 81 10000 5.1 260 10:38 13.02.2020
2646 Clouds 1 992 81 10000 5.1 260 10:20 13.02.2020
2647 Clouds 1 991 81 10000 4.1 250 09:41 13.02.2020
2648 Clouds 1 991 93 10000 3.6 250 09:22 13.02.2020
2649 Drizzle 1 990 81 10000 5.7 260 08:45 13.02.2020
2650 Drizzle 1 990 94 10000 5.7 260 08:19 13.02.2020
2651 Drizzle 1 989 93 10000 3.1 230 07:42 13.02.2020
2652 Drizzle 1 989 93 10000 3.1 230 07:22 13.02.2020
2653 Drizzle 1 989 93 10000 3.1 230 07:22 13.02.2020
2654 Drizzle 2 988 93 10000 3.6 230 06:49 13.02.2020
2655 Clouds 2 988 93 10000 3.1 210 06:31 13.02.2020
2656 Rain 2 987 100 9000 2.6 190 05:38 13.02.2020
2657 Rain 2 987 93 10000 4.6 180 04:28 13.02.2020
2658 Rain 2 987 100 8000 4.6 170 03:57 13.02.2020
2659 Rain 2 987 93 10000 4.6 160 03:29 13.02.2020
2660 Rain 2 987 100 5000 3.6 150 02:55 13.02.2020
2661 Rain 2 987 93 6000 5.7 170 02:19 13.02.2020
2662 Rain 2 987 93 10000 3.6 150 01:37 13.02.2020
2663 Drizzle 2 987 93 7000 4.6 150 00:44 13.02.2020
2664 Drizzle 2 987 93 9000 5.1 160 00:25 13.02.2020
2665 Clouds 2 987 86 10000 5.7 170 23:42 12.02.2020
2666 Clouds 2 987 86 10000 5.7 170 23:23 12.02.2020
2667 Clouds 2 986 86 10000 6.2 170 22:54 12.02.2020
2668 Clouds 3 986 86 10000 5.7 170 22:36 12.02.2020
2669 Clouds 3 986 86 10000 5.7 170 22:18 12.02.2020
2670 Rain 3 986 86 10000 5.7 170 21:40 12.02.2020
2671 Rain 2 986 86 10000 5.7 170 21:20 12.02.2020
2672 Rain 2 986 86 10000 5.7 170 21:20 12.02.2020
2673 Clouds 2 987 86 10000 4.6 170 20:59 12.02.2020
2674 Clouds 2 987 86 10000 5.1 170 20:41 12.02.2020
2675 Clouds 2 987 86 10000 5.1 170 20:41 12.02.2020
2676 Clouds 2 987 86 10000 5.1 170 20:22 12.02.2020
2677 Clouds 2 986 85 10000 5.7 180 19:56 12.02.2020
2678 Clouds 2 986 85 10000 4.6 180 19:37 12.02.2020
2679 Clouds 2 986 85 10000 4.6 180 19:19 12.02.2020
2680 Clouds 2 986 85 10000 4.1 180 18:47 12.02.2020
2681 Clouds 2 986 86 10000 5.1 190 18:19 12.02.2020
2682 Clouds 2 986 86 10000 5.1 190 17:56 12.02.2020
2683 Rain 2 986 86 10000 5.7 200 17:37 12.02.2020
2684 Rain 3 986 86 10000 5.7 200 17:19 12.02.2020
2685 Rain 3 985 86 10000 4.6 190 16:40 12.02.2020
2686 Rain 3 985 86 10000 4.6 190 16:20 12.02.2020
2687 Clouds 3 985 86 10000 4.6 200 15:58 12.02.2020
2688 Clouds 3 985 86 10000 4.6 200 15:58 12.02.2020
2689 Rain 3 984 80 10000 6.2 210 15:37 12.02.2020
2690 Rain 3 984 80 10000 6.2 210 15:18 12.02.2020
2691 Rain 3 984 86 10000 5.1 190 14:42 12.02.2020
2692 Rain 4 984 86 10000 5.1 190 14:21 12.02.2020
2693 Clouds 3 984 93 10000 5.7 180 13:58 12.02.2020
2694 Rain 3 984 93 10000 6.2 180 13:40 12.02.2020
2695 Rain 3 984 93 10000 6.2 180 13:21 12.02.2020
2696 Rain 3 983 93 10000 6.2 190 12:57 12.02.2020
2697 Drizzle 3 983 93 10000 6.2 190 12:38 12.02.2020
2698 Drizzle 3 983 93 10000 6.2 190 12:19 12.02.2020
2699 Rain 3 983 93 10000 5.7 190 11:58 12.02.2020
2700 Rain 3 983 86 10000 4.6 190 11:39 12.02.2020
2701 Rain 3 983 86 10000 4.6 190 11:20 12.02.2020
2702 Rain 3 983 86 10000 4.6 190 11:20 12.02.2020
2703 Rain 3 982 93 10000 5.1 190 10:56 12.02.2020
2704 Rain 3 982 93 10000 5.1 190 10:56 12.02.2020
2705 Rain 3 982 93 10000 5.7 190 10:38 12.02.2020
2706 Rain 2 982 93 10000 5.7 190 10:19 12.02.2020
2707 Rain 2 982 93 10000 5.1 200 09:42 12.02.2020
2708 Rain 2 981 93 10000 5.7 190 09:24 12.02.2020
2709 Rain 2 981 93 10000 5.7 190 09:24 12.02.2020
2710 Rain 2 981 93 10000 6.2 200 08:58 12.02.2020
2711 Rain 2 981 93 10000 5.1 200 08:38 12.02.2020
2712 Rain 2 981 93 10000 5.1 200 08:38 12.02.2020
2713 Rain 2 981 93 10000 5.1 200 08:20 12.02.2020
2714 Rain 2 981 93 10000 5.1 200 08:20 12.02.2020
2715 Rain 2 981 93 10000 5.1 200 08:20 12.02.2020
2716 Rain 2 981 93 10000 5.1 200 08:20 12.02.2020
2717 Drizzle 1 981 100 10000 5.1 190 07:45 12.02.2020
2718 Drizzle 1 981 100 10000 5.1 190 07:45 12.02.2020
2719 Rain 1 981 85 6000 4.1 170 07:24 12.02.2020
2720 Rain 1 980 85 10000 4.6 170 06:59 12.02.2020
2721 Rain 1 980 85 10000 4.6 170 06:59 12.02.2020
2722 Rain 1 980 85 10000 5.7 190 06:24 12.02.2020
2723 Rain 1 980 85 10000 5.7 180 05:44 12.02.2020
2724 Rain 1 980 92 10000 5.7 180 05:21 12.02.2020
2725 Snow 1 979 92 10000 5.7 210 04:40 12.02.2020
2726 Rain 1 979 92 8000 5.7 190 03:42 12.02.2020
2727 Rain 1 979 92 8000 5.7 190 03:23 12.02.2020
2728 Snow 1 978 92 3500 4.6 180 02:31 12.02.2020
2729 Snow 1 978 87 2500 5.7 200 01:59 12.02.2020
2730 Rain 1 978 86 3000 4.1 150 00:58 12.02.2020
2731 Rain 1 978 86 3500 2.1 210 00:39 12.02.2020
2732 Rain 1 978 86 3500 2.1 210 00:21 12.02.2020
2733 Snow 1 978 86 5000 4.6 190 23:42 11.02.2020
2734 Rain 1 978 85 5000 4.6 190 23:24 11.02.2020
2735 Rain 2 978 93 10000 5.1 180 22:56 11.02.2020
2736 Rain 2 977 93 10000 5.7 190 22:37 11.02.2020
2737 Rain 2 977 93 10000 5.7 190 22:19 11.02.2020
2738 Clouds 1 977 100 10000 3.6 190 21:56 11.02.2020
2739 Clouds 1 977 85 10000 4.6 190 21:37 11.02.2020
2740 Rain 1 977 93 10000 4.6 190 21:18 11.02.2020
2741 Rain 1 977 85 10000 4.6 190 21:18 11.02.2020
2742 Rain 1 977 93 10000 4.6 190 20:55 11.02.2020
2743 Rain 2 977 86 10000 4.6 190 20:37 11.02.2020
2744 Rain 1 977 83 10000 4.6 190 20:18 11.02.2020
2745 Rain 2 976 83 10000 5.1 200 19:42 11.02.2020
2746 Clouds 2 976 83 10000 5.1 200 19:24 11.02.2020
2747 Clouds 2 976 83 10000 5.1 210 18:57 11.02.2020
2748 Clouds 2 976 83 10000 5.7 210 18:39 11.02.2020
2749 Clouds 2 976 83 10000 5.7 210 18:20 11.02.2020
2750 Clouds 2 976 83 10000 6.2 200 17:55 11.02.2020
2751 Clouds 2 976 83 10000 6.2 200 17:36 11.02.2020
2752 Clouds 3 976 82 10000 6.2 200 17:18 11.02.2020
2753 Clouds 3 975 82 10000 6.7 210 16:56 11.02.2020
2754 Clouds 3 975 82 10000 5.7 200 16:37 11.02.2020
2755 Clouds 3 975 82 10000 5.7 200 16:19 11.02.2020
2756 Clouds 3 975 82 10000 7.7 200 15:44 11.02.2020
2757 Clouds 3 975 82 10000 7.7 200 15:26 11.02.2020
2758 Clouds 3 974 69 10000 8.7 210 14:55 11.02.2020
2759 Clouds 4 974 82 10000 8.2 210 14:36 11.02.2020
2760 Clouds 4 974 82 10000 8.2 210 14:36 11.02.2020
2761 Clouds 4 974 81 10000 8.2 210 14:18 11.02.2020
2762 Clouds 4 973 86 10000 5.1 240 13:41 11.02.2020
2763 Clouds 4 973 86 10000 5.1 240 13:21 11.02.2020
2764 Clouds 4 973 93 10000 5.1 230 12:58 11.02.2020
2765 Rain 3 973 86 10000 7.7 230 12:39 11.02.2020
2766 Rain 4 973 86 10000 7.7 230 12:20 11.02.2020
2767 Rain 3 973 86 10000 6.7 220 11:41 11.02.2020
2768 Rain 4 972 80 10000 5.1 220 11:21 11.02.2020
2769 Clouds 4 972 80 10000 6.2 220 10:57 11.02.2020
2770 Clouds 4 972 80 10000 6.2 220 10:38 11.02.2020
2771 Clouds 4 972 80 10000 6.2 220 10:20 11.02.2020
2772 Clouds 3 972 86 10000 5.7 220 09:56 11.02.2020
2773 Clouds 3 971 86 10000 5.1 220 09:38 11.02.2020
2774 Clouds 3 971 86 10000 5.1 220 09:19 11.02.2020
2775 Clouds 3 971 86 10000 5.1 210 08:44 11.02.2020
2776 Clouds 3 971 86 10000 5.1 210 08:23 11.02.2020
2777 Clouds 3 970 86 10000 5.1 210 07:48 11.02.2020
2778 Clouds 3 970 86 10000 4.6 220 07:26 11.02.2020
2779 Clouds 2 969 93 10000 5.1 220 06:44 11.02.2020
2780 Clouds 2 969 93 10000 5.1 220 06:22 11.02.2020
2781 Clouds 2 969 86 10000 5.1 220 05:56 11.02.2020
2782 Clouds 3 969 86 10000 5.7 220 05:24 11.02.2020
2783 Clouds 3 968 93 10000 6.2 220 04:40 11.02.2020
2784 Clouds 3 967 93 10000 6.7 220 03:21 11.02.2020
2785 Clouds 3 966 93 10000 6.7 220 02:32 11.02.2020
2786 Clouds 3 965 93 10000 4.6 220 01:38 11.02.2020
2787 Clouds 3 964 93 10000 5.1 220 00:42 11.02.2020
2788 Clouds 3 964 93 10000 5.1 220 00:20 11.02.2020
2789 Rain 4 963 93 10000 6.7 210 23:39 10.02.2020
2790 Rain 4 963 93 10000 6.7 210 23:20 10.02.2020
2791 Rain 4 963 93 10000 8.7 210 22:42 10.02.2020
2792 Rain 4 963 93 10000 8.7 210 22:20 10.02.2020
2793 Rain 4 963 93 10000 9.8 200 21:54 10.02.2020
2794 Rain 4 965 90 0 13.1 232 21:36 10.02.2020
2795 Rain 4 963 86 10000 9.8 200 21:18 10.02.2020
2796 Rain 4 963 93 7000 10.3 200 20:54 10.02.2020
2797 Rain 4 965 92 0 13.1 232 20:36 10.02.2020
2798 Rain 4 963 93 7000 9.8 200 20:18 10.02.2020
2799 Rain 4 963 93 7000 9.8 200 19:54 10.02.2020
2800 Rain 4 965 91 0 14.86 210 19:36 10.02.2020
2801 Rain 4 963 86 7000 10.8 200 19:18 10.02.2020
2802 Rain 4 963 86 10000 10.3 200 18:41 10.02.2020
2803 Rain 4 963 86 10000 10.3 200 18:21 10.02.2020
2804 Rain 5 963 86 10000 10.3 190 17:59 10.02.2020
2805 Rain 5 963 93 10000 10.3 190 17:39 10.02.2020
2806 Rain 5 963 93 10000 10.3 190 17:39 10.02.2020
2807 Rain 5 963 93 10000 10.3 190 17:20 10.02.2020
2808 Rain 5 963 93 10000 10.8 200 16:59 10.02.2020
2809 Rain 5 963 93 8000 10.3 190 16:40 10.02.2020
2810 Rain 5 963 93 8000 10.3 190 16:20 10.02.2020
2811 Rain 5 963 93 8000 10.3 190 16:20 10.02.2020
2812 Rain 5 963 93 8000 10.3 190 15:56 10.02.2020
2813 Clouds 4 963 100 10000 9.3 190 15:38 10.02.2020
2814 Rain 4 963 100 10000 9.3 190 15:20 10.02.2020
2815 Drizzle 4 963 100 4000 8.7 180 14:56 10.02.2020
2816 Drizzle 4 964 100 2000 9.3 190 14:37 10.02.2020
2817 Drizzle 4 964 100 2000 9.3 190 14:18 10.02.2020
2818 Drizzle 4 964 93 2000 9.8 180 13:43 10.02.2020
2819 Drizzle 4 964 100 3000 9.8 170 13:24 10.02.2020
2820 Drizzle 4 965 100 3000 9.8 180 12:56 10.02.2020
2821 Rain 4 965 86 10000 11.3 180 12:37 10.02.2020
2822 Rain 4 965 93 10000 11.3 180 12:19 10.02.2020
2823 Rain 4 965 93 7000 11.3 180 11:45 10.02.2020
2824 Rain 4 965 93 7000 11.3 180 11:20 10.02.2020
2825 Clouds 4 966 93 7000 10.3 180 10:48 10.02.2020
2826 Rain 4 966 93 7000 11.3 180 10:29 10.02.2020
2827 Rain 4 967 93 4000 11.8 180 09:48 10.02.2020
2828 Rain 4 967 100 3000 10.3 180 09:27 10.02.2020
2829 Rain 4 968 100 3000 10.8 180 08:59 10.02.2020
2830 Rain 4 968 100 3000 10.8 180 08:59 10.02.2020
2831 Drizzle 3 968 93 3000 10.3 180 08:38 10.02.2020
2832 Drizzle 3 968 93 3000 10.3 180 08:19 10.02.2020
2833 Drizzle 3 968 93 4000 10.3 180 07:51 10.02.2020
2834 Rain 3 969 93 6000 10.8 180 07:32 10.02.2020
2835 Rain 3 970 93 10000 12.3 180 06:30 10.02.2020
2836 Rain 3 973 93 10000 12.3 180 04:47 10.02.2020
2837 Rain 3 974 93 7000 13.4 180 03:52 10.02.2020
2838 Rain 4 976 86 7000 10.3 180 02:57 10.02.2020
2839 Rain 3 978 86 9000 10.8 180 02:35 10.02.2020
2840 Rain 4 981 86 7000 10.3 170 00:56 10.02.2020
2841 Rain 4 983 93 6000 10.3 180 00:37 10.02.2020
2842 Rain 4 984 86 8000 10.3 180 23:58 09.02.2020
2843 Rain 4 985 86 8000 9.3 180 23:40 09.02.2020
2844 Rain 4 985 86 8000 9.3 180 23:22 09.02.2020
2845 Rain 4 987 86 10000 9.8 180 22:43 09.02.2020
2846 Rain 4 987 86 10000 9.8 180 22:21 09.02.2020
2847 Clouds 4 988 86 10000 8.7 170 21:45 09.02.2020
2848 Clouds 4 989 86 9000 9.3 170 21:25 09.02.2020
2849 Clouds 4 990 93 6000 9.8 170 20:59 09.02.2020
2850 Mist 3 992 100 3500 9.3 170 20:41 09.02.2020
2851 Mist 3 992 100 3500 9.3 170 20:19 09.02.2020
2852 Clouds 3 995 93 6000 8.2 180 19:40 09.02.2020
2853 Clouds 4 995 93 6000 8.2 180 19:22 09.02.2020
2854 Clouds 4 996 93 7000 9.3 180 18:59 09.02.2020
2855 Clouds 4 996 93 6000 8.7 180 18:40 09.02.2020
2856 Clouds 4 996 93 6000 8.7 180 18:22 09.02.2020
2857 Clouds 4 998 93 8000 7.7 190 17:43 09.02.2020
2858 Clouds 4 999 93 10000 7.7 190 17:23 09.02.2020
2859 Clouds 4 999 93 10000 8.2 190 16:57 09.02.2020
2860 Clouds 4 1000 93 10000 7.7 220 16:38 09.02.2020
2861 Clouds 4 1000 93 10000 7.7 220 16:20 09.02.2020
2862 Drizzle 4 1000 93 5000 7.7 200 15:56 09.02.2020
2863 Drizzle 4 1000 93 8000 8.2 200 15:38 09.02.2020
2864 Drizzle 4 1001 93 7000 7.2 210 15:20 09.02.2020
2865 Drizzle 4 1001 93 3000 8.2 210 14:42 09.02.2020
2866 Drizzle 4 1001 93 3000 8.2 210 14:23 09.02.2020
2867 Drizzle 4 1002 93 2000 7.7 200 13:55 09.02.2020
2868 Drizzle 4 1002 93 2000 7.7 190 13:36 09.02.2020
2869 Mist 4 1002 93 5000 8.7 200 13:18 09.02.2020
2870 Drizzle 4 1003 93 2000 9.3 200 12:42 09.02.2020
2871 Drizzle 4 1003 93 2000 9.3 200 12:20 09.02.2020
2872 Drizzle 4 1003 93 2000 9.3 200 12:20 09.02.2020
2873 Drizzle 3 1004 100 2500 7.7 190 11:57 09.02.2020
2874 Drizzle 3 1004 100 2500 7.7 190 11:38 09.02.2020
2875 Rain 3 1004 93 4000 8.2 200 11:18 09.02.2020
2876 Rain 3 1005 93 10000 6.7 200 10:42 09.02.2020
2877 Clouds 3 1005 93 10000 6.7 200 10:23 09.02.2020
2878 Clouds 3 1005 86 10000 6.7 200 09:56 09.02.2020
2879 Clouds 3 1006 86 10000 7.2 200 09:37 09.02.2020
2880 Clouds 3 1006 86 10000 7.2 200 09:18 09.02.2020
2881 Clouds 3 1007 86 10000 7.2 220 08:39 09.02.2020
2882 Clouds 3 1007 86 10000 7.2 220 08:20 09.02.2020
2883 Clouds 3 1007 86 10000 6.7 220 07:49 09.02.2020
2884 Clouds 3 1007 86 10000 7.7 210 06:59 09.02.2020
2885 Drizzle 3 1008 86 10000 7.2 220 06:36 09.02.2020
2886 Drizzle 3 1008 86 10000 7.7 220 05:52 09.02.2020
2887 Drizzle 3 1008 86 10000 8.2 220 05:32 09.02.2020
2888 Drizzle 3 1009 93 10000 7.2 220 04:23 09.02.2020
2889 Drizzle 2 1010 93 10000 7.2 220 02:49 09.02.2020
2890 Drizzle 2 1010 100 10000 8.7 220 02:30 09.02.2020
2891 Drizzle 2 1011 100 7000 6.7 220 01:36 09.02.2020
2892 Drizzle 2 1012 100 7000 8.2 220 00:55 09.02.2020
2893 Drizzle 2 1012 100 7000 5.7 220 00:29 09.02.2020
2894 Drizzle 2 1012 100 7000 6.7 220 23:48 08.02.2020
2895 Drizzle 2 1013 93 7000 6.2 230 23:24 08.02.2020
2896 Drizzle 2 1013 93 10000 7.2 220 22:56 08.02.2020
2897 Drizzle 2 1013 93 5000 5.1 220 22:38 08.02.2020
2898 Drizzle 2 1013 93 5000 5.1 220 22:20 08.02.2020
2899 Drizzle 2 1013 100 6000 6.2 220 21:44 08.02.2020
2900 Drizzle 2 1013 100 6000 6.2 220 21:25 08.02.2020
2901 Drizzle 2 1014 100 4000 6.2 220 20:59 08.02.2020
2902 Drizzle 2 1014 100 5000 4.6 210 20:39 08.02.2020
2903 Drizzle 2 1014 100 5000 4.6 210 20:19 08.02.2020
2904 Mist 2 1014 100 4000 5.1 210 19:56 08.02.2020
2905 Mist 2 1014 100 4000 5.1 210 19:56 08.02.2020
2906 Mist 2 1015 93 3000 4.6 220 19:38 08.02.2020
2907 Mist 2 1015 93 3000 4.6 220 19:19 08.02.2020
2908 Clouds 2 1015 93 7000 7.7 210 18:44 08.02.2020
2909 Clouds 2 1015 93 7000 7.7 210 18:25 08.02.2020
2910 Clouds 2 1015 93 7000 5.7 210 17:58 08.02.2020
2911 Clouds 2 1015 93 7000 5.7 210 17:40 08.02.2020
2912 Clouds 2 1015 93 5000 5.7 220 17:18 08.02.2020
2913 Mist 1 1015 100 1200 4.1 200 16:40 08.02.2020
2914 Mist 1 1015 100 1200 4.1 200 16:22 08.02.2020
2915 Fog 1 1016 100 300 2.6 200 15:57 08.02.2020
2916 Fog 1 1016 90 600 2.6 210 15:39 08.02.2020
2917 Fog 1 1016 90 600 2.6 210 15:18 08.02.2020
2918 Fog 0 1017 90 500 3.6 210 14:43 08.02.2020
2919 Fog 0 1017 92 500 3.6 210 14:19 08.02.2020
2920 Fog 0 1017 92 300 3.6 210 13:55 08.02.2020
2921 Fog 0 1017 92 500 3.6 200 13:37 08.02.2020
2922 Fog 0 1017 91 500 3.6 200 13:18 08.02.2020
2923 Snow 0 1017 91 700 3.1 210 12:39 08.02.2020
2924 Snow 0 1017 91 700 3.1 210 12:20 08.02.2020
2925 Fog 0 1017 91 400 2.6 200 11:47 08.02.2020
2926 Snow 0 1018 86 500 2.6 200 11:22 08.02.2020
2927 Snow 0 1017 86 400 2.1 210 10:59 08.02.2020
2928 Snow 0 1017 86 400 2.1 210 10:59 08.02.2020
2929 Fog 0 1017 86 500 2.1 170 10:40 08.02.2020
2930 Fog 0 1017 86 500 2.1 170 10:20 08.02.2020
2931 Snow 0 1017 86 500 2.1 200 09:51 08.02.2020
2932 Snow 0 1017 86 500 3.1 200 09:26 08.02.2020
2933 Fog 0 1017 86 700 2.1 200 08:48 08.02.2020
2934 Fog 0 1017 88 700 2.1 200 08:29 08.02.2020
2935 Mist 0 1017 87 1400 2.1 220 07:54 08.02.2020
2936 Drizzle 0 1017 87 2800 1.5 240 07:35 08.02.2020
2937 Drizzle 0 1017 87 4500 1 0 06:55 08.02.2020
2938 Drizzle 0 1017 87 4500 1.5 230 06:23 08.02.2020
2939 Drizzle 0 1016 87 6000 1 0 05:37 08.02.2020
2940 Drizzle 0 1016 86 6000 1 0 05:18 08.02.2020
2941 Drizzle 0 1016 86 5000 1.5 280 04:26 08.02.2020
2942 Drizzle 1 1016 100 4500 2.1 330 03:39 08.02.2020
2943 Mist 1 1016 100 4000 2.1 330 02:29 08.02.2020
2944 Mist 1 1016 100 4000 2.1 330 02:29 08.02.2020
2945 Mist 1 1015 87 4000 4.1 290 01:34 08.02.2020
2946 Clouds 1 1015 88 7000 4.1 290 00:54 08.02.2020
2947 Clouds 0 1015 88 10000 4.1 280 00:25 08.02.2020
2948 Clouds 0 1015 88 10000 3.6 290 23:58 07.02.2020
2949 Clouds 0 1015 88 10000 4.1 280 23:39 07.02.2020
2950 Clouds 0 1015 87 10000 4.1 280 23:20 07.02.2020
2951 Clouds 0 1015 87 10000 5.1 280 22:42 07.02.2020
2952 Clouds 0 1015 87 10000 5.1 280 22:20 07.02.2020
2953 Clouds 0 1015 87 10000 3.6 270 21:59 07.02.2020
2954 Clouds 0 1015 87 10000 3.6 270 21:40 07.02.2020
2955 Clouds 0 1015 87 10000 4.1 260 21:20 07.02.2020
2956 Clouds 0 1016 87 10000 4.1 240 20:40 07.02.2020
2957 Clouds 0 1016 93 10000 4.1 240 20:21 07.02.2020
2958 Snow 0 1017 100 10000 4.6 240 19:56 07.02.2020
2959 Snow -1 1017 100 5000 4.6 220 19:37 07.02.2020
2960 Snow -1 1017 92 2500 4.6 210 19:18 07.02.2020
2961 Snow -1 1018 92 2800 5.1 210 18:45 07.02.2020
2962 Snow -1 1018 92 2800 5.1 210 18:25 07.02.2020
2963 Snow -1 1019 92 4000 4.1 210 17:55 07.02.2020
2964 Snow -1 1019 86 4000 4.6 230 17:37 07.02.2020
2965 Snow -1 1019 86 4000 4.6 230 17:19 07.02.2020
2966 Snow -2 1020 86 5000 4.1 210 16:46 07.02.2020
2967 Snow -2 1020 74 10000 4.1 200 16:23 07.02.2020
2968 Snow -2 1021 68 10000 4.6 200 15:55 07.02.2020
2969 Clouds -2 1022 68 10000 3.6 200 15:28 07.02.2020
2970 Clouds -2 1022 68 10000 3.6 220 14:56 07.02.2020
2971 Clouds -2 1023 68 10000 4.1 210 14:38 07.02.2020
2972 Clouds -2 1023 68 10000 4.1 210 14:38 07.02.2020
2973 Clouds -2 1023 68 10000 3.6 210 14:19 07.02.2020
2974 Clouds -2 1023 68 10000 3.6 210 13:56 07.02.2020
2975 Clouds -2 1024 68 10000 3.6 220 13:38 07.02.2020
2976 Clouds -2 1024 68 10000 3.6 220 13:19 07.02.2020
2977 Clouds -2 1024 44 0 0.89 238 12:42 07.02.2020
2978 Clouds -2 1024 44 0 0.89 238 12:42 07.02.2020
2979 Clouds -3 1025 73 0 6.58 259 12:23 07.02.2020
2980 Clouds -3 1025 79 10000 1.5 240 11:45 07.02.2020
2981 Clouds -4 1025 79 10000 1.5 240 11:24 07.02.2020
2982 Clouds -5 1025 79 10000 2.1 260 10:58 07.02.2020
2983 Clouds -5 1025 79 10000 2.1 270 10:39 07.02.2020
2984 Clouds -5 1025 79 10000 2.1 270 10:19 07.02.2020
2985 Clouds -6 1025 85 10000 1.5 310 09:41 07.02.2020
2986 Clouds -7 1025 85 10000 1.5 310 09:23 07.02.2020
2987 Clouds -8 1025 92 10000 3.1 300 08:50 07.02.2020
2988 Clear -8 1024 85 10000 3.6 310 08:24 07.02.2020
2989 Clear -9 1024 85 10000 3.6 310 07:55 07.02.2020
2990 Clear -9 1024 92 10000 3.1 300 07:37 07.02.2020
2991 Clear -9 1024 92 10000 3.1 300 07:18 07.02.2020
2992 Clear -9 1024 85 10000 2.6 320 06:42 07.02.2020
2993 Clear -8 1024 85 10000 3.1 320 06:21 07.02.2020
2994 Clear -8 1023 85 10000 2.6 310 05:39 07.02.2020
2995 Clear -7 1023 85 10000 4.6 320 03:54 07.02.2020
2996 Clear -6 1022 79 10000 5.7 320 02:23 07.02.2020
2997 Clear -6 1021 79 10000 5.1 320 01:21 07.02.2020
2998 Clear -6 1020 73 10000 6.2 320 00:29 07.02.2020
2999 Clear -5 1019 79 10000 6.2 320 23:39 06.02.2020
3000 Clear -5 1019 79 10000 6.2 320 23:20 06.02.2020
3001 Clear -5 1019 79 10000 6.7 320 22:56 06.02.2020
3002 Clear -5 1018 79 10000 6.2 320 22:38 06.02.2020
3003 Clear -5 1018 79 10000 6.2 320 22:19 06.02.2020
3004 Clear -5 1017 79 10000 6.2 310 21:37 06.02.2020
3005 Clear -5 1017 79 10000 6.2 310 21:19 06.02.2020
3006 Clear -5 1017 79 10000 6.7 310 20:56 06.02.2020
3007 Clear -5 1017 79 10000 6.2 300 20:37 06.02.2020
3008 Clear -5 1017 79 10000 6.2 300 20:18 06.02.2020
3009 Clear -5 1017 79 10000 6.2 300 20:18 06.02.2020
3010 Clear -5 1017 79 10000 5.7 300 19:57 06.02.2020
3011 Clear -4 1016 79 10000 5.7 300 19:37 06.02.2020
3012 Clear -4 1016 73 10000 6.2 310 19:19 06.02.2020
3013 Clear -4 1015 73 10000 5.7 300 18:44 06.02.2020
3014 Clear -4 1015 73 10000 5.7 300 18:25 06.02.2020
3015 Clear -4 1015 73 10000 6.2 300 17:59 06.02.2020
3016 Clear -4 1015 73 10000 6.2 300 17:59 06.02.2020
3017 Clouds -4 1015 73 10000 5.1 310 17:41 06.02.2020
3018 Clouds -4 1015 73 10000 5.1 310 17:20 06.02.2020
3019 Clear -3 1014 68 10000 6.2 300 16:43 06.02.2020
3020 Clear -3 1014 68 10000 6.2 300 16:25 06.02.2020
3021 Clear -3 1014 63 10000 7.2 300 15:54 06.02.2020
3022 Clear -3 1013 63 10000 5.7 300 15:36 06.02.2020
3023 Clear -3 1013 63 10000 5.7 300 15:18 06.02.2020
3024 Clear -3 1013 63 10000 7.2 300 14:46 06.02.2020
3025 Clear -2 1013 63 10000 7.7 300 14:24 06.02.2020
3026 Clear -2 1012 58 10000 7.2 300 13:46 06.02.2020
3027 Clear -3 1012 53 10000 7.2 300 13:27 06.02.2020
3028 Clear -3 1012 53 10000 5.7 290 12:45 06.02.2020
3029 Clear -3 1012 53 10000 5.7 290 12:20 06.02.2020
3030 Clear -4 1012 58 10000 5.7 290 11:59 06.02.2020
3031 Clear -4 1012 67 10000 5.7 300 11:41 06.02.2020
3032 Clear -4 1012 67 10000 5.7 300 11:22 06.02.2020
3033 Clear -5 1012 67 10000 5.1 310 10:59 06.02.2020
3034 Clear -5 1012 73 10000 5.1 310 10:41 06.02.2020
3035 Clear -5 1012 73 10000 5.1 310 10:21 06.02.2020
3036 Clear -6 1011 73 10000 6.2 300 09:59 06.02.2020
3037 Clear -6 1010 73 10000 5.7 310 09:40 06.02.2020
3038 Clear -6 1010 73 10000 5.7 310 09:20 06.02.2020
3039 Clear -6 1010 79 10000 5.1 310 08:43 06.02.2020
3040 Clouds -6 1009 73 10000 5.1 310 08:23 06.02.2020
3041 Clouds -6 1009 67 10000 5.7 320 07:54 06.02.2020
3042 Clouds -6 1008 67 10000 5.7 330 07:29 06.02.2020
3043 Clouds -6 1008 67 10000 7.7 330 06:47 06.02.2020
3044 Clouds -5 1007 73 10000 7.7 330 06:19 06.02.2020
3045 Clouds -5 1006 73 10000 7.2 320 05:24 06.02.2020
3046 Snow -3 1003 68 10000 7.7 330 03:47 06.02.2020
3047 Clouds -2 1002 63 10000 8.7 320 02:58 06.02.2020
3048 Clouds -1 1001 74 10000 8.7 330 01:55 06.02.2020
3049 Clouds 0 1000 78 10000 6.7 330 01:24 06.02.2020
3050 Snow 0 999 78 3000 7.7 320 00:28 06.02.2020
3051 Clouds 1 998 86 10000 6.2 290 23:56 05.02.2020
3052 Snow 1 998 78 10000 5.7 280 23:38 05.02.2020
3053 Snow 1 998 87 10000 5.7 280 23:19 05.02.2020
3054 Clouds 1 998 86 10000 6.2 270 22:41 05.02.2020
3055 Clouds 1 998 86 10000 6.2 270 22:22 05.02.2020
3056 Snow 1 998 86 10000 7.2 260 21:57 05.02.2020
3057 Snow 1 999 86 10000 5.7 260 21:39 05.02.2020
3058 Snow 1 999 86 7000 6.7 270 21:20 05.02.2020
3059 Snow 1 999 69 10000 7.7 270 20:39 05.02.2020
3060 Snow 1 999 69 10000 7.7 270 20:20 05.02.2020
3061 Clouds 1 1000 69 10000 6.7 260 19:59 05.02.2020
3062 Clouds 1 1000 69 10000 6.7 260 19:40 05.02.2020
3063 Clouds 2 1000 69 10000 6.7 260 19:19 05.02.2020
3064 Clouds 1 1000 74 10000 6.2 260 18:56 05.02.2020
3065 Clouds 1 1001 74 10000 6.7 240 18:38 05.02.2020
3066 Clouds 1 1001 74 10000 6.7 240 18:19 05.02.2020
3067 Snow 1 1002 80 9000 6.2 240 17:38 05.02.2020
3068 Snow 1 1002 80 9000 6.2 240 17:20 05.02.2020
3069 Clouds 1 1003 74 10000 6.7 220 16:57 05.02.2020
3070 Clouds 1 1004 74 10000 4.1 210 16:39 05.02.2020
3071 Clouds 1 1004 74 10000 4.1 210 16:20 05.02.2020
3072 Clouds 1 1005 74 10000 4.1 210 15:46 05.02.2020
3073 Clouds 1 1006 74 10000 4.1 230 15:20 05.02.2020
3074 Clouds 1 1006 74 10000 4.1 230 14:58 05.02.2020
3075 Clouds 1 1007 69 10000 5.1 250 14:39 05.02.2020
3076 Clouds 1 1007 69 10000 5.1 250 14:21 05.02.2020
3077 Clouds 1 1008 69 10000 5.7 250 13:43 05.02.2020
3078 Clouds 1 1008 69 10000 5.7 250 13:22 05.02.2020
3079 Clouds 1 1009 69 10000 6.2 260 12:58 05.02.2020
3080 Clouds 1 1009 69 10000 6.2 260 12:36 05.02.2020
3081 Clouds 1 1009 69 10000 6.2 260 12:18 05.02.2020
3082 Clouds 0 1010 71 10000 6.2 270 11:41 05.02.2020
3083 Clouds 0 1010 75 10000 6.2 270 11:22 05.02.2020
3084 Clouds 0 1009 80 10000 5.7 260 10:57 05.02.2020
3085 Clouds -1 1009 80 10000 5.7 260 10:39 05.02.2020
3086 Clouds -1 1009 80 10000 5.7 260 10:18 05.02.2020
3087 Clouds -1 1010 86 10000 5.1 260 09:39 05.02.2020
3088 Clouds -2 1010 86 10000 5.1 260 09:21 05.02.2020
3089 Clouds -2 1010 86 10000 4.1 260 08:48 05.02.2020
3090 Clouds -3 1010 86 10000 3.6 250 08:25 05.02.2020
3091 Clouds -3 1010 86 10000 3.6 260 07:58 05.02.2020
3092 Clouds -3 1010 92 10000 4.1 250 07:39 05.02.2020
3093 Clouds -3 1010 92 10000 4.1 250 07:18 05.02.2020
3094 Clouds -4 1010 85 10000 3.6 250 06:39 05.02.2020
3095 Clouds -4 1010 92 10000 3.1 230 06:20 05.02.2020
3096 Clouds -5 1010 85 10000 2.6 230 05:20 05.02.2020
3097 Clouds -5 1010 85 10000 2.1 240 04:54 05.02.2020
3098 Clouds -6 1010 92 10000 2.1 250 03:58 05.02.2020
3099 Clouds -8 1011 92 10000 2.6 270 02:39 05.02.2020
3100 Clouds -8 1011 92 10000 2.6 270 02:19 05.02.2020
3101 Clouds -8 1010 92 10000 1.5 270 01:25 05.02.2020
3102 Clouds -8 1010 92 10000 3.1 280 00:21 05.02.2020
3103 Clouds -8 1010 92 10000 2.6 280 23:40 04.02.2020
3104 Clouds -8 1010 92 10000 2.6 280 23:19 04.02.2020
3105 Clouds -8 1010 92 10000 2.6 280 23:19 04.02.2020
3106 Clouds -7 1009 85 10000 3.1 280 22:57 04.02.2020
3107 Clouds -7 1009 85 10000 3.1 280 22:39 04.02.2020
3108 Clouds -7 1009 85 10000 3.1 280 22:20 04.02.2020
3109 Clouds -7 1009 85 10000 3.1 290 21:54 04.02.2020
3110 Clouds -7 1008 85 10000 3.1 310 21:36 04.02.2020
3111 Clouds -7 1008 85 10000 3.1 310 21:18 04.02.2020
3112 Clouds -7 1008 85 10000 3.6 310 20:44 04.02.2020
3113 Clear -6 1008 85 10000 3.6 310 20:22 04.02.2020
3114 Clear -6 1007 85 10000 3.1 300 19:59 04.02.2020
3115 Clear -6 1007 79 10000 3.1 310 19:40 04.02.2020
3116 Clear -6 1007 79 10000 3.1 310 19:22 04.02.2020
3117 Clear -6 1007 79 10000 3.1 310 18:57 04.02.2020
3118 Clear -6 1006 79 10000 3.1 320 18:38 04.02.2020
3119 Clear -5 1006 73 10000 3.1 320 18:19 04.02.2020
3120 Clear -5 1006 73 10000 3.1 320 18:19 04.02.2020
3121 Clear -5 1006 73 10000 2.6 330 17:43 04.02.2020
3122 Clear -5 1006 73 10000 2.6 330 17:22 04.02.2020
3123 Clear -4 1005 68 10000 3.6 320 16:59 04.02.2020
3124 Clear -4 1005 68 10000 3.6 330 16:38 04.02.2020
3125 Clear -4 1005 68 10000 3.6 330 16:20 04.02.2020
3126 Clear -3 1004 63 10000 3.6 330 15:56 04.02.2020
3127 Clear -3 1004 63 10000 3.6 330 15:38 04.02.2020
3128 Clear -3 1004 63 10000 3.6 330 15:19 04.02.2020
3129 Clear -2 1004 58 10000 4.1 330 14:44 04.02.2020
3130 Clear -2 1003 58 10000 4.1 330 14:23 04.02.2020
3131 Clear -2 1003 58 10000 4.6 330 13:58 04.02.2020
3132 Clear -2 1003 58 10000 4.6 330 13:39 04.02.2020
3133 Clear -2 1003 58 10000 4.6 330 13:20 04.02.2020
3134 Clear -3 1002 63 10000 4.6 330 12:44 04.02.2020
3135 Clear -3 1002 63 10000 4.6 330 12:26 04.02.2020
3136 Clear -3 1002 68 10000 4.6 340 11:58 04.02.2020
3137 Clear -3 1001 68 10000 4.6 330 11:39 04.02.2020
3138 Clear -4 1001 68 10000 4.6 330 11:21 04.02.2020
3139 Clear -4 1001 68 10000 4.6 330 10:56 04.02.2020
3140 Clear -4 1000 79 10000 4.6 320 10:36 04.02.2020
3141 Clear -5 1000 79 10000 4.6 320 10:18 04.02.2020
3142 Clear -5 999 85 10000 4.1 330 09:41 04.02.2020
3143 Clear -5 999 85 10000 4.1 330 09:23 04.02.2020
3144 Clear -6 999 85 10000 4.6 320 08:50 04.02.2020
3145 Clear -6 999 92 10000 4.1 310 08:29 04.02.2020
3146 Clear -6 998 85 10000 4.1 310 07:59 04.02.2020
3147 Clear -6 998 92 10000 4.6 310 07:39 04.02.2020
3148 Clear -6 998 92 10000 4.6 310 07:39 04.02.2020
3149 Clear -6 997 92 10000 4.1 300 07:21 04.02.2020
3150 Clear -6 997 92 10000 4.1 300 06:43 04.02.2020
3151 Clear -6 996 85 10000 4.1 290 05:50 04.02.2020
3152 Clear -6 996 92 10000 4.6 310 05:22 04.02.2020
3153 Clear -5 996 85 10000 5.1 310 03:50 04.02.2020
3154 Clear -5 996 85 10000 4.6 310 03:31 04.02.2020
3155 Clear -5 996 85 10000 5.1 310 02:51 04.02.2020
3156 Clear -5 996 85 10000 5.1 300 02:28 04.02.2020
3157 Clear -5 996 85 10000 5.1 290 01:50 04.02.2020
3158 Clear -5 996 85 10000 5.1 300 01:32 04.02.2020
3159 Clear -4 995 79 10000 5.1 300 00:27 04.02.2020
3160 Clear -4 995 85 10000 5.7 310 23:57 03.02.2020
3161 Clear -4 995 85 10000 5.7 310 23:57 03.02.2020
3162 Clear -4 995 85 10000 5.7 310 23:38 03.02.2020
3163 Clear -4 995 85 10000 5.1 300 23:19 03.02.2020
3164 Clear -3 995 79 10000 6.2 310 22:39 03.02.2020
3165 Clear -3 995 79 10000 6.2 310 22:20 03.02.2020
3166 Clear -3 994 79 10000 5.7 290 21:43 03.02.2020
3167 Clear -3 994 79 10000 5.7 290 21:20 03.02.2020
3168 Clear -3 994 79 10000 6.2 300 20:57 03.02.2020
3169 Clear -3 994 79 10000 6.2 300 20:57 03.02.2020
3170 Clear -3 994 74 10000 6.7 300 20:39 03.02.2020
3171 Clear -2 994 74 10000 6.7 300 20:18 03.02.2020
3172 Clear -2 994 74 10000 7.2 300 19:56 03.02.2020
3173 Clear -2 994 74 10000 5.7 300 19:37 03.02.2020
3174 Clear -2 994 74 10000 5.7 300 19:37 03.02.2020
3175 Clear -2 994 74 10000 5.7 300 19:18 03.02.2020
3176 Clear -2 993 79 10000 6.2 290 18:42 03.02.2020
3177 Clear -2 993 79 10000 6.2 290 18:22 03.02.2020
3178 Clear -2 993 79 10000 5.7 300 17:58 03.02.2020
3179 Clear -2 993 74 10000 6.7 290 17:39 03.02.2020
3180 Clear -1 993 74 10000 6.7 290 17:20 03.02.2020
3181 Clear -1 993 74 10000 6.2 300 16:40 03.02.2020
3182 Clear -1 993 74 10000 6.2 300 16:22 03.02.2020
3183 Clear -1 992 74 10000 7.2 300 15:59 03.02.2020
3184 Clouds -1 992 74 10000 7.7 290 15:40 03.02.2020
3185 Clouds 0 992 74 10000 7.7 290 15:20 03.02.2020
3186 Clouds 0 992 65 10000 8.2 290 14:58 03.02.2020
3187 Clouds 0 992 65 10000 8.2 290 14:58 03.02.2020
3188 Clouds 0 992 65 10000 7.2 300 14:39 03.02.2020
3189 Clouds 0 992 66 10000 7.2 300 14:21 03.02.2020
3190 Clouds 0 991 66 10000 9.3 310 13:54 03.02.2020
3191 Clouds 0 991 66 10000 7.7 300 13:36 03.02.2020
3192 Clouds 0 991 66 10000 7.7 300 13:18 03.02.2020
3193 Clouds 0 991 66 10000 7.2 290 12:40 03.02.2020
3194 Clouds 0 990 66 10000 6.7 290 12:21 03.02.2020
3195 Clouds 0 990 66 10000 7.2 300 11:57 03.02.2020
3196 Clouds 0 990 66 10000 7.7 300 11:37 03.02.2020
3197 Clouds 0 990 76 10000 7.7 300 11:18 03.02.2020
3198 Clouds -1 990 80 10000 7.7 300 10:41 03.02.2020
3199 Clouds -1 989 80 10000 7.2 310 10:23 03.02.2020
3200 Clouds -1 989 86 10000 5.7 300 09:48 03.02.2020
3201 Clouds -1 989 80 10000 6.7 310 09:25 03.02.2020
3202 Clouds -1 988 86 10000 6.7 310 08:57 03.02.2020
3203 Clouds -1 988 76 10000 7.2 310 08:39 03.02.2020
3204 Clouds -1 988 75 10000 7.2 310 08:21 03.02.2020
3205 Clouds -1 987 75 10000 7.2 310 07:41 03.02.2020
3206 Clouds 0 987 75 10000 7.2 310 07:21 03.02.2020
3207 Clouds 0 987 75 10000 7.2 310 07:21 03.02.2020
3208 Clouds 0 987 75 10000 6.7 310 06:51 03.02.2020
3209 Clouds 0 986 75 10000 7.2 310 06:30 03.02.2020
3210 Clouds 0 986 75 10000 7.7 320 05:37 03.02.2020
3211 Clouds 0 986 84 10000 7.7 320 05:18 03.02.2020
3212 Snow 0 985 84 9000 8.2 320 04:30 03.02.2020
3213 Clouds 0 983 80 10000 5.7 310 02:37 03.02.2020
3214 Clouds 1 983 80 10000 5.7 310 02:18 03.02.2020
3215 Snow 1 982 89 10000 5.7 310 00:48 03.02.2020
3216 Drizzle 1 981 93 10000 5.1 290 00:25 03.02.2020
3217 Drizzle 2 981 93 10000 4.6 280 23:39 02.02.2020
3218 Drizzle 2 981 93 10000 4.6 280 23:21 02.02.2020
3219 Drizzle 2 981 93 9000 4.1 280 22:58 02.02.2020
3220 Drizzle 2 981 93 9000 4.1 280 22:39 02.02.2020
3221 Drizzle 2 980 93 9000 4.1 260 22:20 02.02.2020
3222 Clouds 2 980 93 10000 4.1 260 21:56 02.02.2020
3223 Clouds 2 980 96 10000 3.6 260 21:38 02.02.2020
3224 Clouds 2 980 96 10000 3.6 260 21:20 02.02.2020
3225 Clouds 2 980 96 10000 3.1 250 20:56 02.02.2020
3226 Clouds 2 980 92 10000 3.6 260 20:37 02.02.2020
3227 Clouds 2 980 83 10000 3.6 260 20:19 02.02.2020
3228 Clouds 2 980 83 10000 3.6 260 20:19 02.02.2020
3229 Clouds 2 980 81 10000 2.6 250 19:55 02.02.2020
3230 Clouds 2 980 81 10000 4.1 250 19:37 02.02.2020
3231 Clouds 2 980 81 10000 4.1 250 19:18 02.02.2020
3232 Clouds 2 980 81 10000 4.6 250 18:39 02.02.2020
3233 Clouds 2 980 81 10000 3.6 260 18:21 02.02.2020
3234 Clouds 2 980 81 10000 3.6 260 18:21 02.02.2020
3235 Clouds 2 979 81 10000 4.6 260 17:58 02.02.2020
3236 Clouds 2 979 81 10000 4.6 260 17:38 02.02.2020
3237 Clouds 2 979 83 10000 4.6 260 17:19 02.02.2020
3238 Clouds 2 979 83 10000 4.1 270 16:58 02.02.2020
3239 -273 0 0 0 0 0 16:39 02.02.2020
3240 Clouds 2 979 83 10000 5.7 280 16:19 02.02.2020
3241 Clouds 2 978 86 10000 5.1 290 15:59 02.02.2020
3242 Clouds 3 978 83 10000 5.1 300 15:39 02.02.2020
3243 Clouds 3 978 83 10000 5.1 300 15:20 02.02.2020
3244 Clouds 3 978 83 10000 5.1 300 15:20 02.02.2020
3245 Clouds 3 978 83 10000 5.1 300 15:20 02.02.2020
3246 Clouds 3 978 80 10000 6.2 300 14:56 02.02.2020
3247 Clouds 3 977 93 10000 5.7 300 14:38 02.02.2020
3248 Clouds 4 977 93 10000 5.7 300 14:18 02.02.2020
3249 Clouds 4 977 93 10000 7.2 300 13:54 02.02.2020
3250 Drizzle 4 976 100 3500 4.6 250 13:36 02.02.2020
3251 Drizzle 4 976 93 4000 4.6 240 13:18 02.02.2020
3252 Drizzle 5 976 93 4000 4.6 240 12:42 02.02.2020
3253 Clouds 5 976 93 10000 4.1 240 12:22 02.02.2020
3254 -273 0 0 0 0 0 11:56 02.02.2020
3255 Rain 5 976 93 10000 4.1 230 11:38 02.02.2020
3256 Rain 5 976 93 10000 4.1 230 11:18 02.02.2020
3257 Rain 5 976 93 10000 4.1 230 11:18 02.02.2020
3258 Rain 5 976 93 10000 4.1 230 10:55 02.02.2020
3259 Rain 5 976 93 10000 4.1 230 10:55 02.02.2020
3260 Drizzle 5 976 93 10000 4.6 230 10:36 02.02.2020
3261 Drizzle 5 976 93 10000 4.6 230 10:18 02.02.2020
3262 Drizzle 5 976 93 9000 4.6 220 09:40 02.02.2020
3263 Drizzle 5 976 93 10000 4.6 210 09:21 02.02.2020
3264 Rain 5 976 93 10000 4.6 200 08:56 02.02.2020
3265 Clouds 5 976 93 10000 4.6 230 08:38 02.02.2020
3266 Clouds 5 976 93 10000 4.6 230 08:19 02.02.2020
3267 Rain 5 977 93 7000 5.1 210 07:44 02.02.2020
3268 Rain 5 977 93 7000 5.1 210 07:25 02.02.2020
3269 Drizzle 5 977 93 7000 5.7 200 06:38 02.02.2020
3270 Drizzle 5 977 93 7000 5.7 200 06:19 02.02.2020
3271 Drizzle 5 978 93 7000 4.6 200 05:23 02.02.2020
3272 Clouds 5 978 93 10000 5.1 220 04:30 02.02.2020
3273 Clouds 5 979 93 10000 4.6 210 03:24 02.02.2020
3274 Rain 5 979 93 10000 4.6 210 02:22 02.02.2020
3275 Rain 5 979 93 10000 6.2 200 01:51 02.02.2020
3276 Clouds 5 980 100 10000 5.7 190 00:56 02.02.2020
3277 Clouds 5 980 100 10000 5.1 190 00:37 02.02.2020
3278 Clouds 5 980 100 10000 5.1 190 00:18 02.02.2020
3279 Rain 5 980 100 10000 4.6 190 23:41 01.02.2020
3280 Rain 5 980 100 10000 5.7 190 23:21 01.02.2020
3281 Mist 5 981 100 2500 5.1 200 22:45 01.02.2020
3282 Mist 5 981 100 2500 5.1 200 22:19 01.02.2020
3283 Drizzle 4 981 100 500 4.6 180 21:42 01.02.2020
3284 Drizzle 4 981 100 500 4.6 180 21:19 01.02.2020
3285 Drizzle 3 981 100 900 4.6 170 20:56 01.02.2020
3286 Drizzle 3 982 93 4000 4.6 170 20:38 01.02.2020
3287 Drizzle 3 982 93 4000 4.6 170 20:19 01.02.2020
3288 Drizzle 2 982 100 3500 5.7 170 19:56 01.02.2020
3289 Drizzle 2 982 100 2800 6.2 160 19:37 01.02.2020
3290 Drizzle 2 982 100 2800 6.2 160 19:18 01.02.2020
3291 Drizzle 2 983 93 3000 6.2 150 18:55 01.02.2020
3292 Rain 2 983 100 6000 6.7 160 18:37 01.02.2020
3293 Rain 1 983 100 6000 6.7 160 18:18 01.02.2020
3294 Drizzle 1 984 93 3000 7.2 150 17:54 01.02.2020
3295 Drizzle 2 984 93 2800 7.7 160 17:36 01.02.2020
3296 Drizzle 2 984 93 2800 7.7 160 17:18 01.02.2020
3297 Drizzle 2 984 93 2800 7.7 160 17:18 01.02.2020
3298 Rain 2 986 93 7000 6.7 150 16:39 01.02.2020
3299 Rain 2 986 93 7000 6.7 150 16:39 01.02.2020
3300 Rain 2 986 93 7000 6.7 150 16:21 01.02.2020
3301 Rain 2 986 93 7000 6.7 150 16:21 01.02.2020
3302 Rain 2 986 93 10000 7.2 150 15:47 01.02.2020
3303 Rain 2 986 93 10000 7.2 150 15:47 01.02.2020
3304 Rain 2 986 93 9000 7.2 150 15:29 01.02.2020
3305 Rain 2 987 93 9000 8.2 150 14:59 01.02.2020
3306 Rain 2 987 93 9000 8.2 150 14:59 01.02.2020
3307 Rain 2 988 93 9000 7.2 150 14:39 01.02.2020
3308 Rain 2 988 93 9000 7.2 150 14:20 01.02.2020
3309 Rain 2 988 100 8000 7.7 150 13:45 01.02.2020
3310 Rain 3 989 93 10000 7.7 150 13:22 01.02.2020
3311 Rain 2 990 100 7000 7.2 160 12:46 01.02.2020
3312 Rain 2 990 100 7000 7.2 160 12:28 01.02.2020
3313 Rain 2 991 100 10000 6.2 160 11:58 01.02.2020
3314 Clouds 2 991 100 10000 7.2 160 11:38 01.02.2020
3315 Clouds 2 991 100 10000 7.2 160 11:19 01.02.2020
3316 Rain 2 992 93 10000 6.7 150 10:57 01.02.2020
3317 Rain 2 992 93 10000 6.7 160 10:38 01.02.2020
3318 Rain 2 992 93 10000 6.7 160 10:20 01.02.2020
3319 Rain 2 993 93 10000 6.2 160 09:54 01.02.2020
3320 Rain 2 993 93 10000 6.2 150 09:36 01.02.2020
3321 Rain 2 993 93 10000 6.2 150 09:18 01.02.2020
3322 Clouds 2 994 100 7000 6.2 140 08:40 01.02.2020
3323 Drizzle 1 994 100 9000 6.2 150 07:48 01.02.2020
3324 Rain 1 995 100 10000 6.2 140 07:25 01.02.2020
3325 Rain 1 995 100 10000 6.2 140 07:25 01.02.2020
3326 Snow 1 995 100 10000 5.1 150 06:54 01.02.2020
3327 Snow 1 995 100 10000 5.1 150 06:54 01.02.2020
3328 Clouds 1 995 100 9000 5.7 140 06:31 01.02.2020
3329 Drizzle 1 996 97 10000 5.1 140 05:51 01.02.2020
3330 Clouds 1 997 89 10000 5.1 130 03:43 01.02.2020
3331 Clouds 1 997 89 10000 5.1 130 03:20 01.02.2020
3332 Clouds 1 998 89 10000 3.6 130 02:44 01.02.2020
3333 Clouds 1 998 85 10000 3.6 130 02:24 01.02.2020
3334 Clouds 1 998 85 10000 3.6 130 01:50 01.02.2020
3335 Clouds 1 998 86 10000 4.1 120 01:30 01.02.2020
3336 Clouds 1 998 86 10000 4.1 120 00:29 01.02.2020
3337 Clouds 1 999 86 10000 3.6 130 23:43 31.01.2020
3338 Clouds 1 999 86 10000 3.6 130 23:20 31.01.2020
3339 Clouds 1 999 86 10000 3.1 110 22:59 31.01.2020
3340 Clouds 1 999 86 10000 3.1 100 22:40 31.01.2020
3341 Clouds 1 999 86 10000 3.1 100 22:21 31.01.2020
3342 Clouds 1 999 86 10000 3.6 100 21:56 31.01.2020
3343 Clouds 1 998 86 10000 4.1 90 21:37 31.01.2020
3344 Clouds 1 998 86 10000 4.1 90 21:37 31.01.2020
3345 Clouds 1 999 86 10000 3.6 100 21:19 31.01.2020
3346 Clouds 1 999 86 10000 3.6 100 20:56 31.01.2020
3347 Clouds 1 999 86 10000 3.6 100 20:37 31.01.2020
3348 Clouds 1 999 88 10000 3.1 100 20:18 31.01.2020
3349 Clouds 1 999 88 10000 3.1 100 19:55 31.01.2020
3350 Clouds 1 999 88 10000 3.1 90 19:36 31.01.2020
3351 Clouds 1 999 88 10000 3.1 90 19:18 31.01.2020
3352 Clouds 1 999 88 10000 2.6 80 18:40 31.01.2020
3353 Clouds 1 999 88 10000 2.6 80 18:22 31.01.2020
3354 Clouds 1 999 88 10000 3.1 60 17:46 31.01.2020
3355 Clouds 1 999 91 10000 3.1 60 17:28 31.01.2020
3356 Clouds 1 999 91 10000 3.1 50 16:59 31.01.2020
3357 Clouds 1 999 91 10000 3.1 70 16:39 31.01.2020
3358 Clouds 1 999 91 10000 3.1 70 16:19 31.01.2020
3359 Clouds 1 999 91 10000 2.6 80 15:58 31.01.2020
3360 Clouds 1 999 91 10000 2.6 80 15:58 31.01.2020
3361 Clouds 1 998 91 10000 3.1 70 15:40 31.01.2020
3362 Clouds 1 998 91 10000 3.1 70 15:20 31.01.2020
3363 Clouds 1 998 91 10000 4.6 80 14:45 31.01.2020
3364 Clouds 1 998 84 10000 3.6 80 14:25 31.01.2020
3365 Clouds 1 998 84 10000 4.1 90 13:57 31.01.2020
3366 Clouds 1 998 84 10000 4.1 90 13:38 31.01.2020
3367 Clouds 1 998 88 10000 4.1 90 13:20 31.01.2020
3368 Clouds 1 997 88 10000 4.6 90 12:45 31.01.2020
3369 Clouds 1 997 88 10000 4.6 90 12:24 31.01.2020
3370 Snow 1 997 88 10000 4.1 80 11:55 31.01.2020
3371 Clouds 1 998 88 10000 3.6 80 11:37 31.01.2020
3372 Clouds 1 997 83 10000 3.6 80 11:19 31.01.2020
3373 Clouds 1 997 81 10000 4.1 90 10:44 31.01.2020
3374 Clouds 1 997 81 10000 4.1 90 10:23 31.01.2020
3375 Clouds 1 997 83 10000 3.6 80 09:59 31.01.2020
3376 Clouds 1 997 81 10000 3.1 80 09:41 31.01.2020
3377 Clouds 1 997 81 10000 3.1 80 09:19 31.01.2020
3378 Clouds 1 997 81 10000 4.6 80 08:54 31.01.2020
3379 Clouds 1 997 100 10000 4.1 80 08:28 31.01.2020
3380 Clouds 1 997 88 10000 3.6 80 07:58 31.01.2020
3381 Clouds 1 997 100 10000 3.6 70 07:39 31.01.2020
3382 Clouds 1 997 100 10000 3.6 70 07:18 31.01.2020
3383 Clouds 1 997 100 10000 3.1 80 06:27 31.01.2020
3384 Clouds 1 997 100 10000 3.1 80 06:27 31.01.2020
3385 Clouds 1 997 100 10000 3.1 80 05:50 31.01.2020
3386 Clouds 1 996 100 10000 3.6 90 04:57 31.01.2020
3387 Clouds 1 997 100 10000 3.1 100 03:29 31.01.2020
3388 Clouds 1 997 93 8000 2.6 60 01:40 31.01.2020
3389 Rain 1 998 90 3000 2.1 120 00:47 31.01.2020
3390 Rain 1 998 90 3000 2.1 120 00:28 31.01.2020
3391 Rain 1 998 100 6000 2.6 120 23:57 30.01.2020
3392 Rain 1 998 100 10000 3.1 110 23:26 30.01.2020
3393 Rain 1 998 100 10000 3.1 110 22:58 30.01.2020
3394 Clouds 1 998 100 10000 3.6 110 22:37 30.01.2020
3395 Clouds 1 998 100 10000 3.6 110 22:37 30.01.2020
3396 Clouds 1 998 100 10000 3.6 110 22:18 30.01.2020
3397 Clouds 1 998 100 10000 3.1 110 21:57 30.01.2020
3398 Clouds 1 998 100 10000 3.1 110 21:38 30.01.2020
3399 Clouds 1 998 100 10000 3.1 110 21:18 30.01.2020
3400 Clouds 1 998 100 10000 3.1 110 21:18 30.01.2020
3401 Clouds 1 998 100 10000 3.1 110 21:18 30.01.2020
3402 Clouds 1 998 100 10000 3.1 100 20:41 30.01.2020
3403 Snow 1 999 91 8000 3.6 120 20:22 30.01.2020
3404 Snow 1 999 91 10000 3.1 110 20:22 30.01.2020
3405 Snow 1 999 91 10000 3.1 110 20:22 30.01.2020
3406 Snow 1 999 91 8000 3.6 120 19:57 30.01.2020
3407 Snow 1 999 91 4500 3.1 120 19:39 30.01.2020
3408 Rain 1 999 91 4500 3.1 120 19:19 30.01.2020
3409 Rain 1 999 91 3000 2.1 120 18:42 30.01.2020
3410 Rain 1 999 91 3000 2.1 120 18:23 30.01.2020
3411 Rain 1 999 91 3500 2.6 120 17:58 30.01.2020
3412 Rain 1 999 91 3500 3.1 120 17:39 30.01.2020
3413 Rain 1 999 96 3500 3.1 120 17:19 30.01.2020
3414 Rain 1 999 96 3500 3.1 130 16:58 30.01.2020
3415 Rain 1 999 96 2800 2.6 130 16:38 30.01.2020
3416 Rain 1 999 96 2800 2.6 130 16:20 30.01.2020
3417 Rain 1 999 96 3000 5.1 140 15:44 30.01.2020
3418 Rain 1 999 96 3000 3.6 120 15:20 30.01.2020
3419 Rain 1 999 96 4500 4.1 120 14:50 30.01.2020
3420 Rain 1 999 100 5000 4.1 120 14:27 30.01.2020
3421 Rain 1 999 100 5000 5.1 120 13:58 30.01.2020
3422 Rain 1 999 100 7000 5.1 120 13:38 30.01.2020
3423 Rain 1 999 100 8000 5.1 120 13:20 30.01.2020
3424 Rain 1 999 100 8000 5.1 120 12:43 30.01.2020
3425 Rain 1 999 93 8000 5.7 130 12:25 30.01.2020
3426 Rain 1 999 93 8000 5.1 120 11:59 30.01.2020
3427 Rain 1 999 93 9000 5.7 120 11:40 30.01.2020
3428 Rain 1 999 93 9000 5.7 120 11:21 30.01.2020
3429 Rain 1 999 100 8000 5.1 120 10:44 30.01.2020
3430 Rain 1 999 100 8000 5.1 120 10:26 30.01.2020
3431 Rain 1 999 100 7000 5.1 120 09:58 30.01.2020
3432 Rain 1 999 100 7000 5.1 120 09:39 30.01.2020
3433 Rain 1 999 100 7000 5.1 120 09:19 30.01.2020
3434 Rain 1 999 97 8000 5.1 130 08:42 30.01.2020
3435 Rain 1 999 97 8000 5.1 130 08:22 30.01.2020
3436 Rain 1 999 97 7000 5.1 120 07:52 30.01.2020
3437 Rain 1 999 100 8000 4.6 120 07:32 30.01.2020
3438 Rain 1 999 97 8000 4.6 120 06:47 30.01.2020
3439 Rain 1 999 100 10000 5.7 120 06:29 30.01.2020
3440 Rain 1 998 100 8000 5.7 120 05:47 30.01.2020
3441 Rain 1 998 100 8000 5.7 120 05:25 30.01.2020
3442 Rain 1 998 100 10000 4.6 110 03:56 30.01.2020
3443 Rain 1 998 100 8000 4.1 110 03:37 30.01.2020
3444 Rain 1 998 94 4000 3.6 90 02:52 30.01.2020
3445 Rain 1 998 94 4000 4.1 90 00:54 30.01.2020
3446 Rain 1 998 100 7000 4.1 90 00:23 30.01.2020
3447 Rain 2 998 93 8000 5.7 90 23:49 29.01.2020
3448 Rain 2 998 93 9000 5.1 100 23:22 29.01.2020
3449 Clouds 2 999 93 10000 4.6 100 22:59 29.01.2020
3450 Clouds 2 998 93 10000 4.1 100 22:39 29.01.2020
3451 Clouds 2 998 93 10000 5.7 100 22:19 29.01.2020
3452 Clouds 2 998 93 10000 5.7 100 21:59 29.01.2020
3453 Clouds 2 998 93 10000 5.7 100 21:40 29.01.2020
3454 Clouds 2 998 93 9000 4.6 100 21:19 29.01.2020
3455 Drizzle 2 998 93 8000 5.7 100 20:58 29.01.2020
3456 Clouds 2 998 93 9000 5.7 100 20:39 29.01.2020
3457 Clouds 2 998 93 9000 5.7 100 20:21 29.01.2020
3458 Clouds 2 998 93 10000 5.7 90 19:57 29.01.2020
3459 Clouds 2 998 93 10000 5.1 90 19:37 29.01.2020
3460 Clouds 2 998 93 10000 5.1 90 19:19 29.01.2020
3461 Clouds 2 998 93 10000 5.1 90 18:54 29.01.2020
3462 Clouds 2 998 93 10000 5.1 90 18:36 29.01.2020
3463 Clouds 2 998 93 10000 5.1 90 18:18 29.01.2020
3464 Rain 1 998 100 10000 4.6 80 17:39 29.01.2020
3465 Rain 1 998 100 10000 4.6 80 17:39 29.01.2020
3466 Rain 1 998 100 10000 4.6 80 17:21 29.01.2020
3467 Rain 1 998 100 10000 4.6 100 16:41 29.01.2020
3468 Rain 1 998 100 10000 4.6 100 16:23 29.01.2020
3469 Rain 1 997 100 10000 4.6 90 15:56 29.01.2020
3470 Rain 1 998 90 10000 4.6 90 15:37 29.01.2020
3471 Rain 1 998 90 10000 4.6 90 15:19 29.01.2020
3472 Clouds 1 998 90 10000 4.1 90 14:43 29.01.2020
3473 Clouds 1 998 87 10000 4.6 90 14:21 29.01.2020
3474 Clouds 1 998 87 10000 5.1 90 13:55 29.01.2020
3475 Clouds 1 998 87 10000 4.1 90 13:37 29.01.2020
3476 Clouds 1 998 90 10000 4.1 90 13:19 29.01.2020
3477 Snow 1 997 90 10000 4.6 100 12:55 29.01.2020
3478 Snow 1 998 90 8000 4.6 90 12:37 29.01.2020
3479 Snow 1 998 90 8000 4.6 90 12:18 29.01.2020
3480 Snow 1 998 90 6000 4.6 90 11:44 29.01.2020
3481 Rain 1 998 97 6000 4.6 100 11:20 29.01.2020
3482 Rain 1 998 97 8000 3.6 100 10:46 29.01.2020
3483 Rain 1 997 97 7000 4.6 110 10:25 29.01.2020
3484 Rain 1 997 97 6000 5.7 110 09:58 29.01.2020
3485 Rain 1 997 97 6000 5.7 110 09:39 29.01.2020
3486 Rain 1 997 97 6000 5.7 110 09:19 29.01.2020
3487 Snow 1 997 86 7000 6.7 110 08:46 29.01.2020
3488 Snow 1 997 86 7000 6.7 110 08:27 29.01.2020
3489 Clouds 1 997 86 10000 5.1 100 07:46 29.01.2020
3490 Clouds 1 997 86 10000 5.7 100 07:27 29.01.2020
3491 Clouds 1 997 86 10000 6.7 110 06:56 29.01.2020
3492 Clouds 1 997 97 10000 5.7 110 06:38 29.01.2020
3493 Clouds 1 997 97 10000 5.7 110 06:19 29.01.2020
3494 Clouds 1 997 97 10000 6.2 100 05:50 29.01.2020
3495 Clouds 1 997 97 10000 5.7 110 05:32 29.01.2020
3496 Clouds 1 997 87 10000 5.1 120 04:39 29.01.2020
3497 Clouds 1 997 87 10000 5.7 110 03:59 29.01.2020
3498 Clouds 2 998 93 10000 4.6 110 02:38 29.01.2020
3499 Clouds 2 998 93 10000 4.1 120 01:18 29.01.2020
3500 Clouds 2 998 93 10000 3.1 120 00:39 29.01.2020
3501 Clouds 2 998 93 10000 3.1 120 00:21 29.01.2020
3502 Clouds 2 998 93 10000 3.1 130 23:40 28.01.2020
3503 Clouds 2 998 93 10000 3.1 130 23:20 28.01.2020
3504 Clouds 2 998 93 10000 4.1 140 22:51 28.01.2020
3505 Clouds 2 999 93 10000 4.1 130 22:27 28.01.2020
3506 Drizzle 2 999 100 10000 3.6 130 21:58 28.01.2020
3507 Rain 2 999 100 10000 4.1 140 21:39 28.01.2020
3508 Rain 2 999 100 10000 4.1 140 21:20 28.01.2020
3509 Rain 2 999 93 10000 4.6 140 20:46 28.01.2020
3510 Clouds 2 999 93 10000 4.6 140 20:26 28.01.2020
3511 Clouds 2 999 93 10000 3.1 130 19:56 28.01.2020
3512 Clouds 3 999 93 10000 3.1 130 19:37 28.01.2020
3513 Clouds 3 999 93 10000 3.1 130 19:19 28.01.2020
3514 Clouds 2 999 100 10000 2.1 110 18:42 28.01.2020
3515 Clouds 2 999 100 10000 2.1 110 18:24 28.01.2020
3516 Rain 2 999 100 10000 2.6 120 17:59 28.01.2020
3517 Rain 2 999 100 8000 3.6 140 17:40 28.01.2020
3518 Rain 2 999 100 8000 3.6 140 17:22 28.01.2020
3519 Rain 2 999 100 7000 2.1 110 16:59 28.01.2020
3520 Clouds 2 1000 100 8000 2.6 160 16:41 28.01.2020
3521 Clouds 2 1000 100 8000 2.6 160 16:22 28.01.2020
3522 Rain 2 1000 100 8000 2.6 170 15:55 28.01.2020
3523 Rain 2 1000 100 9000 3.6 160 15:37 28.01.2020
3524 Rain 2 1000 100 9000 3.6 160 15:18 28.01.2020
3525 Rain 2 1000 100 6000 3.1 180 14:43 28.01.2020
3526 Rain 2 1000 100 6000 3.1 180 14:19 28.01.2020
3527 Drizzle 2 1000 93 6000 5.1 180 13:42 28.01.2020
3528 Drizzle 2 1000 93 6000 5.1 180 13:24 28.01.2020
3529 Drizzle 3 1000 93 8000 4.6 180 12:45 28.01.2020
3530 Drizzle 3 1000 93 8000 4.6 180 12:25 28.01.2020
3531 Drizzle 3 1000 93 8000 5.1 190 11:59 28.01.2020
3532 Rain 3 1001 93 8000 5.7 180 11:40 28.01.2020
3533 Rain 3 1001 93 8000 5.7 180 11:21 28.01.2020
3534 Rain 3 1001 93 9000 6.2 180 10:43 28.01.2020
3535 Rain 3 1001 93 9000 6.2 180 10:24 28.01.2020
3536 Rain 3 1001 93 9000 5.1 190 09:59 28.01.2020
3537 Rain 3 1001 93 9000 5.1 180 09:39 28.01.2020
3538 Rain 3 1001 93 9000 5.1 180 09:20 28.01.2020
3539 Drizzle 3 1001 100 9000 3.6 150 08:44 28.01.2020
3540 Drizzle 2 1001 100 9000 3.6 150 08:25 28.01.2020
3541 Rain 2 1001 100 10000 4.1 170 07:42 28.01.2020
3542 Rain 2 1001 100 10000 4.1 170 07:23 28.01.2020
3543 Rain 2 1001 93 10000 4.1 180 06:44 28.01.2020
3544 Rain 2 1001 93 10000 4.6 190 06:23 28.01.2020
3545 Rain 3 1002 93 10000 4.6 180 05:35 28.01.2020
3546 Rain 3 1002 93 10000 4.6 180 04:40 28.01.2020
3547 Rain 3 1002 100 10000 3.1 150 03:41 28.01.2020
3548 Rain 2 1003 100 10000 2.6 170 02:43 28.01.2020
3549 Rain 2 1003 100 10000 2.6 180 02:24 28.01.2020
3550 Rain 2 1003 100 10000 5.1 200 01:50 28.01.2020
3551 Drizzle 2 1004 96 500 1.5 70 00:58 28.01.2020
3552 Rain 1 1004 96 700 2.1 70 00:39 28.01.2020
3553 Rain 1 1004 96 700 2.1 70 00:19 28.01.2020
3554 Rain 1 1004 96 1800 2.1 90 23:42 27.01.2020
3555 Rain 1 1004 96 2500 2.1 80 23:18 27.01.2020
3556 Rain 1 1005 96 2600 2.6 80 22:44 27.01.2020
3557 Rain 1 1005 96 2600 2.6 80 22:20 27.01.2020
3558 Rain 1 1005 96 2600 2.6 80 22:20 27.01.2020
3559 Drizzle 1 1005 96 2700 3.1 80 21:57 27.01.2020
3560 Drizzle 1 1005 96 3500 2.6 80 21:38 27.01.2020
3561 Drizzle 1 1005 96 3500 2.6 80 21:38 27.01.2020
3562 Drizzle 1 1005 96 3500 2.6 80 21:19 27.01.2020
3563 Drizzle 1 1005 96 3000 2.6 80 20:56 27.01.2020
3564 Drizzle 1 1005 96 2600 4.1 70 20:37 27.01.2020
3565 Drizzle 1 1005 96 2600 4.1 70 20:18 27.01.2020
3566 Drizzle 1 1006 96 900 3.6 70 19:42 27.01.2020
3567 Drizzle 1 1006 96 900 3.6 70 19:23 27.01.2020
3568 Rain 1 1006 96 800 4.1 70 18:58 27.01.2020
3569 Rain 1 1006 96 2500 3.6 80 18:39 27.01.2020
3570 Rain 1 1006 96 2500 3.6 80 18:20 27.01.2020
3571 Rain 1 1006 96 2500 3.6 80 18:20 27.01.2020
3572 Rain 1 1006 96 2500 3.6 80 18:20 27.01.2020
3573 Mist 1 1006 96 4000 4.1 80 17:57 27.01.2020
3574 Mist 1 1006 96 4000 5.1 70 17:37 27.01.2020
3575 Mist 1 1006 96 4000 5.1 70 17:18 27.01.2020
3576 Mist 1 1006 96 4000 5.1 70 16:42 27.01.2020
3577 Drizzle 1 1007 96 3000 4.6 70 16:24 27.01.2020
3578 Drizzle 1 1007 96 3000 4.6 70 16:24 27.01.2020
3579 Mist 1 1007 96 2500 4.6 80 15:56 27.01.2020
3580 Mist 1 1007 96 2500 5.1 80 15:38 27.01.2020
3581 Mist 0 1007 96 2500 5.1 80 15:19 27.01.2020
3582 Mist 0 1007 96 2500 5.1 80 15:19 27.01.2020
3583 Mist 0 1007 96 3000 5.1 90 14:55 27.01.2020
3584 Rain 0 1007 96 3500 4.1 90 14:36 27.01.2020
3585 Rain 0 1007 96 3500 4.1 90 14:18 27.01.2020
3586 Rain 0 1008 96 5000 4.6 90 13:42 27.01.2020
3587 Rain 0 1008 97 5000 4.6 90 13:21 27.01.2020
3588 Rain 0 1008 97 5000 4.6 90 13:21 27.01.2020
3589 Rain 1 1008 97 3500 4.6 90 12:56 27.01.2020
3590 Snow 0 1008 97 3000 4.1 90 12:37 27.01.2020
3591 Snow 0 1008 97 3000 4.1 90 12:19 27.01.2020
3592 Snow 0 1008 97 2000 4.6 90 11:41 27.01.2020
3593 Snow 0 1008 97 2000 4.6 90 11:21 27.01.2020
3594 Snow 0 1009 97 1800 3.6 90 10:43 27.01.2020
3595 Snow 0 1009 100 2000 3.6 80 10:25 27.01.2020
3596 Snow 0 1009 100 2000 3.1 50 09:57 27.01.2020
3597 Snow -1 1009 100 2200 3.1 60 09:38 27.01.2020
3598 Snow -1 1009 100 2200 3.1 60 09:18 27.01.2020
3599 Snow -1 1009 100 2200 3.1 60 09:18 27.01.2020
3600 Snow -1 1009 100 1500 4.1 60 08:43 27.01.2020
3601 Snow -1 1009 100 1500 4.1 60 08:22 27.01.2020
3602 Snow -1 1009 100 2800 3.6 70 07:54 27.01.2020
3603 Snow -1 1009 92 4000 4.1 70 07:35 27.01.2020
3604 Clouds -1 1009 100 5000 5.1 70 06:53 27.01.2020
3605 Clouds -1 1009 92 4500 4.1 70 06:25 27.01.2020
3606 Clouds -1 1009 92 5000 4.1 70 05:24 27.01.2020
3607 Clouds -1 1009 92 6000 4.1 70 03:49 27.01.2020
3608 Clouds -1 1009 92 5000 3.6 70 02:42 27.01.2020
3609 Clouds -1 1009 92 5000 3.6 70 01:29 27.01.2020
3610 Clouds -1 1009 92 4500 4.1 70 00:57 27.01.2020
3611 Clouds -1 1009 92 5000 4.6 60 00:36 27.01.2020
3612 Clouds -1 1009 92 5000 4.6 60 00:18 27.01.2020
3613 Clouds -1 1009 92 5000 4.6 60 00:18 27.01.2020
3614 Clouds 0 1009 92 4500 4.1 70 23:41 26.01.2020
3615 Clouds 0 1008 100 4500 4.6 60 23:19 26.01.2020
3616 Clouds 0 1008 92 5000 5.1 50 22:55 26.01.2020
3617 Drizzle 1 1008 92 10000 4.1 60 22:36 26.01.2020
3618 Drizzle 1 1008 92 10000 4.1 60 22:18 26.01.2020
3619 Drizzle 1 1007 86 10000 4.1 60 21:55 26.01.2020
3620 Drizzle 1 1007 86 10000 4.6 50 21:37 26.01.2020
3621 Drizzle 1 1007 86 10000 4.6 50 21:18 26.01.2020
3622 Drizzle 1 1007 86 10000 4.6 50 21:18 26.01.2020
3623 Drizzle 1 1007 92 10000 4.1 50 20:55 26.01.2020
3624 Clouds 2 1006 92 10000 4.1 50 20:36 26.01.2020
3625 Clouds 2 1006 89 10000 4.1 50 20:18 26.01.2020
3626 Clouds 2 1005 93 10000 4.6 30 19:41 26.01.2020
3627 Clouds 2 1005 93 10000 4.6 30 19:21 26.01.2020
3628 Clouds 2 1005 93 10000 1.5 290 18:59 26.01.2020
3629 Clouds 2 1005 93 10000 1.5 290 18:40 26.01.2020
3630 Clouds 2 1004 86 10000 2.6 270 18:22 26.01.2020
3631 Clouds 3 1004 86 10000 2.6 260 17:58 26.01.2020
3632 Clouds 3 1004 86 10000 2.6 260 17:58 26.01.2020
3633 Clouds 3 1004 86 10000 3.6 270 17:38 26.01.2020
3634 Clouds 3 1004 86 10000 3.6 270 17:19 26.01.2020
3635 Clouds 3 1003 86 10000 3.1 270 16:58 26.01.2020
3636 Clouds 3 1003 86 10000 3.1 270 16:39 26.01.2020
3637 Clouds 3 1003 86 10000 3.1 270 16:20 26.01.2020
3638 Clouds 3 1003 86 10000 3.1 270 16:20 26.01.2020
3639 Clouds 3 1004 85 0 6.77 278 15:55 26.01.2020
3640 Clouds 3 1002 83 0 6.77 278 15:36 26.01.2020
3641 Clouds 4 1002 83 0 6.77 278 15:18 26.01.2020
3642 Clouds 4 1001 83 0 0.45 288 14:40 26.01.2020
3643 Clouds 5 1003 82 0 9.43 267 14:19 26.01.2020
3644 Clouds 5 1003 82 0 9.43 267 14:19 26.01.2020
3645 Clouds 5 1001 83 0 0.89 291 13:42 26.01.2020
3646 Clouds 5 1002 82 0 9.99 265 13:20 26.01.2020
3647 Clouds 5 1001 82 0 9.99 265 12:57 26.01.2020
3648 Clouds 5 1000 83 0 0.89 272 12:39 26.01.2020
3649 Clouds 4 1000 84 0 1.34 278 12:21 26.01.2020
3650 Clouds 5 1001 84 0 9.99 265 11:57 26.01.2020
3651 Clouds 4 1001 83 0 9.99 265 11:37 26.01.2020
3652 Clouds 4 1000 86 10000 6.7 260 11:18 26.01.2020
3653 Clouds 4 1000 86 10000 6.7 260 10:57 26.01.2020
3654 Clouds 4 1000 86 10000 6.7 260 10:38 26.01.2020
3655 Clouds 4 1000 86 10000 6.7 260 10:20 26.01.2020
3656 Clouds 4 999 86 10000 6.2 260 09:56 26.01.2020
3657 Clouds 4 999 86 10000 7.7 250 09:38 26.01.2020
3658 Clouds 4 999 86 10000 7.7 250 09:19 26.01.2020
3659 Clouds 4 999 93 10000 6.2 240 08:42 26.01.2020
3660 Clouds 3 999 93 10000 6.2 240 08:22 26.01.2020
3661 Drizzle 3 999 93 10000 5.7 240 07:50 26.01.2020
3662 Drizzle 3 999 93 7000 5.7 240 07:27 26.01.2020
3663 Drizzle 3 999 93 7000 5.7 250 06:55 26.01.2020
3664 Drizzle 3 999 93 7000 5.1 230 06:25 26.01.2020
3665 Drizzle 3 1000 93 10000 5.7 190 05:29 26.01.2020
3666 Rain 1 1003 87 10000 4.6 180 03:57 26.01.2020
3667 Clouds 0 1005 92 10000 3.1 180 02:38 26.01.2020
3668 Clouds -1 1005 86 10000 2.1 200 01:45 26.01.2020
3669 Snow -1 1006 86 10000 1 0 01:23 26.01.2020
3670 Clouds -1 1006 86 10000 2.1 240 00:43 26.01.2020
3671 Clouds -1 1006 86 10000 2.1 220 00:25 26.01.2020
3672 Clouds -1 1007 85 0 7.89 255 23:40 25.01.2020
3673 Clouds -2 1007 86 0 9.25 277 23:21 25.01.2020
3674 Clouds -2 1007 87 0 9.25 277 22:56 25.01.2020
3675 Clouds -2 1007 87 0 9.25 277 22:56 25.01.2020
3676 Clouds -2 1007 87 0 9.25 277 22:37 25.01.2020
3677 Clouds -2 1007 86 0 9.25 277 22:18 25.01.2020
3678 Clouds -2 1007 70 0 9.25 277 21:55 25.01.2020
3679 Clouds -2 1007 84 0 9.25 277 21:55 25.01.2020
3680 Clouds -2 1007 70 0 9.25 277 21:55 25.01.2020
3681 Clouds -2 1007 69 0 9.25 277 21:36 25.01.2020
3682 Clouds 2 1008 72 0 9.25 277 21:18 25.01.2020
3683 Clouds 2 1008 72 0 9.25 277 20:43 25.01.2020
3684 Clouds -2 1006 75 0 0.45 282 20:24 25.01.2020
3685 Clouds -1 1005 80 0 3.58 270 19:48 25.01.2020
3686 Clouds -1 1007 83 0 9.4 289 19:20 25.01.2020
3687 Clouds -1 1007 82 0 9.4 289 18:59 25.01.2020
3688 Clouds -1 1006 80 0 9.41 292 18:41 25.01.2020
3689 Clouds -1 1006 80 0 9.41 292 18:20 25.01.2020
3690 Clouds -1 1006 80 0 9.41 292 17:54 25.01.2020
3691 Clouds -1 1006 79 0 9.4 289 17:36 25.01.2020
3692 Clouds -1 1005 79 0 9.73 297 17:18 25.01.2020
3693 Clouds 0 1005 77 0 9.73 297 16:42 25.01.2020
3694 Clouds 0 1005 76 0 9.73 297 16:22 25.01.2020
3695 Clouds 0 1005 75 0 9.73 297 15:55 25.01.2020
3696 Clouds 0 1004 74 0 9.73 297 15:37 25.01.2020
3697 Clouds 0 1004 73 0 9.73 297 15:18 25.01.2020
3698 Clouds 1 1002 66 0 0.89 271 14:41 25.01.2020
3699 Clear 1 1003 46 0 1.79 288 14:19 25.01.2020
3700 Clear 1 1003 68 0 11.55 310 13:43 25.01.2020
3701 Clear 2 1003 67 0 12.09 308 13:24 25.01.2020
3702 Clouds 2 1000 59 10000 9.3 290 12:46 25.01.2020
3703 Clouds 2 1000 59 10000 9.3 290 12:28 25.01.2020
3704 Clouds 2 1000 59 10000 9.3 290 11:54 25.01.2020
3705 Clouds 2 1000 59 10000 8.7 290 11:36 25.01.2020
3706 Clouds 2 1000 59 10000 8.7 290 11:18 25.01.2020
3707 Clouds 1 999 69 10000 7.7 280 10:41 25.01.2020
3708 Clouds 1 999 69 10000 7.7 280 10:21 25.01.2020
3709 Clear 1 998 69 10000 7.7 280 09:57 25.01.2020
3710 Clear 1 998 68 10000 7.2 280 09:37 25.01.2020
3711 Clear 1 998 68 10000 7.2 280 09:18 25.01.2020
3712 Clear 0 997 68 10000 6.2 280 08:42 25.01.2020
3713 Clear 0 997 68 10000 6.2 280 08:42 25.01.2020
3714 Clouds 0 997 66 10000 7.7 280 07:53 25.01.2020
3715 Clouds 0 997 66 10000 7.7 280 07:53 25.01.2020
3716 Clouds 0 996 66 10000 6.7 280 06:58 25.01.2020
3717 Clouds 0 996 66 10000 7.2 290 06:31 25.01.2020
3718 Clouds 0 995 66 10000 7.2 280 05:50 25.01.2020
3719 Clouds 0 995 66 10000 6.7 280 05:30 25.01.2020
3720 Clouds 0 995 69 10000 5.1 290 03:55 25.01.2020
3721 Clouds 0 995 69 10000 5.7 280 03:34 25.01.2020
3722 Clouds 0 995 74 10000 5.7 260 02:24 25.01.2020
3723 Clouds 0 995 74 10000 4.6 260 01:54 25.01.2020
3724 Clouds 0 995 74 10000 4.1 250 00:52 25.01.2020
3725 Clouds 0 996 86 10000 4.1 250 00:27 25.01.2020
3726 Clouds 0 996 74 10000 4.1 240 23:59 24.01.2020
3727 Clouds 0 996 74 10000 4.1 240 23:41 24.01.2020
3728 Clouds 0 996 81 10000 4.1 240 23:23 24.01.2020
3729 Clouds 0 996 100 10000 4.6 230 22:46 24.01.2020
3730 Clouds 0 996 92 10000 3.6 220 22:26 24.01.2020
3731 Clouds 0 997 100 10000 3.6 230 21:57 24.01.2020
3732 Clouds -1 997 100 10000 3.1 220 21:39 24.01.2020
3733 Clouds -1 997 100 10000 3.1 220 21:18 24.01.2020
3734 Clouds -1 998 81 10000 4.1 260 20:43 24.01.2020
3735 Clouds 0 998 79 10000 4.1 250 20:21 24.01.2020
3736 Clouds 0 998 79 10000 4.1 250 19:58 24.01.2020
3737 Clouds 0 998 79 10000 3.6 250 19:39 24.01.2020
3738 Clouds 0 998 79 10000 3.6 250 19:21 24.01.2020
3739 Clouds 0 998 100 10000 3.6 240 18:44 24.01.2020
3740 Clouds 0 998 100 10000 3.6 240 18:25 24.01.2020
3741 Clouds 0 998 100 10000 3.1 240 17:56 24.01.2020
3742 Clouds 0 998 100 10000 3.1 240 17:56 24.01.2020
3743 Clouds 0 998 79 10000 3.6 250 17:38 24.01.2020
3744 Clouds 0 998 86 10000 3.6 250 17:20 24.01.2020
3745 Clouds 1 998 86 10000 3.6 250 16:39 24.01.2020
3746 Clouds 1 998 86 10000 3.6 250 16:21 24.01.2020
3747 Clouds 1 998 80 10000 4.6 270 15:56 24.01.2020
3748 Clouds 2 998 86 10000 5.7 260 15:38 24.01.2020
3749 Clouds 2 998 86 10000 5.7 260 15:19 24.01.2020
3750 Rain 3 998 86 10000 5.7 260 14:41 24.01.2020
3751 Rain 3 998 86 10000 5.7 260 14:22 24.01.2020
3752 Rain 3 998 86 10000 5.7 250 13:45 24.01.2020
3753 Rain 3 998 86 10000 5.7 270 13:24 24.01.2020
3754 Rain 3 998 93 10000 7.7 300 12:45 24.01.2020
3755 Rain 3 998 93 10000 4.1 280 12:24 24.01.2020
3756 Rain 3 999 74 10000 3.6 300 11:59 24.01.2020
3757 Rain 3 999 74 10000 3.6 300 11:40 24.01.2020
3758 Clouds 3 998 74 10000 4.1 270 11:18 24.01.2020
3759 Clouds 2 999 83 10000 4.1 260 10:43 24.01.2020
3760 Clouds 2 999 83 10000 4.1 260 10:21 24.01.2020
3761 Clouds 2 999 83 10000 3.6 250 09:55 24.01.2020
3762 Clouds 2 999 83 10000 3.6 250 09:37 24.01.2020
3763 Clouds 1 999 83 10000 3.6 250 09:18 24.01.2020
3764 Clouds 1 999 86 10000 4.1 250 08:40 24.01.2020
3765 Rain 1 999 86 10000 3.6 250 08:19 24.01.2020
3766 Clouds 1 999 84 10000 4.6 240 07:49 24.01.2020
3767 Clouds 1 999 80 10000 4.6 230 07:24 24.01.2020
3768 Rain 1 999 80 10000 4.1 240 06:46 24.01.2020
3769 Rain 1 1000 86 10000 2.6 240 06:28 24.01.2020
3770 Rain 1 999 80 10000 3.1 250 05:43 24.01.2020
3771 Clouds 1 1000 86 10000 3.1 240 03:55 24.01.2020
3772 Clouds 1 1001 86 10000 4.6 240 02:43 24.01.2020
3773 Clouds 1 1001 86 10000 4.6 240 02:23 24.01.2020
3774 Clouds 1 1001 83 10000 5.1 230 01:39 24.01.2020
3775 Clouds 0 1002 84 10000 4.6 240 00:54 24.01.2020
3776 Clouds 0 1002 84 10000 4.6 240 00:19 24.01.2020
3777 Clouds 1 1002 80 10000 5.7 240 23:45 23.01.2020
3778 Clouds 1 1002 80 10000 5.7 250 23:26 23.01.2020
3779 Clouds 1 1003 80 10000 5.1 250 22:59 23.01.2020
3780 Clouds 1 1003 86 10000 5.1 250 22:37 23.01.2020
3781 Clouds 1 1003 86 10000 5.1 250 22:18 23.01.2020
3782 Clouds 1 1003 80 10000 5.1 250 21:55 23.01.2020
3783 Clouds 2 1003 80 10000 5.1 240 21:37 23.01.2020
3784 Clouds 2 1003 80 10000 5.1 240 21:19 23.01.2020
3785 Clouds 2 1003 83 10000 4.6 240 20:56 23.01.2020
3786 Clouds 2 1004 83 10000 4.6 240 20:37 23.01.2020
3787 Clouds 2 1004 79 10000 4.6 240 20:19 23.01.2020
3788 Clouds 3 1004 79 10000 5.7 240 19:44 23.01.2020
3789 Clouds 3 1005 79 10000 5.7 230 19:24 23.01.2020
3790 Clouds 3 1005 74 10000 6.2 220 18:59 23.01.2020
3791 Clouds 2 1006 80 10000 5.1 220 18:39 23.01.2020
3792 Clouds 2 1006 80 10000 5.1 220 18:20 23.01.2020
3793 Clouds 2 1007 80 10000 5.1 210 17:57 23.01.2020
3794 Clouds 2 1007 74 10000 5.1 210 17:38 23.01.2020
3795 Clouds 2 1007 74 10000 5.1 210 17:18 23.01.2020
3796 Clouds 1 1009 86 10000 3.6 190 16:39 23.01.2020
3797 Clouds 1 1009 86 10000 3.6 190 16:20 23.01.2020
3798 Clouds 1 1010 86 10000 5.1 200 15:58 23.01.2020
3799 Clouds 1 1011 86 10000 4.1 210 15:40 23.01.2020
3800 Clouds 1 1011 86 10000 4.1 210 15:19 23.01.2020
3801 Snow 1 1011 86 8000 3.6 220 14:59 23.01.2020
3802 Snow 1 1011 86 8000 3.6 220 14:41 23.01.2020
3803 Clouds 1 1012 86 10000 4.1 230 14:23 23.01.2020
3804 Clouds 1 1013 86 10000 3.6 230 13:59 23.01.2020
3805 Clouds 1 1013 86 10000 4.1 240 13:37 23.01.2020
3806 Clouds 1 1013 80 10000 3.6 260 13:19 23.01.2020
3807 Clouds 1 1013 80 10000 3.6 260 12:44 23.01.2020
3808 Clouds 0 1014 78 10000 4.6 250 12:25 23.01.2020
3809 Clouds 0 1014 78 10000 3.6 260 11:56 23.01.2020
3810 Clouds 0 1015 92 10000 4.1 260 11:37 23.01.2020
3811 Clouds 0 1015 92 10000 4.1 260 11:18 23.01.2020
3812 Clouds -1 1016 92 10000 4.6 270 10:44 23.01.2020
3813 Clouds -1 1015 92 10000 3.1 260 10:44 23.01.2020
3814 Clouds -1 1016 92 10000 4.6 270 10:22 23.01.2020
3815 Clouds -1 1016 92 10000 4.6 270 10:22 23.01.2020
3816 Clouds -2 1016 92 10000 4.1 260 09:57 23.01.2020
3817 Clouds -2 1016 92 10000 3.6 250 09:36 23.01.2020
3818 Clouds -2 1016 92 10000 3.6 250 09:18 23.01.2020
3819 Clouds -3 1016 86 10000 3.6 260 08:40 23.01.2020
3820 Clouds -3 1016 86 10000 3.6 260 08:22 23.01.2020
3821 Clouds -3 1016 92 10000 4.1 260 07:45 23.01.2020
3822 Clouds -3 1016 92 10000 4.6 270 07:26 23.01.2020
3823 Clouds -3 1016 92 10000 4.6 260 06:51 23.01.2020
3824 Clouds -3 1017 86 10000 3.6 260 06:22 23.01.2020
3825 Clouds -3 1017 85 10000 3.1 260 05:44 23.01.2020
3826 Clouds -4 1017 85 10000 2.6 270 04:24 23.01.2020
3827 Clouds -3 1017 79 10000 3.6 290 02:34 23.01.2020
3828 Clouds -2 1017 79 10000 4.1 300 01:19 23.01.2020
3829 Clouds -1 1017 74 10000 5.7 320 00:27 23.01.2020
3830 Clouds -1 1016 74 10000 5.7 320 23:48 22.01.2020
3831 Clouds -1 1016 80 10000 5.7 310 23:29 22.01.2020
3832 Clouds -1 1015 80 10000 6.2 310 22:59 22.01.2020
3833 Clouds -1 1015 80 10000 6.2 310 22:40 22.01.2020
3834 Clouds -1 1015 80 10000 6.2 310 22:40 22.01.2020
3835 Clouds -1 1015 80 10000 6.2 310 22:22 22.01.2020
3836 Clouds -1 1014 80 10000 5.7 290 21:40 22.01.2020
3837 Clouds -1 1014 80 10000 5.7 290 21:22 22.01.2020
3838 Clouds -1 1014 80 10000 6.7 280 20:57 22.01.2020
3839 Clouds -1 1013 80 10000 5.7 280 20:37 22.01.2020
3840 Clear -1 1013 80 10000 5.7 280 20:19 22.01.2020
3841 Clear -1 1013 80 10000 5.1 280 19:56 22.01.2020
3842 Clear -1 1013 80 10000 4.6 280 19:37 22.01.2020
3843 Clear -1 1013 80 10000 4.6 280 19:18 22.01.2020
3844 Clear -1 1013 80 10000 5.1 290 18:56 22.01.2020
3845 Clear -1 1013 74 10000 4.6 290 18:37 22.01.2020
3846 Clear -1 1013 74 10000 4.6 290 18:19 22.01.2020
3847 Clear 0 1012 71 10000 5.7 310 17:40 22.01.2020
3848 Clear 0 1012 60 10000 5.7 310 17:21 22.01.2020
3849 Clear 0 1011 60 10000 6.7 320 16:58 22.01.2020
3850 Clear 0 1011 60 10000 7.2 320 16:39 22.01.2020
3851 Clear 0 1011 60 10000 7.2 320 16:21 22.01.2020
3852 Clouds 1 1010 64 10000 7.2 320 15:56 22.01.2020
3853 Clouds 1 1009 64 10000 7.7 320 15:38 22.01.2020
3854 Clouds 1 1009 64 10000 7.7 320 15:19 22.01.2020
3855 Clouds 1 1008 59 10000 7.2 320 14:40 22.01.2020
3856 Clouds 1 1008 59 10000 7.2 320 14:40 22.01.2020
3857 Clouds 2 1008 59 10000 7.2 320 14:21 22.01.2020
3858 Clouds 2 1007 55 10000 8.2 320 13:59 22.01.2020
3859 Clouds 2 1007 55 10000 8.2 320 13:38 22.01.2020
3860 Clouds 2 1007 59 10000 6.7 320 13:19 22.01.2020
3861 Clouds 2 1006 59 10000 7.7 320 12:57 22.01.2020
3862 Clouds 2 1005 59 10000 7.7 320 12:39 22.01.2020
3863 Clouds 2 1005 59 10000 7.7 320 12:20 22.01.2020
3864 Clouds 2 1005 59 10000 5.7 330 11:58 22.01.2020
3865 Clouds 2 1004 59 10000 7.2 320 11:39 22.01.2020
3866 Clouds 2 1004 59 10000 7.2 320 11:19 22.01.2020
3867 Clouds 2 1004 59 10000 7.2 320 11:19 22.01.2020
3868 Clouds 2 1004 59 10000 7.2 320 10:54 22.01.2020
3869 Clouds 2 1003 64 10000 6.7 300 10:36 22.01.2020
3870 Clouds 2 1003 64 10000 6.7 300 10:18 22.01.2020
3871 Clouds 1 1003 74 10000 6.2 300 09:41 22.01.2020
3872 Clouds 1 1002 73 10000 7.2 290 09:23 22.01.2020
3873 Clouds 1 1002 73 10000 6.7 300 08:57 22.01.2020
3874 Clouds 0 1001 72 10000 6.7 290 08:38 22.01.2020
3875 Clouds 0 1001 68 10000 6.7 290 08:20 22.01.2020
3876 Clouds 1 1001 68 10000 5.7 280 07:45 22.01.2020
3877 Clouds 1 1001 68 10000 5.7 280 07:27 22.01.2020
3878 Clouds 1 1001 68 10000 6.7 280 06:38 22.01.2020
3879 Clouds 1 1001 68 10000 6.7 280 06:20 22.01.2020
3880 Clouds 1 1001 68 10000 6.7 280 06:19 22.01.2020
3881 Clouds 2 1001 64 10000 8.2 290 04:27 22.01.2020
3882 Clouds 3 1001 64 10000 7.7 280 03:29 22.01.2020
3883 Clouds 3 1001 59 10000 8.2 280 02:49 22.01.2020
3884 Clouds 3 1003 59 10000 7.7 280 01:30 22.01.2020
3885 Clouds 3 1003 59 10000 9.3 270 00:40 22.01.2020
3886 Clouds 3 1003 59 10000 9.3 270 00:19 22.01.2020
3887 Clouds 4 1004 55 10000 9.3 270 23:37 21.01.2020
3888 Clouds 4 1004 55 10000 9.3 270 23:37 21.01.2020
3889 Clouds 4 1004 55 10000 9.3 270 23:19 21.01.2020
3890 Clouds 4 1005 55 10000 8.2 270 22:42 21.01.2020
3891 Clouds 4 1005 55 10000 8.2 270 22:24 21.01.2020
3892 Clouds 4 1006 59 10000 7.2 270 21:58 21.01.2020
3893 Clouds 3 1006 59 10000 7.2 270 21:39 21.01.2020
3894 Clouds 3 1006 59 10000 7.2 270 21:21 21.01.2020
3895 Clouds 3 1006 59 10000 7.7 270 20:57 21.01.2020
3896 Clouds 3 1007 59 10000 8.2 270 20:39 21.01.2020
3897 Clouds 3 1007 59 10000 8.2 270 20:20 21.01.2020
3898 Clouds 3 1007 59 10000 8.2 270 19:58 21.01.2020
3899 Clouds 3 1007 59 10000 8.2 270 19:58 21.01.2020
3900 Clouds 3 1007 59 10000 8.7 280 19:39 21.01.2020
3901 Clouds 3 1007 59 10000 8.7 280 19:21 21.01.2020
3902 Clouds 3 1008 59 10000 8.2 280 18:56 21.01.2020
3903 Clouds 3 1008 59 10000 8.2 280 18:38 21.01.2020
3904 Clouds 3 1008 59 10000 8.2 280 18:20 21.01.2020
3905 Clouds 3 1008 59 10000 8.2 280 17:45 21.01.2020
3906 Clouds 3 1008 59 10000 8.2 280 17:22 21.01.2020
3907 Clouds 3 1008 59 10000 8.2 290 16:59 21.01.2020
3908 Clouds 3 1008 59 10000 8.2 280 16:37 21.01.2020
3909 Clouds 3 1008 59 10000 8.2 280 16:19 21.01.2020
3910 Clouds 4 1008 55 10000 8.7 290 15:56 21.01.2020
3911 Clouds 4 1008 55 10000 9.8 290 15:37 21.01.2020
3912 Clouds 4 1008 55 10000 9.8 290 15:18 21.01.2020
3913 Clouds 4 1009 57 0 9.65 293 14:39 21.01.2020
3914 Clouds 4 1008 52 10000 9.3 290 14:20 21.01.2020
3915 Clouds 5 1007 52 10000 9.3 290 13:41 21.01.2020
3916 Clouds 5 1007 52 10000 9.3 290 13:19 21.01.2020
3917 Clouds 5 1006 56 10000 10.3 290 12:56 21.01.2020
3918 Clouds 5 1006 52 10000 9.8 300 12:38 21.01.2020
3919 Clouds 5 1006 52 10000 9.8 300 12:19 21.01.2020
3920 Clouds 6 1006 56 10000 10.8 300 11:40 21.01.2020
3921 Clouds 6 1006 56 10000 10.8 300 11:22 21.01.2020
3922 Clouds 6 1006 56 10000 11.3 300 10:59 21.01.2020
3923 Clouds 6 1005 56 10000 10.8 300 10:40 21.01.2020
3924 Clouds 7 1005 56 10000 10.8 300 10:21 21.01.2020
3925 Clouds 7 1005 67 10000 11.3 300 09:42 21.01.2020
3926 Clouds 7 1005 65 10000 9.3 290 09:23 21.01.2020
3927 Clouds 7 1005 70 10000 7.2 280 08:50 21.01.2020
3928 Clouds 7 1005 75 10000 6.7 270 08:32 21.01.2020
3929 Clouds 7 1005 75 10000 6.7 260 08:00 21.01.2020
3930 Clouds 7 1005 75 10000 7.2 270 07:40 21.01.2020
3931 Clouds 7 1005 75 10000 7.2 270 07:22 21.01.2020
3932 Clouds 7 1005 75 10000 7.2 270 06:49 21.01.2020
3933 Rain 6 1006 75 10000 6.7 260 06:29 21.01.2020
3934 Clouds 6 1007 81 10000 6.2 260 05:42 21.01.2020
3935 Clouds 5 1007 81 10000 6.7 260 04:40 21.01.2020
3936 Clouds 5 1008 80 10000 6.2 260 02:57 21.01.2020
3937 Clouds 5 1009 80 10000 6.2 250 01:55 21.01.2020
3938 Clouds 4 1009 80 10000 6.7 250 01:18 21.01.2020
3939 Clouds 4 1010 86 10000 5.7 250 00:37 21.01.2020
3940 Clouds 4 1011 75 10000 5.7 250 23:59 20.01.2020
3941 Clouds 4 1011 75 10000 5.7 250 23:39 20.01.2020
3942 Clouds 4 1011 80 10000 6.2 250 23:39 20.01.2020
3943 Clouds 4 1011 80 10000 6.2 250 23:19 20.01.2020
3944 Clouds 4 1011 80 10000 6.2 240 22:56 20.01.2020
3945 Clouds 4 1012 80 10000 6.2 240 22:37 20.01.2020
3946 Clouds 4 1012 80 10000 6.2 240 22:19 20.01.2020
3947 Clouds 3 1012 86 10000 6.7 240 21:57 20.01.2020
3948 Clouds 3 1013 86 10000 6.2 240 21:37 20.01.2020
3949 Clouds 3 1013 86 10000 6.2 240 21:19 20.01.2020
3950 Clouds 3 1014 86 10000 5.7 230 20:55 20.01.2020
3951 Clouds 3 1014 86 10000 5.7 230 20:37 20.01.2020
3952 Clouds 3 1014 86 10000 5.7 230 20:18 20.01.2020
3953 Clouds 3 1015 87 10000 6.7 240 19:56 20.01.2020
3954 Clouds 3 1016 87 10000 5.7 230 19:37 20.01.2020
3955 Clouds 3 1016 87 10000 5.7 230 19:18 20.01.2020
3956 Clouds 2 1017 87 10000 5.1 230 18:43 20.01.2020
3957 Clouds 3 1017 87 10000 5.1 230 18:22 20.01.2020
3958 Clouds 3 1017 87 10000 4.6 230 17:41 20.01.2020
3959 Clouds 2 1018 82 10000 5.1 230 17:19 20.01.2020
3960 Clouds 3 1018 82 10000 5.7 240 16:58 20.01.2020
3961 Clouds 3 1019 82 10000 5.7 250 16:37 20.01.2020
3962 Clouds 3 1019 82 10000 5.7 250 16:18 20.01.2020
3963 Clouds 3 1019 82 10000 5.7 250 16:18 20.01.2020
3964 Clouds 3 1019 82 10000 5.7 250 16:18 20.01.2020
3965 Clouds 3 1019 82 10000 5.7 240 15:54 20.01.2020
3966 Clouds 3 1019 82 10000 4.6 250 15:36 20.01.2020
3967 Clouds 3 1019 82 10000 4.6 250 15:18 20.01.2020
3968 Rain 3 1020 74 10000 5.7 230 14:41 20.01.2020
3969 Rain 3 1020 74 10000 5.7 230 14:22 20.01.2020
3970 Clouds 3 1021 74 10000 6.2 240 13:58 20.01.2020
3971 Clouds 3 1021 69 10000 6.7 240 13:39 20.01.2020
3972 Clouds 3 1021 69 10000 6.7 240 13:20 20.01.2020
3973 Clouds 3 1021 64 10000 5.7 240 12:45 20.01.2020
3974 Clouds 3 1021 64 10000 6.2 240 12:26 20.01.2020
3975 Clouds 3 1022 64 10000 5.7 240 11:57 20.01.2020
3976 Clouds 3 1022 74 10000 5.7 230 11:38 20.01.2020
3977 Clouds 3 1022 74 10000 5.7 230 11:19 20.01.2020
3978 Clouds 2 1023 74 10000 5.7 240 10:47 20.01.2020
3979 Clouds 2 1024 80 10000 3.6 230 10:21 20.01.2020
3980 Clouds 2 1023 80 10000 4.1 240 10:21 20.01.2020
3981 Clouds 1 1024 80 10000 3.6 230 09:42 20.01.2020
3982 Clouds 1 1024 86 10000 3.6 230 09:24 20.01.2020
3983 Clouds 1 1024 86 10000 4.1 230 08:59 20.01.2020
3984 Clouds 1 1024 86 10000 5.1 250 08:39 20.01.2020
3985 Clouds 1 1024 86 10000 5.1 250 08:20 20.01.2020
3986 Clouds 1 1024 86 10000 4.6 240 07:42 20.01.2020
3987 Clouds 1 1024 86 10000 4.6 240 07:22 20.01.2020
3988 Clouds 2 1024 78 10000 4.1 240 06:44 20.01.2020
3989 Clouds 2 1024 78 10000 4.1 240 06:24 20.01.2020
3990 Clouds 3 1025 78 10000 4.1 260 05:41 20.01.2020
3991 Clouds 3 1025 85 10000 4.1 260 05:20 20.01.2020
3992 Clouds 3 1025 80 10000 6.7 280 04:24 20.01.2020
3993 Drizzle 4 1025 80 10000 6.2 270 02:33 20.01.2020
3994 Clouds 3 1025 80 10000 5.7 280 01:40 20.01.2020
3995 Clouds 4 1025 80 10000 5.7 280 01:20 20.01.2020
3996 Clouds 4 1024 80 10000 6.2 270 00:43 20.01.2020
3997 Clouds 4 1024 80 10000 6.2 270 00:21 20.01.2020
3998 Clouds 4 1024 80 10000 6.2 270 23:38 19.01.2020
3999 Clouds 4 1024 80 10000 6.2 270 23:19 19.01.2020
4000 Clouds 4 1024 80 10000 5.7 270 22:56 19.01.2020
4001 Clouds 4 1023 80 10000 5.1 280 22:37 19.01.2020
4002 Clouds 4 1023 80 10000 5.1 280 22:19 19.01.2020
4003 Clouds 3 1023 86 10000 5.1 270 21:56 19.01.2020
4004 Drizzle 3 1023 86 10000 6.2 270 21:38 19.01.2020
4005 Drizzle 3 1023 86 10000 6.2 270 21:38 19.01.2020
4006 Drizzle 3 1023 86 10000 6.2 270 21:19 19.01.2020
4007 Clouds 3 1022 86 10000 5.7 270 20:57 19.01.2020
4008 Clouds 3 1022 80 10000 4.1 280 20:38 19.01.2020
4009 Clouds 3 1022 80 10000 4.1 280 20:20 19.01.2020
4010 Clouds 3 1022 80 10000 5.7 270 19:55 19.01.2020
4011 Clouds 3 1022 80 10000 5.1 270 19:37 19.01.2020
4012 Clouds 3 1022 80 10000 5.1 270 19:19 19.01.2020
4013 Clouds 3 1022 80 10000 5.1 270 19:19 19.01.2020
4014 Clouds 3 1022 80 10000 5.1 270 19:19 19.01.2020
4015 Clouds 3 1021 86 10000 5.1 260 18:55 19.01.2020
4016 Clouds 3 1021 86 10000 3.6 260 18:37 19.01.2020
4017 Clouds 3 1021 86 10000 3.6 260 18:19 19.01.2020
4018 Clouds 3 1021 86 10000 4.6 250 17:57 19.01.2020
4019 Clouds 3 1020 86 10000 4.1 250 17:39 19.01.2020
4020 Clouds 2 1020 86 10000 4.1 250 17:20 19.01.2020
4021 Clouds 2 1020 93 10000 4.1 240 16:57 19.01.2020
4022 Clouds 2 1020 93 10000 4.1 240 16:38 19.01.2020
4023 Clouds 2 1020 93 10000 4.1 240 16:19 19.01.2020
4024 Clouds 2 1019 93 10000 3.6 240 15:57 19.01.2020
4025 Clouds 2 1019 93 10000 4.1 230 15:37 19.01.2020
4026 Clouds 2 1019 93 10000 4.1 230 15:19 19.01.2020
4027 Clouds 3 1019 86 10000 5.1 260 14:57 19.01.2020
4028 Clouds 3 1018 81 10000 5.1 260 14:37 19.01.2020
4029 Clouds 3 1018 79 10000 5.1 260 14:18 19.01.2020
4030 Clouds 3 1018 79 10000 5.7 260 13:54 19.01.2020
4031 Clouds 3 1017 79 10000 5.7 270 13:36 19.01.2020
4032 Clouds 3 1017 79 10000 5.7 270 13:18 19.01.2020
4033 Clouds 2 1016 79 10000 6.7 270 12:42 19.01.2020
4034 Clouds 2 1016 79 10000 6.7 270 12:23 19.01.2020
4035 Clouds 2 1016 79 10000 7.2 270 11:57 19.01.2020
4036 Clouds 2 1015 79 10000 7.7 280 11:39 19.01.2020
4037 Clouds 2 1015 84 10000 7.7 280 11:20 19.01.2020
4038 Clouds 2 1015 84 10000 7.2 280 10:55 19.01.2020
4039 Drizzle 2 1014 93 10000 7.7 270 10:37 19.01.2020
4040 Drizzle 2 1014 93 10000 7.7 270 10:18 19.01.2020
4041 Clouds 3 1012 93 10000 8.2 260 09:41 19.01.2020
4042 Clouds 3 1012 93 10000 8.2 260 09:23 19.01.2020
4043 Drizzle 4 1011 93 9000 6.2 240 08:57 19.01.2020
4044 Clouds 4 1011 93 10000 6.7 220 08:38 19.01.2020
4045 Clouds 4 1011 93 10000 6.7 220 08:20 19.01.2020
4046 Rain 4 1010 86 10000 7.2 210 07:40 19.01.2020
4047 Rain 4 1010 86 10000 7.2 210 07:21 19.01.2020
4048 Clouds 4 1010 93 10000 6.2 220 06:44 19.01.2020
4049 Rain 4 1009 93 10000 8.2 210 04:41 19.01.2020
4050 Clouds 4 1009 86 10000 8.2 210 02:43 19.01.2020
4051 Clouds 4 1009 86 10000 8.2 210 02:21 19.01.2020
4052 Clouds 4 1009 86 10000 7.7 210 01:24 19.01.2020
4053 Clouds 4 1009 86 10000 7.7 210 01:24 19.01.2020
4054 Rain 4 1009 93 10000 7.7 210 00:45 19.01.2020
4055 Clouds 4 1009 86 10000 7.2 210 00:27 19.01.2020
4056 Clouds 4 1009 86 10000 7.2 210 23:55 18.01.2020
4057 Clouds 5 1009 93 10000 7.2 210 23:37 18.01.2020
4058 Clouds 5 1009 93 10000 7.2 210 23:18 18.01.2020
4059 Clouds 5 1009 93 10000 7.7 210 22:54 18.01.2020
4060 Clouds 5 1008 93 10000 8.2 210 22:36 18.01.2020
4061 Clouds 5 1008 93 10000 8.2 210 22:36 18.01.2020
4062 Clouds 5 1008 93 10000 8.2 210 22:18 18.01.2020
4063 Rain 5 1008 93 8000 7.7 210 21:56 18.01.2020
4064 Clouds 5 1008 93 8000 8.7 210 21:36 18.01.2020
4065 Clouds 5 1008 93 8000 8.7 210 21:18 18.01.2020
4066 Drizzle 5 1008 100 4000 7.2 210 20:41 18.01.2020
4067 Drizzle 5 1008 100 3500 7.2 200 20:20 18.01.2020
4068 Drizzle 5 1008 93 4500 7.7 200 19:54 18.01.2020
4069 Drizzle 5 1008 93 4000 6.7 200 19:36 18.01.2020
4070 Drizzle 5 1008 93 4000 6.7 200 19:18 18.01.2020
4071 Drizzle 5 1008 100 3500 7.7 200 18:40 18.01.2020
4072 Drizzle 4 1008 100 3500 7.7 200 18:40 18.01.2020
4073 Drizzle 4 1008 100 3500 7.7 200 18:21 18.01.2020
4074 Drizzle 4 1008 93 3200 7.7 200 17:41 18.01.2020
4075 Drizzle 4 1008 93 3200 7.7 200 17:21 18.01.2020
4076 Drizzle 4 1008 93 3400 6.7 190 16:57 18.01.2020
4077 Drizzle 4 1008 93 4000 6.7 200 16:39 18.01.2020
4078 Drizzle 4 1008 93 4000 6.7 200 16:21 18.01.2020
4079 Drizzle 4 1008 93 2500 7.2 200 15:56 18.01.2020
4080 Drizzle 4 1008 93 2800 6.7 210 15:38 18.01.2020
4081 Drizzle 4 1008 93 2800 6.7 210 15:20 18.01.2020
4082 Drizzle 4 1008 93 3700 7.2 200 14:41 18.01.2020
4083 Drizzle 4 1008 93 2800 6.7 200 14:20 18.01.2020
4084 Drizzle 4 1008 100 2500 7.7 200 13:58 18.01.2020
4085 Drizzle 3 1008 93 2400 7.7 190 13:37 18.01.2020
4086 Drizzle 3 1008 93 2400 7.7 190 13:18 18.01.2020
4087 Drizzle 3 1008 93 2500 7.7 200 12:43 18.01.2020
4088 Drizzle 3 1008 93 2500 7.7 200 12:22 18.01.2020
4089 Drizzle 2 1008 93 5000 7.7 200 11:58 18.01.2020
4090 Drizzle 2 1009 93 4000 7.2 200 11:40 18.01.2020
4091 Drizzle 2 1009 93 4000 7.2 200 11:20 18.01.2020
4092 Drizzle 2 1009 93 3500 8.7 200 10:43 18.01.2020
4093 Drizzle 2 1009 93 4000 5.1 190 10:21 18.01.2020
4094 Drizzle 2 1009 84 8000 6.2 200 09:55 18.01.2020
4095 Clouds 2 1009 84 10000 5.1 200 09:37 18.01.2020
4096 Clouds 2 1009 84 10000 5.1 200 09:18 18.01.2020
4097 Clouds 2 1010 84 10000 5.7 190 08:42 18.01.2020
4098 Clouds 2 1010 78 10000 5.7 190 08:20 18.01.2020
4099 Clouds 2 1010 78 10000 5.7 190 07:56 18.01.2020
4100 Clouds 2 1011 78 10000 5.1 180 07:37 18.01.2020
4101 Clouds 1 1011 78 10000 2.6 160 06:50 18.01.2020
4102 Clouds 1 1011 78 10000 3.6 160 06:22 18.01.2020
4103 Clouds 1 1012 78 10000 3.1 160 05:45 18.01.2020
4104 Clouds 2 1013 93 10000 4.1 170 04:19 18.01.2020
4105 Clouds 4 1014 93 10000 6.2 210 02:21 18.01.2020
4106 Clouds 4 1015 93 10000 5.1 210 01:36 18.01.2020
4107 Clouds 5 1015 86 10000 5.7 210 00:39 18.01.2020
4108 Clouds 5 1015 86 10000 6.2 210 00:19 18.01.2020
4109 Clouds 5 1015 86 10000 5.7 210 23:56 17.01.2020
4110 Drizzle 5 1015 93 10000 6.7 210 23:38 17.01.2020
4111 Drizzle 5 1015 93 10000 6.7 210 23:18 17.01.2020
4112 Drizzle 5 1016 93 7000 6.2 210 22:40 17.01.2020
4113 Drizzle 5 1016 93 9000 6.7 210 22:19 17.01.2020
4114 Drizzle 5 1016 93 10000 6.7 220 21:43 17.01.2020
4115 Clouds 5 1016 86 10000 6.7 210 21:24 17.01.2020
4116 Clouds 5 1016 86 10000 7.2 210 20:59 17.01.2020
4117 Clouds 5 1016 86 10000 7.2 210 20:41 17.01.2020
4118 Clouds 5 1016 86 10000 7.2 210 20:20 17.01.2020
4119 Clouds 5 1016 86 10000 7.2 210 19:57 17.01.2020
4120 Clouds 5 1017 86 10000 7.7 210 19:38 17.01.2020
4121 Clouds 5 1017 86 10000 7.7 210 19:19 17.01.2020
4122 Clouds 5 1017 86 10000 8.7 210 18:57 17.01.2020
4123 Clouds 5 1017 86 10000 7.7 210 18:38 17.01.2020
4124 Clouds 5 1017 86 10000 7.7 210 18:19 17.01.2020
4125 Clouds 5 1017 86 10000 6.7 210 17:40 17.01.2020
4126 Clouds 5 1017 86 10000 6.7 210 17:40 17.01.2020
4127 Clouds 5 1017 86 10000 6.7 210 17:21 17.01.2020
4128 Clouds 5 1017 86 10000 5.7 210 16:55 17.01.2020
4129 Clouds 5 1017 86 10000 6.2 200 16:36 17.01.2020
4130 Clouds 5 1017 86 10000 6.2 200 16:18 17.01.2020
4131 Clouds 5 1018 80 10000 5.7 210 15:43 17.01.2020
4132 Clouds 5 1018 80 10000 5.7 210 15:25 17.01.2020
4133 Clouds 5 1018 86 10000 7.2 220 14:44 17.01.2020
4134 Clouds 5 1018 86 10000 7.2 220 14:25 17.01.2020
4135 Clouds 5 1018 86 10000 7.2 220 13:47 17.01.2020
4136 Clouds 5 1018 86 10000 5.7 230 13:23 17.01.2020
4137 Clouds 5 1018 86 10000 5.7 220 12:56 17.01.2020
4138 Clouds 5 1018 93 10000 6.2 230 12:37 17.01.2020
4139 Clouds 4 1018 93 10000 6.2 230 12:18 17.01.2020
4140 Clouds 4 1018 93 10000 5.1 220 11:38 17.01.2020
4141 Clouds 4 1018 93 10000 5.1 220 11:18 17.01.2020
4142 Clouds 4 1018 93 10000 4.6 230 10:42 17.01.2020
4143 Clouds 4 1018 100 10000 4.6 220 10:22 17.01.2020
4144 Clouds 3 1018 93 10000 4.1 210 09:57 17.01.2020
4145 Clouds 3 1018 93 10000 4.1 220 09:37 17.01.2020
4146 Clouds 3 1017 100 10000 3.6 220 09:18 17.01.2020
4147 Clouds 3 1017 100 10000 3.6 220 08:42 17.01.2020
4148 Clouds 2 1018 93 10000 3.6 220 08:24 17.01.2020
4149 Clouds 2 1017 100 10000 3.6 230 07:53 17.01.2020
4150 Clouds 2 1017 93 10000 4.1 210 07:31 17.01.2020
4151 Clouds 2 1017 93 10000 3.6 210 06:57 17.01.2020
4152 Clouds 2 1017 93 10000 3.1 220 06:38 17.01.2020
4153 Clouds 2 1017 93 10000 3.6 230 05:28 17.01.2020
4154 Clear 2 1016 91 0 0.89 202 03:39 17.01.2020
4155 Clear 2 1017 92 0 10.04 259 02:45 17.01.2020
4156 Clear 2 1016 89 0 8.39 256 01:46 17.01.2020
4157 Clear 2 1017 92 0 8.39 256 01:27 17.01.2020
4158 Clear 2 1015 89 0 8.4 255 00:44 17.01.2020
4159 Clear 2 1014 93 10000 3.6 250 00:20 17.01.2020
4160 Clear 3 1014 93 10000 3.6 250 23:42 16.01.2020
4161 Clear 3 1014 93 10000 3.6 250 23:24 16.01.2020
4162 Clear 3 1014 86 10000 5.1 250 22:43 16.01.2020
4163 Clear 3 1014 86 10000 5.1 250 22:22 16.01.2020
4164 Clear 3 1013 86 10000 4.1 250 21:57 16.01.2020
4165 Clear 4 1012 86 10000 4.1 240 21:39 16.01.2020
4166 Clear 4 1012 86 10000 4.1 240 21:20 16.01.2020
4167 Clouds 4 1012 93 10000 4.1 230 20:59 16.01.2020
4168 Clouds 4 1012 86 10000 4.6 240 20:40 16.01.2020
4169 Clouds 4 1012 86 10000 4.6 240 20:20 16.01.2020
4170 Clouds 4 1011 86 10000 5.1 240 19:57 16.01.2020
4171 Clouds 5 1011 93 10000 4.6 240 19:39 16.01.2020
4172 Clouds 5 1011 86 10000 4.6 230 19:20 16.01.2020
4173 Clouds 5 1011 86 10000 4.6 230 18:56 16.01.2020
4174 Clouds 5 1011 86 10000 4.1 230 18:37 16.01.2020
4175 Clouds 5 1011 86 10000 4.1 230 18:18 16.01.2020
4176 Clouds 5 1011 86 10000 4.1 230 18:18 16.01.2020
4177 Clouds 5 1010 86 10000 4.6 230 17:55 16.01.2020
4178 Clouds 5 1010 86 10000 3.6 230 17:37 16.01.2020
4179 Clouds 5 1010 86 10000 3.6 230 17:18 16.01.2020
4180 Clouds 5 1009 86 10000 5.1 230 16:40 16.01.2020
4181 Clouds 5 1009 86 10000 5.1 230 16:21 16.01.2020
4182 Clouds 5 1009 86 10000 5.1 230 15:55 16.01.2020
4183 Clouds 5 1009 86 10000 4.6 240 15:37 16.01.2020
4184 Clouds 5 1009 86 10000 4.6 240 15:18 16.01.2020
4185 Clouds 5 1008 86 10000 4.6 230 14:41 16.01.2020
4186 Clouds 5 1008 86 10000 4.6 230 14:23 16.01.2020
4187 Clouds 5 1007 86 10000 4.1 240 13:46 16.01.2020
4188 Clouds 5 1007 86 10000 5.1 240 13:28 16.01.2020
4189 Rain 5 1007 86 10000 4.6 230 12:57 16.01.2020
4190 Rain 5 1006 86 10000 4.6 230 12:38 16.01.2020
4191 Rain 5 1006 86 10000 4.6 230 12:20 16.01.2020
4192 Rain 5 1006 86 10000 5.7 240 11:41 16.01.2020
4193 Rain 5 1006 86 10000 5.7 240 11:23 16.01.2020
4194 Clouds 5 1006 80 10000 6.2 230 10:55 16.01.2020
4195 Clouds 5 1006 80 10000 6.2 230 10:55 16.01.2020
4196 Clouds 5 1005 80 10000 5.1 230 10:37 16.01.2020
4197 Clouds 5 1005 80 10000 5.1 230 10:19 16.01.2020
4198 Clouds 5 1005 80 10000 6.2 240 09:43 16.01.2020
4199 Clouds 5 1004 86 10000 5.1 230 09:24 16.01.2020
4200 Clouds 4 1004 86 10000 5.1 230 08:58 16.01.2020
4201 Clouds 4 1003 86 10000 5.1 230 08:40 16.01.2020
4202 Clouds 4 1003 86 10000 5.1 230 08:19 16.01.2020
4203 Clouds 4 1003 86 10000 5.7 230 07:42 16.01.2020
4204 Clouds 4 1003 86 10000 5.7 230 07:23 16.01.2020
4205 Clouds 4 1002 86 10000 5.7 220 06:52 16.01.2020
4206 Clouds 4 1002 86 10000 6.2 220 06:34 16.01.2020
4207 Clouds 4 1001 80 10000 6.7 220 05:49 16.01.2020
4208 Clouds 5 1001 80 10000 7.2 220 04:50 16.01.2020
4209 Rain 5 1001 75 10000 6.2 220 03:57 16.01.2020
4210 Rain 5 1000 86 10000 4.1 210 02:47 16.01.2020
4211 Clouds 5 1001 93 10000 4.6 210 01:34 16.01.2020
4212 Clouds 5 1001 86 10000 4.6 220 00:43 16.01.2020
4213 Clouds 5 1001 86 10000 4.6 220 00:23 16.01.2020
4214 Clouds 5 1000 86 10000 4.1 220 23:45 15.01.2020
4215 Clouds 5 1000 86 10000 4.1 210 23:22 15.01.2020
4216 Clouds 5 1000 86 10000 4.6 220 22:56 15.01.2020
4217 Clouds 5 1000 86 10000 4.6 230 22:38 15.01.2020
4218 Clouds 5 1000 86 10000 4.6 230 22:18 15.01.2020
4219 Clouds 6 999 81 10000 5.7 230 21:56 15.01.2020
4220 Clouds 6 999 81 10000 5.1 240 21:37 15.01.2020
4221 Clouds 6 999 81 10000 5.1 240 21:37 15.01.2020
4222 Clouds 6 999 81 10000 5.1 240 21:18 15.01.2020
4223 Clouds 6 998 87 10000 6.2 240 20:55 15.01.2020
4224 Clouds 6 998 87 10000 6.2 240 20:37 15.01.2020
4225 Clouds 6 998 87 10000 6.2 240 20:18 15.01.2020
4226 Clouds 6 998 81 10000 7.7 240 19:54 15.01.2020
4227 Clouds 6 997 87 10000 7.7 230 19:36 15.01.2020
4228 Clouds 6 997 87 10000 7.7 230 19:18 15.01.2020
4229 Clouds 6 997 87 10000 7.7 230 19:18 15.01.2020
4230 Clouds 6 997 87 10000 7.2 230 18:55 15.01.2020
4231 Clouds 7 997 87 10000 8.7 220 18:37 15.01.2020
4232 Clouds 7 997 87 10000 8.7 220 18:19 15.01.2020
4233 Rain 7 996 93 10000 7.7 220 17:41 15.01.2020
4234 Rain 7 996 93 10000 7.7 220 17:22 15.01.2020
4235 Drizzle 7 996 93 7000 8.2 220 16:57 15.01.2020
4236 Drizzle 7 995 93 7000 9.3 220 16:38 15.01.2020
4237 Drizzle 7 995 93 7000 9.3 220 16:20 15.01.2020
4238 Drizzle 7 995 93 7000 9.3 220 16:20 15.01.2020
4239 Drizzle 7 995 93 7000 9.3 220 16:20 15.01.2020
4240 Drizzle 7 995 93 7000 9.3 220 16:20 15.01.2020
4241 Drizzle 7 995 93 7000 9.3 220 16:20 15.01.2020
4242 Rain 7 994 93 10000 9.8 220 15:43 15.01.2020
4243 Rain 7 994 93 10000 9.8 220 15:21 15.01.2020
4244 Drizzle 7 994 93 7000 9.8 220 14:57 15.01.2020
4245 Rain 7 994 93 10000 10.8 220 14:39 15.01.2020
4246 Rain 7 994 93 10000 10.8 220 14:18 15.01.2020
4247 Clouds 7 994 93 10000 11.8 220 13:44 15.01.2020
4248 Clouds 7 994 93 10000 11.3 220 13:23 15.01.2020
4249 Drizzle 7 994 93 9000 10.8 220 12:56 15.01.2020
4250 Drizzle 7 994 93 9000 12.9 220 12:37 15.01.2020
4251 Drizzle 7 994 93 9000 12.9 220 12:19 15.01.2020
4252 Drizzle 7 993 93 8000 12.9 220 11:54 15.01.2020
4253 Drizzle 7 993 100 8000 12.9 210 11:36 15.01.2020
4254 Drizzle 6 993 100 8000 12.9 210 11:18 15.01.2020
4255 Rain 6 993 93 8000 11.3 200 10:41 15.01.2020
4256 Rain 6 993 93 8000 11.3 200 10:21 15.01.2020
4257 Rain 6 994 93 5000 12.3 200 09:41 15.01.2020
4258 Rain 5 994 93 5000 12.3 200 09:22 15.01.2020
4259 Rain 5 994 100 8000 11.3 180 08:45 15.01.2020
4260 Rain 5 995 100 8000 10.8 190 08:27 15.01.2020
4261 Rain 5 995 93 10000 9.3 180 07:56 15.01.2020
4262 Rain 5 996 93 10000 7.7 190 07:35 15.01.2020
4263 Rain 5 997 93 10000 8.2 190 06:57 15.01.2020
4264 Rain 5 997 93 10000 8.2 190 06:57 15.01.2020
4265 Rain 5 998 93 10000 8.2 200 06:38 15.01.2020
4266 Rain 5 998 93 10000 8.7 210 05:52 15.01.2020
4267 Clouds 5 999 86 10000 6.7 210 03:44 15.01.2020
4268 Clouds 5 999 93 10000 6.2 200 01:50 15.01.2020
4269 Drizzle 5 999 93 10000 7.2 210 01:22 15.01.2020
4270 Drizzle 5 999 93 10000 7.7 210 00:38 15.01.2020
4271 Drizzle 5 999 93 10000 7.7 210 00:20 15.01.2020
4272 Drizzle 4 999 93 8000 9.3 200 23:47 14.01.2020
4273 Drizzle 4 999 93 8000 9.3 200 23:28 14.01.2020
4274 Drizzle 4 999 93 6000 10.3 200 22:58 14.01.2020
4275 Drizzle 3 999 93 4500 11.8 200 22:40 14.01.2020
4276 Drizzle 3 999 93 4500 11.8 200 22:19 14.01.2020
4277 Drizzle 3 999 93 4500 10.8 190 21:57 14.01.2020
4278 Rain 3 1000 93 6000 10.8 190 21:39 14.01.2020
4279 Rain 3 1000 93 6000 10.8 190 21:19 14.01.2020
4280 Rain 3 1000 93 5000 11.8 190 20:54 14.01.2020
4281 Rain 3 1001 86 5000 9.3 180 20:36 14.01.2020
4282 Rain 3 1001 86 5000 9.3 180 20:36 14.01.2020
4283 Rain 3 1001 86 5000 9.3 180 20:18 14.01.2020
4284 Rain 3 1001 86 5000 9.3 180 20:18 14.01.2020
4285 Rain 3 1001 86 5000 9.3 180 19:55 14.01.2020
4286 Rain 3 1002 86 8000 8.7 170 19:36 14.01.2020
4287 Rain 3 1002 86 8000 8.7 170 19:18 14.01.2020
4288 Rain 3 1002 86 10000 9.3 180 18:40 14.01.2020
4289 Clouds 3 1003 86 10000 8.7 180 18:20 14.01.2020
4290 Clouds 3 1003 86 10000 8.7 180 17:56 14.01.2020
4291 Clouds 3 1004 90 10000 9.3 180 17:36 14.01.2020
4292 Clouds 3 1004 80 10000 9.3 180 17:18 14.01.2020
4293 Clouds 3 1005 80 10000 10.8 180 16:42 14.01.2020
4294 Clouds 3 1005 80 10000 10.8 180 16:22 14.01.2020
4295 Clouds 4 1005 80 10000 8.7 190 15:56 14.01.2020
4296 Clouds 4 1006 80 10000 9.8 190 15:38 14.01.2020
4297 Clouds 4 1006 80 10000 9.8 190 15:19 14.01.2020
4298 Clouds 4 1006 80 10000 9.3 180 14:43 14.01.2020
4299 Clouds 4 1007 86 10000 7.7 190 14:20 14.01.2020
4300 Clouds 4 1007 86 10000 7.7 190 13:55 14.01.2020
4301 Clouds 3 1007 80 10000 7.2 190 13:37 14.01.2020
4302 Clouds 4 1007 80 10000 7.2 190 13:18 14.01.2020
4303 Clouds 4 1008 80 10000 7.7 190 12:41 14.01.2020
4304 Clouds 4 1008 80 10000 7.7 190 12:20 14.01.2020
4305 Clouds 4 1008 80 10000 7.2 200 11:43 14.01.2020
4306 Clouds 4 1008 80 10000 7.2 200 11:25 14.01.2020
4307 Clouds 4 1009 80 10000 5.7 200 10:59 14.01.2020
4308 Clouds 3 1009 86 10000 4.1 190 10:40 14.01.2020
4309 Clouds 3 1009 84 10000 4.1 200 10:20 14.01.2020
4310 Clouds 3 1009 84 10000 4.1 200 09:58 14.01.2020
4311 Clouds 3 1009 84 10000 3.1 210 09:40 14.01.2020
4312 Clouds 2 1009 84 10000 3.1 210 09:20 14.01.2020
4313 Clouds 2 1009 84 10000 3.6 230 08:48 14.01.2020
4314 Clouds 3 1009 85 10000 6.2 230 08:25 14.01.2020
4315 Clouds 2 1009 85 10000 4.1 230 07:56 14.01.2020
4316 Clouds 2 1008 85 10000 3.6 230 07:33 14.01.2020
4317 Clouds 2 1008 85 10000 4.6 230 06:56 14.01.2020
4318 Clouds 2 1008 85 10000 5.1 230 06:34 14.01.2020
4319 Clouds 2 1008 80 10000 4.6 230 05:28 14.01.2020
4320 Clouds 3 1008 85 10000 6.2 240 03:52 14.01.2020
4321 Clouds 3 1008 85 10000 6.2 240 03:52 14.01.2020
4322 Clouds 2 1007 85 10000 5.7 240 02:50 14.01.2020
4323 Clouds 2 1007 87 10000 5.1 250 01:56 14.01.2020
4324 Clouds 2 1007 86 10000 5.1 230 00:51 14.01.2020
4325 Clouds 2 1007 86 10000 5.7 240 00:33 14.01.2020
4326 Clouds 2 1007 86 10000 5.7 240 00:33 14.01.2020
4327 Clouds 2 1007 86 10000 4.1 240 23:55 13.01.2020
4328 Clouds 2 1007 86 10000 6.2 220 23:37 13.01.2020
4329 Clouds 2 1006 87 10000 5.1 220 23:18 13.01.2020
4330 Clouds 2 1007 87 10000 6.2 230 22:42 13.01.2020
4331 Clouds 2 1007 87 10000 6.2 230 22:21 13.01.2020
4332 Clouds 2 1006 87 10000 4.6 220 21:57 13.01.2020
4333 Clouds 2 1006 87 10000 3.6 230 21:38 13.01.2020
4334 Clouds 1 1006 87 10000 3.6 230 21:19 13.01.2020
4335 Clouds 1 1006 87 10000 3.6 230 21:19 13.01.2020
4336 Clouds 1 1006 87 10000 4.6 230 20:58 13.01.2020
4337 Clouds 1 1006 87 10000 4.1 240 20:40 13.01.2020
4338 Clouds 2 1006 86 10000 4.1 240 20:22 13.01.2020
4339 Clouds 1 1006 86 10000 5.1 230 19:59 13.01.2020
4340 Clouds 1 1006 86 10000 4.1 240 19:39 13.01.2020
4341 Clouds 1 1006 86 10000 4.1 240 19:20 13.01.2020
4342 Clouds 1 1006 86 10000 4.6 240 18:56 13.01.2020
4343 Clouds 1 1006 86 10000 4.1 230 18:37 13.01.2020
4344 Clouds 1 1006 86 10000 4.1 230 18:37 13.01.2020
4345 Clouds 1 1006 86 10000 4.6 230 18:18 13.01.2020
4346 Clouds 1 1006 86 10000 4.6 240 17:43 13.01.2020
4347 Clouds 1 1006 86 10000 4.6 240 17:24 13.01.2020
4348 Clouds 1 1006 86 10000 4.6 240 17:24 13.01.2020
4349 Clouds 1 1006 86 10000 4.1 240 16:57 13.01.2020
4350 Clear 1 1006 87 0 0.45 231 16:38 13.01.2020
4351 Clear 1 1006 78 0 7.67 257 16:20 13.01.2020
4352 Clear 1 1006 78 0 7.67 257 15:44 13.01.2020
4353 Clear 1 1006 77 0 7.67 257 15:24 13.01.2020
4354 Clear 1 1007 87 0 7.67 257 14:58 13.01.2020
4355 Clear 1 1007 87 0 7.67 257 14:38 13.01.2020
4356 Clear 1 1006 74 0 0.89 274 14:20 13.01.2020
4357 Clouds 1 1006 86 0 8.13 267 13:43 13.01.2020
4358 Clouds 1 1006 86 0 8.13 267 13:43 13.01.2020
4359 Clouds 1 1005 86 0 0.45 293 13:25 13.01.2020
4360 Clouds 1 1005 87 0 0.45 232 12:59 13.01.2020
4361 Clouds 1 1005 84 10000 5.1 250 12:41 13.01.2020
4362 Clouds 1 1005 84 10000 5.1 250 12:23 13.01.2020
4363 Clouds 1 1005 84 10000 5.1 250 11:57 13.01.2020
4364 Clouds 1 1004 84 10000 3.6 250 11:37 13.01.2020
4365 Clouds 1 1004 83 10000 3.6 250 11:19 13.01.2020
4366 Clouds 1 1004 83 10000 4.6 250 10:56 13.01.2020
4367 Clouds 1 1004 83 10000 5.1 250 10:37 13.01.2020
4368 Clouds 1 1004 83 10000 5.1 250 10:37 13.01.2020
4369 Clouds 1 1004 83 10000 5.1 250 10:19 13.01.2020
4370 Clouds 1 1004 83 10000 3.6 240 09:43 13.01.2020
4371 Clouds 1 1004 83 10000 3.6 240 09:24 13.01.2020
4372 Clouds 0 1003 83 10000 3.6 230 08:56 13.01.2020
4373 Clouds 0 1003 100 10000 4.1 230 08:36 13.01.2020
4374 Clear 0 1003 92 10000 2.1 230 08:18 13.01.2020
4375 Clouds -1 1003 92 10000 3.1 220 07:42 13.01.2020
4376 Clouds -1 1003 92 10000 3.1 220 07:21 13.01.2020
4377 Clouds -1 1003 80 10000 4.6 220 06:37 13.01.2020
4378 Clouds -1 1003 100 10000 3.6 210 05:37 13.01.2020
4379 Clouds -1 1003 100 10000 3.6 210 05:37 13.01.2020
4380 Clouds 0 1002 78 10000 3.6 190 05:18 13.01.2020
4381 Clouds 0 1002 78 10000 2.6 270 03:41 13.01.2020
4382 Clouds 0 1002 78 10000 4.1 270 02:50 13.01.2020
4383 Clouds 1 1002 78 10000 5.1 270 02:30 13.01.2020
4384 Clouds 2 1001 93 10000 5.1 250 01:33 13.01.2020
4385 Clouds 2 1001 93 10000 3.6 260 00:46 13.01.2020
4386 Clouds 2 1000 86 10000 4.1 280 00:26 13.01.2020
4387 Clouds 2 1000 86 10000 6.2 270 23:58 12.01.2020
4388 Clouds 3 999 86 10000 5.1 270 23:40 12.01.2020
4389 Clouds 3 999 86 10000 5.1 270 23:21 12.01.2020
4390 Clouds 3 998 86 10000 5.7 260 22:56 12.01.2020
4391 Clouds 3 998 86 10000 5.1 250 22:37 12.01.2020
4392 Clouds 4 998 93 10000 5.1 250 22:18 12.01.2020
4393 Clouds 4 997 93 10000 5.1 260 21:42 12.01.2020
4394 Clouds 4 997 93 10000 5.1 260 21:20 12.01.2020
4395 Clouds 4 997 86 10000 5.7 250 20:59 12.01.2020
4396 Rain 4 997 86 10000 5.1 250 20:39 12.01.2020
4397 Rain 4 997 86 10000 5.1 250 20:21 12.01.2020
4398 Rain 4 996 86 10000 5.7 260 19:57 12.01.2020
4399 Rain 4 996 86 10000 5.7 260 19:38 12.01.2020
4400 Rain 5 996 93 10000 5.7 240 19:19 12.01.2020
4401 Rain 5 996 93 10000 5.7 240 19:19 12.01.2020
4402 Rain 5 996 93 10000 5.1 240 18:58 12.01.2020
4403 Rain 5 996 93 10000 5.1 240 18:40 12.01.2020
4404 Rain 5 996 93 10000 5.1 230 18:21 12.01.2020
4405 Rain 5 996 93 10000 5.1 240 17:59 12.01.2020
4406 Clouds 5 996 93 10000 4.6 220 17:40 12.01.2020
4407 Clouds 5 996 93 10000 4.6 220 17:19 12.01.2020
4408 Rain 5 996 93 10000 3.6 230 16:56 12.01.2020
4409 Rain 5 996 93 10000 4.1 230 16:37 12.01.2020
4410 Rain 5 996 93 10000 4.1 230 16:19 12.01.2020
4411 Clouds 5 996 93 10000 4.1 240 15:43 12.01.2020
4412 Clouds 5 996 93 10000 4.1 240 15:24 12.01.2020
4413 Clouds 6 996 87 10000 3.6 250 14:57 12.01.2020
4414 Clouds 6 996 87 10000 5.7 250 14:38 12.01.2020
4415 Clouds 6 996 87 10000 5.7 250 14:20 12.01.2020
4416 Clouds 6 996 93 10000 6.2 240 13:54 12.01.2020
4417 Clouds 6 995 93 10000 5.7 250 13:36 12.01.2020
4418 Clouds 6 995 93 10000 5.7 250 13:18 12.01.2020
4419 Clouds 6 995 93 10000 6.7 250 12:42 12.01.2020
4420 Clouds 6 995 93 10000 6.7 250 12:20 12.01.2020
4421 Clouds 6 995 93 10000 7.2 250 11:59 12.01.2020
4422 Clouds 6 995 93 10000 6.2 250 11:39 12.01.2020
4423 Clouds 6 995 93 10000 6.2 250 11:20 12.01.2020
4424 Drizzle 5 995 100 6000 6.7 240 10:42 12.01.2020
4425 Drizzle 5 995 100 6000 6.7 240 10:22 12.01.2020
4426 Drizzle 5 995 100 8000 7.2 240 09:57 12.01.2020
4427 Drizzle 5 995 100 5000 7.2 230 09:39 12.01.2020
4428 Drizzle 5 995 100 5000 7.2 230 09:20 12.01.2020
4429 Rain 5 995 93 8000 8.2 230 08:45 12.01.2020
4430 Rain 5 995 93 8000 8.2 230 08:21 12.01.2020
4431 Rain 5 995 93 5000 7.7 220 07:42 12.01.2020
4432 Rain 5 995 93 5000 7.7 220 07:24 12.01.2020
4433 Rain 5 995 93 7000 8.2 220 06:48 12.01.2020
4434 Rain 5 996 93 10000 9.3 230 06:30 12.01.2020
4435 Rain 5 996 93 10000 8.7 220 05:32 12.01.2020
4436 Rain 5 997 93 10000 10.3 220 04:30 12.01.2020
4437 Rain 5 998 86 7000 10.8 220 03:25 12.01.2020
4438 Rain 4 999 86 10000 10.8 220 02:34 12.01.2020
4439 Rain 4 1000 86 7000 13.4 220 01:51 12.01.2020
4440 Rain 4 1000 93 10000 12.3 220 01:29 12.01.2020
4441 Rain 4 1001 93 10000 11.8 220 00:42 12.01.2020
4442 Rain 4 1001 93 10000 11.8 220 00:20 12.01.2020
4443 Rain 3 1003 93 10000 11.3 210 23:42 11.01.2020
4444 Rain 3 1003 93 10000 11.3 210 23:42 11.01.2020
4445 Rain 3 1003 93 10000 11.3 210 23:42 11.01.2020
4446 Rain 3 1003 93 10000 11.3 210 23:20 11.01.2020
4447 Rain 3 1003 93 10000 11.3 220 22:59 11.01.2020
4448 Rain 3 1004 93 10000 11.8 210 22:41 11.01.2020
4449 Rain 3 1004 86 8000 10.3 200 22:20 11.01.2020
4450 Rain 3 1004 86 8000 10.3 200 21:58 11.01.2020
4451 Rain 3 1006 93 9000 11.8 210 21:40 11.01.2020
4452 Rain 2 1006 86 8000 11.8 200 21:18 11.01.2020
4453 Rain 3 1006 86 8000 11.8 200 20:41 11.01.2020
4454 Rain 3 1007 86 10000 12.3 210 20:22 11.01.2020
4455 Clouds 3 1008 75 10000 10.3 210 19:58 11.01.2020
4456 Clouds 3 1009 86 10000 9.8 200 19:39 11.01.2020
4457 Clouds 3 1009 86 10000 9.8 200 19:21 11.01.2020
4458 Rain 3 1009 86 10000 9.3 190 18:59 11.01.2020
4459 Clouds 3 1010 86 10000 9.3 200 18:39 11.01.2020
4460 Clouds 2 1010 86 10000 9.3 200 18:20 11.01.2020
4461 Clouds 2 1011 75 10000 10.8 190 17:58 11.01.2020
4462 Clouds 2 1011 75 10000 10.8 190 17:57 11.01.2020
4463 Clouds 3 1012 75 10000 9.8 200 17:39 11.01.2020
4464 Clouds 2 1012 73 10000 9.8 200 17:19 11.01.2020
4465 Clouds 2 1012 74 10000 8.2 200 16:45 11.01.2020
4466 Clouds 2 1013 74 10000 7.2 200 16:27 11.01.2020
4467 Clouds 2 1014 80 10000 6.2 200 15:59 11.01.2020
4468 Clouds 2 1014 80 10000 4.1 190 15:41 11.01.2020
4469 Clouds 2 1014 80 10000 4.1 190 15:22 11.01.2020
4470 Clouds 1 1015 86 10000 4.6 210 14:57 11.01.2020
4471 Clouds 1 1015 86 10000 4.1 220 14:38 11.01.2020
4472 Clouds 1 1015 86 10000 4.1 220 14:20 11.01.2020
4473 Clouds 0 1016 75 10000 3.6 210 13:40 11.01.2020
4474 Clouds 0 1016 75 10000 3.6 210 13:20 11.01.2020
4475 Clouds 0 1016 75 10000 3.6 210 12:58 11.01.2020
4476 Clouds 1 1016 75 10000 4.1 220 12:40 11.01.2020
4477 Clouds 1 1016 75 10000 4.1 220 12:21 11.01.2020
4478 Clouds 0 1016 92 10000 3.6 210 11:48 11.01.2020
4479 Clouds -2 1016 86 10000 2.6 210 11:26 11.01.2020
4480 Clear -2 1017 92 10000 3.1 190 10:51 11.01.2020
4481 Clear -3 1017 92 10000 2.1 200 10:30 11.01.2020
4482 Clear -3 1017 92 10000 2.6 210 09:58 11.01.2020
4483 Clear -3 1017 92 10000 3.1 210 09:38 11.01.2020
4484 Clear -4 1017 92 10000 3.1 210 09:20 11.01.2020
4485 Clear -5 1017 85 10000 2.1 210 08:42 11.01.2020
4486 Clear -6 1017 85 10000 2.1 210 08:21 11.01.2020
4487 Clear -6 1017 92 10000 3.1 210 07:44 11.01.2020
4488 Clear -6 1017 92 10000 3.1 210 07:25 11.01.2020
4489 Clear -6 1017 92 10000 3.1 220 06:50 11.01.2020
4490 Clear -6 1016 92 10000 1 230 05:40 11.01.2020
4491 Clear -6 1016 92 10000 2.6 240 04:46 11.01.2020
4492 Clear -6 1016 92 10000 3.1 230 04:27 11.01.2020
4493 Clear -5 1016 92 10000 1 0 02:49 11.01.2020
4494 Clear -7 1015 92 10000 0.5 0 02:20 11.01.2020
4495 Clear -7 1015 92 10000 2.1 260 01:42 11.01.2020
4496 Clear -7 1015 92 10000 2.1 260 01:18 11.01.2020
4497 Clear -6 1015 92 10000 1 0 00:38 11.01.2020
4498 Clear -6 1015 92 10000 1.5 330 23:59 10.01.2020
4499 Clear -7 1015 92 10000 2.1 290 23:40 10.01.2020
4500 Clear -7 1015 92 10000 2.1 290 23:21 10.01.2020
4501 Clear -7 1014 92 10000 1 0 22:57 10.01.2020
4502 Clear -7 1014 92 10000 1 0 22:39 10.01.2020
4503 Clear -6 1014 92 10000 1 0 22:20 10.01.2020
4504 Clear -7 1014 92 10000 1.5 290 21:56 10.01.2020
4505 Clear -6 1014 92 10000 1.5 280 21:36 10.01.2020
4506 Clear -6 1014 92 10000 1.5 270 21:18 10.01.2020
4507 Clear -6 1014 92 10000 1.5 270 20:43 10.01.2020
4508 Clear -6 1014 92 10000 1.5 270 20:43 10.01.2020
4509 Clouds -6 1014 100 10000 1.5 290 20:24 10.01.2020
4510 Clouds -6 1014 92 10000 1 250 19:56 10.01.2020
4511 Clouds -5 1013 92 10000 2.1 300 19:37 10.01.2020
4512 Clouds -5 1013 92 10000 2.1 300 19:19 10.01.2020
4513 Clouds -5 1013 92 10000 2.1 300 19:19 10.01.2020
4514 Clouds -5 1013 92 10000 1.5 310 18:42 10.01.2020
4515 Clouds -5 1013 100 10000 1.5 310 18:19 10.01.2020
4516 Clouds -5 1013 100 10000 1.5 310 17:57 10.01.2020
4517 Clouds -5 1013 100 10000 1.5 310 17:39 10.01.2020
4518 Clear -4 1013 100 10000 1.5 310 17:20 10.01.2020
4519 Clear -4 1013 92 10000 1.5 320 16:56 10.01.2020
4520 Clear -4 1013 100 10000 0.5 0 16:37 10.01.2020
4521 Clear -4 1013 100 10000 0.5 0 16:19 10.01.2020
4522 Clear -3 1013 92 10000 1.5 320 15:56 10.01.2020
4523 Clear -3 1012 92 10000 1.5 320 15:36 10.01.2020
4524 Clear -2 1012 86 10000 2.1 340 15:18 10.01.2020
4525 Clear -2 1012 86 10000 2.1 340 14:54 10.01.2020
4526 Clear -2 1012 92 10000 1.5 340 14:36 10.01.2020
4527 Clouds -2 1012 92 10000 1.5 340 14:18 10.01.2020
4528 Clouds -2 1012 92 10000 2.1 330 13:42 10.01.2020
4529 Clouds -2 1012 92 10000 2.1 330 13:23 10.01.2020
4530 Clouds -1 1012 92 10000 1.5 340 12:58 10.01.2020
4531 Clouds -1 1012 100 10000 1.5 290 12:39 10.01.2020
4532 Clouds -1 1012 100 10000 1.5 290 12:39 10.01.2020
4533 Clouds -1 1012 100 10000 1.5 290 12:19 10.01.2020
4534 Clouds -2 1012 92 10000 0.5 0 11:55 10.01.2020
4535 Clouds -2 1012 92 10000 0.5 0 11:37 10.01.2020
4536 Clouds -2 1012 92 10000 0.5 0 11:18 10.01.2020
4537 Clouds -3 1011 92 10000 1 0 10:44 10.01.2020
4538 Clouds -3 1011 92 10000 1.5 310 10:24 10.01.2020
4539 Clouds -4 1011 92 10000 1.5 340 09:59 10.01.2020
4540 Clouds -4 1011 100 10000 1.5 250 09:40 10.01.2020
4541 Clouds -4 1011 100 10000 1.5 250 09:22 10.01.2020
4542 Clouds -4 1010 100 10000 1 0 08:43 10.01.2020
4543 Clouds -3 1010 100 10000 1 0 08:24 10.01.2020
4544 Clouds -3 1010 92 10000 1 0 07:46 10.01.2020
4545 Clouds -3 1010 100 10000 1 0 07:28 10.01.2020
4546 Clouds -4 1010 92 10000 1.5 280 06:50 10.01.2020
4547 Clouds -4 1010 92 10000 1 290 06:26 10.01.2020
4548 Clouds -4 1010 100 10000 0.5 0 05:51 10.01.2020
4549 Clouds -3 1009 100 10000 1.5 260 03:46 10.01.2020
4550 Clouds -3 1009 100 10000 1.5 260 03:27 10.01.2020
4551 Clouds -3 1009 92 10000 1 0 02:50 10.01.2020
4552 Clouds -2 1009 92 10000 2.6 260 01:47 10.01.2020
4553 Clouds -2 1009 92 10000 2.6 260 01:28 10.01.2020
4554 Clouds -2 1009 92 10000 3.44 298 00:44 10.01.2020
4555 Clouds -2 1009 92 10000 3.44 298 00:19 10.01.2020
4556 Clouds -2 1009 92 10000 3.6 230 23:39 09.01.2020
4557 Clouds -2 1009 92 10000 3.6 230 23:39 09.01.2020
4558 Clouds -2 1009 92 10000 3.6 230 23:20 09.01.2020
4559 Clouds -2 1009 92 10000 3.6 240 22:58 09.01.2020
4560 Clouds -2 1009 92 10000 3.1 250 22:39 09.01.2020
4561 Clouds -1 1009 92 10000 3.1 250 22:39 09.01.2020
4562 Clouds -1 1009 92 10000 3.1 250 22:19 09.01.2020
4563 Clouds -1 1009 92 10000 4.1 240 21:57 09.01.2020
4564 Clouds -1 1008 92 10000 4.1 220 21:38 09.01.2020
4565 Clouds -1 1008 92 10000 4.1 220 21:20 09.01.2020
4566 Clouds -1 1008 86 10000 3.1 250 20:58 09.01.2020
4567 Clouds -1 1008 86 10000 3.1 250 20:39 09.01.2020
4568 Clouds -1 1008 92 10000 3.1 260 20:20 09.01.2020
4569 Clouds -1 1008 78 10000 3.6 260 19:58 09.01.2020
4570 Clouds -1 1008 78 10000 3.6 260 19:38 09.01.2020
4571 Clouds 0 1008 78 10000 3.6 250 19:19 09.01.2020
4572 Clouds -1 1007 78 10000 4.1 260 18:55 09.01.2020
4573 Clouds -1 1007 78 10000 4.1 260 18:55 09.01.2020
4574 Clouds -1 1007 78 10000 4.1 260 18:37 09.01.2020
4575 Clouds 0 1007 78 10000 3.6 250 18:19 09.01.2020
4576 Clouds 0 1007 80 10000 3.6 250 17:41 09.01.2020
4577 Clouds 0 1007 80 10000 3.6 250 17:41 09.01.2020
4578 Clear 0 1007 80 10000 5.1 240 17:18 09.01.2020
4579 Clear 0 1007 80 10000 4.1 240 16:55 09.01.2020
4580 Clear 1 1007 80 10000 4.1 240 16:36 09.01.2020
4581 Clear 1 1007 80 10000 4.1 240 16:18 09.01.2020
4582 Clear 1 1007 80 10000 4.6 230 15:41 09.01.2020
4583 Clear 1 1006 80 10000 4.1 240 15:19 09.01.2020
4584 Clear 2 1006 74 10000 4.1 230 14:44 09.01.2020
4585 Clear 2 1006 74 10000 4.6 230 14:22 09.01.2020
4586 Clear 3 1005 74 10000 5.1 240 13:57 09.01.2020
4587 Clear 3 1005 74 10000 5.1 240 13:39 09.01.2020
4588 Clear 3 1005 74 10000 5.7 250 13:21 09.01.2020
4589 Clear 3 1005 74 10000 5.1 250 12:59 09.01.2020
4590 Clear 3 1005 74 10000 5.1 250 12:40 09.01.2020
4591 Clear 3 1005 74 10000 5.7 250 12:22 09.01.2020
4592 Clear 3 1005 74 10000 6.7 260 11:57 09.01.2020
4593 Clear 3 1005 74 10000 6.7 260 11:38 09.01.2020
4594 Clear 3 1004 74 10000 7.2 260 11:20 09.01.2020
4595 Clear 3 1004 74 10000 5.7 260 10:44 09.01.2020
4596 Clear 2 1004 74 10000 6.7 260 10:22 09.01.2020
4597 Clear 2 1004 80 10000 6.2 260 09:58 09.01.2020
4598 Clear 2 1004 80 10000 6.2 260 09:38 09.01.2020
4599 Clear 2 1003 80 10000 6.2 260 09:19 09.01.2020
4600 Clear 2 1003 80 10000 5.7 250 08:55 09.01.2020
4601 Clear 2 1003 80 10000 5.7 250 08:37 09.01.2020
4602 Clear 2 1002 80 10000 4.6 250 08:19 09.01.2020
4603 Clear 2 1002 80 10000 5.7 250 07:42 09.01.2020
4604 Clear 2 1002 80 10000 5.7 250 07:23 09.01.2020
4605 Clear 2 1001 80 10000 5.7 240 06:38 09.01.2020
4606 Clear 2 1001 80 10000 6.2 250 06:20 09.01.2020
4607 Clear 2 1001 80 10000 5.7 250 05:48 09.01.2020
4608 Clear 2 1001 80 10000 5.7 240 04:43 09.01.2020
4609 Clear 2 1001 75 10000 5.7 250 03:31 09.01.2020
4610 Clear 2 1000 75 10000 5.7 240 02:53 09.01.2020
4611 Clear 2 1000 75 10000 5.1 250 02:24 09.01.2020
4612 Clear 3 1000 75 10000 5.1 240 01:38 09.01.2020
4613 Clear 3 1000 80 10000 5.1 250 00:42 09.01.2020
4614 Clear 3 999 86 10000 5.1 240 00:21 09.01.2020
4615 Clear 3 999 93 10000 4.1 230 23:42 08.01.2020
4616 Clear 3 999 86 10000 3.6 220 23:24 08.01.2020
4617 Clear 4 999 86 10000 3.6 220 22:59 08.01.2020
4618 Clear 4 998 86 10000 3.6 230 22:39 08.01.2020
4619 Rain 4 998 93 10000 4.1 250 22:20 08.01.2020
4620 Rain 4 997 86 10000 4.1 250 21:57 08.01.2020
4621 Rain 5 997 86 10000 4.1 250 21:38 08.01.2020
4622 Rain 5 997 86 10000 5.1 240 21:19 08.01.2020
4623 Clouds 5 997 87 10000 6.7 270 20:57 08.01.2020
4624 Clouds 6 997 87 10000 6.7 270 20:38 08.01.2020
4625 Clouds 6 996 81 10000 8.2 270 20:20 08.01.2020
4626 Clouds 6 996 81 10000 8.2 270 19:56 08.01.2020
4627 Clouds 6 996 81 10000 7.7 250 19:36 08.01.2020
4628 Clouds 6 996 81 10000 7.7 250 19:36 08.01.2020
4629 Clouds 7 995 87 10000 8.2 240 19:18 08.01.2020
4630 Clouds 7 995 87 10000 8.7 230 18:55 08.01.2020
4631 Clouds 7 995 87 10000 8.7 230 18:55 08.01.2020
4632 Clouds 7 995 87 10000 8.7 230 18:55 08.01.2020
4633 Clouds 7 995 87 10000 8.7 230 18:36 08.01.2020
4634 Clouds 7 995 87 10000 8.2 230 18:18 08.01.2020
4635 Clouds 7 995 93 10000 8.7 230 17:45 08.01.2020
4636 Clouds 7 995 93 10000 9.8 230 17:24 08.01.2020
4637 Drizzle 6 995 93 10000 10.3 220 16:57 08.01.2020
4638 Drizzle 6 995 93 10000 10.3 220 16:39 08.01.2020
4639 Drizzle 6 995 93 8000 11.3 220 16:19 08.01.2020
4640 Drizzle 6 995 93 5000 11.8 220 15:57 08.01.2020
4641 Drizzle 6 995 93 5000 11.8 220 15:39 08.01.2020
4642 Drizzle 6 996 93 4000 10.8 220 15:18 08.01.2020
4643 Drizzle 6 996 93 4000 9.8 220 14:55 08.01.2020
4644 Drizzle 6 996 93 4000 9.8 220 14:36 08.01.2020
4645 Drizzle 6 996 93 3500 9.8 220 14:18 08.01.2020
4646 Clouds 6 996 93 10000 9.8 220 13:38 08.01.2020
4647 Drizzle 6 996 93 10000 10.3 210 13:18 08.01.2020
4648 Drizzle 6 997 93 10000 12.3 210 12:41 08.01.2020
4649 Drizzle 6 997 93 10000 13.4 210 12:18 08.01.2020
4650 Drizzle 5 998 93 5000 11.8 210 11:55 08.01.2020
4651 Drizzle 5 998 93 5000 11.8 210 11:36 08.01.2020
4652 Drizzle 5 998 87 9000 12.3 220 11:18 08.01.2020
4653 Drizzle 5 999 93 10000 11.3 210 10:41 08.01.2020
4654 Rain 5 999 93 10000 12.9 200 10:22 08.01.2020
4655 Rain 5 999 93 10000 12.9 200 09:58 08.01.2020
4656 Rain 5 999 93 6000 12.9 200 09:38 08.01.2020
4657 Drizzle 5 1000 93 4500 12.3 200 09:18 08.01.2020
4658 Drizzle 5 1001 86 7000 12.3 200 08:42 08.01.2020
4659 Rain 5 1001 86 10000 12.9 200 08:24 08.01.2020
4660 Rain 5 1001 86 10000 12.9 200 07:59 08.01.2020
4661 Clouds 5 1002 86 10000 12.3 200 07:41 08.01.2020
4662 Clouds 5 1002 93 10000 12.9 200 07:23 08.01.2020
4663 Rain 5 1003 93 10000 11.3 200 06:44 08.01.2020
4664 Drizzle 5 1004 93 10000 11.8 200 05:57 08.01.2020
4665 Drizzle 5 1005 86 10000 11.8 200 05:27 08.01.2020
4666 Rain 5 1006 86 10000 10.8 200 04:39 08.01.2020
4667 Clouds 5 1007 86 10000 10.8 210 03:31 08.01.2020
4668 Clouds 5 1008 86 10000 8.7 200 02:36 08.01.2020
4669 Clouds 5 1009 93 10000 8.7 210 02:18 08.01.2020
4670 Clouds 5 1009 93 10000 8.7 210 02:18 08.01.2020
4671 Clouds 4 1009 93 10000 9.8 210 01:39 08.01.2020
4672 Drizzle 4 1010 93 10000 9.3 210 00:52 08.01.2020
4673 Drizzle 4 1010 93 10000 9.3 210 00:24 08.01.2020
4674 Clouds 4 1011 93 10000 8.7 210 23:46 07.01.2020
4675 Clouds 4 1011 86 10000 9.8 210 23:21 07.01.2020
4676 Clouds 4 1011 86 10000 9.8 210 22:57 07.01.2020
4677 Clouds 5 1011 86 10000 7.7 210 22:38 07.01.2020
4678 Drizzle 4 1011 93 10000 6.7 210 22:19 07.01.2020
4679 Drizzle 5 1011 93 10000 6.7 210 21:42 07.01.2020
4680 Drizzle 5 1011 93 10000 7.2 210 21:22 07.01.2020
4681 Drizzle 5 1011 93 10000 7.2 210 20:58 07.01.2020
4682 Drizzle 4 1012 100 10000 6.2 210 20:40 07.01.2020
4683 Drizzle 4 1012 93 10000 6.7 210 20:22 07.01.2020
4684 Drizzle 4 1012 93 10000 6.7 210 19:57 07.01.2020
4685 Drizzle 4 1012 93 10000 6.2 210 19:38 07.01.2020
4686 Drizzle 4 1013 100 8000 5.7 210 19:19 07.01.2020
4687 Drizzle 4 1013 93 8000 6.2 210 18:56 07.01.2020
4688 Drizzle 4 1013 93 8000 6.2 210 18:38 07.01.2020
4689 Clouds 4 1013 93 10000 5.7 210 18:18 07.01.2020
4690 Rain 4 1013 93 10000 5.7 210 18:18 07.01.2020
4691 Clouds 4 1013 93 10000 5.7 210 18:18 07.01.2020
4692 Drizzle 4 1012 93 8000 5.7 210 17:55 07.01.2020
4693 Drizzle 4 1012 93 8000 5.7 210 17:36 07.01.2020
4694 Rain 4 1013 93 10000 4.6 220 17:18 07.01.2020
4695 Rain 4 1013 93 10000 4.6 220 16:55 07.01.2020
4696 Rain 4 1013 93 10000 4.6 220 16:36 07.01.2020
4697 Drizzle 4 1013 93 10000 4.1 230 16:18 07.01.2020
4698 Drizzle 4 1013 100 10000 6.7 220 15:42 07.01.2020
4699 Drizzle 4 1012 93 8000 6.2 220 15:24 07.01.2020
4700 Clouds 5 1012 93 10000 6.7 210 14:58 07.01.2020
4701 Clouds 5 1012 93 10000 6.7 210 14:38 07.01.2020
4702 Clouds 5 1012 93 10000 6.2 220 14:19 07.01.2020
4703 Drizzle 5 1012 93 10000 6.7 210 13:46 07.01.2020
4704 Clouds 5 1012 93 10000 5.7 220 13:20 07.01.2020
4705 Clouds 5 1012 93 10000 5.1 220 12:56 07.01.2020
4706 Clouds 5 1012 93 10000 5.1 220 12:37 07.01.2020
4707 Clouds 5 1012 93 10000 4.6 220 12:18 07.01.2020
4708 Clouds 5 1013 93 10000 5.1 230 11:41 07.01.2020
4709 Clouds 5 1012 93 10000 5.7 220 11:22 07.01.2020
4710 Clouds 5 1012 93 10000 4.6 220 10:55 07.01.2020
4711 Clouds 5 1012 93 10000 4.6 220 10:37 07.01.2020
4712 Drizzle 5 1012 93 10000 4.6 210 10:19 07.01.2020
4713 Drizzle 4 1012 100 4000 4.6 210 09:38 07.01.2020
4714 Drizzle 4 1012 100 3000 4.6 200 09:20 07.01.2020
4715 Drizzle 4 1012 100 3000 4.6 200 09:20 07.01.2020
4716 Drizzle 4 1012 100 2500 5.1 210 08:47 07.01.2020
4717 Drizzle 4 1012 100 2500 5.1 210 08:28 07.01.2020
4718 Drizzle 4 1012 100 4000 5.1 200 07:55 07.01.2020
4719 Drizzle 4 1012 100 4000 5.1 200 07:35 07.01.2020
4720 Drizzle 4 1012 100 4500 5.7 200 06:54 07.01.2020
4721 Drizzle 4 1012 100 4500 5.7 200 06:35 07.01.2020
4722 Drizzle 4 1012 93 4000 5.1 200 05:58 07.01.2020
4723 Drizzle 4 1012 93 4000 5.1 200 05:39 07.01.2020
4724 Rain 4 1012 93 10000 5.7 210 03:44 07.01.2020
4725 Clouds 4 1012 93 10000 4.6 210 02:38 07.01.2020
4726 Clouds 4 1012 93 8000 4.6 200 01:59 07.01.2020
4727 Clouds 3 1012 100 10000 5.7 210 01:35 07.01.2020
4728 Clouds 4 1012 93 10000 6.2 210 00:51 07.01.2020
4729 Drizzle 3 1013 100 5000 4.1 210 00:20 07.01.2020
4730 Drizzle 3 1013 100 5000 4.6 210 23:56 06.01.2020
4731 Drizzle 3 1013 100 5000 4.6 210 23:37 06.01.2020
4732 Drizzle 3 1013 93 4500 5.7 210 23:19 06.01.2020
4733 Drizzle 3 1013 93 4500 4.1 210 22:43 06.01.2020
4734 Drizzle 3 1013 100 2500 3.6 210 22:24 06.01.2020
4735 Drizzle 3 1013 100 2500 3.6 210 21:58 06.01.2020
4736 Drizzle 2 1013 100 1500 2.6 180 21:39 06.01.2020
4737 Drizzle 2 1014 100 2500 2.6 190 21:20 06.01.2020
4738 Drizzle 2 1014 100 2500 2.6 190 21:20 06.01.2020
4739 Drizzle 2 1014 100 2500 2.6 190 21:20 06.01.2020
4740 Drizzle 2 1014 100 3000 2.1 220 20:57 06.01.2020
4741 Drizzle 2 1014 100 3000 2.1 220 20:38 06.01.2020
4742 Drizzle 2 1014 100 3500 3.1 230 20:20 06.01.2020
4743 Drizzle 2 1014 100 3500 3.1 230 20:20 06.01.2020
4744 Drizzle 2 1014 100 600 3.1 210 19:56 06.01.2020
4745 Drizzle 2 1014 100 600 3.1 210 19:38 06.01.2020
4746 Fog 1 1014 100 500 1 0 19:20 06.01.2020
4747 Fog 1 1014 93 600 1.5 220 18:47 06.01.2020
4748 Fog 1 1014 93 600 1.5 220 18:47 06.01.2020
4749 Fog 1 1014 93 700 2.6 230 18:21 06.01.2020
4750 Fog 1 1014 93 800 3.6 220 17:58 06.01.2020
4751 Fog 1 1014 93 800 3.6 220 17:38 06.01.2020
4752 Fog 1 1014 87 900 4.1 200 17:18 06.01.2020
4753 Fog 1 1014 87 900 4.1 210 16:44 06.01.2020
4754 Mist 1 1014 87 2400 2.6 230 16:25 06.01.2020
4755 Mist 1 1014 87 2400 2.6 230 15:59 06.01.2020
4756 Mist 1 1014 100 2500 3.1 230 15:39 06.01.2020
4757 Mist 1 1014 100 1800 1.5 250 15:18 06.01.2020
4758 Mist 1 1014 100 1800 1.5 250 14:56 06.01.2020
4759 Mist 1 1014 100 2500 3.6 250 14:37 06.01.2020
4760 Fog 1 1013 100 900 2.6 240 14:18 06.01.2020
4761 Fog 1 1013 100 900 2.6 240 14:18 06.01.2020
4762 Mist 1 1013 100 3000 3.6 250 13:41 06.01.2020
4763 Mist 1 1013 100 3500 3.6 230 13:22 06.01.2020
4764 Mist 1 1013 100 3500 3.6 230 12:59 06.01.2020
4765 Mist 1 1013 85 3500 3.1 250 12:41 06.01.2020
4766 Mist 1 1013 100 5000 2.6 250 12:20 06.01.2020
4767 Mist 1 1013 100 5000 2.6 250 12:20 06.01.2020
4768 Mist 1 1013 100 5000 2.6 250 11:55 06.01.2020
4769 Mist 1 1013 100 5000 3.6 250 11:37 06.01.2020
4770 Drizzle 1 1013 100 6000 3.1 250 11:19 06.01.2020
4771 Clouds 1 1013 84 6000 2.6 260 10:42 06.01.2020
4772 Drizzle 1 1013 84 5000 2.1 250 10:21 06.01.2020
4773 Drizzle 1 1013 84 5000 3.6 260 09:42 06.01.2020
4774 Drizzle 1 1013 84 5000 3.6 260 09:24 06.01.2020
4775 Rain 1 1012 84 8000 3.1 270 08:58 06.01.2020
4776 Rain 1 1012 87 8000 3.1 270 08:39 06.01.2020
4777 Rain 1 1012 91 10000 4.1 260 08:21 06.01.2020
4778 Clouds 1 1012 91 10000 3.6 260 07:45 06.01.2020
4779 Rain 1 1011 91 10000 2.6 250 06:55 06.01.2020
4780 Rain 1 1011 91 10000 2.6 250 06:35 06.01.2020
4781 Clouds 1 1011 91 6000 2.1 240 05:48 06.01.2020
4782 Clouds 1 1011 93 6000 3.1 220 05:24 06.01.2020
4783 Rain 1 1011 93 7000 5.7 200 04:24 06.01.2020
4784 Snow 1 1011 93 5000 5.1 200 03:51 06.01.2020
4785 Snow 0 1012 97 2500 7.7 180 02:28 06.01.2020
4786 Snow 0 1012 97 2000 9.3 180 01:53 06.01.2020
4787 Snow 0 1013 97 1500 9.3 180 01:30 06.01.2020
4788 Snow 0 1013 97 1500 8.2 170 00:46 06.01.2020
4789 Snow 0 1013 97 1500 8.2 170 00:28 06.01.2020
4790 Snow 0 1014 97 1500 7.2 170 23:57 05.01.2020
4791 Snow 0 1015 100 1100 6.7 180 23:57 05.01.2020
4792 Snow 0 1015 100 1100 6.7 180 23:57 05.01.2020
4793 Snow 0 1015 100 1100 6.7 180 23:38 05.01.2020
4794 Snow 0 1015 92 2000 5.7 180 23:20 05.01.2020
4795 Snow 0 1015 73 5000 7.2 180 22:40 05.01.2020
4796 Clouds 0 1016 73 10000 6.2 180 22:21 05.01.2020
4797 Clouds -1 1017 68 10000 4.1 160 21:58 05.01.2020
4798 Clouds -1 1017 68 10000 4.1 160 21:40 05.01.2020
4799 Clouds -2 1017 73 10000 3.6 150 21:20 05.01.2020
4800 Clouds -2 1017 73 10000 3.6 150 20:58 05.01.2020
4801 Clouds -3 1018 73 10000 3.6 140 20:39 05.01.2020
4802 Clouds -4 1018 68 10000 3.6 140 20:19 05.01.2020
4803 Clouds -4 1019 79 10000 3.1 170 19:58 05.01.2020
4804 Clouds -4 1019 79 10000 3.1 170 19:39 05.01.2020
4805 Clouds -5 1019 68 10000 3.1 190 19:20 05.01.2020
4806 Clouds -5 1020 79 10000 2.6 210 18:55 05.01.2020
4807 Clouds -5 1020 79 10000 2.6 210 18:37 05.01.2020
4808 Clouds -6 1020 79 10000 2.6 210 18:19 05.01.2020
4809 Clouds -6 1020 79 10000 1.5 190 17:57 05.01.2020
4810 Clouds -6 1020 79 10000 1.5 190 17:38 05.01.2020
4811 Clouds -6 1020 79 10000 1.5 190 17:38 05.01.2020
4812 Clouds -6 1020 79 10000 1.5 190 17:38 05.01.2020
4813 Clouds -6 1020 79 10000 1.5 190 17:38 05.01.2020
4814 Clouds -6 1020 73 10000 3.1 210 17:19 05.01.2020
4815 Clouds -6 1020 73 10000 3.1 210 16:56 05.01.2020
4816 Clouds -6 1020 79 10000 2.1 210 16:38 05.01.2020
4817 Clouds -5 1020 73 10000 1 0 16:19 05.01.2020
4818 Clouds -5 1020 73 10000 1 0 16:19 05.01.2020
4819 Clouds -5 1020 73 10000 1 0 16:19 05.01.2020
4820 Clouds -5 1021 67 10000 0.5 0 15:38 05.01.2020
4821 Clouds -5 1021 67 10000 0.5 0 15:38 05.01.2020
4822 Clouds -5 1021 62 10000 2.1 270 15:20 05.01.2020
4823 Clouds -4 1021 62 10000 2.1 270 14:55 05.01.2020
4824 Clouds -4 1021 62 10000 3.1 280 14:37 05.01.2020
4825 Clouds -4 1021 62 10000 3.1 280 14:37 05.01.2020
4826 Clouds -4 1020 58 10000 3.1 300 14:19 05.01.2020
4827 Clouds -3 1020 58 10000 3.1 300 13:55 05.01.2020
4828 Clouds -3 1020 53 10000 3.6 310 13:37 05.01.2020
4829 Clouds -2 1019 53 10000 4.1 320 13:18 05.01.2020
4830 Clouds -3 1019 53 10000 4.1 320 13:18 05.01.2020
4831 Clouds -3 1019 53 10000 4.1 320 13:18 05.01.2020
4832 Clouds -3 1019 58 10000 4.1 330 12:55 05.01.2020
4833 Clouds -3 1019 58 10000 4.1 330 12:36 05.01.2020
4834 Clouds -3 1019 58 10000 4.1 330 12:36 05.01.2020
4835 Clouds -2 1018 58 10000 3.6 340 12:18 05.01.2020
4836 Clouds -3 1018 58 10000 4.1 340 11:43 05.01.2020
4837 Clouds -2 1018 58 10000 4.1 340 11:43 05.01.2020
4838 Clouds -2 1018 58 10000 4.1 340 11:43 05.01.2020
4839 Clouds -2 1018 58 10000 4.1 340 11:43 05.01.2020
4840 Clouds -2 1018 58 10000 4.1 340 11:43 05.01.2020
4841 Clouds -3 1018 63 10000 4.1 340 11:19 05.01.2020
4842 Clouds -3 1017 63 10000 6.2 340 10:58 05.01.2020
4843 Clouds -3 1017 63 10000 6.2 340 10:39 05.01.2020
4844 Clouds -3 1017 63 10000 6.2 340 10:39 05.01.2020
4845 Clouds -3 1017 63 10000 6.2 340 10:39 05.01.2020
4846 Clouds -3 1017 63 10000 6.2 340 10:39 05.01.2020
4847 Clouds -3 1017 63 10000 6.2 340 10:39 05.01.2020
4848 Clouds -3 1017 68 10000 6.7 330 10:18 05.01.2020
4849 Clouds -3 1016 68 10000 5.7 330 09:41 05.01.2020
4850 Clouds -2 1016 63 10000 6.7 330 09:21 05.01.2020
4851 Clouds -2 1015 68 10000 7.2 330 08:49 05.01.2020
4852 Clouds -2 1015 68 10000 7.2 330 08:30 05.01.2020
4853 Clouds -2 1013 63 10000 6.7 330 07:56 05.01.2020
4854 Clouds -2 1013 63 10000 6.7 330 07:37 05.01.2020
4855 Clouds -1 1012 68 10000 9.8 330 07:18 05.01.2020
4856 Clouds -1 1009 67 10000 8.2 320 05:59 05.01.2020
4857 Clouds 0 1008 69 10000 7.7 330 05:32 05.01.2020
4858 Clouds 0 1008 69 10000 7.7 330 04:43 05.01.2020
4859 Clouds -1 1006 69 10000 7.7 310 03:52 05.01.2020
4860 Clouds -1 1004 63 10000 7.2 300 02:46 05.01.2020
4861 Clouds -1 1004 63 10000 7.2 300 02:46 05.01.2020
4862 Clouds -1 1004 63 10000 6.2 300 02:23 05.01.2020
4863 Clouds -1 1003 63 10000 6.7 300 01:46 05.01.2020
4864 Clouds -1 1002 68 10000 7.2 310 01:18 05.01.2020
4865 Clouds -1 1001 68 10000 7.2 300 00:41 05.01.2020
4866 Clouds -1 1001 68 10000 7.2 300 00:41 05.01.2020
4867 Clouds -1 1001 68 10000 7.7 310 00:22 05.01.2020
4868 Clouds 0 1001 68 10000 7.7 310 23:59 04.01.2020
4869 Clouds 0 1000 62 10000 7.7 300 23:39 04.01.2020
4870 Clouds 0 999 65 10000 6.7 300 23:19 04.01.2020
4871 Clouds 0 999 65 10000 6.7 310 22:39 04.01.2020
4872 Clouds 0 998 65 10000 6.7 310 22:21 04.01.2020
4873 Clouds 1 997 69 10000 8.2 310 21:57 04.01.2020
4874 Clouds 1 997 69 10000 8.2 310 21:38 04.01.2020
4875 Clouds 1 996 69 10000 7.7 310 21:19 04.01.2020
4876 Clouds 1 995 64 10000 7.7 320 20:57 04.01.2020
4877 Clouds 1 995 64 10000 7.7 320 20:38 04.01.2020
4878 Clouds 1 994 64 10000 8.7 310 20:20 04.01.2020
4879 Clouds 1 993 69 10000 8.7 310 19:42 04.01.2020
4880 Clouds 1 993 69 10000 8.7 310 19:42 04.01.2020
4881 Clouds 2 992 64 10000 8.2 310 19:24 04.01.2020
4882 Clouds 2 991 64 10000 8.2 300 18:59 04.01.2020
4883 Clouds 2 991 64 10000 8.2 300 18:40 04.01.2020
4884 Clouds 2 991 64 10000 8.7 300 18:22 04.01.2020
4885 Clouds 2 991 64 10000 8.7 300 17:59 04.01.2020
4886 Clouds 2 990 64 10000 7.7 300 17:40 04.01.2020
4887 Clouds 2 989 64 10000 7.2 290 17:22 04.01.2020
4888 Clouds 2 988 69 10000 7.7 300 16:54 04.01.2020
4889 Clouds 2 988 69 10000 7.7 300 16:36 04.01.2020
4890 Clouds 2 987 74 10000 6.7 290 16:18 04.01.2020
4891 Clouds 2 987 86 10000 3.6 280 15:42 04.01.2020
4892 Clouds 2 987 86 10000 3.6 280 15:42 04.01.2020
4893 Rain 2 986 86 10000 6.7 280 15:20 04.01.2020
4894 Rain 2 986 86 10000 6.7 280 15:20 04.01.2020
4895 Snow 2 985 69 10000 7.2 260 14:58 04.01.2020
4896 Snow 2 985 69 10000 7.2 260 14:40 04.01.2020
4897 Clouds 3 985 69 10000 6.2 250 14:20 04.01.2020
4898 Clouds 2 985 69 10000 6.7 250 13:58 04.01.2020
4899 Clouds 2 985 69 10000 6.7 250 13:37 04.01.2020
4900 Clouds 2 985 69 10000 6.7 250 13:37 04.01.2020
4901 Clouds 2 985 69 10000 5.1 250 13:19 04.01.2020
4902 Clouds 2 984 64 10000 6.2 250 12:42 04.01.2020
4903 Clouds 2 984 64 10000 6.2 240 12:20 04.01.2020
4904 Clouds 2 984 64 10000 6.2 240 12:20 04.01.2020
4905 Clouds 2 984 69 10000 6.7 240 11:59 04.01.2020
4906 Clouds 1 984 69 10000 6.7 240 11:40 04.01.2020
4907 Clouds 1 984 69 10000 5.7 230 11:20 04.01.2020
4908 Clouds 1 985 69 10000 5.1 220 10:59 04.01.2020
4909 Clouds 1 985 69 10000 5.1 220 10:38 04.01.2020
4910 Clouds 1 985 63 10000 5.7 220 10:19 04.01.2020
4911 Clouds 0 985 63 10000 5.1 210 09:43 04.01.2020
4912 Clouds 1 985 63 10000 5.1 210 09:25 04.01.2020
4913 Clouds 1 985 63 10000 4.6 220 08:47 04.01.2020
4914 Clouds 1 985 62 10000 4.6 230 08:28 04.01.2020
4915 Clouds 1 985 58 10000 4.6 220 07:51 04.01.2020
4916 Clouds 1 985 58 10000 4.6 220 07:33 04.01.2020
4917 Clouds 1 985 74 10000 4.6 220 06:43 04.01.2020
4918 Clouds 1 986 58 10000 4.1 220 05:52 04.01.2020
4919 Clouds 2 986 80 10000 4.6 210 04:48 04.01.2020
4920 Clouds 2 986 80 10000 4.6 210 04:28 04.01.2020
4921 Clouds 2 988 69 10000 6.2 220 03:20 04.01.2020
4922 Clouds 1 988 69 10000 7.2 210 02:38 04.01.2020
4923 Clouds 1 989 59 10000 5.7 200 02:18 04.01.2020
4924 Clouds 0 989 64 10000 4.6 200 01:32 04.01.2020
4925 Clouds 0 989 64 10000 5.1 190 01:32 04.01.2020
4926 Clear 0 990 74 10000 3.6 210 00:58 04.01.2020
4927 Clear 0 990 63 10000 4.6 220 00:29 04.01.2020
4928 Clear 1 991 59 10000 5.1 250 23:53 03.01.2020
4929 Clear 1 991 59 10000 5.7 240 23:28 03.01.2020
4930 Clear 2 991 59 10000 5.7 240 22:55 03.01.2020
4931 Clear 2 991 64 10000 7.2 250 22:37 03.01.2020
4932 Clear 2 991 69 10000 6.2 240 22:18 03.01.2020
4933 Clear 2 990 74 10000 5.7 240 21:56 03.01.2020
4934 Clear 3 990 74 10000 5.7 240 21:37 03.01.2020
4935 Clear 3 990 74 10000 5.7 240 21:18 03.01.2020
4936 Clear 3 990 86 10000 6.7 230 20:54 03.01.2020
4937 Clear 3 990 86 10000 6.7 230 20:36 03.01.2020
4938 Clouds 4 990 86 10000 7.2 240 20:18 03.01.2020
4939 Clouds 4 989 86 10000 6.7 230 19:41 03.01.2020
4940 Clouds 4 990 86 10000 6.7 240 19:22 03.01.2020
4941 Clouds 4 989 93 10000 6.2 230 18:46 03.01.2020
4942 Rain 4 989 86 10000 7.7 240 18:26 03.01.2020
4943 Rain 5 989 86 10000 9.3 230 17:58 03.01.2020
4944 Rain 5 989 86 10000 9.3 230 17:58 03.01.2020
4945 Rain 5 989 86 10000 9.3 230 17:39 03.01.2020
4946 Clouds 5 989 93 10000 8.7 230 17:21 03.01.2020
4947 Rain 5 990 93 10000 8.7 220 16:43 03.01.2020
4948 Rain 5 990 93 10000 9.3 220 16:24 03.01.2020
4949 Rain 5 990 93 10000 9.3 220 15:59 03.01.2020
4950 Drizzle 5 991 93 6000 10.8 220 15:41 03.01.2020
4951 Drizzle 5 991 93 6000 11.3 220 15:19 03.01.2020
4952 Drizzle 5 991 93 4000 11.3 210 14:39 03.01.2020
4953 Drizzle 4 992 93 4000 10.8 220 14:20 03.01.2020
4954 Drizzle 4 992 93 4000 10.8 220 13:57 03.01.2020
4955 Drizzle 4 992 93 4000 11.3 220 13:38 03.01.2020
4956 Drizzle 4 992 93 10000 11.3 220 13:20 03.01.2020
4957 Rain 4 993 86 10000 11.3 220 12:40 03.01.2020
4958 Rain 4 993 86 10000 10.8 220 12:21 03.01.2020
4959 Clouds 4 994 80 10000 11.8 220 11:49 03.01.2020
4960 Clouds 4 994 86 10000 10.8 220 11:30 03.01.2020
4961 Clouds 4 995 80 10000 9.8 220 10:48 03.01.2020
4962 Clouds 4 995 80 10000 9.8 220 10:29 03.01.2020
4963 Rain 5 995 80 10000 10.8 230 09:59 03.01.2020
4964 Clouds 5 996 75 10000 10.8 230 09:41 03.01.2020
4965 Clouds 5 995 80 10000 9.8 220 09:23 03.01.2020
4966 Clouds 5 995 80 10000 9.8 220 08:57 03.01.2020
4967 Clouds 5 996 80 10000 9.8 220 08:39 03.01.2020
4968 Clouds 5 996 80 10000 10.3 220 08:21 03.01.2020
4969 Clouds 5 996 80 10000 10.8 220 07:42 03.01.2020
4970 Clouds 5 996 80 10000 9.3 220 07:19 03.01.2020
4971 Clouds 5 997 80 10000 8.7 230 06:56 03.01.2020
4972 Clouds 5 997 80 10000 8.7 230 06:37 03.01.2020
4973 Clouds 5 997 80 10000 8.7 230 06:18 03.01.2020
4974 Clouds 5 998 80 10000 10.8 230 04:42 03.01.2020
4975 Clouds 5 998 80 10000 7.7 220 03:34 03.01.2020
4976 Clouds 5 999 80 10000 8.7 230 02:47 03.01.2020
4977 Clouds 5 1000 86 10000 8.2 240 01:47 03.01.2020
4978 Clouds 5 1000 86 10000 8.2 230 00:57 03.01.2020
4979 Clouds 5 1000 86 10000 8.2 230 00:33 03.01.2020
4980 Clouds 5 1000 86 10000 7.2 230 23:58 02.01.2020
4981 Clouds 5 1000 86 10000 7.2 230 23:39 02.01.2020
4982 Clouds 5 1001 86 10000 7.2 230 23:19 02.01.2020
4983 Clouds 5 1001 86 10000 6.7 230 22:58 02.01.2020
4984 Clouds 5 1001 86 10000 6.7 230 22:39 02.01.2020
4985 Clouds 5 1001 86 10000 7.2 230 22:19 02.01.2020
4986 Clouds 5 1001 86 10000 6.2 230 21:55 02.01.2020
4987 Clouds 5 1001 86 10000 6.2 230 21:36 02.01.2020
4988 Clouds 5 1001 86 10000 6.2 220 21:18 02.01.2020
4989 Clouds 4 1001 93 10000 5.7 230 20:40 02.01.2020
4990 Clouds 4 1001 93 10000 6.7 220 20:21 02.01.2020
4991 Clouds 4 1001 93 10000 6.7 220 19:56 02.01.2020
4992 Clouds 4 1001 86 10000 6.2 220 19:38 02.01.2020
4993 Clouds 4 1002 86 10000 6.2 220 19:19 02.01.2020
4994 Clouds 4 1002 86 10000 6.2 220 18:59 02.01.2020
4995 Clouds 4 1002 86 10000 6.2 230 18:40 02.01.2020
4996 Clouds 4 1002 86 10000 6.7 220 18:22 02.01.2020
4997 Clouds 4 1002 86 10000 6.7 220 18:22 02.01.2020
4998 Clouds 4 1002 86 10000 6.7 220 18:22 02.01.2020
4999 Clouds 4 1002 86 10000 6.7 220 17:57 02.01.2020
5000 Clouds 4 1002 93 10000 6.7 230 17:38 02.01.2020
5001 Clouds 4 1002 86 10000 6.2 220 17:19 02.01.2020
5002 Clouds 4 1002 86 10000 6.2 230 16:57 02.01.2020
5003 Clouds 4 1002 86 10000 6.2 230 16:38 02.01.2020
5004 Clouds 4 1002 86 10000 6.2 230 16:38 02.01.2020
5005 Clouds 4 1001 86 10000 6.7 210 16:20 02.01.2020
5006 Clouds 4 1002 86 10000 6.2 220 15:56 02.01.2020
5007 Clouds 4 1002 86 10000 6.2 220 15:56 02.01.2020
5008 Clouds 3 1002 86 10000 6.2 220 15:37 02.01.2020
5009 Clouds 3 1002 93 10000 5.7 210 15:19 02.01.2020
5010 Clouds 3 1002 86 10000 5.7 220 14:55 02.01.2020
5011 Clouds 3 1002 86 10000 5.7 220 14:36 02.01.2020
5012 Clouds 4 1003 86 10000 4.6 220 14:18 02.01.2020
5013 Clouds 4 1002 86 10000 5.1 210 13:47 02.01.2020
5014 Clouds 4 1002 86 10000 5.1 210 13:29 02.01.2020
5015 Clouds 3 1003 86 10000 4.6 210 12:44 02.01.2020
5016 Clouds 3 1004 89 10000 4.1 230 12:24 02.01.2020
5017 Clouds 3 1004 89 10000 4.1 230 11:43 02.01.2020
5018 Clouds 3 1004 85 10000 4.1 240 11:25 02.01.2020
5019 Clouds 3 1004 85 10000 3.1 240 10:57 02.01.2020
5020 Clouds 3 1004 85 10000 3.1 240 10:38 02.01.2020
5021 Clouds 2 1004 85 10000 4.6 240 10:19 02.01.2020
5022 Clouds 2 1004 85 10000 4.6 240 09:41 02.01.2020
5023 Clouds 2 1004 85 10000 5.7 250 09:22 02.01.2020
5024 Clouds 2 1004 80 10000 5.1 240 08:44 02.01.2020
5025 Clouds 2 1003 86 10000 5.1 240 08:25 02.01.2020
5026 Clouds 2 1003 86 10000 5.1 230 07:49 02.01.2020
5027 Clouds 2 1003 86 10000 4.6 230 07:30 02.01.2020
5028 Clouds 2 1004 80 10000 4.6 240 06:43 02.01.2020
5029 Clouds 1 1003 80 10000 4.1 250 05:58 02.01.2020
5030 Clouds 2 1003 80 10000 4.6 250 04:40 02.01.2020
5031 Clouds 2 1003 80 10000 4.6 250 04:21 02.01.2020
5032 Clouds 1 1003 86 10000 5.1 240 02:25 02.01.2020
5033 Clouds 2 1003 80 10000 4.1 240 01:57 02.01.2020
5034 Clouds 2 1003 80 10000 5.1 250 01:32 02.01.2020
5035 Clouds 2 1003 86 10000 4.6 240 00:52 02.01.2020
5036 Clouds 1 1003 86 10000 4.6 240 00:32 02.01.2020
5037 Clouds 1 1003 86 10000 4.1 230 23:48 01.01.2020
5038 Clouds 2 1004 80 10000 5.7 260 23:25 01.01.2020
5039 Clouds 2 1004 80 10000 5.1 250 22:54 01.01.2020
5040 Clouds 2 1004 80 10000 5.1 250 22:36 01.01.2020
5041 Clouds 2 1004 80 10000 5.7 240 22:18 01.01.2020
5042 Clouds 2 1004 80 10000 5.7 240 21:42 01.01.2020
5043 Clouds 2 1005 80 10000 5.7 250 21:21 01.01.2020
5044 Clouds 2 1005 80 10000 5.7 260 20:58 01.01.2020
5045 Clouds 1 1005 80 10000 5.7 260 20:39 01.01.2020
5046 Clouds 1 1005 80 10000 5.1 250 20:20 01.01.2020
5047 Clouds 1 1005 80 10000 5.1 250 19:57 01.01.2020
5048 Clouds 1 1005 80 10000 4.6 250 19:39 01.01.2020
5049 Clouds 1 1005 80 10000 5.1 250 19:20 01.01.2020
5050 Clouds 1 1005 80 10000 5.7 250 18:57 01.01.2020
5051 Clouds 1 1005 80 10000 5.7 250 18:38 01.01.2020
5052 Clouds 1 1006 80 10000 6.2 250 18:20 01.01.2020
5053 Clouds 1 1006 80 10000 6.2 250 17:58 01.01.2020
5054 Clouds 2 1006 80 10000 6.2 250 17:40 01.01.2020
5055 Clouds 2 1006 74 10000 5.7 260 17:20 01.01.2020
5056 Clouds 2 1006 74 10000 5.7 260 16:57 01.01.2020
5057 Clouds 2 1006 74 10000 5.7 260 16:38 01.01.2020
5058 Clouds 2 1006 74 10000 5.7 260 16:38 01.01.2020
5059 Clouds 2 1006 80 10000 5.1 250 16:19 01.01.2020
5060 Clouds 2 1006 80 10000 5.1 250 15:56 01.01.2020
5061 Clouds 2 1006 80 10000 5.1 240 15:37 01.01.2020
5062 Clouds 2 1006 80 10000 5.1 240 15:19 01.01.2020
5063 Clouds 2 1006 74 10000 5.7 250 14:55 01.01.2020
5064 Clouds 2 1006 74 10000 5.7 250 14:37 01.01.2020
5065 Clouds 2 1006 80 10000 5.1 240 14:19 01.01.2020
5066 Clouds 2 1006 80 10000 4.6 230 13:55 01.01.2020
5067 Clouds 2 1006 80 10000 4.6 230 13:55 01.01.2020
5068 Clouds 2 1006 80 10000 4.6 230 13:36 01.01.2020
5069 Clouds 2 1007 80 10000 4.6 230 13:18 01.01.2020
5070 Clouds 2 1007 80 10000 4.1 210 12:40 01.01.2020
5071 Clouds 2 1007 80 10000 3.6 220 12:19 01.01.2020
5072 Clouds 2 1007 80 10000 3.6 220 11:56 01.01.2020
5073 Clouds 2 1007 80 10000 4.1 220 11:38 01.01.2020
5074 Clouds 2 1007 80 10000 3.6 220 11:19 01.01.2020
5075 Clouds 1 1008 86 10000 3.6 230 10:55 01.01.2020
5076 Clouds 1 1008 86 10000 3.6 230 10:36 01.01.2020
5077 Clouds 1 1008 74 10000 3.6 220 10:18 01.01.2020
5078 Clouds 1 1008 80 10000 3.1 230 09:40 01.01.2020
5079 Clouds 1 1009 80 10000 3.6 240 09:20 01.01.2020
5080 Clouds 1 1008 80 10000 3.6 230 08:57 01.01.2020
5081 Clouds 1 1008 80 10000 3.6 230 08:37 01.01.2020
5082 Clouds 1 1009 80 10000 4.1 250 08:19 01.01.2020
5083 Clouds 1 1009 80 10000 4.1 250 07:56 01.01.2020
5084 Clouds 0 1008 71 10000 4.6 240 07:38 01.01.2020
5085 Clouds -1 1009 92 10000 3.6 230 06:50 01.01.2020
5086 Clouds -1 1009 86 10000 3.6 230 06:32 01.01.2020
5087 Clouds -1 1009 86 10000 3.6 230 05:46 01.01.2020
5088 Clouds 0 1010 72 10000 5.1 270 03:48 01.01.2020
5089 Clouds -1 1010 72 10000 5.1 270 03:28 01.01.2020
5090 Clouds -1 1010 72 10000 5.1 270 02:59 01.01.2020
5091 Clouds -1 1010 86 10000 5.7 270 02:41 01.01.2020
5092 Clear -1 1010 86 10000 4.6 260 02:21 01.01.2020
5093 Clear -1 1010 86 10000 4.1 270 01:40 01.01.2020
5094 Clear -1 1010 86 10000 4.1 270 01:21 01.01.2020
5095 Clear -1 1011 86 10000 4.1 270 00:44 01.01.2020
5096 Clear -1 1011 92 10000 4.1 260 00:26 01.01.2020
5097 Clear -2 1011 92 10000 5.1 270 23:43 31.12.2019
5098 Clear -2 1011 86 10000 3.6 260 23:24 31.12.2019
5099 Clear -2 1011 86 10000 3.6 260 22:59 31.12.2019
5100 Clear -2 1011 86 10000 3.6 250 22:39 31.12.2019
5101 Clear -2 1010 79 10000 4.6 260 22:20 31.12.2019
5102 Clear -2 1010 79 10000 4.6 260 21:59 31.12.2019
5103 Clear -2 1010 86 10000 3.1 270 21:41 31.12.2019
5104 Clear -2 1010 86 10000 3.1 270 21:23 31.12.2019
5105 Clear -2 1010 86 10000 4.1 260 20:57 31.12.2019
5106 Clear -2 1010 74 10000 4.1 270 20:37 31.12.2019
5107 Clouds -2 1010 74 10000 4.6 290 20:19 31.12.2019
5108 Clouds -2 1010 74 10000 4.1 290 19:55 31.12.2019
5109 Clouds -2 1010 74 10000 4.1 290 19:37 31.12.2019
5110 Clouds -2 1009 79 10000 3.6 310 19:18 31.12.2019
5111 Clouds -1 1008 63 10000 4.6 330 18:54 31.12.2019
5112 Clouds -1 1008 63 10000 4.6 330 18:54 31.12.2019
5113 Clouds -1 1008 63 10000 4.6 330 18:36 31.12.2019
5114 Clouds -1 1008 68 10000 6.7 320 18:18 31.12.2019
5115 Clouds -1 1008 68 10000 7.7 330 17:55 31.12.2019
5116 Clouds -1 1008 68 10000 7.7 330 17:36 31.12.2019
5117 Clouds -1 1008 68 10000 7.7 330 17:36 31.12.2019
5118 Clouds 0 1007 73 10000 8.2 330 17:18 31.12.2019
5119 Clouds 0 1006 73 10000 9.3 330 16:55 31.12.2019
5120 Clouds 0 1006 73 10000 9.3 330 16:36 31.12.2019
5121 Clouds 0 1005 73 10000 9.3 330 16:18 31.12.2019
5122 Clouds 0 1004 73 10000 8.7 330 15:55 31.12.2019
5123 Clouds 0 1004 73 10000 8.7 330 15:37 31.12.2019
5124 Clouds 1 1003 74 10000 8.7 320 15:18 31.12.2019
5125 Snow 0 1002 73 10000 6.2 330 14:55 31.12.2019
5126 Snow 1 1002 73 10000 6.2 330 14:36 31.12.2019
5127 Snow 1 1001 78 10000 5.7 320 14:18 31.12.2019
5128 Rain 1 1001 69 10000 8.2 330 13:54 31.12.2019
5129 Rain 1 1001 69 10000 8.2 330 13:36 31.12.2019
5130 Snow 1 1000 74 10000 7.7 330 13:18 31.12.2019
5131 Clouds 1 999 78 10000 7.7 320 12:40 31.12.2019
5132 Clouds 1 999 78 10000 7.7 320 12:40 31.12.2019
5133 Snow 1 998 74 10000 8.7 330 12:21 31.12.2019
5134 Clouds 1 998 74 10000 8.2 330 11:58 31.12.2019
5135 Clouds 1 998 74 10000 8.2 330 11:40 31.12.2019
5136 Clouds 1 997 74 10000 9.3 330 11:21 31.12.2019
5137 Clouds 1 996 74 10000 10.3 330 10:58 31.12.2019
5138 Clouds 1 996 74 10000 10.3 330 10:39 31.12.2019
5139 Clouds 1 995 80 10000 7.7 320 10:20 31.12.2019
5140 Clouds 2 995 80 10000 7.7 320 09:59 31.12.2019
5141 Rain 2 994 80 10000 9.3 330 09:40 31.12.2019
5142 Rain 2 993 86 10000 7.7 300 09:22 31.12.2019
5143 Rain 3 993 86 10000 7.7 300 08:59 31.12.2019
5144 Rain 3 992 86 10000 7.2 290 08:41 31.12.2019
5145 Clouds 3 992 86 10000 6.2 290 08:20 31.12.2019
5146 Clouds 3 991 86 10000 6.2 290 07:44 31.12.2019
5147 Clouds 3 991 86 10000 6.2 290 07:22 31.12.2019
5148 Clouds 3 991 86 10000 5.7 280 06:51 31.12.2019
5149 Clouds 3 990 84 10000 4.6 270 06:23 31.12.2019
5150 Clouds 2 990 80 10000 5.1 270 04:54 31.12.2019
5151 Clouds 2 990 80 10000 4.6 260 04:21 31.12.2019
5152 Clouds 2 990 80 10000 4.1 250 02:56 31.12.2019
5153 Clear 2 990 77 10000 3.1 260 02:19 31.12.2019
5154 Clear 3 990 86 10000 4.1 240 01:48 31.12.2019
5155 Clouds 3 990 86 10000 3.6 250 01:29 31.12.2019
5156 Clouds 3 990 86 10000 4.6 240 00:48 31.12.2019
5157 Clouds 3 990 93 10000 3.6 230 00:23 31.12.2019
5158 Clouds 3 990 93 10000 3.6 230 23:58 30.12.2019
5159 Clouds 3 990 93 10000 4.1 230 23:38 30.12.2019
5160 Clouds 3 991 86 10000 4.1 240 23:20 30.12.2019
5161 Clouds 4 991 86 10000 3.6 240 22:58 30.12.2019
5162 Clouds 4 991 86 10000 3.6 240 22:40 30.12.2019
5163 Clouds 4 991 93 10000 4.6 230 22:20 30.12.2019
5164 Clouds 4 991 93 10000 4.6 230 22:20 30.12.2019
5165 Clouds 4 991 86 10000 5.7 250 21:57 30.12.2019
5166 Clouds 4 991 86 10000 5.7 250 21:39 30.12.2019
5167 Clouds 4 991 93 10000 5.7 250 21:19 30.12.2019
5168 Clouds 4 991 93 10000 5.7 250 20:57 30.12.2019
5169 Clouds 4 992 93 10000 4.1 240 20:39 30.12.2019
5170 Clouds 4 992 93 10000 4.6 230 20:20 30.12.2019
5171 Clouds 4 992 93 10000 5.1 240 19:58 30.12.2019
5172 Clouds 4 992 93 10000 5.1 240 19:38 30.12.2019
5173 Clouds 4 992 93 10000 4.6 240 19:19 30.12.2019
5174 Clouds 4 993 86 10000 3.6 240 18:57 30.12.2019
5175 Clouds 4 993 86 10000 3.6 240 18:38 30.12.2019
5176 Clouds 4 993 86 10000 3.6 240 18:38 30.12.2019
5177 Clouds 4 993 93 10000 3.6 240 18:20 30.12.2019
5178 Clouds 4 993 93 10000 3.6 240 18:20 30.12.2019
5179 Clouds 4 993 86 10000 4.1 250 17:55 30.12.2019
5180 Clouds 4 993 86 10000 4.1 250 17:37 30.12.2019
5181 Clouds 5 993 93 10000 4.6 260 17:18 30.12.2019
5182 Clouds 5 993 93 10000 4.6 270 16:57 30.12.2019
5183 Clouds 5 993 93 10000 4.6 270 16:36 30.12.2019
5184 Clouds 5 994 93 10000 4.6 270 16:18 30.12.2019
5185 Clouds 5 994 87 10000 5.7 280 15:55 30.12.2019
5186 Clouds 5 994 87 10000 5.7 280 15:36 30.12.2019
5187 Clouds 6 994 93 10000 5.1 280 15:18 30.12.2019
5188 Clouds 6 993 93 10000 5.7 260 14:42 30.12.2019
5189 Clouds 6 994 93 10000 5.7 250 14:19 30.12.2019
5190 Drizzle 6 994 93 6000 6.2 240 13:56 30.12.2019
5191 Drizzle 6 994 93 6000 6.2 240 13:37 30.12.2019
5192 Drizzle 6 994 93 6000 7.2 240 13:19 30.12.2019
5193 Drizzle 6 995 93 5000 6.2 230 12:43 30.12.2019
5194 Drizzle 5 995 100 3500 6.2 230 12:20 30.12.2019
5195 Drizzle 5 996 100 3500 6.2 240 11:59 30.12.2019
5196 Drizzle 5 996 100 3500 6.2 240 11:40 30.12.2019
5197 Mist 5 996 100 3000 5.7 230 11:19 30.12.2019
5198 Drizzle 5 997 100 3000 5.7 220 10:44 30.12.2019
5199 Drizzle 5 998 100 2500 5.7 220 10:22 30.12.2019
5200 Drizzle 5 998 100 2500 5.7 220 10:22 30.12.2019
5201 Drizzle 5 998 100 2000 5.1 220 09:58 30.12.2019
5202 Drizzle 5 998 100 2000 5.1 220 09:40 30.12.2019
5203 Drizzle 5 999 93 3000 5.7 220 09:20 30.12.2019
5204 Drizzle 5 999 93 3000 5.1 220 08:50 30.12.2019
5205 Mist 5 999 93 4000 6.2 220 08:23 30.12.2019
5206 Mist 5 1000 93 3500 6.2 230 07:56 30.12.2019
5207 Mist 5 1000 93 3500 6.2 230 07:37 30.12.2019
5208 Clouds 5 1001 93 6000 6.2 230 06:52 30.12.2019
5209 Drizzle 5 1002 93 7000 6.7 230 04:58 30.12.2019
5210 Drizzle 4 1004 100 6000 6.2 220 03:57 30.12.2019
5211 Drizzle 5 1005 93 6000 6.2 230 02:58 30.12.2019
5212 Drizzle 5 1005 93 6000 6.2 230 02:40 30.12.2019
5213 Drizzle 5 1005 93 6000 7.2 220 01:50 30.12.2019
5214 Drizzle 5 1006 93 4000 6.7 220 01:21 30.12.2019
5215 Drizzle 5 1007 93 4000 6.7 230 00:45 30.12.2019
5216 Drizzle 5 1007 93 3500 7.2 230 00:19 30.12.2019
5217 Drizzle 5 1007 93 4000 7.7 220 23:39 29.12.2019
5218 Drizzle 5 1008 93 4000 6.7 220 23:21 29.12.2019
5219 Drizzle 5 1008 93 4000 7.7 220 22:54 29.12.2019
5220 Drizzle 5 1008 93 4000 7.7 220 22:36 29.12.2019
5221 Drizzle 5 1008 93 4000 7.7 220 22:36 29.12.2019
5222 Drizzle 4 1009 100 4000 7.7 220 22:18 29.12.2019
5223 Drizzle 4 1009 100 5000 8.2 220 21:42 29.12.2019
5224 Drizzle 4 1010 100 5000 7.7 220 21:21 29.12.2019
5225 Drizzle 4 1010 100 5000 7.7 220 20:57 29.12.2019
5226 Drizzle 4 1011 93 8000 7.7 220 20:39 29.12.2019
5227 Clouds 4 1011 93 10000 8.7 220 20:20 29.12.2019
5228 Clouds 4 1011 93 10000 8.7 220 20:20 29.12.2019
5229 Clouds 4 1011 93 10000 8.7 220 20:20 29.12.2019
5230 Drizzle 4 1012 93 7000 8.7 220 19:59 29.12.2019
5231 Drizzle 4 1012 93 7000 8.7 220 19:40 29.12.2019
5232 Rain 4 1012 93 10000 8.2 210 19:21 29.12.2019
5233 Rain 4 1012 93 10000 8.2 210 18:57 29.12.2019
5234 Rain 4 1015 86 10000 8.7 210 18:38 29.12.2019
5235 Rain 4 1015 86 10000 8.7 210 18:19 29.12.2019
5236 Rain 3 1015 86 10000 8.7 210 17:58 29.12.2019
5237 Rain 3 1015 86 10000 8.7 210 17:39 29.12.2019
5238 Rain 3 1015 93 10000 9.8 210 17:20 29.12.2019
5239 Rain 3 1015 93 10000 9.8 210 16:56 29.12.2019
5240 Clouds 3 1016 93 10000 9.8 210 16:37 29.12.2019
5241 Rain 3 1017 93 10000 9.3 210 16:19 29.12.2019
5242 Rain 3 1017 93 10000 9.3 210 15:57 29.12.2019
5243 Clouds 3 1017 86 10000 9.8 210 15:39 29.12.2019
5244 Clouds 3 1018 86 10000 8.2 210 15:20 29.12.2019
5245 Clouds 3 1018 86 10000 8.7 190 14:57 29.12.2019
5246 Clouds 3 1018 86 10000 8.7 190 14:38 29.12.2019
5247 Clouds 3 1019 86 10000 7.7 190 14:18 29.12.2019
5248 Clouds 3 1019 86 10000 7.7 190 13:57 29.12.2019
5249 Clouds 3 1020 86 10000 7.2 200 13:57 29.12.2019
5250 Clouds 3 1020 86 10000 7.2 200 13:37 29.12.2019
5251 Clouds 3 1020 86 10000 7.2 200 13:37 29.12.2019
5252 Clouds 2 1020 93 10000 7.7 200 13:19 29.12.2019
5253 Clouds 2 1021 93 10000 9.3 180 12:45 29.12.2019
5254 Clouds 2 1022 93 10000 8.2 190 12:26 29.12.2019
5255 Snow 2 1023 79 7000 9.3 190 11:57 29.12.2019
5256 Snow 1 1023 79 7000 9.3 190 11:38 29.12.2019
5257 Snow 1 1024 96 9000 9.3 190 11:20 29.12.2019
5258 Clouds 1 1025 96 10000 8.7 190 10:43 29.12.2019
5259 Clouds 1 1025 96 10000 8.7 190 10:24 29.12.2019
5260 Clouds 1 1025 86 10000 8.2 190 09:58 29.12.2019
5261 Clouds 0 1025 86 10000 8.2 190 09:39 29.12.2019
5262 Clouds 0 1026 96 10000 7.7 180 09:21 29.12.2019
5263 Clouds 0 1027 96 10000 7.7 180 08:47 29.12.2019
5264 Clouds 0 1027 83 10000 8.2 180 08:27 29.12.2019
5265 Clouds 0 1028 83 10000 7.7 190 07:56 29.12.2019
5266 Clouds 0 1028 83 10000 7.7 190 07:28 29.12.2019
5267 Clouds 0 1029 83 10000 5.7 180 06:56 29.12.2019
5268 Clouds -1 1030 83 10000 5.7 180 06:26 29.12.2019
5269 Clouds -1 1030 92 10000 5.1 190 05:52 29.12.2019
5270 Clouds -4 1031 92 10000 4.1 170 04:36 29.12.2019
5271 Clouds -5 1031 92 10000 5.1 180 03:58 29.12.2019
5272 Clouds -4 1032 92 10000 1.5 160 03:21 29.12.2019
5273 Clouds -6 1033 92 10000 1 0 02:21 29.12.2019
5274 Clouds -7 1034 92 10000 0.5 0 01:38 29.12.2019
5275 Clouds -7 1034 92 10000 1 110 01:19 29.12.2019
5276 Clouds -7 1034 92 10000 0.5 0 00:40 29.12.2019
5277 Clouds -7 1035 92 10000 1.5 250 00:22 29.12.2019
5278 Clouds -8 1035 92 10000 0.5 0 23:43 28.12.2019
5279 Clouds -8 1035 92 10000 2.01 225 23:18 28.12.2019
5280 Clouds -9 1036 92 10000 1.5 110 22:39 28.12.2019
5281 Clouds -9 1036 92 10000 1 0 22:21 28.12.2019
5282 Clouds -10 1036 92 10000 1 0 21:58 28.12.2019
5283 Clouds -10 1036 92 10000 1 0 21:39 28.12.2019
5284 Clouds -10 1036 92 10000 0.5 0 21:21 28.12.2019
5285 Clouds -10 1036 92 10000 0.5 0 21:21 28.12.2019
5286 Clouds -9 1036 85 10000 2.01 225 20:57 28.12.2019
5287 Clouds -9 1036 85 10000 2.01 225 20:37 28.12.2019
5288 Clouds -9 1036 85 10000 2.01 225 20:37 28.12.2019
5289 Clouds -9 1037 92 10000 2.1 300 20:19 28.12.2019
5290 Clouds -10 1037 92 10000 1 0 19:57 28.12.2019
5291 Clouds -10 1037 92 10000 1 0 19:39 28.12.2019
5292 Clouds -9 1037 92 10000 0.5 340 19:20 28.12.2019
5293 Clouds -9 1037 92 10000 1 300 18:57 28.12.2019
5294 Clouds -9 1037 92 10000 1 300 18:39 28.12.2019
5295 Clouds -9 1037 92 10000 0.5 340 18:18 28.12.2019
5296 Clouds -9 1037 92 10000 1 0 17:54 28.12.2019
5297 Clouds -9 1037 92 10000 1 0 17:36 28.12.2019
5298 Clear -9 1038 100 10000 1 0 17:18 28.12.2019
5299 Clear -8 1038 100 10000 1.5 330 16:45 28.12.2019
5300 Clear -8 1037 92 10000 2.1 330 16:24 28.12.2019
5301 Clear -7 1037 92 10000 1.5 340 15:44 28.12.2019
5302 Clear -7 1038 85 10000 2.6 320 15:23 28.12.2019
5303 Clear -6 1038 85 10000 1 330 14:57 28.12.2019
5304 Clear -6 1038 85 10000 1 330 14:38 28.12.2019
5305 Clouds -6 1038 85 10000 2.1 350 14:20 28.12.2019
5306 Clouds -5 1037 79 10000 2.1 10 13:43 28.12.2019
5307 Clouds -5 1037 79 10000 3.1 20 13:21 28.12.2019
5308 Clouds -5 1038 79 10000 2.1 10 12:59 28.12.2019
5309 Clouds -5 1038 79 10000 2.1 10 12:40 28.12.2019
5310 Clouds -5 1038 79 10000 3.1 350 12:21 28.12.2019
5311 Clouds -5 1038 79 10000 3.6 360 11:40 28.12.2019
5312 Clouds -5 1038 79 10000 2.6 360 11:22 28.12.2019
5313 Clouds -5 1038 85 10000 3.6 10 10:59 28.12.2019
5314 Clouds -6 1038 85 10000 3.6 10 10:41 28.12.2019
5315 Clouds -6 1038 85 10000 3.1 360 10:20 28.12.2019
5316 Clouds -6 1038 85 10000 4.1 350 09:55 28.12.2019
5317 Clouds -6 1038 85 10000 4.1 350 09:37 28.12.2019
5318 Clouds -6 1038 85 10000 3.6 340 09:18 28.12.2019
5319 Clouds -6 1037 85 10000 3.6 350 08:43 28.12.2019
5320 Clouds -6 1037 85 10000 4.1 360 08:24 28.12.2019
5321 Clouds -6 1037 85 10000 4.6 360 07:48 28.12.2019
5322 Clouds -5 1037 92 10000 5.1 360 07:23 28.12.2019
5323 Clouds -5 1036 85 10000 5.1 360 05:51 28.12.2019
5324 Clouds -4 1035 79 10000 5.1 360 03:48 28.12.2019
5325 Clouds -3 1035 79 10000 4.1 360 02:51 28.12.2019
5326 Clouds -3 1034 79 10000 4.6 360 02:20 28.12.2019
5327 Snow -3 1034 73 10000 5.7 10 01:56 28.12.2019
5328 Clouds -4 1034 73 10000 6.2 10 01:23 28.12.2019
5329 Snow -4 1034 85 10000 6.2 10 00:50 28.12.2019
5330 Snow -4 1033 85 10000 6.2 10 00:30 28.12.2019
5331 Snow -4 1033 85 10000 5.7 360 23:58 27.12.2019
5332 Snow -4 1033 85 10000 5.7 360 23:39 27.12.2019
5333 Snow -4 1033 85 10000 7.2 350 23:19 27.12.2019
5334 Snow -4 1032 85 10000 6.2 360 22:56 27.12.2019
5335 Snow -4 1032 85 10000 6.2 360 22:37 27.12.2019
5336 Clouds -4 1032 85 10000 6.7 360 22:19 27.12.2019
5337 Clouds -4 1031 85 10000 6.7 360 21:43 27.12.2019
5338 Clouds -4 1031 79 10000 6.7 360 21:25 27.12.2019
5339 Clouds -4 1030 79 10000 5.7 10 20:57 27.12.2019
5340 Clouds -4 1030 79 10000 5.7 10 20:38 27.12.2019
5341 Clouds -4 1030 79 10000 7.2 360 20:20 27.12.2019
5342 Clouds -4 1030 79 10000 6.2 360 19:41 27.12.2019
5343 Clouds -5 1029 79 10000 6.7 360 19:20 27.12.2019
5344 Clouds -5 1029 79 10000 6.7 360 19:20 27.12.2019
5345 Clouds -5 1029 79 10000 6.7 360 19:20 27.12.2019
5346 Clouds -4 1029 79 10000 7.2 360 18:57 27.12.2019
5347 Clouds -5 1029 79 10000 7.2 360 18:37 27.12.2019
5348 Clouds -5 1029 79 10000 6.2 350 18:19 27.12.2019
5349 Clouds -5 1028 79 10000 7.2 360 17:55 27.12.2019
5350 Clouds -5 1028 79 10000 7.2 360 17:37 27.12.2019
5351 Clouds -5 1028 85 10000 5.7 350 17:18 27.12.2019
5352 Clouds -5 1028 85 10000 6.7 360 16:43 27.12.2019
5353 Clouds -5 1027 85 10000 7.2 360 16:23 27.12.2019
5354 Clouds -5 1027 85 10000 7.2 360 15:58 27.12.2019
5355 Clouds -5 1027 85 10000 7.7 350 15:40 27.12.2019
5356 Clouds -5 1027 85 10000 8.2 360 15:19 27.12.2019
5357 Clouds -5 1027 85 10000 8.2 360 14:56 27.12.2019
5358 Clouds -5 1026 85 10000 7.2 350 14:38 27.12.2019
5359 Clouds -5 1025 85 10000 6.7 350 14:20 27.12.2019
5360 Clouds -5 1025 85 10000 6.7 350 13:48 27.12.2019
5361 Clouds -5 1025 85 10000 6.7 360 13:25 27.12.2019
5362 Clouds -5 1024 85 10000 5.7 350 12:56 27.12.2019
5363 Clouds -4 1024 85 10000 5.7 350 12:38 27.12.2019
5364 Snow -4 1024 85 10000 5.7 360 12:20 27.12.2019
5365 Snow -4 1024 79 10000 6.7 360 11:42 27.12.2019
5366 Clouds -4 1024 79 10000 6.2 360 11:22 27.12.2019
5367 Clouds -4 1023 79 10000 7.7 360 10:54 27.12.2019
5368 Clouds -4 1023 79 10000 7.2 350 10:36 27.12.2019
5369 Clouds -4 1023 79 10000 7.2 350 10:18 27.12.2019
5370 Clouds -4 1022 79 10000 7.7 350 09:40 27.12.2019
5371 Clouds -3 1022 86 10000 5.7 350 09:21 27.12.2019
5372 Clouds -2 1021 79 10000 8.2 350 08:54 27.12.2019
5373 Clouds -2 1021 79 10000 8.2 350 08:34 27.12.2019
5374 Snow -2 1020 86 10000 6.7 350 07:49 27.12.2019
5375 Snow -2 1020 86 10000 6.7 350 07:28 27.12.2019
5376 Snow -1 1020 86 10000 5.7 360 06:36 27.12.2019
5377 Snow -1 1019 92 10000 5.1 360 04:59 27.12.2019
5378 Snow -1 1018 92 9000 4.1 350 02:53 27.12.2019
5379 Snow -1 1017 92 9000 3.6 350 01:59 27.12.2019
5380 Snow -1 1017 92 10000 3.1 340 01:24 27.12.2019
5381 Snow -1 1017 100 7000 3.1 340 00:54 27.12.2019
5382 Snow -1 1017 100 7000 3.1 340 00:35 27.12.2019
5383 Snow -1 1017 92 7000 3.1 340 23:59 26.12.2019
5384 Snow -1 1017 92 7000 3.6 330 23:41 26.12.2019
5385 Snow -1 1016 92 10000 3.6 330 23:21 26.12.2019
5386 Snow -1 1016 92 10000 3.6 330 22:45 26.12.2019
5387 -273 0 0 0 0 0 22:22 26.12.2019
5388 Snow -1 1016 92 10000 3.6 340 21:58 26.12.2019
5389 Snow 0 1016 81 10000 3.6 330 21:38 26.12.2019
5390 Snow 0 1016 81 10000 3.6 330 21:38 26.12.2019
5391 Clouds 0 1016 81 10000 3.1 340 21:20 26.12.2019
5392 Clouds 0 1015 81 10000 4.1 340 20:45 26.12.2019
5393 Clouds 0 1015 84 10000 4.1 340 20:23 26.12.2019
5394 Clouds 0 1015 84 10000 4.1 340 19:59 26.12.2019
5395 Clouds 0 1015 84 10000 4.1 340 19:39 26.12.2019
5396 Clouds 0 1015 84 10000 4.1 340 19:39 26.12.2019
5397 Clouds 0 1015 84 10000 3.6 350 19:20 26.12.2019
5398 Snow 0 1015 84 10000 3.1 320 18:57 26.12.2019
5399 Snow 0 1015 84 10000 3.1 320 18:38 26.12.2019
5400 Snow 0 1015 84 6000 2.6 320 18:19 26.12.2019
5401 Snow 0 1015 84 10000 2.1 340 17:43 26.12.2019
5402 Snow 0 1015 84 10000 2.1 340 17:43 26.12.2019
5403 Clouds 0 1015 82 10000 2.6 330 17:22 26.12.2019
5404 Clouds 0 1015 82 10000 2.6 320 16:58 26.12.2019
5405 Clouds 0 1015 82 10000 2.6 320 16:40 26.12.2019
5406 Clouds 0 1014 82 10000 2.6 320 16:21 26.12.2019
5407 Clouds 0 1014 82 10000 2.6 310 15:41 26.12.2019
5408 Clouds 0 1014 82 10000 2.6 310 15:22 26.12.2019
5409 Clouds 0 1014 82 10000 2.6 310 14:59 26.12.2019
5410 Clouds 0 1014 82 10000 2.6 310 14:39 26.12.2019
5411 Clouds 0 1014 82 6000 2.1 310 14:20 26.12.2019
5412 Clouds 0 1014 82 8000 2.6 310 13:43 26.12.2019
5413 Clouds 0 1014 81 4500 3.1 320 13:21 26.12.2019
5414 Clouds 0 1014 81 2800 2.6 320 12:58 26.12.2019
5415 Clouds 0 1014 81 2800 2.6 320 12:37 26.12.2019
5416 Clouds 0 1013 81 2800 3.1 310 12:19 26.12.2019
5417 Clouds 0 1013 81 7000 2.6 310 11:56 26.12.2019
5418 Clouds 0 1013 81 7000 2.6 310 11:37 26.12.2019
5419 Clouds 0 1013 81 10000 3.6 320 11:19 26.12.2019
5420 Clouds 0 1013 81 10000 3.6 320 10:42 26.12.2019
5421 Snow 0 1013 81 10000 3.1 310 10:18 26.12.2019
5422 Snow 0 1013 81 10000 3.6 310 09:45 26.12.2019
5423 Snow 0 1013 81 9000 3.1 310 09:26 26.12.2019
5424 Clouds 0 1013 81 10000 3.1 300 08:42 26.12.2019
5425 Snow 0 1013 81 9000 3.1 310 08:24 26.12.2019
5426 Snow 0 1012 81 6000 3.1 300 07:53 26.12.2019
5427 Clouds 0 1012 81 10000 2.6 310 07:26 26.12.2019
5428 Drizzle 0 1012 81 10000 2.6 300 06:53 26.12.2019
5429 Clouds 0 1012 81 10000 1.5 310 06:32 26.12.2019
5430 Clouds 0 1012 81 10000 2.6 300 05:45 26.12.2019
5431 Clouds 0 1012 86 10000 2.6 290 04:55 26.12.2019
5432 Clouds 0 1012 86 10000 2.6 280 04:29 26.12.2019
5433 Clouds 0 1011 86 10000 3.6 310 02:54 26.12.2019
5434 Clouds 0 1011 86 10000 3.6 310 02:34 26.12.2019
5435 Clouds 0 1011 84 10000 3.6 290 01:48 26.12.2019
5436 Clouds 0 1011 84 10000 3.6 290 01:28 26.12.2019
5437 Clouds 1 1011 86 10000 3.6 300 00:49 26.12.2019
5438 Clouds 1 1011 84 10000 3.6 290 00:27 26.12.2019
5439 Clouds 0 1011 84 10000 3.6 290 23:58 25.12.2019
5440 Clouds 0 1011 84 10000 3.6 290 23:39 25.12.2019
5441 Clouds 1 1011 85 10000 2.6 300 23:21 25.12.2019
5442 Clouds 1 1011 85 10000 4.1 290 22:58 25.12.2019
5443 Clouds 1 1011 85 10000 4.1 290 22:39 25.12.2019
5444 Clouds 1 1010 85 10000 3.1 310 22:20 25.12.2019
5445 Clouds 1 1010 85 10000 3.6 300 21:58 25.12.2019
5446 Clouds 1 1010 85 10000 3.6 300 21:39 25.12.2019
5447 Clouds 1 1010 85 8000 4.1 300 21:20 25.12.2019
5448 Clouds 1 1010 85 8000 4.1 300 20:54 25.12.2019
5449 Clouds 1 1010 79 10000 3.1 300 20:36 25.12.2019
5450 Clouds 1 1010 82 10000 3.1 300 20:18 25.12.2019
5451 Clouds 1 1010 82 10000 3.1 290 19:42 25.12.2019
5452 Clouds 1 1010 82 10000 3.1 300 19:22 25.12.2019
5453 Clouds 1 1009 82 10000 3.1 290 18:56 25.12.2019
5454 Clouds 1 1009 82 10000 3.1 290 18:36 25.12.2019
5455 Clouds 1 1009 82 10000 3.1 290 18:18 25.12.2019
5456 Clouds 1 1009 82 10000 3.1 280 17:40 25.12.2019
5457 Clouds 1 1009 89 10000 3.6 290 17:19 25.12.2019
5458 Clouds 1 1009 89 10000 3.6 290 16:57 25.12.2019
5459 Clouds 1 1009 89 10000 3.6 290 16:37 25.12.2019
5460 Clouds 1 1009 89 10000 3.6 280 16:18 25.12.2019
5461 Clouds 1 1009 89 10000 3.6 280 16:18 25.12.2019
5462 Clouds 1 1008 89 10000 3.6 280 15:56 25.12.2019
5463 Clouds 1 1008 89 10000 3.6 280 15:38 25.12.2019
5464 Clouds 1 1008 89 10000 3.6 280 15:19 25.12.2019
5465 Clouds 1 1008 89 10000 3.6 280 15:19 25.12.2019
5466 Clouds 1 1008 89 10000 3.6 280 14:56 25.12.2019
5467 Clouds 1 1008 89 10000 3.6 280 14:37 25.12.2019
5468 Clouds 1 1008 90 10000 3.1 300 14:19 25.12.2019
5469 Clouds 1 1008 90 10000 4.1 300 13:44 25.12.2019
5470 Clouds 1 1007 90 10000 4.6 300 13:21 25.12.2019
5471 Clouds 1 1007 90 10000 4.6 300 12:56 25.12.2019
5472 Clouds 1 1007 90 10000 3.6 310 12:38 25.12.2019
5473 Clouds 1 1007 90 10000 3.6 300 12:18 25.12.2019
5474 Clouds 1 1007 100 10000 3.1 300 11:42 25.12.2019
5475 Clouds 1 1007 100 8000 3.1 300 11:22 25.12.2019
5476 Clouds 1 1007 100 8000 2.6 290 10:58 25.12.2019
5477 Clouds 1 1007 100 8000 2.6 290 10:36 25.12.2019
5478 Clouds 1 1006 100 10000 2.6 320 10:18 25.12.2019
5479 Clouds 1 1006 100 10000 3.1 310 09:43 25.12.2019
5480 Clouds 1 1006 100 10000 2.6 310 09:25 25.12.2019
5481 Clouds 1 1006 100 10000 2.6 310 09:25 25.12.2019
5482 Clouds 1 1006 100 10000 2.1 320 08:45 25.12.2019
5483 Clouds 1 1005 94 10000 2.1 330 08:25 25.12.2019
5484 Clouds 1 1005 94 10000 2.1 330 08:25 25.12.2019
5485 Clouds 1 1005 100 10000 3.1 300 07:45 25.12.2019
5486 Rain 1 1005 100 10000 2.6 330 07:23 25.12.2019
5487 Rain 1 1005 100 10000 2.6 340 06:41 25.12.2019
5488 Rain 1 1005 100 10000 2.1 330 06:21 25.12.2019
5489 Rain 1 1005 100 10000 2.1 360 04:47 25.12.2019
5490 Rain 1 1005 100 10000 2.1 350 04:25 25.12.2019
5491 Rain 1 1005 100 10000 2.1 360 03:52 25.12.2019
5492 Rain 1 1005 100 10000 2.1 360 03:32 25.12.2019
5493 Rain 1 1005 100 10000 3.1 360 02:32 25.12.2019
5494 Rain 1 1005 93 10000 3.1 360 01:55 25.12.2019
5495 Rain 2 1005 93 10000 3.1 350 01:24 25.12.2019
5496 Rain 2 1005 100 10000 2.6 350 00:46 25.12.2019
5497 Rain 2 1005 100 9000 2.6 360 00:27 25.12.2019
5498 Rain 1 1005 100 9000 2.6 360 23:55 24.12.2019
5499 Rain 2 1005 100 9000 2.6 360 23:36 24.12.2019
5500 Rain 2 1005 100 10000 2.6 10 23:18 24.12.2019
5501 Rain 2 1005 100 10000 2.6 10 22:38 24.12.2019
5502 Rain 2 1005 93 7000 2.6 20 22:20 24.12.2019
5503 Rain 2 1005 93 10000 2.6 20 21:42 24.12.2019
5504 Rain 2 1005 93 10000 2.6 20 21:22 24.12.2019
5505 Rain 2 1005 93 8000 2.6 20 20:45 24.12.2019
5506 Rain 2 1005 93 10000 2.6 20 20:24 24.12.2019
5507 Rain 2 1005 93 10000 2.6 20 19:57 24.12.2019
5508 Rain 2 1005 93 10000 2.6 20 19:38 24.12.2019
5509 Rain 2 1005 93 10000 2.1 10 19:18 24.12.2019
5510 Rain 2 1005 93 10000 2.6 10 18:42 24.12.2019
5511 Rain 2 1006 93 10000 2.1 10 18:20 24.12.2019
5512 Rain 2 1006 93 10000 2.6 20 17:50 24.12.2019
5513 Rain 2 1006 93 10000 2.1 30 17:24 24.12.2019
5514 Rain 2 1006 93 10000 2.1 30 16:59 24.12.2019
5515 Rain 2 1006 93 10000 2.1 30 16:41 24.12.2019
5516 Rain 2 1006 100 10000 2.1 30 16:22 24.12.2019
5517 Rain 2 1006 100 10000 1.5 50 15:58 24.12.2019
5518 Rain 2 1006 100 10000 1.5 50 15:38 24.12.2019
5519 Rain 2 1006 100 10000 1.5 40 15:20 24.12.2019
5520 Rain 2 1006 100 10000 1.5 30 14:59 24.12.2019
5521 Rain 2 1006 100 10000 1.5 40 14:59 24.12.2019
5522 Rain 2 1006 100 10000 1.5 30 14:41 24.12.2019
5523 Rain 2 1006 93 10000 1.5 20 14:22 24.12.2019
5524 Rain 3 1006 93 10000 1.5 20 13:57 24.12.2019
5525 Clouds 2 1006 93 10000 1 10 13:39 24.12.2019
5526 Clouds 3 1006 93 10000 1 10 13:20 24.12.2019
5527 Rain 3 1006 93 10000 1 0 12:57 24.12.2019
5528 Rain 3 1006 93 10000 1 0 12:38 24.12.2019
5529 Rain 3 1007 93 10000 1 0 12:19 24.12.2019
5530 Rain 2 1007 100 10000 1 0 11:57 24.12.2019
5531 Rain 2 1007 100 10000 1 0 11:38 24.12.2019
5532 Rain 2 1007 100 10000 1 0 11:20 24.12.2019
5533 Rain 2 1007 100 10000 1.5 60 10:57 24.12.2019
5534 Rain 2 1007 100 10000 1.5 60 10:57 24.12.2019
5535 Rain 2 1007 100 10000 1.5 60 10:38 24.12.2019
5536 Rain 2 1007 93 10000 1 0 10:20 24.12.2019
5537 Rain 2 1007 93 10000 1.5 90 09:57 24.12.2019
5538 Rain 2 1007 93 10000 1.5 90 09:39 24.12.2019
5539 Rain 2 1007 93 10000 1.5 90 09:39 24.12.2019
5540 Rain 1 1006 100 10000 1 70 09:21 24.12.2019
5541 Clouds 1 1006 100 10000 0.5 50 08:47 24.12.2019
5542 Clouds 1 1006 100 10000 1 40 08:24 24.12.2019
5543 Clouds 1 1006 100 10000 1 40 07:59 24.12.2019
5544 Rain 2 1006 100 10000 1 70 07:39 24.12.2019
5545 Rain 2 1006 100 10000 1 0 07:20 24.12.2019
5546 Rain 2 1006 93 10000 1 0 06:39 24.12.2019
5547 Rain 2 1006 93 10000 1.5 320 06:19 24.12.2019
5548 Rain 2 1006 93 10000 1.5 300 05:51 24.12.2019
5549 Rain 2 1006 93 10000 1 290 05:19 24.12.2019
5550 Clouds 2 1005 93 10000 0.5 330 04:21 24.12.2019
5551 Clouds 2 1005 100 10000 1 350 03:46 24.12.2019
5552 Clouds 2 1005 93 10000 1.29 4 02:28 24.12.2019
5553 Clouds 2 1005 93 10000 0.5 60 01:54 24.12.2019
5554 Clouds 2 1005 100 10000 0.5 0 01:26 24.12.2019
5555 Clouds 2 1005 100 10000 0.5 0 00:58 24.12.2019
5556 Clouds 2 1005 100 10000 1.1 48 00:39 24.12.2019
5557 Clouds 2 1005 100 10000 0.5 0 00:19 24.12.2019
5558 Clouds 3 1004 93 10000 0.5 0 23:42 23.12.2019
5559 Clouds 3 1004 86 10000 1 0 23:24 23.12.2019
5560 Clouds 3 1004 86 10000 1 0 22:57 23.12.2019
5561 Clouds 3 1004 86 10000 1 0 22:38 23.12.2019
5562 Clouds 2 1004 86 10000 2.1 340 22:19 23.12.2019
5563 Clouds 3 1003 86 10000 2.6 0 21:56 23.12.2019
5564 Clouds 3 1003 86 10000 2.6 0 21:37 23.12.2019
5565 Clouds 3 1003 86 10000 2.6 350 21:19 23.12.2019
5566 Clouds 3 1003 86 10000 2.6 350 20:58 23.12.2019
5567 Clouds 3 1003 93 10000 2.6 340 20:40 23.12.2019
5568 Clouds 3 1003 93 10000 1 320 20:18 23.12.2019
5569 Clouds 3 1003 86 10000 1 0 19:56 23.12.2019
5570 Clouds 3 1003 86 10000 1 0 19:38 23.12.2019
5571 Clouds 3 1002 86 10000 1.5 320 19:20 23.12.2019
5572 Clouds 3 1002 86 10000 1.5 320 18:58 23.12.2019
5573 Clouds 3 1002 86 10000 1.5 350 18:39 23.12.2019
5574 Clouds 3 1002 93 10000 2.1 360 18:20 23.12.2019
5575 Clouds 3 1002 86 10000 1.5 10 17:58 23.12.2019
5576 Clouds 3 1002 86 10000 1.5 10 17:39 23.12.2019
5577 Clouds 3 1002 93 10000 1 340 17:19 23.12.2019
5578 Clouds 3 1002 93 10000 1 0 16:57 23.12.2019
5579 Clouds 3 1002 93 10000 1 0 16:39 23.12.2019
5580 Clouds 3 1001 86 10000 2.1 340 16:18 23.12.2019
5581 Clouds 3 1001 93 10000 2.6 340 15:56 23.12.2019
5582 Clouds 3 1001 93 10000 2.6 340 15:36 23.12.2019
5583 Clouds 3 1001 100 10000 1.5 360 15:18 23.12.2019
5584 Clouds 3 1001 93 10000 1.5 350 14:55 23.12.2019
5585 Clouds 4 1001 93 10000 1.5 350 14:36 23.12.2019
5586 Clouds 4 1001 86 10000 1 0 14:18 23.12.2019
5587 Clouds 4 1000 93 10000 1 360 13:41 23.12.2019
5588 Clouds 4 1000 86 10000 1.5 330 13:23 23.12.2019
5589 Clouds 4 1000 86 10000 1.5 330 12:59 23.12.2019
5590 Clouds 4 1000 80 10000 1.5 320 12:40 23.12.2019
5591 Clouds 4 1000 93 10000 1.5 310 12:21 23.12.2019
5592 Clouds 4 1000 93 10000 1.5 290 11:56 23.12.2019
5593 Clouds 4 1000 93 10000 1.5 290 11:38 23.12.2019
5594 Clouds 4 1000 93 10000 2.1 280 11:20 23.12.2019
5595 Clouds 4 1000 93 10000 2.1 280 11:20 23.12.2019
5596 Clouds 4 1000 93 10000 2.1 280 10:55 23.12.2019
5597 Clouds 4 1000 93 10000 2.1 280 10:55 23.12.2019
5598 Clouds 4 999 93 10000 1.5 300 10:37 23.12.2019
5599 Clouds 4 999 93 10000 1.5 340 10:18 23.12.2019
5600 Clouds 4 999 100 10000 1 0 09:54 23.12.2019
5601 Clouds 3 999 100 10000 1 0 09:36 23.12.2019
5602 Clouds 3 999 100 10000 3.06 63 09:18 23.12.2019
5603 Fog 3 999 100 10000 1 0 08:41 23.12.2019
5604 Fog 3 998 100 10000 3.26 57 08:22 23.12.2019
5605 Fog 3 998 100 10000 1 10 07:49 23.12.2019
5606 Fog 3 998 100 10000 1 0 07:22 23.12.2019
5607 Fog 3 998 100 10000 1 0 06:57 23.12.2019
5608 Fog 3 998 100 10000 1 0 06:32 23.12.2019
5609 Fog 4 998 100 9000 1 0 05:56 23.12.2019
5610 Fog 4 998 100 9000 1 0 05:33 23.12.2019
5611 Fog 4 998 93 9000 1.5 80 04:40 23.12.2019
5612 Fog 4 997 100 10000 1 80 03:36 23.12.2019
5613 Fog 3 997 100 10000 1 340 02:43 23.12.2019
5614 Fog 4 997 100 10000 1 340 02:19 23.12.2019
5615 Fog 4 997 100 10000 1.45 304 01:45 23.12.2019
5616 Fog 4 997 100 10000 1.38 274 01:27 23.12.2019
5617 Fog 4 997 100 10000 1 230 00:45 23.12.2019
5618 Fog 4 997 100 10000 0.5 0 00:24 23.12.2019
5619 Fog 4 997 100 10000 0.5 0 00:24 23.12.2019
5620 Clouds 4 997 100 10000 1 0 23:40 22.12.2019
5621 Fog 4 996 100 10000 2.1 170 23:22 22.12.2019
5622 Fog 4 996 100 10000 2.1 170 22:58 22.12.2019
5623 Fog 4 996 100 10000 2.1 170 22:58 22.12.2019
5624 Clouds 4 996 100 9000 2.6 150 22:40 22.12.2019
5625 Clouds 4 996 93 10000 2.6 160 22:22 22.12.2019
5626 Clouds 4 996 93 10000 2.6 150 21:59 22.12.2019
5627 Clouds 4 996 93 10000 2.6 150 21:40 22.12.2019
5628 Clouds 4 996 93 10000 2.6 210 21:21 22.12.2019
5629 Clouds 5 996 93 10000 2.6 210 20:59 22.12.2019
5630 Clouds 5 995 100 10000 2.6 200 20:39 22.12.2019
5631 Clouds 5 995 100 9000 2.6 210 20:19 22.12.2019
5632 Clouds 5 995 100 7000 3.1 210 19:57 22.12.2019
5633 Clouds 5 995 100 7000 3.1 210 19:39 22.12.2019
5634 Clouds 5 995 100 6000 3.6 200 19:20 22.12.2019
5635 Mist 5 995 100 5000 3.1 180 18:42 22.12.2019
5636 Mist 5 995 100 5000 3.6 200 18:24 22.12.2019
5637 Mist 5 994 100 4500 3.6 200 17:57 22.12.2019
5638 Mist 5 994 100 4500 3.6 200 17:39 22.12.2019
5639 Mist 5 994 100 5000 2.6 140 17:19 22.12.2019
5640 Mist 5 994 100 5000 2.6 140 16:57 22.12.2019
5641 Mist 5 994 100 5000 2.6 140 16:57 22.12.2019
5642 Mist 5 994 100 5000 3.1 150 16:39 22.12.2019
5643 Mist 5 994 100 4500 3.1 170 16:21 22.12.2019
5644 Mist 5 994 100 4500 3.1 170 15:56 22.12.2019
5645 Mist 5 994 100 4500 3.1 170 15:38 22.12.2019
5646 Clouds 5 994 93 6000 2.6 170 15:20 22.12.2019
5647 Mist 5 993 100 4000 3.1 180 14:55 22.12.2019
5648 Rain 5 993 100 4000 3.1 180 14:37 22.12.2019
5649 Drizzle 5 993 100 1500 3.6 180 14:18 22.12.2019
5650 Drizzle 5 993 100 1500 3.6 180 14:18 22.12.2019
5651 Mist 5 993 100 1400 3.6 190 13:55 22.12.2019
5652 Mist 5 993 100 1400 3.6 190 13:37 22.12.2019
5653 Drizzle 5 993 93 1800 2.6 170 13:19 22.12.2019
5654 Drizzle 5 993 100 3500 3.6 160 12:56 22.12.2019
5655 Drizzle 4 993 100 3500 3.6 160 12:37 22.12.2019
5656 Drizzle 4 993 100 2000 3.6 150 12:18 22.12.2019
5657 Drizzle 4 992 100 2000 3.6 130 11:56 22.12.2019
5658 Drizzle 4 992 100 2000 3.6 130 11:56 22.12.2019
5659 Drizzle 4 992 100 2000 3.6 130 11:37 22.12.2019
5660 Drizzle 4 992 100 2500 3.6 140 11:18 22.12.2019
5661 Drizzle 4 992 100 3500 3.6 130 10:55 22.12.2019
5662 Drizzle 4 992 100 3500 3.6 130 10:36 22.12.2019
5663 Drizzle 4 992 93 2000 4.6 130 10:18 22.12.2019
5664 Drizzle 4 992 93 2300 3.6 130 09:56 22.12.2019
5665 Drizzle 4 992 93 2300 3.6 130 09:37 22.12.2019
5666 Drizzle 4 992 93 2000 4.1 120 09:19 22.12.2019
5667 Drizzle 3 992 100 1800 4.1 120 08:39 22.12.2019
5668 Drizzle 3 992 100 2500 3.6 110 08:21 22.12.2019
5669 Drizzle 3 992 100 2800 3.6 110 07:40 22.12.2019
5670 Drizzle 3 992 100 7000 3.6 120 07:21 22.12.2019
5671 Drizzle 3 992 100 7000 3.6 100 06:42 22.12.2019
5672 Drizzle 3 992 100 8000 3.1 100 06:21 22.12.2019
5673 Clouds 3 992 93 10000 4.1 120 05:29 22.12.2019
5674 Clouds 3 992 93 8000 3.6 110 04:45 22.12.2019
5675 Clouds 3 992 93 6000 3.6 110 04:22 22.12.2019
5676 Drizzle 3 993 100 4000 3.6 100 02:43 22.12.2019
5677 Drizzle 3 993 100 4000 3.6 100 02:43 22.12.2019
5678 Drizzle 3 993 100 4000 3.6 100 02:43 22.12.2019
5679 Clouds 3 993 100 8000 4.6 110 01:57 22.12.2019
5680 Clouds 3 993 100 5000 4.6 110 01:31 22.12.2019
5681 Clouds 3 993 100 5000 4.6 100 00:48 22.12.2019
5682 Clouds 3 994 100 7000 4.6 120 00:28 22.12.2019
5683 Clouds 3 994 100 8000 4.6 110 23:57 21.12.2019
5684 Clouds 3 994 100 8000 4.6 110 23:39 21.12.2019
5685 Clouds 3 993 100 7000 5.1 110 23:20 21.12.2019
5686 Clouds 3 994 100 8000 4.6 110 22:46 21.12.2019
5687 Clouds 3 994 100 8000 5.1 110 22:20 21.12.2019
5688 Clouds 3 994 100 8000 5.1 110 21:58 21.12.2019
5689 Clouds 3 994 100 8000 4.6 100 21:38 21.12.2019
5690 Clouds 3 994 100 7000 5.1 120 21:20 21.12.2019
5691 Clouds 3 994 100 7000 3.1 120 20:59 21.12.2019
5692 Clouds 3 994 100 7000 3.1 120 20:40 21.12.2019
5693 Clouds 3 994 100 6000 4.1 130 20:22 21.12.2019
5694 Mist 3 994 100 3500 4.1 120 19:58 21.12.2019
5695 Mist 3 994 100 3500 4.1 120 19:40 21.12.2019
5696 Mist 3 994 100 4000 3.6 110 19:19 21.12.2019
5697 Mist 3 995 100 4500 3.6 120 18:55 21.12.2019
5698 Mist 2 995 100 4500 3.6 120 18:37 21.12.2019
5699 Drizzle 2 995 100 6000 4.6 130 18:19 21.12.2019
5700 Drizzle 2 995 100 5000 4.1 130 17:43 21.12.2019
5701 Drizzle 2 995 100 5000 4.1 130 17:25 21.12.2019
5702 Drizzle 2 995 100 5000 4.1 130 16:59 21.12.2019
5703 Drizzle 2 995 100 5000 4.1 130 16:41 21.12.2019
5704 Drizzle 2 995 100 5000 4.1 130 16:41 21.12.2019
5705 Drizzle 2 995 100 5000 4.6 130 16:19 21.12.2019
5706 Drizzle 2 995 100 5000 4.6 130 16:19 21.12.2019
5707 Drizzle 2 995 100 6000 4.1 130 15:57 21.12.2019
5708 Drizzle 2 995 100 6000 4.1 130 15:38 21.12.2019
5709 Drizzle 2 995 100 6000 4.1 130 15:38 21.12.2019
5710 Drizzle 2 995 100 6000 4.1 130 15:38 21.12.2019
5711 Mist 2 995 100 4500 4.1 130 15:19 21.12.2019
5712 Mist 2 995 100 4500 4.1 130 14:57 21.12.2019
5713 Mist 2 995 100 2500 4.6 120 14:38 21.12.2019
5714 Mist 2 996 100 1900 4.6 130 14:18 21.12.2019
5715 Mist 2 996 100 2500 4.6 120 13:55 21.12.2019
5716 Mist 2 996 100 2500 4.6 120 13:37 21.12.2019
5717 Mist 2 996 100 2500 5.1 130 13:18 21.12.2019
5718 Clouds 2 996 100 10000 4.6 130 12:54 21.12.2019
5719 Clouds 2 996 100 10000 4.6 130 12:36 21.12.2019
5720 Clouds 3 996 100 10000 5.7 130 12:18 21.12.2019
5721 Clouds 3 996 93 10000 5.1 120 11:42 21.12.2019
5722 Clouds 3 997 93 10000 5.1 110 11:24 21.12.2019
5723 Clouds 3 997 93 10000 4.6 120 10:56 21.12.2019
5724 Clouds 3 997 93 10000 4.6 120 10:37 21.12.2019
5725 Clouds 3 997 93 10000 4.6 120 10:19 21.12.2019
5726 Clouds 3 997 93 10000 4.6 120 10:19 21.12.2019
5727 Clouds 3 997 93 10000 4.6 110 09:42 21.12.2019
5728 Clouds 3 997 93 10000 5.7 110 09:21 21.12.2019
5729 Clouds 3 997 93 10000 5.7 110 08:57 21.12.2019
5730 Clouds 3 997 93 10000 5.7 110 08:37 21.12.2019
5731 Clouds 3 997 93 10000 5.7 110 08:18 21.12.2019
5732 Clouds 3 998 93 10000 4.1 110 07:41 21.12.2019
5733 Clouds 3 998 93 10000 4.1 110 07:22 21.12.2019
5734 Clouds 3 998 93 10000 4.6 120 06:44 21.12.2019
5735 Clouds 3 998 93 10000 4.1 110 06:25 21.12.2019
5736 Clouds 3 999 100 10000 4.6 120 05:47 21.12.2019
5737 Clouds 2 999 100 10000 4.1 120 04:58 21.12.2019
5738 Clouds 3 1000 93 10000 4.1 120 03:57 21.12.2019
5739 Clouds 3 1000 93 10000 4.6 120 02:52 21.12.2019
5740 Clouds 3 1000 93 10000 5.1 120 01:59 21.12.2019
5741 Clouds 3 1001 93 10000 5.1 120 01:28 21.12.2019
5742 Clouds 3 1001 93 10000 4.1 110 00:53 21.12.2019
5743 Clouds 3 1001 93 10000 4.1 110 00:33 21.12.2019
5744 Clouds 3 1002 93 10000 3.6 110 23:59 20.12.2019
5745 Clouds 3 1002 93 10000 3.6 110 23:37 20.12.2019
5746 Clouds 3 1002 93 10000 5.1 110 23:18 20.12.2019
5747 Clouds 3 1002 93 10000 5.7 110 22:40 20.12.2019
5748 Clouds 3 1003 93 10000 3.6 110 22:21 20.12.2019
5749 Clouds 3 1003 93 10000 3.6 110 21:58 20.12.2019
5750 Clouds 3 1003 93 10000 3.6 110 21:39 20.12.2019
5751 Clouds 3 1003 93 10000 4.6 110 21:20 20.12.2019
5752 Clouds 3 1003 100 10000 4.1 120 20:41 20.12.2019
5753 Clouds 3 1004 100 10000 4.1 100 20:20 20.12.2019
5754 Clouds 3 1004 100 10000 4.1 100 19:59 20.12.2019
5755 Clouds 3 1004 100 10000 4.1 120 19:40 20.12.2019
5756 Clouds 3 1004 100 9000 5.1 120 19:19 20.12.2019
5757 Fog 3 1004 100 600 4.1 130 18:54 20.12.2019
5758 Fog 3 1004 100 600 4.1 130 18:36 20.12.2019
5759 Mist 3 1005 100 3500 3.6 120 18:18 20.12.2019
5760 Rain 3 1005 93 10000 3.6 120 17:42 20.12.2019
5761 Rain 3 1005 93 10000 3.6 120 17:21 20.12.2019
5762 Rain 3 1006 93 10000 3.6 120 16:59 20.12.2019
5763 Clouds 3 1006 93 10000 4.6 130 16:39 20.12.2019
5764 Clouds 3 1006 93 10000 4.6 130 16:20 20.12.2019
5765 Clouds 3 1006 93 10000 4.6 130 15:56 20.12.2019
5766 Clouds 3 1007 93 10000 5.1 140 15:38 20.12.2019
5767 Clouds 3 1007 93 10000 5.1 140 15:19 20.12.2019
5768 Clouds 3 1007 93 10000 4.6 140 14:55 20.12.2019
5769 Clouds 3 1007 93 10000 4.6 140 14:37 20.12.2019
5770 Clouds 3 1007 93 10000 4.6 140 14:18 20.12.2019
5771 Clouds 3 1008 86 10000 5.1 160 13:41 20.12.2019
5772 Clouds 3 1008 86 10000 5.1 160 13:20 20.12.2019
5773 Clouds 3 1008 86 10000 4.6 160 12:58 20.12.2019
5774 Clouds 3 1009 93 10000 4.6 160 12:38 20.12.2019
5775 Clouds 3 1009 93 10000 4.6 160 12:19 20.12.2019
5776 Clouds 3 1009 93 10000 4.6 160 11:59 20.12.2019
5777 Clouds 3 1009 93 10000 4.6 160 11:59 20.12.2019
5778 Clouds 3 1010 93 10000 4.6 160 11:39 20.12.2019
5779 Clouds 3 1010 93 10000 4.6 160 11:19 20.12.2019
5780 Clouds 3 1010 93 10000 4.6 160 10:57 20.12.2019
5781 Clouds 3 1010 93 10000 5.1 160 10:39 20.12.2019
5782 Clouds 3 1010 93 10000 5.1 160 10:20 20.12.2019
5783 Clouds 3 1011 93 10000 4.6 180 09:44 20.12.2019
5784 Clouds 3 1011 93 10000 4.6 180 09:44 20.12.2019
5785 Clouds 3 1011 93 10000 5.1 160 09:22 20.12.2019
5786 Clouds 3 1011 93 10000 4.6 160 08:59 20.12.2019
5787 Clouds 3 1011 93 10000 4.6 160 08:59 20.12.2019
5788 Clouds 3 1011 93 10000 5.1 160 08:41 20.12.2019
5789 Clouds 3 1011 93 10000 5.1 160 08:22 20.12.2019
5790 Clouds 3 1011 86 10000 4.6 160 07:58 20.12.2019
5791 Clouds 3 1011 93 10000 5.1 160 07:39 20.12.2019
5792 Clouds 3 1011 93 10000 5.1 160 07:18 20.12.2019
5793 Clouds 3 1012 93 10000 5.1 170 06:48 20.12.2019
5794 Clouds 3 1012 93 10000 5.1 170 06:30 20.12.2019
5795 Rain 3 1013 100 10000 4.6 170 05:49 20.12.2019
5796 Drizzle 3 1013 100 8000 4.1 160 05:25 20.12.2019
5797 Rain 2 1014 100 10000 3.6 140 03:50 20.12.2019
5798 Rain 2 1015 100 10000 2.6 120 03:29 20.12.2019
5799 Clouds 1 1016 93 10000 2.1 160 02:38 20.12.2019
5800 Clouds 1 1016 100 10000 2.6 180 01:44 20.12.2019
5801 Clouds 0 1016 88 10000 2.6 140 00:59 20.12.2019
5802 Clouds 0 1016 88 10000 1 0 00:40 20.12.2019
5803 Clouds 0 1017 100 10000 1.5 120 23:59 19.12.2019
5804 Clouds -1 1017 100 10000 1 210 23:40 19.12.2019
5805 Clouds -1 1017 100 10000 1 210 23:40 19.12.2019
5806 Clouds -1 1017 100 10000 1 210 23:22 19.12.2019
5807 Clouds -1 1017 92 10000 1.5 200 22:41 19.12.2019
5808 Clouds -1 1018 100 10000 6.46 240 22:23 19.12.2019
5809 Clouds -1 1018 100 10000 1 180 21:59 19.12.2019
5810 Clouds -1 1018 100 10000 1 180 21:59 19.12.2019
5811 Clouds -1 1018 100 10000 1.5 210 21:41 19.12.2019
5812 Clouds -1 1018 100 10000 1.5 210 21:20 19.12.2019
5813 Clouds -1 1018 100 10000 1.5 230 20:58 19.12.2019
5814 Clouds -1 1018 100 10000 2.6 230 20:38 19.12.2019
5815 Clouds -1 1018 100 10000 2.6 230 20:20 19.12.2019
5816 Clouds -1 1018 100 10000 2.6 230 20:20 19.12.2019
5817 Clouds -1 1018 100 10000 2.6 230 19:59 19.12.2019
5818 Clouds -1 1018 100 10000 2.6 230 19:40 19.12.2019
5819 Clouds -1 1018 100 10000 2.6 230 19:40 19.12.2019
5820 Clouds -1 1018 100 10000 2.6 230 19:20 19.12.2019
5821 Clouds -1 1018 92 10000 2.1 230 18:59 19.12.2019
5822 Clouds -1 1018 100 10000 2.1 240 18:40 19.12.2019
5823 Clouds -1 1018 100 10000 2.1 240 18:20 19.12.2019
5824 Clouds -1 1018 77 10000 3.1 240 17:56 19.12.2019
5825 Clouds -1 1018 100 10000 2.6 240 17:38 19.12.2019
5826 Clouds -1 1018 100 10000 2.6 240 17:18 19.12.2019
5827 Clouds -1 1018 92 10000 2.1 260 16:56 19.12.2019
5828 Clouds 0 1017 100 10000 3.1 240 16:37 19.12.2019
5829 Clouds 0 1017 100 10000 3.1 240 16:37 19.12.2019
5830 Clouds 0 1017 100 10000 3.1 240 16:19 19.12.2019
5831 Clouds 0 1017 100 10000 2.6 240 15:57 19.12.2019
5832 Clouds 0 1017 76 10000 3.1 250 15:37 19.12.2019
5833 Clouds 0 1017 76 10000 3.1 250 15:19 19.12.2019
5834 Clouds 0 1017 76 10000 3.1 250 15:19 19.12.2019
5835 Clouds 0 1017 76 10000 2.6 250 14:54 19.12.2019
5836 Clouds 1 1016 86 10000 3.6 280 14:36 19.12.2019
5837 Clouds 1 1016 86 10000 4.6 280 14:18 19.12.2019
5838 Clouds 1 1016 80 10000 5.1 270 13:38 19.12.2019
5839 Clouds 2 1016 80 10000 5.1 270 13:20 19.12.2019
5840 Clouds 2 1016 80 10000 6.7 280 12:57 19.12.2019
5841 Clouds 2 1015 80 10000 5.7 270 12:39 19.12.2019
5842 Clouds 2 1015 80 10000 5.7 270 12:19 19.12.2019
5843 Clouds 2 1015 86 10000 5.7 280 11:58 19.12.2019
5844 Clouds 2 1015 86 10000 5.7 280 11:58 19.12.2019
5845 Clouds 1 1015 86 10000 5.1 270 11:40 19.12.2019
5846 Clouds 1 1015 86 10000 5.1 270 11:18 19.12.2019
5847 Clouds 1 1014 86 10000 4.6 270 10:58 19.12.2019
5848 Clouds 1 1013 86 10000 7.2 280 10:38 19.12.2019
5849 Clouds 1 1013 86 10000 7.2 280 10:20 19.12.2019
5850 Clouds 1 1013 86 10000 6.2 280 09:55 19.12.2019
5851 Clouds 1 1012 86 10000 6.2 280 09:37 19.12.2019
5852 Clouds 1 1012 86 10000 6.2 280 09:18 19.12.2019
5853 Clouds 1 1011 86 10000 6.2 280 08:42 19.12.2019
5854 Clouds 1 1011 86 10000 6.2 280 08:20 19.12.2019
5855 Clouds 1 1011 86 10000 6.2 280 08:20 19.12.2019
5856 Clouds 1 1011 86 10000 6.2 280 08:20 19.12.2019
5857 Clouds 1 1011 86 10000 6.2 280 08:20 19.12.2019
5858 Clouds 1 1010 86 10000 6.2 280 07:59 19.12.2019
5859 Clouds 1 1010 86 10000 7.2 280 07:38 19.12.2019
5860 Clouds 1 1010 86 10000 7.2 280 07:20 19.12.2019
5861 Clouds 1 1009 86 10000 6.7 270 06:52 19.12.2019
5862 Clouds 1 1009 86 10000 6.7 270 06:52 19.12.2019
5863 Clouds 1 1009 86 10000 7.2 260 06:32 19.12.2019
5864 Clouds 1 1008 86 10000 6.7 270 05:57 19.12.2019
5865 Clouds 1 1008 86 10000 7.2 280 05:39 19.12.2019
5866 Clouds 1 1007 86 10000 7.2 290 04:56 19.12.2019
5867 Clouds 1 1005 86 10000 7.2 290 03:45 19.12.2019
5868 Clouds 1 1004 80 10000 7.7 290 02:25 19.12.2019
5869 Clouds 2 1003 80 10000 8.2 290 01:24 19.12.2019
5870 Clouds 2 1002 79 10000 6.2 290 00:44 19.12.2019
5871 Clouds 2 1001 79 10000 8.2 290 00:25 19.12.2019
5872 Rain 2 1001 93 10000 7.2 290 23:58 18.12.2019
5873 Clouds 2 1000 79 10000 8.2 290 23:38 18.12.2019
5874 Clouds 2 1000 81 10000 8.2 290 23:19 18.12.2019
5875 Clouds 2 999 93 10000 8.7 280 22:56 18.12.2019
5876 Drizzle 2 998 93 10000 8.2 280 22:37 18.12.2019
5877 Drizzle 2 998 93 10000 8.2 280 22:19 18.12.2019
5878 Drizzle 2 997 93 10000 9.3 280 21:56 18.12.2019
5879 Drizzle 2 996 93 10000 9.3 280 21:38 18.12.2019
5880 Drizzle 2 996 93 10000 9.3 280 21:19 18.12.2019
5881 Drizzle 2 995 93 10000 9.8 290 20:55 18.12.2019
5882 Drizzle 2 995 93 10000 9.8 290 20:55 18.12.2019
5883 Drizzle 2 994 93 10000 10.3 290 20:37 18.12.2019
5884 Drizzle 2 994 93 10000 10.3 290 20:19 18.12.2019
5885 Rain 2 992 93 10000 10.3 290 19:55 18.12.2019
5886 Rain 2 991 87 10000 10.3 290 19:37 18.12.2019
5887 Rain 2 989 87 9000 10.3 290 19:18 18.12.2019
5888 Clouds 2 987 87 9000 10.3 290 18:44 18.12.2019
5889 Clouds 1 987 87 9000 10.3 290 18:25 18.12.2019
5890 Rain 1 986 87 10000 8.7 300 17:57 18.12.2019
5891 Rain 1 984 93 10000 9.8 300 17:38 18.12.2019
5892 Rain 2 985 87 0 2.68 296 17:19 18.12.2019
5893 Rain 3 982 93 10000 8.7 280 16:54 18.12.2019
5894 Rain 3 982 93 10000 8.7 280 16:36 18.12.2019
5895 Rain 4 982 87 8000 6.2 260 16:18 18.12.2019
5896 Rain 5 982 100 5000 5.7 230 15:55 18.12.2019
5897 Rain 5 982 100 5000 5.7 230 15:36 18.12.2019
5898 Rain 6 982 93 10000 7.2 210 15:18 18.12.2019
5899 Rain 6 982 93 10000 8.7 210 14:40 18.12.2019
5900 Rain 6 983 93 3500 6.7 210 14:20 18.12.2019
5901 Rain 6 984 100 2500 6.2 190 13:57 18.12.2019
5902 Rain 6 984 100 2500 6.2 190 13:57 18.12.2019
5903 Rain 6 984 100 2500 6.2 190 13:37 18.12.2019
5904 Drizzle 6 985 93 2500 4.1 150 13:19 18.12.2019
5905 Drizzle 6 985 93 2500 4.1 150 12:57 18.12.2019
5906 Rain 5 986 93 5000 3.1 120 12:38 18.12.2019
5907 Rain 5 987 93 5000 4.6 100 12:19 18.12.2019
5908 Rain 5 989 93 4500 4.6 130 11:55 18.12.2019
5909 Rain 5 989 93 4500 4.6 130 11:37 18.12.2019
5910 Rain 5 989 93 4500 4.6 130 11:37 18.12.2019
5911 Rain 5 989 93 4000 6.2 120 11:18 18.12.2019
5912 Rain 4 990 100 5000 6.2 120 10:55 18.12.2019
5913 Rain 4 990 100 5000 6.2 120 10:37 18.12.2019
5914 Rain 4 990 100 5000 6.2 120 10:37 18.12.2019
5915 Rain 4 992 100 4000 6.2 120 10:18 18.12.2019
5916 Drizzle 4 993 100 3500 5.7 120 09:43 18.12.2019
5917 Drizzle 4 994 100 3500 5.7 110 09:18 18.12.2019
5918 Drizzle 4 994 100 3500 5.7 110 09:18 18.12.2019
5919 Rain 3 995 100 10000 6.2 100 08:40 18.12.2019
5920 Rain 3 996 100 10000 5.7 100 08:21 18.12.2019
5921 Rain 3 997 100 6000 4.6 100 07:43 18.12.2019
5922 Rain 3 998 100 6000 4.1 110 07:22 18.12.2019
5923 Rain 3 999 93 8000 3.6 100 06:55 18.12.2019
5924 Rain 3 999 100 10000 4.1 110 06:27 18.12.2019
5925 Rain 3 1000 93 8000 3.1 100 05:44 18.12.2019
5926 Rain 4 1001 93 8000 2.6 110 04:46 18.12.2019
5927 Rain 4 1003 100 10000 2.6 180 02:51 18.12.2019
5928 Rain 4 1003 100 10000 3.6 190 02:31 18.12.2019
5929 Clouds 4 1003 100 10000 2.6 180 01:57 18.12.2019
5930 Clouds 4 1003 100 10000 2.6 180 01:37 18.12.2019
5931 Clouds 3 1003 100 10000 3.6 180 01:19 18.12.2019
5932 Clouds 3 1004 93 10000 2.6 150 00:40 18.12.2019
5933 Clouds 3 1004 100 10000 2.1 130 00:21 18.12.2019
5934 Clouds 2 1004 93 10000 2.1 120 23:54 17.12.2019
5935 Clouds 2 1004 93 10000 2.1 120 23:36 17.12.2019
5936 Clouds 3 1004 93 10000 1.5 180 23:18 17.12.2019
5937 Clouds 3 1005 86 10000 2.1 190 22:54 17.12.2019
5938 Clouds 3 1005 86 10000 2.1 190 22:36 17.12.2019
5939 Clouds 3 1005 93 10000 2.6 190 22:18 17.12.2019
5940 Clouds 3 1005 93 10000 2.6 190 22:18 17.12.2019
5941 Clouds 3 1005 86 10000 2.6 190 21:55 17.12.2019
5942 Clouds 3 1005 86 10000 2.6 190 21:36 17.12.2019
5943 Clouds 3 1005 93 10000 2.6 180 21:18 17.12.2019
5944 Clouds 3 1005 86 10000 2.6 170 20:55 17.12.2019
5945 Clouds 3 1005 86 10000 2.6 170 20:36 17.12.2019
5946 Clouds 3 1005 86 10000 2.1 200 20:18 17.12.2019
5947 Clouds 2 1004 93 10000 2.6 230 19:41 17.12.2019
5948 Clouds 3 1004 86 10000 2.1 240 19:20 17.12.2019
5949 Clouds 3 1004 86 10000 2.1 250 18:58 17.12.2019
5950 Clouds 3 1004 86 10000 2.1 250 18:40 17.12.2019
5951 Clouds 3 1004 80 10000 4.6 250 18:21 17.12.2019
5952 Clouds 3 1004 86 10000 3.1 230 17:56 17.12.2019
5953 Clouds 3 1004 86 10000 3.1 230 17:38 17.12.2019
5954 Clouds 3 1004 93 10000 2.6 230 17:18 17.12.2019
5955 Clouds 3 1004 93 10000 2.6 240 16:56 17.12.2019
5956 Clouds 3 1004 93 10000 2.6 240 16:37 17.12.2019
5957 Clouds 3 1004 93 10000 2.6 240 16:37 17.12.2019
5958 Clouds 3 1004 86 10000 2.6 240 16:18 17.12.2019
5959 Clouds 3 1004 86 10000 2.6 230 15:54 17.12.2019
5960 Clouds 3 1004 86 10000 2.6 230 15:36 17.12.2019
5961 Clouds 3 1004 86 10000 3.6 230 15:18 17.12.2019
5962 Clouds 3 1004 86 10000 4.1 240 14:54 17.12.2019
5963 Clouds 3 1004 86 10000 4.1 240 14:36 17.12.2019
5964 Clouds 3 1003 86 10000 4.1 240 14:18 17.12.2019
5965 Clouds 3 1003 86 10000 4.1 250 13:41 17.12.2019
5966 Clouds 3 1003 86 10000 2.6 250 13:19 17.12.2019
5967 Clouds 3 1003 86 10000 3.6 260 12:59 17.12.2019
5968 Clouds 3 1003 86 10000 3.6 260 12:59 17.12.2019
5969 Clouds 3 1003 86 10000 3.6 260 12:39 17.12.2019
5970 Clouds 3 1002 86 10000 3.6 250 12:18 17.12.2019
5971 Clouds 3 1002 86 10000 3.6 250 12:18 17.12.2019
5972 Clouds 3 1002 86 10000 3.6 250 11:58 17.12.2019
5973 Clouds 3 1002 86 10000 6.2 250 11:37 17.12.2019
5974 Clouds 3 1002 86 10000 4.1 250 11:18 17.12.2019
5975 Clouds 3 1002 86 10000 4.6 250 10:57 17.12.2019
5976 Clouds 3 1002 86 10000 4.6 250 10:39 17.12.2019
5977 Clouds 3 1002 86 10000 4.6 250 10:39 17.12.2019
5978 Clouds 3 1001 93 10000 3.1 260 10:19 17.12.2019
5979 Clouds 3 1001 86 10000 4.6 270 09:56 17.12.2019
5980 Clouds 3 1001 86 10000 4.6 270 09:38 17.12.2019
5981 Clouds 3 1001 86 10000 4.6 270 09:38 17.12.2019
5982 Clouds 3 1001 93 10000 4.1 250 09:18 17.12.2019
5983 Clouds 3 1000 93 10000 4.1 260 08:54 17.12.2019
5984 Clouds 3 1000 93 10000 4.1 260 08:36 17.12.2019
5985 Clouds 3 999 86 10000 5.7 260 08:18 17.12.2019
5986 Clouds 3 999 93 10000 5.7 250 07:42 17.12.2019
5987 Clouds 3 998 86 10000 5.7 260 07:22 17.12.2019
5988 Clouds 3 998 93 10000 5.1 250 06:50 17.12.2019
5989 Clouds 4 998 93 10000 5.1 250 06:32 17.12.2019
5990 Drizzle 4 997 93 10000 5.7 220 05:50 17.12.2019
5991 Drizzle 4 997 93 10000 5.7 220 05:31 17.12.2019
5992 Clouds 4 997 86 10000 5.1 210 04:00 17.12.2019
5993 Rain 4 997 93 10000 7.2 210 02:26 17.12.2019
5994 Rain 4 998 93 8000 8.2 190 01:22 17.12.2019
5995 Rain 4 998 93 9000 8.2 200 00:47 17.12.2019
5996 Rain 4 999 93 10000 7.2 180 00:22 17.12.2019
5997 Rain 4 999 93 10000 5.1 190 23:58 16.12.2019
5998 Rain 4 999 93 10000 5.1 190 23:40 16.12.2019
5999 Clouds 3 999 93 10000 5.1 190 23:18 16.12.2019
6000 Rain 3 1000 93 10000 3.6 170 22:54 16.12.2019
6001 Rain 2 1000 93 10000 3.6 170 22:36 16.12.2019
6002 Rain 2 1000 100 10000 3.1 180 22:18 16.12.2019
6003 Rain 2 1000 93 10000 2.1 160 21:54 16.12.2019
6004 Rain 2 1000 93 10000 2.1 160 21:36 16.12.2019
6005 Rain 2 1000 93 10000 2.1 160 21:36 16.12.2019
6006 Rain 2 1001 93 10000 3.1 190 21:18 16.12.2019
6007 Clouds 2 1001 93 10000 3.6 190 20:55 16.12.2019
6008 Clouds 2 1001 93 10000 3.6 190 20:37 16.12.2019
6009 Rain 2 1001 93 10000 4.1 200 20:18 16.12.2019
6010 Rain 2 1001 93 10000 4.1 200 20:18 16.12.2019
6011 Clouds 2 1001 93 10000 3.6 230 19:54 16.12.2019
6012 Clouds 2 1001 93 10000 3.6 230 19:36 16.12.2019
6013 Rain 2 1001 86 10000 5.1 230 19:18 16.12.2019
6014 Clouds 3 1001 86 10000 4.6 230 18:42 16.12.2019
6015 Clouds 3 1001 93 10000 4.6 220 18:20 16.12.2019
6016 Clouds 3 1001 93 10000 3.6 210 17:59 16.12.2019
6017 Clouds 3 1001 93 10000 3.6 210 17:41 16.12.2019
6018 Drizzle 3 1000 93 9000 3.1 220 17:22 16.12.2019
6019 Clouds 3 1000 93 10000 3.1 230 16:58 16.12.2019
6020 Clouds 3 1000 93 10000 3.1 230 16:39 16.12.2019
6021 Clouds 3 1000 93 10000 4.1 230 16:20 16.12.2019
6022 Clouds 3 1000 93 10000 4.6 220 15:59 16.12.2019
6023 Clouds 3 1000 93 10000 4.6 220 15:39 16.12.2019
6024 Clouds 3 1000 93 10000 4.6 220 15:39 16.12.2019
6025 Clouds 3 999 100 10000 3.1 230 15:21 16.12.2019
6026 Clouds 3 999 93 10000 2.6 240 14:57 16.12.2019
6027 Clouds 3 999 93 10000 2.6 240 14:38 16.12.2019
6028 Clouds 2 999 93 10000 3.1 250 14:19 16.12.2019
6029 Clouds 3 998 93 10000 2.6 250 13:57 16.12.2019
6030 Clouds 3 998 93 10000 2.6 250 13:38 16.12.2019
6031 Clouds 3 998 93 10000 2.6 250 13:20 16.12.2019
6032 Clouds 3 997 100 10000 2.1 260 12:58 16.12.2019
6033 Clouds 3 997 100 10000 2.1 260 12:39 16.12.2019
6034 Clouds 2 997 100 10000 2.1 250 12:19 16.12.2019
6035 Mist 2 996 100 5000 2.1 260 11:59 16.12.2019
6036 Mist 2 996 100 5000 2.1 260 11:40 16.12.2019
6037 Rain 2 996 100 7000 1.5 300 11:20 16.12.2019
6038 Drizzle 2 995 100 7000 2.1 320 10:57 16.12.2019
6039 Drizzle 2 995 100 7000 2.1 320 10:39 16.12.2019
6040 Drizzle 2 995 100 7000 2.1 320 10:39 16.12.2019
6041 Drizzle 2 995 100 7000 2.6 340 10:19 16.12.2019
6042 Fog 2 994 100 7000 2.1 340 09:45 16.12.2019
6043 Fog 2 994 100 7000 2.1 340 09:27 16.12.2019
6044 Drizzle 2 994 100 7000 1.5 360 09:27 16.12.2019
6045 Drizzle 2 993 100 8000 1 0 08:56 16.12.2019
6046 Drizzle 2 993 100 8000 1 0 08:37 16.12.2019
6047 Drizzle 2 993 100 5000 1.5 60 08:18 16.12.2019
6048 Drizzle 2 993 100 5000 1.5 60 08:18 16.12.2019
6049 Drizzle 2 992 100 7000 2.1 40 07:44 16.12.2019
6050 Drizzle 2 992 100 10000 1.5 40 07:22 16.12.2019
6051 Clouds 2 992 100 10000 1.5 70 06:45 16.12.2019
6052 Clouds 2 991 100 10000 2.1 60 06:25 16.12.2019
6053 Clouds 3 992 100 10000 1.5 70 05:50 16.12.2019
6054 Clouds 3 992 93 10000 2.1 120 05:31 16.12.2019
6055 Rain 3 992 93 10000 4.1 160 04:22 16.12.2019
6056 Drizzle 3 992 93 10000 3.1 140 02:19 16.12.2019
6057 Clouds 3 992 93 10000 3.1 160 01:44 16.12.2019
6058 Clouds 4 992 93 10000 3.6 160 00:42 16.12.2019
6059 Drizzle 4 992 100 10000 3.6 150 00:24 16.12.2019
6060 Drizzle 3 992 100 10000 3.6 150 23:58 15.12.2019
6061 Drizzle 3 993 100 10000 4.1 150 23:38 15.12.2019
6062 Rain 3 993 100 10000 3.6 160 23:20 15.12.2019
6063 Drizzle 3 993 100 10000 4.1 150 22:56 15.12.2019
6064 Drizzle 3 993 100 10000 4.1 150 22:37 15.12.2019
6065 Drizzle 3 993 100 2800 4.6 150 22:18 15.12.2019
6066 Drizzle 3 993 100 2800 4.6 150 22:18 15.12.2019
6067 Drizzle 3 993 93 5000 4.1 140 21:55 15.12.2019
6068 Drizzle 3 993 93 5000 4.1 140 21:37 15.12.2019
6069 Drizzle 3 993 93 6000 4.1 150 21:19 15.12.2019
6070 Drizzle 3 993 93 7000 4.6 150 20:55 15.12.2019
6071 Drizzle 3 993 93 7000 4.6 150 20:37 15.12.2019
6072 Drizzle 3 994 93 10000 4.6 160 20:18 15.12.2019
6073 Drizzle 3 994 93 10000 4.6 150 19:56 15.12.2019
6074 Drizzle 3 994 93 10000 4.6 150 19:38 15.12.2019
6075 Clouds 2 994 100 10000 3.6 130 19:18 15.12.2019
6076 Rain 2 994 100 10000 3.6 130 18:55 15.12.2019
6077 Drizzle 2 994 100 9000 4.6 150 18:37 15.12.2019
6078 Drizzle 2 994 100 9000 4.6 150 18:18 15.12.2019
6079 Drizzle 2 994 100 10000 4.1 140 17:56 15.12.2019
6080 Clouds 2 995 100 10000 3.6 130 17:36 15.12.2019
6081 Clouds 2 995 100 10000 3.6 130 17:18 15.12.2019
6082 Clouds 2 995 100 10000 3.6 130 17:18 15.12.2019
6083 Clouds 2 995 100 10000 3.6 130 17:18 15.12.2019
6084 Clouds 2 995 100 10000 3.1 130 16:43 15.12.2019
6085 Clouds 2 995 93 10000 2.6 120 16:23 15.12.2019
6086 Drizzle 2 995 93 10000 3.1 130 15:58 15.12.2019
6087 Drizzle 2 995 93 10000 3.1 130 15:39 15.12.2019
6088 Drizzle 2 995 93 8000 3.1 130 15:20 15.12.2019
6089 Drizzle 2 995 93 8000 3.1 130 14:57 15.12.2019
6090 Drizzle 2 995 93 7000 3.1 120 14:38 15.12.2019
6091 Rain 2 995 100 9000 4.1 130 14:19 15.12.2019
6092 Rain 2 995 100 9000 4.1 130 13:59 15.12.2019
6093 Rain 2 995 93 10000 3.6 120 13:39 15.12.2019
6094 Rain 2 995 100 10000 4.1 120 13:20 15.12.2019
6095 Rain 2 995 93 10000 4.6 130 12:57 15.12.2019
6096 Rain 2 995 93 10000 4.6 130 12:39 15.12.2019
6097 Rain 2 995 93 10000 4.1 130 12:21 15.12.2019
6098 Drizzle 2 995 93 6000 5.1 130 11:59 15.12.2019
6099 Drizzle 2 995 93 6000 5.1 130 11:38 15.12.2019
6100 Drizzle 2 995 93 6000 4.6 140 11:19 15.12.2019
6101 Drizzle 2 995 93 6000 4.6 140 11:19 15.12.2019
6102 Drizzle 2 995 93 6000 5.1 130 10:55 15.12.2019
6103 Drizzle 2 995 93 6000 5.1 130 10:37 15.12.2019
6104 Drizzle 2 995 100 6000 4.1 130 10:19 15.12.2019
6105 Rain 2 995 93 8000 4.6 130 09:56 15.12.2019
6106 Rain 2 995 93 8000 4.6 130 09:37 15.12.2019
6107 Rain 2 995 93 6000 4.1 130 09:18 15.12.2019
6108 Drizzle 2 995 93 5000 4.6 140 08:41 15.12.2019
6109 Drizzle 2 995 100 6000 4.6 140 08:22 15.12.2019
6110 Rain 2 995 100 6000 4.6 140 07:57 15.12.2019
6111 Rain 2 995 100 6000 4.6 140 07:37 15.12.2019
6112 Rain 2 995 93 5000 4.1 140 06:57 15.12.2019
6113 Rain 1 995 100 6000 4.1 140 06:23 15.12.2019
6114 Rain 1 995 100 6000 3.6 120 05:39 15.12.2019
6115 Rain 1 995 92 5000 3.6 120 05:19 15.12.2019
6116 Rain 1 996 92 2800 4.1 120 03:56 15.12.2019
6117 Rain 1 996 92 2200 4.1 110 02:35 15.12.2019
6118 Rain 1 996 86 5000 4.1 120 01:55 15.12.2019
6119 Rain 1 996 90 5000 4.1 120 01:37 15.12.2019
6120 Rain 1 996 100 5000 4.1 120 01:18 15.12.2019
6121 Rain 1 996 90 4500 4.6 120 00:42 15.12.2019
6122 Rain 1 997 90 5000 5.1 120 00:23 15.12.2019
6123 Rain 2 997 100 5000 4.6 120 23:40 14.12.2019
6124 Rain 2 997 93 6000 5.1 120 23:21 14.12.2019
6125 Rain 2 997 93 7000 6.7 130 22:58 14.12.2019
6126 Rain 2 997 93 7000 6.7 130 22:40 14.12.2019
6127 Rain 2 997 92 10000 6.7 140 22:21 14.12.2019
6128 Clouds 2 997 93 10000 5.7 140 21:56 14.12.2019
6129 Clouds 2 997 93 10000 5.7 140 21:38 14.12.2019
6130 Clouds 2 997 93 10000 7.2 140 21:19 14.12.2019
6131 Clouds 2 997 93 10000 7.2 140 21:19 14.12.2019
6132 Clouds 2 997 92 10000 6.2 140 20:57 14.12.2019
6133 Clouds 2 997 92 10000 6.2 140 20:38 14.12.2019
6134 Rain 2 997 83 10000 6.7 140 20:19 14.12.2019
6135 Clouds 2 997 83 10000 7.2 140 19:55 14.12.2019
6136 Clouds 2 997 83 10000 7.2 140 19:36 14.12.2019
6137 Clouds 2 997 83 10000 6.7 140 19:18 14.12.2019
6138 Clouds 2 997 83 10000 6.2 150 18:55 14.12.2019
6139 Clouds 2 997 83 10000 6.2 150 18:36 14.12.2019
6140 Clouds 2 997 83 10000 6.7 140 18:18 14.12.2019
6141 Clouds 2 997 83 10000 6.7 140 18:18 14.12.2019
6142 Clouds 2 997 83 10000 7.7 140 17:42 14.12.2019
6143 Clouds 2 997 91 10000 7.2 140 17:22 14.12.2019
6144 Clouds 2 998 91 10000 6.7 130 16:55 14.12.2019
6145 Clouds 2 998 91 10000 6.7 130 16:37 14.12.2019
6146 Clouds 2 998 91 10000 6.2 140 16:18 14.12.2019
6147 Clouds 2 998 91 10000 5.7 140 15:41 14.12.2019
6148 Snow 2 998 91 6000 5.7 140 15:20 14.12.2019
6149 Clouds 2 998 91 10000 5.1 130 14:57 14.12.2019
6150 Clouds 2 998 91 10000 5.1 130 14:38 14.12.2019
6151 Clouds 2 998 88 10000 5.1 120 14:19 14.12.2019
6152 Rain 2 998 88 10000 5.7 120 13:45 14.12.2019
6153 Rain 2 998 88 10000 6.7 120 13:20 14.12.2019
6154 Rain 2 998 89 10000 6.7 120 12:59 14.12.2019
6155 Clouds 2 998 88 10000 6.7 130 12:40 14.12.2019
6156 Clouds 2 998 89 10000 7.2 140 12:21 14.12.2019
6157 Clouds 2 998 88 10000 7.2 140 12:21 14.12.2019
6158 Clouds 2 998 89 10000 7.2 140 12:21 14.12.2019
6159 Clouds 2 998 88 10000 6.7 140 11:59 14.12.2019
6160 Clouds 2 998 88 10000 6.7 140 11:39 14.12.2019
6161 Drizzle 2 998 93 10000 5.7 130 11:20 14.12.2019
6162 Drizzle 2 998 93 9000 7.2 140 10:57 14.12.2019
6163 Drizzle 2 998 93 9000 7.2 140 10:39 14.12.2019
6164 Clouds 2 998 85 10000 6.7 150 10:21 14.12.2019
6165 Clouds 2 998 85 10000 6.7 150 09:57 14.12.2019
6166 Rain 2 998 93 10000 6.7 130 09:38 14.12.2019
6167 Clouds 2 998 93 10000 6.2 130 09:18 14.12.2019
6168 Clouds 1 998 85 8000 5.7 130 08:43 14.12.2019
6169 Rain 1 998 91 8000 5.7 130 08:20 14.12.2019
6170 Rain 1 998 91 6000 5.7 120 07:44 14.12.2019
6171 Rain 1 998 91 7000 6.2 130 07:23 14.12.2019
6172 Rain 1 998 91 7000 7.2 130 06:57 14.12.2019
6173 Rain 2 998 91 7000 7.2 130 06:37 14.12.2019
6174 Clouds 2 999 80 10000 6.7 130 05:59 14.12.2019
6175 Clouds 2 999 91 10000 4.6 120 04:47 14.12.2019
6176 Clouds 2 1000 91 9000 5.1 120 02:31 14.12.2019
6177 Clouds 2 1000 86 10000 5.7 130 01:56 14.12.2019
6178 Clouds 2 1000 86 10000 5.7 130 01:37 14.12.2019
6179 Snow 2 1000 85 10000 4.6 120 00:45 14.12.2019
6180 Clouds 2 1000 85 10000 5.1 130 00:27 14.12.2019
6181 Clouds 2 1001 85 10000 5.7 130 23:54 13.12.2019
6182 Clouds 2 1001 85 10000 5.7 130 23:36 13.12.2019
6183 Clouds 2 1001 88 10000 6.2 130 23:18 13.12.2019
6184 Clouds 2 1001 88 10000 5.7 130 22:40 13.12.2019
6185 Clouds 2 1001 88 10000 5.7 130 22:19 13.12.2019
6186 Clouds 2 1001 88 10000 4.6 120 21:56 13.12.2019
6187 Clouds 2 1001 88 10000 4.6 120 21:37 13.12.2019
6188 Clouds 2 1001 74 10000 5.1 130 21:19 13.12.2019
6189 Clouds 2 1001 74 10000 5.1 130 20:41 13.12.2019
6190 Clouds 2 1002 85 10000 5.7 140 20:22 13.12.2019
6191 Clouds 2 1002 85 10000 5.7 140 19:59 13.12.2019
6192 Clouds 2 1002 85 10000 5.7 140 19:40 13.12.2019
6193 Clouds 2 1002 85 10000 5.7 140 19:22 13.12.2019
6194 Rain 3 1002 86 10000 6.7 140 18:58 13.12.2019
6195 Drizzle 3 1002 86 10000 5.7 140 18:40 13.12.2019
6196 Drizzle 3 1002 86 10000 5.7 140 18:19 13.12.2019
6197 Drizzle 3 1002 93 10000 4.6 150 18:19 13.12.2019
6198 Drizzle 3 1002 93 8000 3.6 150 17:42 13.12.2019
6199 Drizzle 2 1002 93 8000 3.6 150 17:20 13.12.2019
6200 Clouds 2 1002 93 9000 2.1 110 16:59 13.12.2019
6201 Clouds 2 1002 96 10000 3.1 140 16:39 13.12.2019
6202 Clouds 2 1002 96 10000 3.1 140 16:20 13.12.2019
6203 Clouds 2 1002 96 10000 4.1 140 15:43 13.12.2019
6204 Clouds 2 1002 96 10000 4.1 140 15:23 13.12.2019
6205 Clouds 2 1002 86 10000 4.6 140 14:59 13.12.2019
6206 Clouds 2 1002 86 10000 4.6 140 14:41 13.12.2019
6207 Clouds 2 1002 86 10000 4.6 140 14:20 13.12.2019
6208 Clouds 3 1002 86 10000 4.1 140 13:57 13.12.2019
6209 Clouds 3 1002 86 10000 4.1 150 13:37 13.12.2019
6210 Clouds 3 1002 86 10000 4.1 150 13:19 13.12.2019
6211 Clouds 3 1002 86 10000 4.1 160 12:42 13.12.2019
6212 Clouds 3 1002 86 10000 4.1 160 12:20 13.12.2019
6213 Clouds 3 1002 86 10000 4.6 170 11:57 13.12.2019
6214 Clouds 3 1002 86 10000 4.6 170 11:57 13.12.2019
6215 Clouds 3 1002 86 10000 4.6 170 11:39 13.12.2019
6216 Clouds 3 1002 86 10000 4.6 170 11:39 13.12.2019
6217 Clouds 3 1002 86 10000 4.6 170 11:20 13.12.2019
6218 Clouds 3 1002 86 10000 5.1 170 10:42 13.12.2019
6219 Clouds 3 1002 86 10000 5.1 170 10:42 13.12.2019
6220 Clouds 3 1002 86 10000 5.1 170 10:23 13.12.2019
6221 Clouds 2 1002 86 10000 6.7 170 09:55 13.12.2019
6222 Clouds 2 1002 86 10000 5.1 170 09:36 13.12.2019
6223 Clouds 2 1002 86 10000 5.1 170 09:18 13.12.2019
6224 Clouds 2 1001 93 10000 5.1 180 08:41 13.12.2019
6225 Clouds 2 1001 93 10000 5.1 180 08:23 13.12.2019
6226 Drizzle 2 1001 93 9000 6.2 180 07:44 13.12.2019
6227 Drizzle 2 1001 93 8000 6.2 170 07:44 13.12.2019
6228 Drizzle 2 1001 93 8000 6.2 170 07:21 13.12.2019
6229 Drizzle 2 1001 93 8000 6.2 170 07:21 13.12.2019
6230 Rain 2 1001 93 9000 6.7 170 06:51 13.12.2019
6231 Rain 2 1001 93 8000 5.1 170 06:28 13.12.2019
6232 Rain 2 1001 83 7000 5.1 170 05:45 13.12.2019
6233 Drizzle 1 1001 86 6000 4.6 160 05:24 13.12.2019
6234 Clouds 1 1001 86 10000 5.7 170 04:35 13.12.2019
6235 Clouds 1 1001 80 10000 6.2 180 03:31 13.12.2019
6236 Clouds 1 1001 86 10000 6.2 170 02:32 13.12.2019
6237 Clouds 1 1001 86 10000 6.2 170 01:42 13.12.2019
6238 Clouds 1 1001 86 10000 5.7 170 00:53 13.12.2019
6239 Clouds 1 1001 86 10000 5.7 160 00:34 13.12.2019
6240 Clouds 1 1001 86 10000 5.7 160 23:57 12.12.2019
6241 Clouds 1 1001 86 10000 6.2 160 23:37 12.12.2019
6242 Clouds 1 1001 86 10000 6.2 160 23:19 12.12.2019
6243 Clouds 1 1002 83 10000 5.7 170 22:42 12.12.2019
6244 Clouds 1 1002 83 10000 5.7 170 22:23 12.12.2019
6245 Snow 1 1002 83 8000 5.1 160 21:57 12.12.2019
6246 Snow 1 1002 83 4000 5.1 170 21:39 12.12.2019
6247 Snow 1 1002 83 4000 5.1 170 21:20 12.12.2019
6248 Snow 1 1002 83 6000 5.1 170 20:59 12.12.2019
6249 Snow 1 1002 83 6000 4.6 160 20:41 12.12.2019
6250 Snow 0 1002 91 6000 4.6 160 20:23 12.12.2019
6251 Rain 1 1003 91 2200 5.7 160 19:59 12.12.2019
6252 Rain 1 1003 91 2500 5.1 160 19:41 12.12.2019
6253 Snow 0 1003 91 2500 5.1 160 19:21 12.12.2019
6254 Snow 0 1003 91 2500 5.1 150 18:58 12.12.2019
6255 Snow 1 1004 91 4000 5.7 140 18:39 12.12.2019
6256 Snow 1 1004 91 4000 5.7 140 18:20 12.12.2019
6257 Snow 1 1004 86 6000 5.7 140 17:57 12.12.2019
6258 Snow 1 1004 86 6000 5.7 140 17:57 12.12.2019
6259 Snow 1 1004 86 10000 6.2 150 17:39 12.12.2019
6260 Snow 1 1004 86 10000 6.2 150 17:20 12.12.2019
6261 Snow 1 1004 86 10000 6.2 150 17:20 12.12.2019
6262 Snow 1 1005 80 10000 6.7 150 16:57 12.12.2019
6263 Snow 1 1005 80 10000 6.2 140 16:38 12.12.2019
6264 Clouds 1 1006 80 10000 6.2 150 16:20 12.12.2019
6265 Clouds 1 1006 80 10000 6.2 150 15:54 12.12.2019
6266 Clouds 1 1006 80 10000 6.2 150 15:36 12.12.2019
6267 Clouds 1 1006 80 10000 6.2 150 15:18 12.12.2019
6268 Clouds 1 1006 86 10000 4.6 180 14:38 12.12.2019
6269 Clouds 1 1006 86 10000 4.6 180 14:38 12.12.2019
6270 Clouds 1 1006 86 10000 4.6 180 14:20 12.12.2019
6271 Clouds 1 1006 80 10000 6.2 170 13:57 12.12.2019
6272 Clouds 1 1007 80 10000 7.2 180 13:39 12.12.2019
6273 Clouds 1 1007 80 10000 7.2 180 13:21 12.12.2019
6274 Clouds 1 1007 74 10000 8.2 180 12:57 12.12.2019
6275 Clouds 1 1007 80 10000 7.7 180 12:39 12.12.2019
6276 Clouds 1 1007 80 10000 7.7 180 12:20 12.12.2019
6277 Clouds 1 1007 80 10000 6.7 180 11:56 12.12.2019
6278 Clouds 1 1007 80 10000 7.7 190 11:37 12.12.2019
6279 Clouds 1 1007 80 10000 7.7 190 11:19 12.12.2019
6280 Clouds 1 1008 74 10000 9.3 190 10:54 12.12.2019
6281 Clouds 1 1008 74 10000 8.7 180 10:36 12.12.2019
6282 Clouds 1 1008 74 10000 8.7 180 10:18 12.12.2019
6283 Clouds 1 1008 74 10000 8.7 180 10:18 12.12.2019
6284 Clouds 0 1008 81 10000 7.2 180 09:41 12.12.2019
6285 Clouds 1 1008 81 10000 7.2 180 09:23 12.12.2019
6286 Clouds 0 1008 80 10000 7.2 190 08:56 12.12.2019
6287 Clouds 0 1008 81 10000 7.2 180 08:38 12.12.2019
6288 Clouds 0 1008 76 10000 7.2 180 08:20 12.12.2019
6289 Clouds 0 1008 76 10000 8.2 180 07:43 12.12.2019
6290 Clouds 0 1008 76 10000 7.2 180 07:24 12.12.2019
6291 Clouds 1 1008 80 10000 6.7 180 06:50 12.12.2019
6292 Clouds 1 1008 86 10000 8.7 180 06:32 12.12.2019
6293 Clouds 1 1008 86 10000 7.7 180 05:39 12.12.2019
6294 Clouds 1 1008 86 10000 7.2 180 04:51 12.12.2019
6295 Clouds 1 1008 77 10000 7.2 180 03:24 12.12.2019
6296 Rain 2 1008 77 8000 6.7 180 02:38 12.12.2019
6297 Rain 1 1008 89 8000 6.7 180 02:19 12.12.2019
6298 Rain 2 1009 93 8000 6.2 180 01:37 12.12.2019
6299 Rain 2 1009 93 8000 6.2 180 01:19 12.12.2019
6300 Rain 2 1009 93 8000 6.7 180 00:46 12.12.2019
6301 Rain 2 1009 93 7000 6.2 180 00:19 12.12.2019
6302 Rain 2 1009 93 8000 6.7 180 23:44 11.12.2019
6303 Rain 2 1009 93 8000 6.7 180 23:21 11.12.2019
6304 Rain 2 1009 93 9000 6.2 180 22:57 11.12.2019
6305 Rain 2 1009 93 9000 6.7 180 22:38 11.12.2019
6306 Rain 2 1009 93 9000 6.7 180 22:20 11.12.2019
6307 Rain 2 1009 93 7000 8.2 180 21:57 11.12.2019
6308 Rain 2 1009 93 7000 8.2 180 21:57 11.12.2019
6309 Rain 2 1009 93 7000 7.7 180 21:38 11.12.2019
6310 Rain 2 1009 93 7000 7.7 180 21:19 11.12.2019
6311 Rain 2 1009 93 7000 7.7 180 21:19 11.12.2019
6312 Rain 2 1009 93 8000 8.2 180 20:56 11.12.2019
6313 Rain 2 1009 93 8000 8.2 180 20:56 11.12.2019
6314 Rain 2 1009 93 10000 8.2 180 20:37 11.12.2019
6315 Rain 2 1009 93 10000 8.2 180 20:37 11.12.2019
6316 Rain 2 1009 93 10000 8.2 180 20:37 11.12.2019
6317 Rain 2 1009 93 10000 8.2 180 20:19 11.12.2019
6318 Rain 2 1009 93 10000 8.2 180 20:19 11.12.2019
6319 Rain 2 1008 93 10000 7.7 180 19:57 11.12.2019
6320 Rain 2 1008 93 8000 10.3 190 19:38 11.12.2019
6321 Rain 2 1008 93 8000 10.3 190 19:18 11.12.2019
6322 Rain 2 1008 95 8000 7.7 180 18:40 11.12.2019
6323 Rain 1 1008 95 8000 7.7 180 18:21 11.12.2019
6324 Clouds 1 1008 95 8000 8.7 180 17:57 11.12.2019
6325 Clouds 1 1008 95 8000 8.7 180 17:57 11.12.2019
6326 Clouds 1 1009 95 7000 7.2 180 17:39 11.12.2019
6327 Clouds 1 1009 89 7000 7.2 180 17:18 11.12.2019
6328 Snow 1 1008 89 7000 8.2 180 16:57 11.12.2019
6329 Snow 1 1008 80 8000 9.8 180 16:38 11.12.2019
6330 Snow 1 1008 80 8000 9.8 180 16:38 11.12.2019
6331 Snow 1 1008 80 8000 9.8 180 16:38 11.12.2019
6332 Rain 1 1008 80 8000 9.8 180 16:20 11.12.2019
6333 Rain 1 1008 80 10000 9.8 180 15:59 11.12.2019
6334 Rain 2 1008 80 10000 9.8 180 15:39 11.12.2019
6335 Rain 2 1008 80 10000 9.8 180 15:20 11.12.2019
6336 Rain 2 1008 80 10000 10.3 180 14:56 11.12.2019
6337 Clouds 2 1008 80 10000 10.3 180 14:37 11.12.2019
6338 Clouds 2 1008 80 10000 10.3 180 14:37 11.12.2019
6339 Rain 2 1009 80 10000 10.8 180 14:19 11.12.2019
6340 Rain 2 1009 80 10000 10.8 180 13:54 11.12.2019
6341 Rain 2 1009 80 10000 8.7 180 13:36 11.12.2019
6342 Rain 2 1009 86 10000 8.7 170 13:18 11.12.2019
6343 Rain 1 1009 86 10000 8.7 170 12:54 11.12.2019
6344 Clouds 1 1010 86 10000 8.7 170 12:36 11.12.2019
6345 Clouds 1 1010 86 10000 8.7 170 12:36 11.12.2019
6346 Clouds 1 1010 86 10000 8.7 170 12:18 11.12.2019
6347 Clouds 1 1010 86 10000 10.3 170 11:54 11.12.2019
6348 Clouds 1 1011 80 10000 8.2 170 11:36 11.12.2019
6349 Clouds 1 1011 80 10000 8.2 170 11:18 11.12.2019
6350 Clouds 1 1012 86 10000 8.2 170 10:40 11.12.2019
6351 Clouds 1 1012 86 10000 8.2 170 10:22 11.12.2019
6352 Clouds 1 1012 86 10000 7.7 170 09:58 11.12.2019
6353 Clouds 0 1012 78 10000 8.2 170 09:38 11.12.2019
6354 Clouds 0 1012 86 10000 7.7 170 09:19 11.12.2019
6355 Clouds 0 1012 86 10000 7.7 170 08:56 11.12.2019
6356 Clouds 0 1013 78 10000 7.2 170 08:37 11.12.2019
6357 Clouds 0 1013 74 10000 7.2 170 08:18 11.12.2019
6358 Clouds 0 1013 74 10000 6.7 160 07:44 11.12.2019
6359 Clouds 0 1014 74 10000 5.1 170 07:24 11.12.2019
6360 Clouds 0 1014 74 10000 5.7 160 06:46 11.12.2019
6361 Clouds -1 1014 74 10000 5.7 160 06:25 11.12.2019
6362 Clouds -1 1015 92 10000 5.1 160 05:56 11.12.2019
6363 Clouds -1 1015 86 10000 4.6 160 05:35 11.12.2019
6364 Clouds -1 1015 86 10000 5.1 170 04:51 11.12.2019
6365 Clouds -2 1016 92 10000 4.1 150 03:37 11.12.2019
6366 Clouds -4 1016 100 10000 1 100 02:38 11.12.2019
6367 Clouds -6 1016 92 10000 1 0 01:22 11.12.2019
6368 Clouds -7 1016 92 10000 1.5 80 00:43 11.12.2019
6369 Clouds -7 1016 92 10000 1.5 80 00:43 11.12.2019
6370 Clouds -7 1017 92 10000 1.5 210 00:19 11.12.2019
6371 Clouds -7 1017 92 10000 1.5 210 23:46 10.12.2019
6372 Clouds -7 1017 92 10000 1.5 210 23:26 10.12.2019
6373 Clear -7 1017 92 10000 2.6 210 22:57 10.12.2019
6374 Clear -7 1016 100 10000 1.5 220 22:39 10.12.2019
6375 Clear -7 1016 92 10000 1 0 22:20 10.12.2019
6376 Clear -8 1016 92 10000 1 0 21:54 10.12.2019
6377 Clear -8 1016 92 10000 1 290 21:36 10.12.2019
6378 Clear -8 1016 92 10000 1 290 21:18 10.12.2019
6379 Clear -7 1015 100 10000 1 240 20:55 10.12.2019
6380 Clear -7 1015 100 10000 1.5 300 20:36 10.12.2019
6381 Clear -6 1015 100 10000 1.5 300 20:18 10.12.2019
6382 Clear -6 1015 100 10000 1.5 300 20:18 10.12.2019
6383 Clear -6 1015 92 10000 2.1 270 19:44 10.12.2019
6384 Clear -6 1015 92 10000 2.1 270 19:26 10.12.2019
6385 Clear -6 1014 92 10000 2.1 250 18:59 10.12.2019
6386 Clear -5 1014 92 10000 2.1 300 18:39 10.12.2019
6387 Clear -5 1014 92 10000 2.1 300 18:19 10.12.2019
6388 Clear -5 1014 92 10000 2.6 300 17:55 10.12.2019
6389 Clear -4 1013 92 10000 3.1 310 17:36 10.12.2019
6390 Clear -4 1013 92 10000 3.1 310 17:36 10.12.2019
6391 Clear -4 1013 92 10000 3.1 310 17:18 10.12.2019
6392 Clear -4 1013 92 10000 3.1 310 17:18 10.12.2019
6393 Clear -4 1013 92 10000 3.1 300 16:42 10.12.2019
6394 Clouds -4 1012 92 10000 2.6 310 16:20 10.12.2019
6395 Clouds -4 1012 92 10000 2.6 310 16:20 10.12.2019
6396 Clouds -3 1011 92 10000 3.6 330 15:54 10.12.2019
6397 Clouds -3 1011 86 10000 3.1 330 15:36 10.12.2019
6398 Clouds -3 1010 86 10000 2.1 340 15:18 10.12.2019
6399 Clouds -3 1010 86 10000 2.1 340 15:18 10.12.2019
6400 Clouds -3 1010 86 10000 2.1 340 14:42 10.12.2019
6401 Clouds -3 1010 86 10000 4.1 330 14:24 10.12.2019
6402 Clouds -3 1009 86 10000 3.6 340 13:59 10.12.2019
6403 Clouds -3 1008 86 10000 4.6 330 13:40 10.12.2019
6404 Clouds -3 1008 86 10000 4.6 330 13:20 10.12.2019
6405 Clouds -2 1008 86 10000 5.1 330 12:57 10.12.2019
6406 Clouds -2 1007 92 10000 3.6 310 12:38 10.12.2019
6407 Clouds -3 1007 92 10000 3.6 310 12:20 10.12.2019
6408 Clouds -2 1006 86 10000 5.1 330 11:41 10.12.2019
6409 Clouds -2 1006 86 10000 5.1 330 11:23 10.12.2019
6410 Clouds -2 1005 86 10000 6.2 330 10:55 10.12.2019
6411 Clouds -2 1005 86 10000 6.2 320 10:37 10.12.2019
6412 Clouds -2 1005 86 10000 6.2 320 10:18 10.12.2019
6413 Clouds -2 1004 92 10000 5.7 320 09:54 10.12.2019
6414 Clouds -2 1003 92 10000 4.6 320 09:36 10.12.2019
6415 Clouds -2 1002 92 10000 4.6 320 09:18 10.12.2019
6416 Clouds -2 1001 92 10000 5.1 320 08:41 10.12.2019
6417 Clouds -2 1001 92 10000 5.1 320 08:22 10.12.2019
6418 Rain -2 1000 92 10000 5.1 330 07:57 10.12.2019
6419 Rain -1 1000 86 10000 5.7 330 07:39 10.12.2019
6420 Rain -1 1000 86 10000 5.7 330 07:39 10.12.2019
6421 Rain -1 1000 86 10000 5.7 330 07:20 10.12.2019
6422 Snow -1 998 100 8000 5.1 330 06:46 10.12.2019
6423 Snow -1 998 100 8000 5.1 330 06:19 10.12.2019
6424 Snow -1 998 100 10000 3.6 340 06:19 10.12.2019
6425 Snow -1 998 100 10000 3.6 340 05:52 10.12.2019
6426 Clouds 0 996 96 10000 4.1 330 04:50 10.12.2019
6427 Snow 0 995 96 5000 2.1 350 03:31 10.12.2019
6428 Snow 0 994 96 2300 1.5 340 02:36 10.12.2019
6429 Snow 0 994 92 2000 2.6 330 01:42 10.12.2019
6430 Snow 1 993 90 5000 3.1 350 01:19 10.12.2019
6431 Snow 1 992 90 10000 1 0 00:38 10.12.2019
6432 Rain 1 992 90 10000 1 0 00:18 10.12.2019
6433 Rain 2 992 93 8000 3.6 310 23:40 09.12.2019
6434 Rain 2 992 93 8000 3.6 310 23:22 09.12.2019
6435 Rain 3 991 93 6000 3.1 280 22:57 09.12.2019
6436 Rain 3 990 93 10000 4.1 260 22:39 09.12.2019
6437 Rain 3 990 93 10000 4.1 260 22:18 09.12.2019
6438 Rain 3 990 93 8000 3.6 270 21:56 09.12.2019
6439 Rain 4 989 93 10000 5.7 240 21:38 09.12.2019
6440 Rain 4 989 93 10000 5.7 240 21:18 09.12.2019
6441 Clouds 4 988 93 10000 5.7 230 20:56 09.12.2019
6442 Rain 4 988 86 10000 5.7 220 20:37 09.12.2019
6443 Rain 5 988 86 10000 5.7 220 20:19 09.12.2019
6444 Clouds 5 987 86 10000 6.7 220 19:55 09.12.2019
6445 Rain 5 987 93 10000 7.2 220 19:37 09.12.2019
6446 Rain 5 987 93 10000 7.2 220 19:19 09.12.2019
6447 Rain 5 987 93 10000 3.6 220 18:55 09.12.2019
6448 Rain 5 986 93 10000 5.7 240 18:36 09.12.2019
6449 Rain 5 986 93 10000 5.7 240 18:18 09.12.2019
6450 Rain 5 986 93 10000 5.7 240 18:18 09.12.2019
6451 Rain 5 986 93 10000 5.7 230 17:56 09.12.2019
6452 Rain 5 985 93 10000 6.7 220 17:37 09.12.2019
6453 Rain 5 985 81 10000 6.7 220 17:18 09.12.2019
6454 Rain 5 985 81 10000 6.7 220 16:54 09.12.2019
6455 Rain 5 984 86 10000 6.7 220 16:36 09.12.2019
6456 Rain 5 984 86 10000 6.7 220 16:18 09.12.2019
6457 Clouds 5 984 86 10000 7.2 210 15:54 09.12.2019
6458 Rain 5 983 86 10000 6.7 210 15:36 09.12.2019
6459 Rain 5 983 86 10000 6.7 210 15:18 09.12.2019
6460 Clouds 5 982 86 10000 6.7 220 14:42 09.12.2019
6461 Clouds 5 982 86 10000 6.7 220 14:18 09.12.2019
6462 Clouds 5 982 80 10000 7.2 220 14:18 09.12.2019
6463 Clouds 5 982 80 10000 7.2 220 13:56 09.12.2019
6464 Clouds 5 981 81 10000 8.2 220 13:38 09.12.2019
6465 Clouds 5 981 81 10000 8.2 220 13:19 09.12.2019
6466 Clouds 5 981 81 10000 8.2 220 12:56 09.12.2019
6467 Clouds 5 981 81 10000 7.2 230 12:37 09.12.2019
6468 Clouds 5 981 81 10000 7.2 230 12:19 09.12.2019
6469 Clouds 5 980 81 10000 7.7 230 11:55 09.12.2019
6470 Clouds 5 980 81 10000 8.7 230 11:36 09.12.2019
6471 Clouds 5 980 81 10000 8.7 230 11:18 09.12.2019
6472 Rain 5 979 81 10000 8.2 230 10:40 09.12.2019
6473 Rain 5 979 81 10000 8.2 230 10:20 09.12.2019
6474 Clouds 5 979 81 10000 8.7 220 09:56 09.12.2019
6475 Rain 5 978 86 10000 9.8 220 09:38 09.12.2019
6476 Clouds 5 977 86 10000 8.7 220 09:20 09.12.2019
6477 Clouds 5 977 86 10000 7.2 210 08:42 09.12.2019
6478 Clouds 5 977 86 10000 7.2 210 08:24 09.12.2019
6479 Clouds 5 977 86 10000 8.7 220 07:56 09.12.2019
6480 Clouds 5 977 86 10000 9.3 220 07:37 09.12.2019
6481 Clouds 5 977 86 10000 9.3 220 07:19 09.12.2019
6482 Rain 5 976 86 10000 9.3 230 06:39 09.12.2019
6483 Rain 5 976 86 10000 9.3 230 06:21 09.12.2019
6484 Rain 5 976 81 10000 7.7 220 05:26 09.12.2019
6485 Clouds 6 976 81 10000 8.7 220 04:29 09.12.2019
6486 Clouds 6 975 87 10000 8.7 220 03:19 09.12.2019
6487 Clouds 6 975 93 10000 7.7 210 02:18 09.12.2019
6488 Rain 6 975 87 10000 9.3 210 01:40 09.12.2019
6489 Drizzle 6 974 87 9000 9.3 220 00:45 09.12.2019
6490 Drizzle 6 974 93 7000 10.3 210 00:24 09.12.2019
6491 Drizzle 6 974 100 7000 9.8 190 23:39 08.12.2019
6492 Drizzle 6 974 100 7000 9.8 190 23:21 08.12.2019
6493 Drizzle 6 974 93 6000 9.3 180 22:56 08.12.2019
6494 Drizzle 6 975 100 5000 8.2 180 22:38 08.12.2019
6495 Drizzle 5 975 93 5000 8.2 170 22:18 08.12.2019
6496 Drizzle 5 975 100 5000 8.2 180 22:18 08.12.2019
6497 Drizzle 5 975 93 5000 8.2 170 21:57 08.12.2019
6498 Drizzle 5 976 100 4500 8.2 170 21:39 08.12.2019
6499 Drizzle 5 976 100 4500 8.2 170 21:39 08.12.2019
6500 Drizzle 5 976 100 4500 8.2 170 21:19 08.12.2019
6501 Drizzle 4 977 93 5000 7.7 160 20:57 08.12.2019
6502 Drizzle 4 978 93 4500 8.2 150 20:38 08.12.2019
6503 Drizzle 3 978 93 4500 8.2 150 20:19 08.12.2019
6504 Drizzle 3 979 100 6000 8.7 160 19:57 08.12.2019
6505 Drizzle 3 979 100 6000 8.7 160 19:57 08.12.2019
6506 Rain 2 980 93 7000 7.7 150 19:39 08.12.2019
6507 Rain 2 980 93 7000 7.7 150 19:21 08.12.2019
6508 Rain 2 981 93 6000 7.2 140 18:55 08.12.2019
6509 Rain 2 982 93 6000 7.2 150 18:36 08.12.2019
6510 Rain 2 982 93 6000 7.2 150 18:18 08.12.2019
6511 Rain 2 983 93 7000 6.7 170 17:56 08.12.2019
6512 Rain 2 983 90 0 0.89 118 17:37 08.12.2019
6513 Rain 2 983 93 8000 7.2 180 17:19 08.12.2019
6514 Rain 2 984 86 7000 4.1 200 16:55 08.12.2019
6515 Rain 2 985 86 8000 5.7 170 16:37 08.12.2019
6516 Rain 2 985 86 8000 5.7 170 16:18 08.12.2019
6517 Clouds 2 986 86 10000 2.6 130 15:38 08.12.2019
6518 Clouds 1 986 86 10000 2.6 130 15:19 08.12.2019
6519 Clouds 1 986 86 10000 2.6 130 15:19 08.12.2019
6520 Clouds 2 986 86 10000 2.1 170 14:58 08.12.2019
6521 Rain 1 987 86 10000 3.6 210 14:39 08.12.2019
6522 Rain 1 987 86 10000 3.6 210 14:39 08.12.2019
6523 Clouds 1 987 74 10000 3.6 210 14:21 08.12.2019
6524 Clouds 1 987 74 10000 3.6 210 13:54 08.12.2019
6525 Clouds 1 987 86 10000 3.1 210 13:36 08.12.2019
6526 Clouds 1 987 86 10000 3.1 210 13:18 08.12.2019
6527 Clouds 1 988 86 10000 4.1 230 12:42 08.12.2019
6528 Clouds 1 988 86 10000 4.1 230 12:23 08.12.2019
6529 Clouds 1 988 86 10000 3.6 230 11:59 08.12.2019
6530 Clouds 1 988 86 10000 4.6 230 11:38 08.12.2019
6531 Clouds 1 988 86 10000 4.6 230 11:19 08.12.2019
6532 Clouds 1 989 86 10000 4.1 230 10:58 08.12.2019
6533 Clouds 1 988 80 10000 5.1 250 10:38 08.12.2019
6534 Clouds 1 988 80 10000 5.1 250 10:19 08.12.2019
6535 Clouds 1 988 80 10000 5.7 260 09:56 08.12.2019
6536 Clouds 1 988 86 10000 6.2 260 09:37 08.12.2019
6537 Clouds 1 988 86 10000 6.2 260 09:19 08.12.2019
6538 Clouds 1 988 80 10000 5.7 250 08:57 08.12.2019
6539 Clouds 1 988 80 10000 5.1 250 08:36 08.12.2019
6540 Clouds 1 988 80 10000 5.1 250 08:18 08.12.2019
6541 Clouds 1 987 86 10000 5.1 260 07:41 08.12.2019
6542 Clouds 1 987 86 10000 6.2 260 07:19 08.12.2019
6543 Clouds 1 987 86 10000 5.1 260 06:43 08.12.2019
6544 Clouds 1 987 86 10000 5.1 260 06:21 08.12.2019
6545 Clouds 1 986 86 10000 6.2 270 05:35 08.12.2019
6546 Clouds 1 985 86 10000 5.7 280 04:58 08.12.2019
6547 Clouds 2 984 77 10000 7.7 280 03:47 08.12.2019
6548 Clouds 2 984 77 10000 7.7 280 03:20 08.12.2019
6549 Clouds 2 983 93 10000 6.7 280 02:28 08.12.2019
6550 Drizzle 2 983 93 10000 6.7 280 01:48 08.12.2019
6551 Clouds 2 982 85 10000 7.2 290 00:59 08.12.2019
6552 Clouds 2 981 93 10000 6.7 290 00:38 08.12.2019
6553 Clouds 2 981 93 10000 6.7 290 00:19 08.12.2019
6554 Clouds 2 980 93 10000 6.7 300 23:40 07.12.2019
6555 Clouds 2 980 93 10000 6.7 300 23:40 07.12.2019
6556 Clouds 2 980 93 10000 6.7 300 23:20 07.12.2019
6557 Drizzle 2 980 93 8000 6.7 300 22:56 07.12.2019
6558 Drizzle 2 980 93 8000 7.7 290 22:38 07.12.2019
6559 Clouds 2 981 94 0 8.95 271 22:19 07.12.2019
6560 Drizzle 2 980 93 8000 7.7 290 22:19 07.12.2019
6561 Drizzle 3 979 100 10000 4.6 230 21:56 07.12.2019
6562 Drizzle 3 979 100 10000 4.1 210 21:38 07.12.2019
6563 Drizzle 4 979 100 10000 4.1 210 21:19 07.12.2019
6564 Drizzle 4 979 93 10000 5.1 220 20:54 07.12.2019
6565 Drizzle 4 979 93 10000 5.7 220 20:36 07.12.2019
6566 Drizzle 4 979 93 10000 5.7 220 20:18 07.12.2019
6567 Drizzle 5 979 87 10000 7.2 220 19:55 07.12.2019
6568 Drizzle 5 979 93 10000 7.2 220 19:36 07.12.2019
6569 Drizzle 5 979 93 10000 7.2 220 19:18 07.12.2019
6570 Drizzle 6 979 100 5000 6.2 200 18:43 07.12.2019
6571 Drizzle 6 980 100 4500 6.7 190 18:19 07.12.2019
6572 Drizzle 6 980 100 4000 7.2 190 17:57 07.12.2019
6573 Drizzle 6 980 100 4000 8.7 190 17:38 07.12.2019
6574 Drizzle 6 980 100 4000 8.7 190 17:20 07.12.2019
6575 Drizzle 6 981 100 4000 9.3 190 16:56 07.12.2019
6576 Drizzle 6 981 100 3500 8.7 190 16:37 07.12.2019
6577 Drizzle 6 981 100 3500 8.7 190 16:18 07.12.2019
6578 Drizzle 6 982 93 2500 8.2 190 15:42 07.12.2019
6579 Drizzle 6 982 93 2500 8.2 190 15:23 07.12.2019
6580 Drizzle 6 982 93 2500 9.3 190 14:57 07.12.2019
6581 Drizzle 6 982 93 2500 8.2 190 14:39 07.12.2019
6582 Drizzle 6 982 93 2500 8.2 190 14:18 07.12.2019
6583 Rain 6 983 93 2500 9.8 190 13:41 07.12.2019
6584 Drizzle 6 983 93 3500 8.7 190 13:21 07.12.2019
6585 Drizzle 6 984 93 2200 9.8 190 12:56 07.12.2019
6586 Drizzle 6 984 93 2800 9.3 190 12:38 07.12.2019
6587 Drizzle 6 984 93 2800 9.3 190 12:20 07.12.2019
6588 Drizzle 6 985 93 2300 10.3 190 11:56 07.12.2019
6589 Drizzle 6 985 93 2800 10.8 190 11:37 07.12.2019
6590 Drizzle 6 986 93 2400 10.3 190 11:19 07.12.2019
6591 Drizzle 6 986 93 3000 10.8 190 10:37 07.12.2019
6592 Drizzle 6 986 93 3000 10.8 190 10:19 07.12.2019
6593 Drizzle 6 986 93 3000 10.8 190 10:19 07.12.2019
6594 Drizzle 6 986 93 2400 10.8 190 09:41 07.12.2019
6595 Drizzle 6 987 100 2500 9.3 180 09:22 07.12.2019
6596 Drizzle 6 987 100 3500 8.7 180 08:47 07.12.2019
6597 Rain 6 987 100 4000 9.3 180 08:27 07.12.2019
6598 Rain 6 988 93 4500 6.7 180 07:58 07.12.2019
6599 Drizzle 6 988 100 4000 4.1 170 07:39 07.12.2019
6600 Drizzle 6 988 100 4000 4.1 170 07:21 07.12.2019
6601 Drizzle 6 988 100 4000 4.1 170 07:21 07.12.2019
6602 Drizzle 5 989 100 3500 2.6 110 06:45 07.12.2019
6603 Drizzle 4 989 100 3500 2.6 110 06:24 07.12.2019
6604 Clouds 3 990 93 10000 1 0 04:52 07.12.2019
6605 Clouds 3 990 100 10000 0.5 250 03:54 07.12.2019
6606 Clouds 3 991 93 10000 3.6 210 02:56 07.12.2019
6607 Clouds 4 991 93 10000 3.6 220 02:21 07.12.2019
6608 Clouds 4 990 86 10000 4.1 230 01:31 07.12.2019
6609 Clouds 4 990 86 10000 4.6 240 00:52 07.12.2019
6610 Drizzle 4 990 93 7000 4.6 240 00:19 07.12.2019
6611 Clouds 5 989 93 10000 4.1 230 23:47 06.12.2019
6612 Clouds 5 989 93 10000 4.1 250 23:24 06.12.2019
6613 Clouds 5 989 93 10000 4.6 240 22:58 06.12.2019
6614 Drizzle 5 989 93 10000 4.6 230 22:37 06.12.2019
6615 Drizzle 5 989 93 10000 4.6 230 22:19 06.12.2019
6616 Drizzle 5 988 93 7000 3.1 240 21:56 06.12.2019
6617 Drizzle 5 988 93 10000 3.6 230 21:38 06.12.2019
6618 Drizzle 5 988 93 10000 3.6 230 21:19 06.12.2019
6619 Drizzle 5 988 93 10000 4.1 230 20:42 06.12.2019
6620 Drizzle 5 988 93 10000 4.6 220 20:22 06.12.2019
6621 Drizzle 5 987 93 10000 3.6 230 19:57 06.12.2019
6622 Drizzle 5 987 93 10000 3.6 230 19:57 06.12.2019
6623 Clouds 5 987 93 10000 3.6 220 19:39 06.12.2019
6624 Clouds 5 987 93 10000 3.6 220 19:21 06.12.2019
6625 Drizzle 5 987 100 10000 3.6 220 18:45 06.12.2019
6626 Drizzle 5 987 100 10000 3.6 220 18:23 06.12.2019
6627 Clouds 5 986 100 10000 4.1 220 17:58 06.12.2019
6628 Clouds 5 986 100 10000 3.1 220 17:40 06.12.2019
6629 Clouds 5 986 100 10000 3.1 220 17:22 06.12.2019
6630 Clouds 5 986 100 10000 3.1 240 16:59 06.12.2019
6631 Drizzle 5 986 100 6000 3.1 230 16:40 06.12.2019
6632 Drizzle 5 986 100 6000 3.1 230 16:21 06.12.2019
6633 Drizzle 5 985 100 10000 3.1 210 15:56 06.12.2019
6634 Clouds 5 985 93 10000 3.6 210 15:38 06.12.2019
6635 Clouds 5 985 93 10000 3.6 210 15:38 06.12.2019
6636 Clouds 5 985 93 10000 3.6 210 15:18 06.12.2019
6637 Clouds 5 985 93 10000 3.6 210 15:18 06.12.2019
6638 Drizzle 4 985 93 10000 3.1 200 14:41 06.12.2019
6639 Drizzle 4 985 93 10000 3.1 200 14:20 06.12.2019
6640 Clouds 5 985 93 10000 3.6 210 13:58 06.12.2019
6641 Clouds 5 985 93 10000 4.1 210 13:40 06.12.2019
6642 Clouds 5 985 93 10000 4.1 210 13:21 06.12.2019
6643 Rain 5 985 93 10000 4.6 220 12:41 06.12.2019
6644 Rain 4 985 93 10000 4.6 220 12:22 06.12.2019
6645 Rain 4 986 86 10000 6.2 220 11:43 06.12.2019
6646 Rain 4 986 86 10000 6.2 220 11:24 06.12.2019
6647 Rain 4 986 86 10000 6.2 220 11:24 06.12.2019
6648 Rain 4 986 93 10000 5.7 210 10:59 06.12.2019
6649 Rain 4 986 93 10000 5.7 210 10:59 06.12.2019
6650 Rain 4 986 93 10000 6.7 220 10:40 06.12.2019
6651 Rain 4 986 93 10000 6.7 220 10:21 06.12.2019
6652 Rain 4 986 100 8000 5.7 220 09:56 06.12.2019
6653 Rain 4 987 93 8000 5.1 220 09:37 06.12.2019
6654 Rain 4 987 93 8000 5.1 220 09:19 06.12.2019
6655 Rain 4 987 86 10000 5.7 210 08:44 06.12.2019
6656 Rain 4 987 86 10000 5.7 210 08:44 06.12.2019
6657 Rain 3 987 86 10000 5.7 210 08:25 06.12.2019
6658 Rain 3 987 93 10000 7.7 220 07:44 06.12.2019
6659 Rain 3 987 93 10000 7.7 220 07:23 06.12.2019
6660 Rain 3 987 93 10000 7.7 220 07:23 06.12.2019
6661 Rain 3 987 93 10000 7.7 220 07:23 06.12.2019
6662 Rain 3 987 93 10000 7.7 220 07:23 06.12.2019
6663 Rain 3 987 93 10000 7.7 220 07:23 06.12.2019
6664 Rain 3 988 93 10000 6.7 220 06:53 06.12.2019
6665 Rain 3 988 93 10000 6.2 220 06:26 06.12.2019
6666 Rain 3 988 87 10000 7.2 220 05:51 06.12.2019
6667 Clouds 4 990 81 10000 7.2 230 03:57 06.12.2019
6668 Clouds 5 991 93 10000 6.7 230 01:48 06.12.2019
6669 Clouds 5 991 93 10000 6.7 230 01:48 06.12.2019
6670 Rain 6 991 81 10000 7.2 230 00:57 06.12.2019
6671 Rain 6 992 81 10000 8.2 240 00:37 06.12.2019
6672 Rain 5 992 81 10000 8.2 240 00:19 06.12.2019
6673 Clouds 6 992 75 10000 7.7 240 23:21 05.12.2019
6674 Clouds 6 992 75 10000 8.2 240 22:59 05.12.2019
6675 Clouds 6 992 70 10000 8.7 230 22:39 05.12.2019
6676 Clouds 6 992 70 10000 8.7 230 22:20 05.12.2019
6677 Clouds 6 992 70 10000 8.7 230 22:20 05.12.2019
6678 Clouds 6 993 70 10000 9.3 230 22:20 05.12.2019
6679 Clouds 6 993 70 10000 9.3 230 21:58 05.12.2019
6680 Clouds 6 993 70 10000 8.7 230 21:40 05.12.2019
6681 Clouds 6 993 70 10000 8.7 230 21:22 05.12.2019
6682 Clouds 6 993 70 10000 9.3 230 20:58 05.12.2019
6683 Clouds 6 993 70 10000 9.3 230 20:40 05.12.2019
6684 Clouds 6 993 75 10000 8.7 230 20:19 05.12.2019
6685 Clouds 6 993 75 10000 8.7 230 20:19 05.12.2019
6686 Clouds 6 994 70 10000 8.7 230 19:43 05.12.2019
6687 Clouds 6 994 70 10000 8.7 230 19:25 05.12.2019
6688 Clouds 6 994 75 10000 7.7 230 18:59 05.12.2019
6689 Clouds 6 994 75 10000 7.7 230 18:39 05.12.2019
6690 Clouds 6 994 75 10000 7.7 230 18:21 05.12.2019
6691 Clouds 6 994 75 10000 7.7 230 17:59 05.12.2019
6692 Clouds 6 994 75 10000 7.7 230 17:38 05.12.2019
6693 Clouds 6 995 75 10000 8.2 230 17:19 05.12.2019
6694 Clouds 6 995 75 10000 7.7 230 16:55 05.12.2019
6695 Clouds 6 995 75 10000 7.7 230 16:37 05.12.2019
6696 Clouds 6 995 75 10000 8.7 240 16:18 05.12.2019
6697 Clouds 6 995 70 10000 9.3 230 15:55 05.12.2019
6698 Clouds 6 995 70 10000 9.3 230 15:36 05.12.2019
6699 Clouds 6 995 81 10000 7.7 230 15:18 05.12.2019
6700 Clouds 6 995 75 10000 8.7 230 14:54 05.12.2019
6701 Clouds 6 995 75 10000 8.7 230 14:36 05.12.2019
6702 Clouds 6 996 81 10000 7.7 230 14:18 05.12.2019
6703 Clouds 6 996 81 10000 7.7 230 13:54 05.12.2019
6704 Clouds 6 996 81 10000 8.2 220 13:36 05.12.2019
6705 Clouds 6 997 81 10000 8.2 220 13:18 05.12.2019
6706 Clouds 6 997 81 10000 7.7 220 12:41 05.12.2019
6707 Clouds 6 998 81 10000 6.7 230 12:23 05.12.2019
6708 Clouds 6 998 81 10000 7.7 240 11:56 05.12.2019
6709 Clouds 6 998 81 10000 7.7 240 11:38 05.12.2019
6710 Clouds 6 998 81 10000 7.2 230 11:19 05.12.2019
6711 Clouds 6 999 81 10000 6.7 230 10:55 05.12.2019
6712 Clouds 6 999 81 10000 6.7 230 10:55 05.12.2019
6713 Clouds 6 999 81 10000 6.7 230 10:37 05.12.2019
6714 Clouds 5 999 86 10000 6.2 230 10:18 05.12.2019
6715 Clouds 5 999 86 10000 6.2 230 10:18 05.12.2019
6716 Clouds 5 1000 86 10000 7.2 240